<?xml version='1.0' encoding='UTF-8'?><gpx version="1.1" creator="JPX - https://github.com/jenetics/jpx" xmlns="http://www.topografix.com/GPX/1/1"><trk><trkseg><trkpt lat="45.7179457" lon="9.8766425"><ele>345.0</ele><time>2026-03-22T08:11:59.096Z</time></trkpt><trkpt lat="45.7179633" lon="9.876774"><ele>345.0</ele><time>2026-03-22T08:12:06.102Z</time></trkpt><trkpt lat="45.7180308" lon="9.8767615"><ele>345.0</ele><time>2026-03-22T08:12:13.099Z</time></trkpt><trkpt lat="45.7180031" lon="9.8768501"><ele>345.0</ele><time>2026-03-22T08:12:36.965Z</time></trkpt><trkpt lat="45.7179729" lon="9.8769555"><ele>345.0</ele><time>2026-03-22T08:12:39.969Z</time></trkpt><trkpt lat="45.7179704" lon="9.8770898"><ele>345.0</ele><time>2026-03-22T08:12:42.96Z</time></trkpt><trkpt lat="45.717951" lon="9.8771868"><ele>345.5</ele><time>2026-03-22T08:12:44.964Z</time></trkpt><trkpt lat="45.717899" lon="9.8772925"><ele>346.0</ele><time>2026-03-22T08:12:46.961Z</time></trkpt><trkpt lat="45.7178675" lon="9.8773888"><ele>346.5</ele><time>2026-03-22T08:12:49.035Z</time></trkpt><trkpt lat="45.7178042" lon="9.8774821"><ele>347.0</ele><time>2026-03-22T08:12:51.943Z</time></trkpt><trkpt lat="45.7177467" lon="9.8775952"><ele>347.5</ele><time>2026-03-22T08:12:53.951Z</time></trkpt><trkpt lat="45.717706" lon="9.877665"><ele>348.0</ele><time>2026-03-22T08:12:54.953Z</time></trkpt><trkpt lat="45.7176611" lon="9.8777367"><ele>345.1666666666667</ele><time>2026-03-22T08:12:55.952Z</time></trkpt><trkpt lat="45.7176148" lon="9.8778107"><ele>342.3333333333333</ele><time>2026-03-22T08:12:57.038Z</time></trkpt><trkpt lat="45.7175712" lon="9.8778938"><ele>339.5</ele><time>2026-03-22T08:12:57.958Z</time></trkpt><trkpt lat="45.7175275" lon="9.8779757"><ele>336.66666666666663</ele><time>2026-03-22T08:12:58.96Z</time></trkpt><trkpt lat="45.7174843" lon="9.878059"><ele>333.8333333333333</ele><time>2026-03-22T08:12:59.977Z</time></trkpt><trkpt lat="45.7174344" lon="9.8781452"><ele>331.0</ele><time>2026-03-22T08:13:01.036Z</time></trkpt><trkpt lat="45.7173785" lon="9.8782404"><ele>331.0</ele><time>2026-03-22T08:13:02.031Z</time></trkpt><trkpt lat="45.7173297" lon="9.8783318"><ele>331.0</ele><time>2026-03-22T08:13:02.965Z</time></trkpt><trkpt lat="45.7172842" lon="9.87843"><ele>331.0</ele><time>2026-03-22T08:13:03.962Z</time></trkpt><trkpt lat="45.7172423" lon="9.8785321"><ele>331.0</ele><time>2026-03-22T08:13:04.973Z</time></trkpt><trkpt lat="45.7172068" lon="9.8786289"><ele>331.0</ele><time>2026-03-22T08:13:06.07Z</time></trkpt><trkpt lat="45.7171715" lon="9.8787296"><ele>331.0</ele><time>2026-03-22T08:13:07.027Z</time></trkpt><trkpt lat="45.7171417" lon="9.8788262"><ele>331.5</ele><time>2026-03-22T08:13:07.961Z</time></trkpt><trkpt lat="45.7171111" lon="9.8789228"><ele>332.0</ele><time>2026-03-22T08:13:09.038Z</time></trkpt><trkpt lat="45.7170716" lon="9.8790169"><ele>332.5</ele><time>2026-03-22T08:13:10.029Z</time></trkpt><trkpt lat="45.7170392" lon="9.8791261"><ele>333.0</ele><time>2026-03-22T08:13:11.041Z</time></trkpt><trkpt lat="45.7170079" lon="9.8792391"><ele>333.5</ele><time>2026-03-22T08:13:11.95Z</time></trkpt><trkpt lat="45.7169757" lon="9.8793433"><ele>334.0</ele><time>2026-03-22T08:13:12.964Z</time></trkpt><trkpt lat="45.7169366" lon="9.879438"><ele>331.7142857142857</ele><time>2026-03-22T08:13:14.028Z</time></trkpt><trkpt lat="45.7168894" lon="9.8795244"><ele>329.42857142857144</ele><time>2026-03-22T08:13:15.036Z</time></trkpt><trkpt lat="45.7168484" lon="9.8795992"><ele>327.1428571428571</ele><time>2026-03-22T08:13:15.962Z</time></trkpt><trkpt lat="45.7168049" lon="9.8796782"><ele>324.8571428571429</ele><time>2026-03-22T08:13:17.034Z</time></trkpt><trkpt lat="45.7167681" lon="9.8797618"><ele>322.5714285714286</ele><time>2026-03-22T08:13:17.961Z</time></trkpt><trkpt lat="45.7167425" lon="9.8798541"><ele>320.2857142857143</ele><time>2026-03-22T08:13:18.959Z</time></trkpt><trkpt lat="45.7167167" lon="9.8799575"><ele>318.0</ele><time>2026-03-22T08:13:19.987Z</time></trkpt><trkpt lat="45.7166857" lon="9.8800523"><ele>318.0</ele><time>2026-03-22T08:13:20.963Z</time></trkpt><trkpt lat="45.7166554" lon="9.8801378"><ele>318.0</ele><time>2026-03-22T08:13:22.053Z</time></trkpt><trkpt lat="45.7166155" lon="9.8802555"><ele>318.0</ele><time>2026-03-22T08:13:23.972Z</time></trkpt><trkpt lat="45.7166364" lon="9.8803748"><ele>318.0</ele><time>2026-03-22T08:13:25.953Z</time></trkpt><trkpt lat="45.7166627" lon="9.8805022"><ele>318.0</ele><time>2026-03-22T08:13:27.972Z</time></trkpt><trkpt lat="45.7166838" lon="9.8806322"><ele>318.0</ele><time>2026-03-22T08:13:29.992Z</time></trkpt><trkpt lat="45.7167169" lon="9.8807794"><ele>318.0</ele><time>2026-03-22T08:13:31.959Z</time></trkpt><trkpt lat="45.7167342" lon="9.880925"><ele>318.0</ele><time>2026-03-22T08:13:33.968Z</time></trkpt><trkpt lat="45.7167492" lon="9.8810636"><ele>318.0</ele><time>2026-03-22T08:13:35.989Z</time></trkpt><trkpt lat="45.7167633" lon="9.8812144"><ele>318.0</ele><time>2026-03-22T08:13:37.972Z</time></trkpt><trkpt lat="45.716787" lon="9.8813807"><ele>318.0</ele><time>2026-03-22T08:13:39.967Z</time></trkpt><trkpt lat="45.716805" lon="9.881546"><ele>317.25</ele><time>2026-03-22T08:13:41.964Z</time></trkpt><trkpt lat="45.7168216" lon="9.881718"><ele>316.5</ele><time>2026-03-22T08:13:43.97Z</time></trkpt><trkpt lat="45.7168393" lon="9.8818799"><ele>315.75</ele><time>2026-03-22T08:13:45.969Z</time></trkpt><trkpt lat="45.7168512" lon="9.882049"><ele>315.0</ele><time>2026-03-22T08:13:47.955Z</time></trkpt><trkpt lat="45.7168611" lon="9.8822131"><ele>314.2</ele><time>2026-03-22T08:13:49.973Z</time></trkpt><trkpt lat="45.716887" lon="9.8823576"><ele>313.4</ele><time>2026-03-22T08:13:52.038Z</time></trkpt><trkpt lat="45.716917" lon="9.8825013"><ele>312.6</ele><time>2026-03-22T08:13:54.036Z</time></trkpt><trkpt lat="45.7169504" lon="9.8826555"><ele>311.8</ele><time>2026-03-22T08:13:55.949Z</time></trkpt><trkpt lat="45.7169951" lon="9.8828016"><ele>311.0</ele><time>2026-03-22T08:13:57.955Z</time></trkpt><trkpt lat="45.7170437" lon="9.8829416"><ele>311.6</ele><time>2026-03-22T08:13:59.947Z</time></trkpt><trkpt lat="45.7171028" lon="9.8830778"><ele>312.20000000000005</ele><time>2026-03-22T08:14:02.032Z</time></trkpt><trkpt lat="45.7171703" lon="9.8831965"><ele>312.79999999999995</ele><time>2026-03-22T08:14:03.97Z</time></trkpt><trkpt lat="45.7172405" lon="9.8833177"><ele>313.4</ele><time>2026-03-22T08:14:05.999Z</time></trkpt><trkpt lat="45.7172859" lon="9.8834476"><ele>314.0</ele><time>2026-03-22T08:14:07.962Z</time></trkpt><trkpt lat="45.7173169" lon="9.8835795"><ele>314.0</ele><time>2026-03-22T08:14:10.033Z</time></trkpt><trkpt lat="45.7173255" lon="9.8837279"><ele>314.0</ele><time>2026-03-22T08:14:11.961Z</time></trkpt><trkpt lat="45.7173319" lon="9.8838806"><ele>314.0</ele><time>2026-03-22T08:14:13.955Z</time></trkpt><trkpt lat="45.7173494" lon="9.8840466"><ele>314.0</ele><time>2026-03-22T08:14:15.964Z</time></trkpt><trkpt lat="45.7173485" lon="9.8842075"><ele>314.0</ele><time>2026-03-22T08:14:17.949Z</time></trkpt><trkpt lat="45.7173631" lon="9.884372"><ele>311.75</ele><time>2026-03-22T08:14:20.037Z</time></trkpt><trkpt lat="45.7174051" lon="9.8845218"><ele>309.5</ele><time>2026-03-22T08:14:21.963Z</time></trkpt><trkpt lat="45.7174721" lon="9.884655"><ele>307.25</ele><time>2026-03-22T08:14:23.966Z</time></trkpt><trkpt lat="45.7175632" lon="9.8847701"><ele>305.0</ele><time>2026-03-22T08:14:26.032Z</time></trkpt><trkpt lat="45.7176576" lon="9.8848523"><ele>305.6</ele><time>2026-03-22T08:14:27.961Z</time></trkpt><trkpt lat="45.7177525" lon="9.8849382"><ele>306.2</ele><time>2026-03-22T08:14:30.004Z</time></trkpt><trkpt lat="45.7178358" lon="9.8850243"><ele>306.8</ele><time>2026-03-22T08:14:31.963Z</time></trkpt><trkpt lat="45.7179152" lon="9.8851311"><ele>307.4</ele><time>2026-03-22T08:14:33.974Z</time></trkpt><trkpt lat="45.7179901" lon="9.8852529"><ele>308.0</ele><time>2026-03-22T08:14:36.024Z</time></trkpt><trkpt lat="45.7180566" lon="9.8853707"><ele>308.0</ele><time>2026-03-22T08:14:37.946Z</time></trkpt><trkpt lat="45.7180936" lon="9.8854438"><ele>308.0</ele><time>2026-03-22T08:14:38.946Z</time></trkpt><trkpt lat="45.7181343" lon="9.8855233"><ele>308.0</ele><time>2026-03-22T08:14:39.945Z</time></trkpt><trkpt lat="45.7181726" lon="9.8856065"><ele>308.0</ele><time>2026-03-22T08:14:40.954Z</time></trkpt><trkpt lat="45.7182338" lon="9.8857269"><ele>308.0</ele><time>2026-03-22T08:14:42.951Z</time></trkpt><trkpt lat="45.7182835" lon="9.8858404"><ele>308.0</ele><time>2026-03-22T08:14:45.039Z</time></trkpt><trkpt lat="45.7183424" lon="9.8859665"><ele>307.4</ele><time>2026-03-22T08:14:47.028Z</time></trkpt><trkpt lat="45.7183866" lon="9.8861155"><ele>306.8</ele><time>2026-03-22T08:14:48.969Z</time></trkpt><trkpt lat="45.7184105" lon="9.8861996"><ele>306.2</ele><time>2026-03-22T08:14:50.078Z</time></trkpt><trkpt lat="45.7184365" lon="9.8863657"><ele>305.6</ele><time>2026-03-22T08:14:52.025Z</time></trkpt><trkpt lat="45.7184643" lon="9.8865414"><ele>305.0</ele><time>2026-03-22T08:14:53.963Z</time></trkpt><trkpt lat="45.7184862" lon="9.8867201"><ele>303.33333333333337</ele><time>2026-03-22T08:14:56.033Z</time></trkpt><trkpt lat="45.7184995" lon="9.8868208"><ele>301.6666666666667</ele><time>2026-03-22T08:14:57.047Z</time></trkpt><trkpt lat="45.7185089" lon="9.8869181"><ele>300.0</ele><time>2026-03-22T08:14:57.964Z</time></trkpt><trkpt lat="45.7185091" lon="9.8870222"><ele>298.3333333333333</ele><time>2026-03-22T08:14:58.946Z</time></trkpt><trkpt lat="45.7184987" lon="9.8871329"><ele>296.66666666666663</ele><time>2026-03-22T08:14:59.96Z</time></trkpt><trkpt lat="45.7184763" lon="9.8872448"><ele>295.0</ele><time>2026-03-22T08:15:01.035Z</time></trkpt><trkpt lat="45.7184454" lon="9.8873501"><ele>295.0</ele><time>2026-03-22T08:15:01.958Z</time></trkpt><trkpt lat="45.7184093" lon="9.8874532"><ele>295.0</ele><time>2026-03-22T08:15:02.963Z</time></trkpt><trkpt lat="45.7183778" lon="9.8875659"><ele>295.0</ele><time>2026-03-22T08:15:03.954Z</time></trkpt><trkpt lat="45.718356" lon="9.8876889"><ele>295.0</ele><time>2026-03-22T08:15:04.959Z</time></trkpt><trkpt lat="45.7183501" lon="9.8878162"><ele>295.0</ele><time>2026-03-22T08:15:05.958Z</time></trkpt><trkpt lat="45.7183677" lon="9.8879457"><ele>295.0</ele><time>2026-03-22T08:15:07.033Z</time></trkpt><trkpt lat="45.7184041" lon="9.8880635"><ele>295.0</ele><time>2026-03-22T08:15:07.944Z</time></trkpt><trkpt lat="45.7184499" lon="9.888183"><ele>295.0</ele><time>2026-03-22T08:15:08.951Z</time></trkpt><trkpt lat="45.7184972" lon="9.8883035"><ele>295.0</ele><time>2026-03-22T08:15:09.954Z</time></trkpt><trkpt lat="45.7185434" lon="9.8884293"><ele>295.0</ele><time>2026-03-22T08:15:10.95Z</time></trkpt><trkpt lat="45.7185917" lon="9.8885612"><ele>295.0</ele><time>2026-03-22T08:15:11.948Z</time></trkpt><trkpt lat="45.7186503" lon="9.8886841"><ele>295.0</ele><time>2026-03-22T08:15:12.949Z</time></trkpt><trkpt lat="45.7187218" lon="9.8887752"><ele>295.0</ele><time>2026-03-22T08:15:13.949Z</time></trkpt><trkpt lat="45.7187987" lon="9.8888436"><ele>295.0</ele><time>2026-03-22T08:15:14.946Z</time></trkpt><trkpt lat="45.7188877" lon="9.8888901"><ele>295.0</ele><time>2026-03-22T08:15:16.036Z</time></trkpt><trkpt lat="45.718972" lon="9.8889264"><ele>295.0</ele><time>2026-03-22T08:15:17.038Z</time></trkpt><trkpt lat="45.7190459" lon="9.8889544"><ele>295.0</ele><time>2026-03-22T08:15:17.94Z</time></trkpt><trkpt lat="45.7191107" lon="9.8889908"><ele>295.0</ele><time>2026-03-22T08:15:18.956Z</time></trkpt><trkpt lat="45.7191683" lon="9.8891026"><ele>295.0</ele><time>2026-03-22T08:15:21.032Z</time></trkpt><trkpt lat="45.7190997" lon="9.889234"><ele>295.0</ele><time>2026-03-22T08:15:22.965Z</time></trkpt><trkpt lat="45.7190252" lon="9.8892357"><ele>295.0</ele><time>2026-03-22T08:15:25.972Z</time></trkpt><trkpt lat="45.7189572" lon="9.8892178"><ele>295.0</ele><time>2026-03-22T08:15:27.962Z</time></trkpt><trkpt lat="45.7188646" lon="9.8892475"><ele>294.4</ele><time>2026-03-22T08:15:29.953Z</time></trkpt><trkpt lat="45.7187742" lon="9.8893098"><ele>293.8</ele><time>2026-03-22T08:15:31.983Z</time></trkpt><trkpt lat="45.7187345" lon="9.8893807"><ele>293.2</ele><time>2026-03-22T08:15:32.967Z</time></trkpt><trkpt lat="45.7186938" lon="9.8895329"><ele>292.6</ele><time>2026-03-22T08:15:34.959Z</time></trkpt><trkpt lat="45.7186537" lon="9.8896879"><ele>292.0</ele><time>2026-03-22T08:15:36.966Z</time></trkpt><trkpt lat="45.7185853" lon="9.8898151"><ele>291.66666666666663</ele><time>2026-03-22T08:15:38.956Z</time></trkpt><trkpt lat="45.7185078" lon="9.8899383"><ele>291.3333333333333</ele><time>2026-03-22T08:15:40.97Z</time></trkpt><trkpt lat="45.718435" lon="9.8900505"><ele>291.0</ele><time>2026-03-22T08:15:42.965Z</time></trkpt><trkpt lat="45.7183614" lon="9.8901161"><ele>290.6666666666667</ele><time>2026-03-22T08:15:44.966Z</time></trkpt><trkpt lat="45.7183106" lon="9.8901883"><ele>290.33333333333337</ele><time>2026-03-22T08:15:46.968Z</time></trkpt><trkpt lat="45.7182838" lon="9.8902779"><ele>290.0</ele><time>2026-03-22T08:15:48.968Z</time></trkpt><trkpt lat="45.7182481" lon="9.8903637"><ele>290.0</ele><time>2026-03-22T08:15:50.97Z</time></trkpt><trkpt lat="45.7182155" lon="9.890453"><ele>290.0</ele><time>2026-03-22T08:15:52.965Z</time></trkpt><trkpt lat="45.7181867" lon="9.8905648"><ele>290.0</ele><time>2026-03-22T08:15:54.967Z</time></trkpt><trkpt lat="45.7181776" lon="9.8906824"><ele>290.0</ele><time>2026-03-22T08:15:56.966Z</time></trkpt><trkpt lat="45.7181704" lon="9.8907838"><ele>290.0</ele><time>2026-03-22T08:15:58.951Z</time></trkpt><trkpt lat="45.7181753" lon="9.8908791"><ele>290.0</ele><time>2026-03-22T08:16:00.964Z</time></trkpt><trkpt lat="45.718183" lon="9.8909752"><ele>290.0</ele><time>2026-03-22T08:16:02.981Z</time></trkpt><trkpt lat="45.7181939" lon="9.8910802"><ele>290.33333333333337</ele><time>2026-03-22T08:16:04.966Z</time></trkpt><trkpt lat="45.7181704" lon="9.8911843"><ele>290.6666666666667</ele><time>2026-03-22T08:16:06.974Z</time></trkpt><trkpt lat="45.7181135" lon="9.8912565"><ele>291.0</ele><time>2026-03-22T08:16:08.968Z</time></trkpt><trkpt lat="45.7180419" lon="9.8913177"><ele>291.3333333333333</ele><time>2026-03-22T08:16:10.966Z</time></trkpt><trkpt lat="45.7179782" lon="9.8913699"><ele>291.66666666666663</ele><time>2026-03-22T08:16:12.968Z</time></trkpt><trkpt lat="45.7179126" lon="9.8914509"><ele>292.0</ele><time>2026-03-22T08:16:14.972Z</time></trkpt><trkpt lat="45.7178376" lon="9.8915336"><ele>292.0</ele><time>2026-03-22T08:16:16.969Z</time></trkpt><trkpt lat="45.7177673" lon="9.8916181"><ele>292.0</ele><time>2026-03-22T08:16:18.97Z</time></trkpt><trkpt lat="45.7177116" lon="9.8916792"><ele>292.0</ele><time>2026-03-22T08:16:20.97Z</time></trkpt><trkpt lat="45.7176326" lon="9.8917083"><ele>292.0</ele><time>2026-03-22T08:16:23.968Z</time></trkpt><trkpt lat="45.7175483" lon="9.8917285"><ele>292.0</ele><time>2026-03-22T08:16:27.045Z</time></trkpt><trkpt lat="45.717485" lon="9.8917095"><ele>292.0</ele><time>2026-03-22T08:16:28.961Z</time></trkpt><trkpt lat="45.7174257" lon="9.8916608"><ele>292.8333333333333</ele><time>2026-03-22T08:16:30.963Z</time></trkpt><trkpt lat="45.7173646" lon="9.8915822"><ele>293.66666666666663</ele><time>2026-03-22T08:16:33.968Z</time></trkpt><trkpt lat="45.7173107" lon="9.8914877"><ele>294.5</ele><time>2026-03-22T08:16:37.034Z</time></trkpt><trkpt lat="45.717255" lon="9.8914085"><ele>295.3333333333333</ele><time>2026-03-22T08:16:40.035Z</time></trkpt><trkpt lat="45.7171959" lon="9.8913342"><ele>296.1666666666667</ele><time>2026-03-22T08:16:42.968Z</time></trkpt><trkpt lat="45.71711" lon="9.8913078"><ele>297.0</ele><time>2026-03-22T08:16:45.972Z</time></trkpt><trkpt lat="45.7170206" lon="9.8913014"><ele>297.0</ele><time>2026-03-22T08:16:48.968Z</time></trkpt><trkpt lat="45.7169427" lon="9.8913134"><ele>297.0</ele><time>2026-03-22T08:16:52.033Z</time></trkpt><trkpt lat="45.7168538" lon="9.891329"><ele>297.0</ele><time>2026-03-22T08:16:54.963Z</time></trkpt><trkpt lat="45.716773" lon="9.8913125"><ele>297.0</ele><time>2026-03-22T08:16:57.961Z</time></trkpt><trkpt lat="45.716705" lon="9.8912305"><ele>297.0</ele><time>2026-03-22T08:17:00.971Z</time></trkpt><trkpt lat="45.7166588" lon="9.8911629"><ele>297.0</ele><time>2026-03-22T08:17:02.966Z</time></trkpt><trkpt lat="45.7166164" lon="9.8910533"><ele>298.6666666666667</ele><time>2026-03-22T08:17:05.962Z</time></trkpt><trkpt lat="45.7165822" lon="9.8909452"><ele>300.3333333333333</ele><time>2026-03-22T08:17:08.956Z</time></trkpt><trkpt lat="45.7165405" lon="9.890835"><ele>302.0</ele><time>2026-03-22T08:17:11.972Z</time></trkpt><trkpt lat="45.7165096" lon="9.8907327"><ele>303.66666666666663</ele><time>2026-03-22T08:17:14.961Z</time></trkpt><trkpt lat="45.716458" lon="9.8906517"><ele>305.3333333333333</ele><time>2026-03-22T08:17:17.959Z</time></trkpt><trkpt lat="45.7164016" lon="9.8905989"><ele>307.0</ele><time>2026-03-22T08:17:20.96Z</time></trkpt><trkpt lat="45.7163156" lon="9.89058"><ele>307.0</ele><time>2026-03-22T08:17:23.961Z</time></trkpt><trkpt lat="45.7162501" lon="9.8905887"><ele>307.0</ele><time>2026-03-22T08:17:25.981Z</time></trkpt><trkpt lat="45.7161473" lon="9.8905851"><ele>307.0</ele><time>2026-03-22T08:17:28.955Z</time></trkpt><trkpt lat="45.7160784" lon="9.8905891"><ele>307.0</ele><time>2026-03-22T08:17:30.964Z</time></trkpt><trkpt lat="45.7160148" lon="9.890605"><ele>307.0</ele><time>2026-03-22T08:17:32.957Z</time></trkpt><trkpt lat="45.7159287" lon="9.8906073"><ele>307.0</ele><time>2026-03-22T08:17:35.961Z</time></trkpt><trkpt lat="45.7158405" lon="9.8906088"><ele>310.16666666666663</ele><time>2026-03-22T08:17:38.965Z</time></trkpt><trkpt lat="45.7157343" lon="9.8906141"><ele>313.3333333333333</ele><time>2026-03-22T08:17:42.965Z</time></trkpt><trkpt lat="45.7156563" lon="9.8906045"><ele>316.5</ele><time>2026-03-22T08:17:45.961Z</time></trkpt><trkpt lat="45.7155728" lon="9.8905819"><ele>319.6666666666667</ele><time>2026-03-22T08:17:48.974Z</time></trkpt><trkpt lat="45.715493" lon="9.8905767"><ele>322.83333333333337</ele><time>2026-03-22T08:17:51.968Z</time></trkpt><trkpt lat="45.715405" lon="9.8905637"><ele>326.0</ele><time>2026-03-22T08:17:54.984Z</time></trkpt><trkpt lat="45.7153274" lon="9.890545"><ele>326.0</ele><time>2026-03-22T08:17:57.968Z</time></trkpt><trkpt lat="45.7152556" lon="9.8905097"><ele>326.0</ele><time>2026-03-22T08:18:01.037Z</time></trkpt><trkpt lat="45.7151784" lon="9.890476"><ele>326.0</ele><time>2026-03-22T08:18:03.956Z</time></trkpt><trkpt lat="45.7150951" lon="9.8904292"><ele>326.0</ele><time>2026-03-22T08:18:07.963Z</time></trkpt><trkpt lat="45.7150364" lon="9.8903811"><ele>326.0</ele><time>2026-03-22T08:18:10.959Z</time></trkpt><trkpt lat="45.7149676" lon="9.8903634"><ele>326.0</ele><time>2026-03-22T08:18:13.965Z</time></trkpt><trkpt lat="45.7148864" lon="9.8903908"><ele>329.0</ele><time>2026-03-22T08:18:16.96Z</time></trkpt><trkpt lat="45.7148064" lon="9.8904393"><ele>332.0</ele><time>2026-03-22T08:18:20.956Z</time></trkpt><trkpt lat="45.7147499" lon="9.8904825"><ele>335.0</ele><time>2026-03-22T08:18:23.957Z</time></trkpt><trkpt lat="45.7146827" lon="9.8905507"><ele>338.0</ele><time>2026-03-22T08:18:27.96Z</time></trkpt><trkpt lat="45.7146204" lon="9.890601"><ele>341.0</ele><time>2026-03-22T08:18:31.036Z</time></trkpt><trkpt lat="45.7145287" lon="9.8906444"><ele>344.0</ele><time>2026-03-22T08:18:33.965Z</time></trkpt><trkpt lat="45.7144527" lon="9.8906845"><ele>344.33333333333337</ele><time>2026-03-22T08:18:35.964Z</time></trkpt><trkpt lat="45.7143983" lon="9.8907551"><ele>344.6666666666667</ele><time>2026-03-22T08:18:36.962Z</time></trkpt><trkpt lat="45.7143544" lon="9.8908229"><ele>345.0</ele><time>2026-03-22T08:18:37.969Z</time></trkpt><trkpt lat="45.7142824" lon="9.8909211"><ele>345.3333333333333</ele><time>2026-03-22T08:18:39.964Z</time></trkpt><trkpt lat="45.7142191" lon="9.8910125"><ele>345.66666666666663</ele><time>2026-03-22T08:18:42.024Z</time></trkpt><trkpt lat="45.7141366" lon="9.8910813"><ele>346.0</ele><time>2026-03-22T08:18:44.966Z</time></trkpt><trkpt lat="45.7140603" lon="9.8910912"><ele>346.0</ele><time>2026-03-22T08:18:46.964Z</time></trkpt><trkpt lat="45.7139786" lon="9.891121"><ele>346.0</ele><time>2026-03-22T08:18:49.032Z</time></trkpt><trkpt lat="45.7138946" lon="9.8911641"><ele>346.0</ele><time>2026-03-22T08:18:50.964Z</time></trkpt><trkpt lat="45.7138107" lon="9.8912013"><ele>346.0</ele><time>2026-03-22T08:18:52.955Z</time></trkpt><trkpt lat="45.7137348" lon="9.8912684"><ele>346.0</ele><time>2026-03-22T08:18:54.97Z</time></trkpt><trkpt lat="45.7136777" lon="9.8913719"><ele>346.0</ele><time>2026-03-22T08:18:56.968Z</time></trkpt><trkpt lat="45.7136503" lon="9.8914699"><ele>346.0</ele><time>2026-03-22T08:18:58.969Z</time></trkpt><trkpt lat="45.7136257" lon="9.8915895"><ele>346.0</ele><time>2026-03-22T08:19:00.996Z</time></trkpt><trkpt lat="45.7136073" lon="9.8916948"><ele>346.0</ele><time>2026-03-22T08:19:02.961Z</time></trkpt><trkpt lat="45.713575" lon="9.8917915"><ele>346.0</ele><time>2026-03-22T08:19:04.969Z</time></trkpt><trkpt lat="45.7135334" lon="9.8919058"><ele>346.0</ele><time>2026-03-22T08:19:06.96Z</time></trkpt><trkpt lat="45.7134865" lon="9.8919745"><ele>346.0</ele><time>2026-03-22T08:19:08.964Z</time></trkpt><trkpt lat="45.7134048" lon="9.8920695"><ele>345.8333333333333</ele><time>2026-03-22T08:19:11.962Z</time></trkpt><trkpt lat="45.713342" lon="9.8921381"><ele>345.66666666666663</ele><time>2026-03-22T08:19:13.962Z</time></trkpt><trkpt lat="45.7132679" lon="9.8922225"><ele>345.5</ele><time>2026-03-22T08:19:15.982Z</time></trkpt><trkpt lat="45.7132045" lon="9.8923506"><ele>345.3333333333333</ele><time>2026-03-22T08:19:17.967Z</time></trkpt><trkpt lat="45.7131819" lon="9.8924496"><ele>345.1666666666667</ele><time>2026-03-22T08:19:18.964Z</time></trkpt><trkpt lat="45.7131504" lon="9.8925408"><ele>345.0</ele><time>2026-03-22T08:19:19.962Z</time></trkpt><trkpt lat="45.7131229" lon="9.8926372"><ele>346.6666666666667</ele><time>2026-03-22T08:19:20.964Z</time></trkpt><trkpt lat="45.7130923" lon="9.8927389"><ele>348.3333333333333</ele><time>2026-03-22T08:19:21.979Z</time></trkpt><trkpt lat="45.7130644" lon="9.8928344"><ele>350.0</ele><time>2026-03-22T08:19:22.964Z</time></trkpt><trkpt lat="45.713057" lon="9.892926"><ele>351.66666666666663</ele><time>2026-03-22T08:19:23.956Z</time></trkpt><trkpt lat="45.7130545" lon="9.8930292"><ele>353.3333333333333</ele><time>2026-03-22T08:19:24.966Z</time></trkpt><trkpt lat="45.7130027" lon="9.8931478"><ele>355.0</ele><time>2026-03-22T08:19:26.963Z</time></trkpt><trkpt lat="45.7129659" lon="9.8932269"><ele>355.0</ele><time>2026-03-22T08:19:28.966Z</time></trkpt><trkpt lat="45.7129003" lon="9.8932351"><ele>355.0</ele><time>2026-03-22T08:19:31.972Z</time></trkpt><trkpt lat="45.7129168" lon="9.8931115"><ele>355.0</ele><time>2026-03-22T08:19:34.966Z</time></trkpt><trkpt lat="45.712904" lon="9.8930066"><ele>355.0</ele><time>2026-03-22T08:19:36.97Z</time></trkpt><trkpt lat="45.7128866" lon="9.8929154"><ele>355.0</ele><time>2026-03-22T08:19:38.966Z</time></trkpt><trkpt lat="45.7128644" lon="9.8928248"><ele>355.0</ele><time>2026-03-22T08:19:40.969Z</time></trkpt><trkpt lat="45.7128429" lon="9.8927126"><ele>355.0</ele><time>2026-03-22T08:19:42.962Z</time></trkpt><trkpt lat="45.7128273" lon="9.892597"><ele>353.0</ele><time>2026-03-22T08:19:44.964Z</time></trkpt><trkpt lat="45.7128157" lon="9.8924856"><ele>351.0</ele><time>2026-03-22T08:19:46.966Z</time></trkpt><trkpt lat="45.7128154" lon="9.8923526"><ele>349.0</ele><time>2026-03-22T08:19:48.95Z</time></trkpt><trkpt lat="45.7127821" lon="9.8922008"><ele>347.0</ele><time>2026-03-22T08:19:50.965Z</time></trkpt><trkpt lat="45.7127584" lon="9.8920774"><ele>345.0</ele><time>2026-03-22T08:19:52.961Z</time></trkpt><trkpt lat="45.7127647" lon="9.8919573"><ele>345.0</ele><time>2026-03-22T08:19:54.971Z</time></trkpt><trkpt lat="45.7127653" lon="9.8918476"><ele>345.0</ele><time>2026-03-22T08:19:56.967Z</time></trkpt><trkpt lat="45.7127708" lon="9.8917436"><ele>345.0</ele><time>2026-03-22T08:19:58.965Z</time></trkpt><trkpt lat="45.7127764" lon="9.8916511"><ele>345.0</ele><time>2026-03-22T08:20:00.963Z</time></trkpt><trkpt lat="45.7127898" lon="9.8915426"><ele>345.0</ele><time>2026-03-22T08:20:02.962Z</time></trkpt><trkpt lat="45.7128243" lon="9.891388"><ele>345.0</ele><time>2026-03-22T08:20:04.952Z</time></trkpt><trkpt lat="45.712821" lon="9.8912929"><ele>343.3333333333333</ele><time>2026-03-22T08:20:05.964Z</time></trkpt><trkpt lat="45.7128295" lon="9.8911967"><ele>341.6666666666667</ele><time>2026-03-22T08:20:06.969Z</time></trkpt><trkpt lat="45.7128317" lon="9.8911047"><ele>340.0</ele><time>2026-03-22T08:20:07.963Z</time></trkpt><trkpt lat="45.7128483" lon="9.8909493"><ele>338.33333333333337</ele><time>2026-03-22T08:20:09.958Z</time></trkpt><trkpt lat="45.7128895" lon="9.8908337"><ele>336.6666666666667</ele><time>2026-03-22T08:20:11.967Z</time></trkpt><trkpt lat="45.7129387" lon="9.8906845"><ele>335.0</ele><time>2026-03-22T08:20:13.97Z</time></trkpt><trkpt lat="45.7129585" lon="9.8905975"><ele>333.83333333333337</ele><time>2026-03-22T08:20:14.965Z</time></trkpt><trkpt lat="45.7129705" lon="9.890503"><ele>332.6666666666667</ele><time>2026-03-22T08:20:15.966Z</time></trkpt><trkpt lat="45.7129825" lon="9.8904075"><ele>331.5</ele><time>2026-03-22T08:20:16.967Z</time></trkpt><trkpt lat="45.7129905" lon="9.8903163"><ele>330.3333333333333</ele><time>2026-03-22T08:20:17.963Z</time></trkpt><trkpt lat="45.713005" lon="9.8901727"><ele>329.16666666666663</ele><time>2026-03-22T08:20:19.97Z</time></trkpt><trkpt lat="45.7130616" lon="9.8900922"><ele>328.0</ele><time>2026-03-22T08:20:21.963Z</time></trkpt><trkpt lat="45.7131248" lon="9.8899282"><ele>327.0</ele><time>2026-03-22T08:20:23.966Z</time></trkpt><trkpt lat="45.7131464" lon="9.8898314"><ele>326.0</ele><time>2026-03-22T08:20:24.961Z</time></trkpt><trkpt lat="45.7131607" lon="9.8896626"><ele>325.0</ele><time>2026-03-22T08:20:26.966Z</time></trkpt><trkpt lat="45.7131436" lon="9.8895634"><ele>324.0</ele><time>2026-03-22T08:20:27.968Z</time></trkpt><trkpt lat="45.7131123" lon="9.8893863"><ele>323.0</ele><time>2026-03-22T08:20:29.966Z</time></trkpt><trkpt lat="45.7131006" lon="9.8892948"><ele>322.83333333333337</ele><time>2026-03-22T08:20:30.967Z</time></trkpt><trkpt lat="45.7130874" lon="9.8892024"><ele>322.6666666666667</ele><time>2026-03-22T08:20:31.964Z</time></trkpt><trkpt lat="45.7130989" lon="9.8891125"><ele>322.5</ele><time>2026-03-22T08:20:32.973Z</time></trkpt><trkpt lat="45.7131663" lon="9.888983"><ele>322.3333333333333</ele><time>2026-03-22T08:20:34.969Z</time></trkpt><trkpt lat="45.7132195" lon="9.8888349"><ele>322.16666666666663</ele><time>2026-03-22T08:20:36.964Z</time></trkpt><trkpt lat="45.7132212" lon="9.888742"><ele>322.0</ele><time>2026-03-22T08:20:37.97Z</time></trkpt><trkpt lat="45.713209" lon="9.888571"><ele>321.40000000000003</ele><time>2026-03-22T08:20:39.969Z</time></trkpt><trkpt lat="45.713197" lon="9.8884164"><ele>320.8</ele><time>2026-03-22T08:20:41.971Z</time></trkpt><trkpt lat="45.7131777" lon="9.8882743"><ele>320.2</ele><time>2026-03-22T08:20:43.964Z</time></trkpt><trkpt lat="45.7131498" lon="9.8881203"><ele>319.6</ele><time>2026-03-22T08:20:45.968Z</time></trkpt><trkpt lat="45.7131015" lon="9.8879712"><ele>319.0</ele><time>2026-03-22T08:20:47.966Z</time></trkpt><trkpt lat="45.7130688" lon="9.8878397"><ele>319.0</ele><time>2026-03-22T08:20:49.968Z</time></trkpt><trkpt lat="45.713045" lon="9.8877076"><ele>319.0</ele><time>2026-03-22T08:20:51.967Z</time></trkpt><trkpt lat="45.7130325" lon="9.8875505"><ele>319.0</ele><time>2026-03-22T08:20:53.965Z</time></trkpt><trkpt lat="45.7130296" lon="9.8874013"><ele>319.0</ele><time>2026-03-22T08:20:55.968Z</time></trkpt><trkpt lat="45.7130335" lon="9.8872604"><ele>319.0</ele><time>2026-03-22T08:20:57.964Z</time></trkpt><trkpt lat="45.7130615" lon="9.8871391"><ele>319.0</ele><time>2026-03-22T08:20:59.968Z</time></trkpt><trkpt lat="45.713121" lon="9.8870543"><ele>319.0</ele><time>2026-03-22T08:21:01.972Z</time></trkpt><trkpt lat="45.71317" lon="9.886967"><ele>319.0</ele><time>2026-03-22T08:21:03.974Z</time></trkpt><trkpt lat="45.7132153" lon="9.8868327"><ele>319.0</ele><time>2026-03-22T08:21:05.956Z</time></trkpt><trkpt lat="45.7132204" lon="9.8867419"><ele>319.0</ele><time>2026-03-22T08:21:06.962Z</time></trkpt><trkpt lat="45.7131733" lon="9.8866186"><ele>319.0</ele><time>2026-03-22T08:21:08.956Z</time></trkpt><trkpt lat="45.7130962" lon="9.8865071"><ele>318.2</ele><time>2026-03-22T08:21:10.968Z</time></trkpt><trkpt lat="45.7130196" lon="9.8863985"><ele>317.4</ele><time>2026-03-22T08:21:12.965Z</time></trkpt><trkpt lat="45.7129566" lon="9.8863053"><ele>316.6</ele><time>2026-03-22T08:21:14.967Z</time></trkpt><trkpt lat="45.7129134" lon="9.8861929"><ele>315.8</ele><time>2026-03-22T08:21:16.967Z</time></trkpt><trkpt lat="45.7128788" lon="9.8860762"><ele>315.0</ele><time>2026-03-22T08:21:18.972Z</time></trkpt><trkpt lat="45.7128522" lon="9.8859619"><ele>314.6</ele><time>2026-03-22T08:21:20.974Z</time></trkpt><trkpt lat="45.7128373" lon="9.8858587"><ele>314.2</ele><time>2026-03-22T08:21:22.965Z</time></trkpt><trkpt lat="45.7128124" lon="9.8857305"><ele>313.8</ele><time>2026-03-22T08:21:24.958Z</time></trkpt><trkpt lat="45.7127784" lon="9.8855995"><ele>313.4</ele><time>2026-03-22T08:21:26.968Z</time></trkpt><trkpt lat="45.7127336" lon="9.8854656"><ele>313.0</ele><time>2026-03-22T08:21:28.967Z</time></trkpt><trkpt lat="45.7127001" lon="9.8853413"><ele>316.66666666666663</ele><time>2026-03-22T08:21:30.966Z</time></trkpt><trkpt lat="45.7126664" lon="9.8852086"><ele>320.3333333333333</ele><time>2026-03-22T08:21:32.973Z</time></trkpt><trkpt lat="45.7126182" lon="9.8851025"><ele>324.0</ele><time>2026-03-22T08:21:34.966Z</time></trkpt><trkpt lat="45.7125662" lon="9.8850121"><ele>327.6666666666667</ele><time>2026-03-22T08:21:36.964Z</time></trkpt><trkpt lat="45.7125207" lon="9.8849243"><ele>331.33333333333337</ele><time>2026-03-22T08:21:38.954Z</time></trkpt><trkpt lat="45.71247" lon="9.8848285"><ele>335.0</ele><time>2026-03-22T08:21:40.959Z</time></trkpt><trkpt lat="45.7124178" lon="9.8847366"><ele>335.0</ele><time>2026-03-22T08:21:42.954Z</time></trkpt><trkpt lat="45.7123861" lon="9.8846284"><ele>335.0</ele><time>2026-03-22T08:21:44.97Z</time></trkpt><trkpt lat="45.7123586" lon="9.8845145"><ele>335.0</ele><time>2026-03-22T08:21:46.966Z</time></trkpt><trkpt lat="45.7123101" lon="9.8843905"><ele>335.0</ele><time>2026-03-22T08:21:48.97Z</time></trkpt><trkpt lat="45.71225" lon="9.884269"><ele>335.0</ele><time>2026-03-22T08:21:50.971Z</time></trkpt><trkpt lat="45.712194" lon="9.8841519"><ele>331.5</ele><time>2026-03-22T08:21:52.968Z</time></trkpt><trkpt lat="45.7121266" lon="9.884027"><ele>328.0</ele><time>2026-03-22T08:21:54.977Z</time></trkpt><trkpt lat="45.7120876" lon="9.8839473"><ele>324.5</ele><time>2026-03-22T08:21:55.968Z</time></trkpt><trkpt lat="45.7120518" lon="9.8838713"><ele>321.0</ele><time>2026-03-22T08:21:56.972Z</time></trkpt><trkpt lat="45.7119728" lon="9.8837218"><ele>317.5</ele><time>2026-03-22T08:21:58.968Z</time></trkpt><trkpt lat="45.7119338" lon="9.8836392"><ele>314.0</ele><time>2026-03-22T08:21:59.968Z</time></trkpt><trkpt lat="45.71185" lon="9.8835034"><ele>314.83333333333337</ele><time>2026-03-22T08:22:01.966Z</time></trkpt><trkpt lat="45.711794" lon="9.8834261"><ele>315.6666666666667</ele><time>2026-03-22T08:22:02.957Z</time></trkpt><trkpt lat="45.7117325" lon="9.8833607"><ele>316.5</ele><time>2026-03-22T08:22:03.966Z</time></trkpt><trkpt lat="45.7116738" lon="9.8833113"><ele>317.3333333333333</ele><time>2026-03-22T08:22:04.969Z</time></trkpt><trkpt lat="45.7115628" lon="9.8832345"><ele>318.16666666666663</ele><time>2026-03-22T08:22:06.962Z</time></trkpt><trkpt lat="45.7115063" lon="9.8831933"><ele>319.0</ele><time>2026-03-22T08:22:07.967Z</time></trkpt><trkpt lat="45.7113982" lon="9.8831268"><ele>319.0</ele><time>2026-03-22T08:22:09.966Z</time></trkpt><trkpt lat="45.7113355" lon="9.883084"><ele>319.0</ele><time>2026-03-22T08:22:10.969Z</time></trkpt><trkpt lat="45.7112749" lon="9.8830455"><ele>319.0</ele><time>2026-03-22T08:22:11.966Z</time></trkpt><trkpt lat="45.7112174" lon="9.8830034"><ele>319.0</ele><time>2026-03-22T08:22:12.963Z</time></trkpt><trkpt lat="45.7111568" lon="9.8829781"><ele>319.0</ele><time>2026-03-22T08:22:13.965Z</time></trkpt><trkpt lat="45.7110941" lon="9.8829455"><ele>319.0</ele><time>2026-03-22T08:22:14.972Z</time></trkpt><trkpt lat="45.710992" lon="9.8828724"><ele>319.0</ele><time>2026-03-22T08:22:16.965Z</time></trkpt><trkpt lat="45.7108977" lon="9.8828047"><ele>318.4</ele><time>2026-03-22T08:22:18.965Z</time></trkpt><trkpt lat="45.7108106" lon="9.8827369"><ele>317.79999999999995</ele><time>2026-03-22T08:22:20.953Z</time></trkpt><trkpt lat="45.7107009" lon="9.8826849"><ele>317.20000000000005</ele><time>2026-03-22T08:22:22.969Z</time></trkpt><trkpt lat="45.7105925" lon="9.8826488"><ele>316.6</ele><time>2026-03-22T08:22:24.962Z</time></trkpt><trkpt lat="45.7104948" lon="9.8826064"><ele>316.0</ele><time>2026-03-22T08:22:26.969Z</time></trkpt><trkpt lat="45.7104051" lon="9.8825752"><ele>316.0</ele><time>2026-03-22T08:22:28.963Z</time></trkpt><trkpt lat="45.7103208" lon="9.8825597"><ele>316.0</ele><time>2026-03-22T08:22:30.961Z</time></trkpt><trkpt lat="45.7102459" lon="9.8825285"><ele>316.0</ele><time>2026-03-22T08:22:32.968Z</time></trkpt><trkpt lat="45.7101854" lon="9.8824727"><ele>316.0</ele><time>2026-03-22T08:22:34.96Z</time></trkpt><trkpt lat="45.7101055" lon="9.88243"><ele>316.0</ele><time>2026-03-22T08:22:36.966Z</time></trkpt><trkpt lat="45.7100231" lon="9.8824057"><ele>316.0</ele><time>2026-03-22T08:22:38.967Z</time></trkpt><trkpt lat="45.7099531" lon="9.8823634"><ele>316.8333333333333</ele><time>2026-03-22T08:22:40.952Z</time></trkpt><trkpt lat="45.709903" lon="9.8822985"><ele>317.66666666666663</ele><time>2026-03-22T08:22:42.966Z</time></trkpt><trkpt lat="45.7098918" lon="9.8821899"><ele>318.5</ele><time>2026-03-22T08:22:44.968Z</time></trkpt><trkpt lat="45.7099059" lon="9.8820885"><ele>319.3333333333333</ele><time>2026-03-22T08:22:45.967Z</time></trkpt><trkpt lat="45.7099324" lon="9.8819812"><ele>320.1666666666667</ele><time>2026-03-22T08:22:46.963Z</time></trkpt><trkpt lat="45.7099681" lon="9.8818673"><ele>321.0</ele><time>2026-03-22T08:22:47.966Z</time></trkpt><trkpt lat="45.709996" lon="9.8817625"><ele>319.3333333333333</ele><time>2026-03-22T08:22:48.972Z</time></trkpt><trkpt lat="45.71002" lon="9.8816529"><ele>317.6666666666667</ele><time>2026-03-22T08:22:49.965Z</time></trkpt><trkpt lat="45.7100373" lon="9.8815384"><ele>316.0</ele><time>2026-03-22T08:22:50.968Z</time></trkpt><trkpt lat="45.7100474" lon="9.8814234"><ele>314.33333333333337</ele><time>2026-03-22T08:22:51.962Z</time></trkpt><trkpt lat="45.710056" lon="9.8813079"><ele>312.6666666666667</ele><time>2026-03-22T08:22:52.968Z</time></trkpt><trkpt lat="45.7100647" lon="9.8812013"><ele>311.0</ele><time>2026-03-22T08:22:53.967Z</time></trkpt><trkpt lat="45.7100676" lon="9.8810931"><ele>311.0</ele><time>2026-03-22T08:22:54.971Z</time></trkpt><trkpt lat="45.7100569" lon="9.8809893"><ele>311.0</ele><time>2026-03-22T08:22:55.968Z</time></trkpt><trkpt lat="45.7100371" lon="9.880891"><ele>311.0</ele><time>2026-03-22T08:22:56.963Z</time></trkpt><trkpt lat="45.7100019" lon="9.8807981"><ele>311.0</ele><time>2026-03-22T08:22:57.967Z</time></trkpt><trkpt lat="45.7099592" lon="9.8807091"><ele>311.0</ele><time>2026-03-22T08:22:58.962Z</time></trkpt><trkpt lat="45.7099116" lon="9.880619"><ele>311.0</ele><time>2026-03-22T08:22:59.949Z</time></trkpt><trkpt lat="45.7098661" lon="9.8805328"><ele>311.0</ele><time>2026-03-22T08:23:00.964Z</time></trkpt><trkpt lat="45.7098164" lon="9.8804577"><ele>310.57142857142856</ele><time>2026-03-22T08:23:01.972Z</time></trkpt><trkpt lat="45.7097695" lon="9.8803774"><ele>310.14285714285717</ele><time>2026-03-22T08:23:02.967Z</time></trkpt><trkpt lat="45.7097247" lon="9.8803125"><ele>309.7142857142857</ele><time>2026-03-22T08:23:03.963Z</time></trkpt><trkpt lat="45.7096795" lon="9.8802451"><ele>309.2857142857143</ele><time>2026-03-22T08:23:04.966Z</time></trkpt><trkpt lat="45.7096314" lon="9.8801758"><ele>308.8571428571429</ele><time>2026-03-22T08:23:05.965Z</time></trkpt><trkpt lat="45.7095849" lon="9.8801088"><ele>308.42857142857144</ele><time>2026-03-22T08:23:06.966Z</time></trkpt><trkpt lat="45.7095366" lon="9.8800457"><ele>308.0</ele><time>2026-03-22T08:23:07.967Z</time></trkpt><trkpt lat="45.7094859" lon="9.8799805"><ele>307.7142857142857</ele><time>2026-03-22T08:23:08.971Z</time></trkpt><trkpt lat="45.7094362" lon="9.8799074"><ele>307.42857142857144</ele><time>2026-03-22T08:23:09.966Z</time></trkpt><trkpt lat="45.7093843" lon="9.8798387"><ele>307.1428571428571</ele><time>2026-03-22T08:23:10.967Z</time></trkpt><trkpt lat="45.7093372" lon="9.8797722"><ele>306.8571428571429</ele><time>2026-03-22T08:23:11.963Z</time></trkpt><trkpt lat="45.7092861" lon="9.8797058"><ele>306.57142857142856</ele><time>2026-03-22T08:23:12.967Z</time></trkpt><trkpt lat="45.7092357" lon="9.8796344"><ele>306.2857142857143</ele><time>2026-03-22T08:23:13.97Z</time></trkpt><trkpt lat="45.709191" lon="9.8795553"><ele>306.0</ele><time>2026-03-22T08:23:14.968Z</time></trkpt><trkpt lat="45.7091606" lon="9.8794664"><ele>306.0</ele><time>2026-03-22T08:23:15.965Z</time></trkpt><trkpt lat="45.709147" lon="9.8793628"><ele>306.0</ele><time>2026-03-22T08:23:16.964Z</time></trkpt><trkpt lat="45.7091451" lon="9.8792567"><ele>306.0</ele><time>2026-03-22T08:23:17.964Z</time></trkpt><trkpt lat="45.7091438" lon="9.8791522"><ele>306.0</ele><time>2026-03-22T08:23:18.966Z</time></trkpt><trkpt lat="45.7091427" lon="9.8790495"><ele>306.0</ele><time>2026-03-22T08:23:19.956Z</time></trkpt><trkpt lat="45.7091382" lon="9.8789397"><ele>306.0</ele><time>2026-03-22T08:23:20.975Z</time></trkpt><trkpt lat="45.7091316" lon="9.8788334"><ele>306.0</ele><time>2026-03-22T08:23:21.968Z</time></trkpt><trkpt lat="45.7091191" lon="9.8787302"><ele>305.57142857142856</ele><time>2026-03-22T08:23:22.965Z</time></trkpt><trkpt lat="45.7091113" lon="9.878632"><ele>305.14285714285717</ele><time>2026-03-22T08:23:23.967Z</time></trkpt><trkpt lat="45.7091014" lon="9.8785306"><ele>304.7142857142857</ele><time>2026-03-22T08:23:24.97Z</time></trkpt><trkpt lat="45.7090929" lon="9.8784277"><ele>304.2857142857143</ele><time>2026-03-22T08:23:25.971Z</time></trkpt><trkpt lat="45.709085" lon="9.8783217"><ele>303.85714285714283</ele><time>2026-03-22T08:23:26.969Z</time></trkpt><trkpt lat="45.7090724" lon="9.8782156"><ele>303.42857142857144</ele><time>2026-03-22T08:23:27.968Z</time></trkpt><trkpt lat="45.7090599" lon="9.8781193"><ele>303.0</ele><time>2026-03-22T08:23:28.969Z</time></trkpt><trkpt lat="45.7090462" lon="9.8780165"><ele>302.0</ele><time>2026-03-22T08:23:29.97Z</time></trkpt><trkpt lat="45.7090288" lon="9.8779207"><ele>301.0</ele><time>2026-03-22T08:23:30.967Z</time></trkpt><trkpt lat="45.709007" lon="9.8778304"><ele>300.0</ele><time>2026-03-22T08:23:31.967Z</time></trkpt><trkpt lat="45.7089746" lon="9.8777276"><ele>299.0</ele><time>2026-03-22T08:23:32.967Z</time></trkpt><trkpt lat="45.7089283" lon="9.8776324"><ele>298.0</ele><time>2026-03-22T08:23:33.958Z</time></trkpt><trkpt lat="45.7088737" lon="9.8775332"><ele>297.0</ele><time>2026-03-22T08:23:34.965Z</time></trkpt><trkpt lat="45.7088201" lon="9.8774365"><ele>295.2</ele><time>2026-03-22T08:23:35.964Z</time></trkpt><trkpt lat="45.7087614" lon="9.8773333"><ele>293.4</ele><time>2026-03-22T08:23:36.964Z</time></trkpt><trkpt lat="45.708692" lon="9.8772243"><ele>291.6</ele><time>2026-03-22T08:23:37.97Z</time></trkpt><trkpt lat="45.7086148" lon="9.877121"><ele>289.8</ele><time>2026-03-22T08:23:38.967Z</time></trkpt><trkpt lat="45.7085295" lon="9.8770172"><ele>288.0</ele><time>2026-03-22T08:23:39.956Z</time></trkpt><trkpt lat="45.7084378" lon="9.8769082"><ele>288.0</ele><time>2026-03-22T08:23:40.965Z</time></trkpt><trkpt lat="45.7083417" lon="9.8767968"><ele>288.0</ele><time>2026-03-22T08:23:41.965Z</time></trkpt><trkpt lat="45.7082484" lon="9.8766829"><ele>288.0</ele><time>2026-03-22T08:23:42.975Z</time></trkpt><trkpt lat="45.7081502" lon="9.8765584"><ele>288.0</ele><time>2026-03-22T08:23:43.967Z</time></trkpt><trkpt lat="45.7080507" lon="9.8764353"><ele>285.75</ele><time>2026-03-22T08:23:44.968Z</time></trkpt><trkpt lat="45.707961" lon="9.8763131"><ele>283.5</ele><time>2026-03-22T08:23:45.964Z</time></trkpt><trkpt lat="45.7078689" lon="9.8761936"><ele>281.25</ele><time>2026-03-22T08:23:46.965Z</time></trkpt><trkpt lat="45.7077853" lon="9.8760751"><ele>279.0</ele><time>2026-03-22T08:23:47.973Z</time></trkpt><trkpt lat="45.7077133" lon="9.8759669"><ele>278.2</ele><time>2026-03-22T08:23:48.967Z</time></trkpt><trkpt lat="45.707639" lon="9.8758582"><ele>277.4</ele><time>2026-03-22T08:23:49.965Z</time></trkpt><trkpt lat="45.707569" lon="9.8757449"><ele>276.6</ele><time>2026-03-22T08:23:50.964Z</time></trkpt><trkpt lat="45.7074935" lon="9.8756401"><ele>275.8</ele><time>2026-03-22T08:23:51.969Z</time></trkpt><trkpt lat="45.7074255" lon="9.8755459"><ele>275.0</ele><time>2026-03-22T08:23:52.969Z</time></trkpt><trkpt lat="45.7073768" lon="9.8754682"><ele>275.0</ele><time>2026-03-22T08:23:53.965Z</time></trkpt><trkpt lat="45.7073333" lon="9.8753358"><ele>275.0</ele><time>2026-03-22T08:23:55.962Z</time></trkpt><trkpt lat="45.7072914" lon="9.8752152"><ele>275.0</ele><time>2026-03-22T08:23:57.972Z</time></trkpt><trkpt lat="45.7072402" lon="9.8751066"><ele>275.0</ele><time>2026-03-22T08:23:59.97Z</time></trkpt><trkpt lat="45.7071912" lon="9.8749901"><ele>275.0</ele><time>2026-03-22T08:24:01.968Z</time></trkpt><trkpt lat="45.7071458" lon="9.874855"><ele>274.8</ele><time>2026-03-22T08:24:03.964Z</time></trkpt><trkpt lat="45.7070941" lon="9.8747002"><ele>274.6</ele><time>2026-03-22T08:24:05.965Z</time></trkpt><trkpt lat="45.7070331" lon="9.8745411"><ele>274.4</ele><time>2026-03-22T08:24:07.967Z</time></trkpt><trkpt lat="45.7069969" lon="9.8744631"><ele>274.2</ele><time>2026-03-22T08:24:08.965Z</time></trkpt><trkpt lat="45.7069617" lon="9.8743854"><ele>274.0</ele><time>2026-03-22T08:24:09.963Z</time></trkpt><trkpt lat="45.7069112" lon="9.8742395"><ele>274.2</ele><time>2026-03-22T08:24:11.965Z</time></trkpt><trkpt lat="45.7068584" lon="9.8740831"><ele>274.4</ele><time>2026-03-22T08:24:13.968Z</time></trkpt><trkpt lat="45.7068268" lon="9.8740046"><ele>274.6</ele><time>2026-03-22T08:24:14.97Z</time></trkpt><trkpt lat="45.7067657" lon="9.8738578"><ele>274.8</ele><time>2026-03-22T08:24:16.963Z</time></trkpt><trkpt lat="45.7067035" lon="9.8737097"><ele>275.0</ele><time>2026-03-22T08:24:18.967Z</time></trkpt><trkpt lat="45.7066529" lon="9.8735666"><ele>274.0</ele><time>2026-03-22T08:24:21.036Z</time></trkpt><trkpt lat="45.7066034" lon="9.873412"><ele>273.0</ele><time>2026-03-22T08:24:22.965Z</time></trkpt><trkpt lat="45.7065573" lon="9.8732677"><ele>272.0</ele><time>2026-03-22T08:24:24.979Z</time></trkpt><trkpt lat="45.7065016" lon="9.8731199"><ele>271.0</ele><time>2026-03-22T08:24:27.035Z</time></trkpt><trkpt lat="45.7064455" lon="9.8729742"><ele>271.0</ele><time>2026-03-22T08:24:28.962Z</time></trkpt><trkpt lat="45.7063913" lon="9.8728267"><ele>271.0</ele><time>2026-03-22T08:24:31.031Z</time></trkpt><trkpt lat="45.7063369" lon="9.8726761"><ele>271.0</ele><time>2026-03-22T08:24:32.965Z</time></trkpt><trkpt lat="45.7062776" lon="9.8725256"><ele>271.0</ele><time>2026-03-22T08:24:35.031Z</time></trkpt><trkpt lat="45.7062272" lon="9.8723807"><ele>270.75</ele><time>2026-03-22T08:24:37.036Z</time></trkpt><trkpt lat="45.7061701" lon="9.8722289"><ele>270.5</ele><time>2026-03-22T08:24:38.974Z</time></trkpt><trkpt lat="45.706115" lon="9.8720833"><ele>270.25</ele><time>2026-03-22T08:24:41.038Z</time></trkpt><trkpt lat="45.7060637" lon="9.8719383"><ele>270.0</ele><time>2026-03-22T08:24:42.965Z</time></trkpt><trkpt lat="45.7060105" lon="9.8717878"><ele>270.0</ele><time>2026-03-22T08:24:45.075Z</time></trkpt><trkpt lat="45.7059545" lon="9.8716472"><ele>270.0</ele><time>2026-03-22T08:24:47.027Z</time></trkpt><trkpt lat="45.7059013" lon="9.8715049"><ele>270.0</ele><time>2026-03-22T08:24:48.962Z</time></trkpt><trkpt lat="45.7058537" lon="9.8713524"><ele>270.0</ele><time>2026-03-22T08:24:50.962Z</time></trkpt><trkpt lat="45.7057951" lon="9.8711996"><ele>270.0</ele><time>2026-03-22T08:24:52.975Z</time></trkpt><trkpt lat="45.7057365" lon="9.8710533"><ele>270.0</ele><time>2026-03-22T08:24:55.032Z</time></trkpt><trkpt lat="45.7056867" lon="9.8709002"><ele>270.0</ele><time>2026-03-22T08:24:56.974Z</time></trkpt><trkpt lat="45.7056348" lon="9.8707453"><ele>270.0</ele><time>2026-03-22T08:24:58.977Z</time></trkpt><trkpt lat="45.7055865" lon="9.8705815"><ele>270.0</ele><time>2026-03-22T08:25:00.955Z</time></trkpt><trkpt lat="45.7055416" lon="9.8704244"><ele>270.0</ele><time>2026-03-22T08:25:02.963Z</time></trkpt><trkpt lat="45.7055086" lon="9.870259"><ele>270.0</ele><time>2026-03-22T08:25:04.966Z</time></trkpt><trkpt lat="45.7054745" lon="9.8700976"><ele>270.0</ele><time>2026-03-22T08:25:07.036Z</time></trkpt><trkpt lat="45.7054452" lon="9.8699351"><ele>269.75</ele><time>2026-03-22T08:25:08.959Z</time></trkpt><trkpt lat="45.7054129" lon="9.8697788"><ele>269.5</ele><time>2026-03-22T08:25:10.962Z</time></trkpt><trkpt lat="45.7053841" lon="9.8696238"><ele>269.25</ele><time>2026-03-22T08:25:12.968Z</time></trkpt><trkpt lat="45.7053433" lon="9.8694679"><ele>269.0</ele><time>2026-03-22T08:25:14.965Z</time></trkpt><trkpt lat="45.7053155" lon="9.8693046"><ele>268.59999999999997</ele><time>2026-03-22T08:25:17.034Z</time></trkpt><trkpt lat="45.7052976" lon="9.8692172"><ele>268.2</ele><time>2026-03-22T08:25:17.981Z</time></trkpt><trkpt lat="45.7052677" lon="9.8690462"><ele>267.79999999999995</ele><time>2026-03-22T08:25:19.973Z</time></trkpt><trkpt lat="45.7052399" lon="9.8688924"><ele>267.4</ele><time>2026-03-22T08:25:22.032Z</time></trkpt><trkpt lat="45.7052433" lon="9.8687356"><ele>267.0</ele><time>2026-03-22T08:25:23.965Z</time></trkpt><trkpt lat="45.705244" lon="9.8685804"><ele>267.4</ele><time>2026-03-22T08:25:26.036Z</time></trkpt><trkpt lat="45.7051847" lon="9.8684748"><ele>267.79999999999995</ele><time>2026-03-22T08:25:27.976Z</time></trkpt><trkpt lat="45.7051199" lon="9.868351"><ele>268.2</ele><time>2026-03-22T08:25:29.96Z</time></trkpt><trkpt lat="45.7050823" lon="9.8681905"><ele>268.59999999999997</ele><time>2026-03-22T08:25:31.958Z</time></trkpt><trkpt lat="45.7050643" lon="9.8680354"><ele>269.0</ele><time>2026-03-22T08:25:33.956Z</time></trkpt><trkpt lat="45.7050531" lon="9.867871"><ele>269.0</ele><time>2026-03-22T08:25:35.96Z</time></trkpt><trkpt lat="45.7050396" lon="9.8676977"><ele>269.0</ele><time>2026-03-22T08:25:37.963Z</time></trkpt><trkpt lat="45.7050303" lon="9.8676082"><ele>269.0</ele><time>2026-03-22T08:25:38.962Z</time></trkpt><trkpt lat="45.705015" lon="9.8674451"><ele>269.0</ele><time>2026-03-22T08:25:40.969Z</time></trkpt><trkpt lat="45.7050074" lon="9.867354"><ele>269.0</ele><time>2026-03-22T08:25:41.968Z</time></trkpt><trkpt lat="45.7049893" lon="9.8671856"><ele>268.75</ele><time>2026-03-22T08:25:43.969Z</time></trkpt><trkpt lat="45.7049723" lon="9.8670209"><ele>268.5</ele><time>2026-03-22T08:25:46.037Z</time></trkpt><trkpt lat="45.7049644" lon="9.8668508"><ele>268.25</ele><time>2026-03-22T08:25:47.953Z</time></trkpt><trkpt lat="45.7049489" lon="9.8666806"><ele>268.0</ele><time>2026-03-22T08:25:49.979Z</time></trkpt><trkpt lat="45.7049339" lon="9.8665049"><ele>268.0</ele><time>2026-03-22T08:25:52.029Z</time></trkpt><trkpt lat="45.704928" lon="9.8664113"><ele>268.0</ele><time>2026-03-22T08:25:52.967Z</time></trkpt><trkpt lat="45.7049057" lon="9.8662343"><ele>268.0</ele><time>2026-03-22T08:25:55.078Z</time></trkpt><trkpt lat="45.7048815" lon="9.8660573"><ele>268.0</ele><time>2026-03-22T08:25:57.026Z</time></trkpt><trkpt lat="45.7048668" lon="9.8658926"><ele>268.0</ele><time>2026-03-22T08:25:58.959Z</time></trkpt><trkpt lat="45.7048593" lon="9.8657303"><ele>267.6</ele><time>2026-03-22T08:26:01.023Z</time></trkpt><trkpt lat="45.7048488" lon="9.8655709"><ele>267.20000000000005</ele><time>2026-03-22T08:26:02.957Z</time></trkpt><trkpt lat="45.7048391" lon="9.865421"><ele>266.8</ele><time>2026-03-22T08:26:05.045Z</time></trkpt><trkpt lat="45.7048194" lon="9.8652689"><ele>266.40000000000003</ele><time>2026-03-22T08:26:07.03Z</time></trkpt><trkpt lat="45.7047974" lon="9.8651053"><ele>266.0</ele><time>2026-03-22T08:26:09.026Z</time></trkpt><trkpt lat="45.7047699" lon="9.8649401"><ele>266.0</ele><time>2026-03-22T08:26:10.954Z</time></trkpt><trkpt lat="45.7047456" lon="9.8647819"><ele>266.0</ele><time>2026-03-22T08:26:12.953Z</time></trkpt><trkpt lat="45.7047187" lon="9.8646224"><ele>266.0</ele><time>2026-03-22T08:26:14.956Z</time></trkpt><trkpt lat="45.7046792" lon="9.8644577"><ele>266.0</ele><time>2026-03-22T08:26:17.027Z</time></trkpt><trkpt lat="45.7046405" lon="9.8643033"><ele>266.0</ele><time>2026-03-22T08:26:18.939Z</time></trkpt><trkpt lat="45.704607" lon="9.8641345"><ele>266.0</ele><time>2026-03-22T08:26:20.956Z</time></trkpt><trkpt lat="45.7045764" lon="9.8640521"><ele>266.0</ele><time>2026-03-22T08:26:21.956Z</time></trkpt><trkpt lat="45.7045394" lon="9.863968"><ele>266.0</ele><time>2026-03-22T08:26:22.956Z</time></trkpt><trkpt lat="45.7045048" lon="9.8638154"><ele>266.0</ele><time>2026-03-22T08:26:25.033Z</time></trkpt><trkpt lat="45.7044739" lon="9.8636526"><ele>266.0</ele><time>2026-03-22T08:26:26.959Z</time></trkpt><trkpt lat="45.7044355" lon="9.8634989"><ele>266.0</ele><time>2026-03-22T08:26:28.955Z</time></trkpt><trkpt lat="45.7043992" lon="9.8633511"><ele>266.0</ele><time>2026-03-22T08:26:30.962Z</time></trkpt><trkpt lat="45.7043612" lon="9.863195"><ele>266.0</ele><time>2026-03-22T08:26:32.956Z</time></trkpt><trkpt lat="45.7043184" lon="9.8630441"><ele>266.40000000000003</ele><time>2026-03-22T08:26:35.046Z</time></trkpt><trkpt lat="45.7042734" lon="9.8629045"><ele>266.8</ele><time>2026-03-22T08:26:37.027Z</time></trkpt><trkpt lat="45.7042303" lon="9.8627826"><ele>267.20000000000005</ele><time>2026-03-22T08:26:38.957Z</time></trkpt><trkpt lat="45.7041534" lon="9.8627848"><ele>267.6</ele><time>2026-03-22T08:26:41.04Z</time></trkpt><trkpt lat="45.7041013" lon="9.8628872"><ele>268.0</ele><time>2026-03-22T08:26:42.951Z</time></trkpt><trkpt lat="45.7040445" lon="9.863018"><ele>268.0</ele><time>2026-03-22T08:26:44.951Z</time></trkpt><trkpt lat="45.7039844" lon="9.8631493"><ele>268.0</ele><time>2026-03-22T08:26:47.03Z</time></trkpt><trkpt lat="45.7039152" lon="9.8632662"><ele>268.0</ele><time>2026-03-22T08:26:48.971Z</time></trkpt><trkpt lat="45.7038236" lon="9.8633063"><ele>268.0</ele><time>2026-03-22T08:26:50.966Z</time></trkpt><trkpt lat="45.7037136" lon="9.863295"><ele>268.0</ele><time>2026-03-22T08:26:52.963Z</time></trkpt><trkpt lat="45.7036103" lon="9.8632637"><ele>269.2</ele><time>2026-03-22T08:26:55.031Z</time></trkpt><trkpt lat="45.7035072" lon="9.8632513"><ele>270.4</ele><time>2026-03-22T08:26:57.035Z</time></trkpt><trkpt lat="45.7034163" lon="9.8633015"><ele>271.59999999999997</ele><time>2026-03-22T08:26:58.969Z</time></trkpt><trkpt lat="45.7033178" lon="9.8633535"><ele>272.8</ele><time>2026-03-22T08:27:00.973Z</time></trkpt><trkpt lat="45.7032103" lon="9.8633191"><ele>274.0</ele><time>2026-03-22T08:27:02.979Z</time></trkpt><trkpt lat="45.7031723" lon="9.8631663"><ele>274.0</ele><time>2026-03-22T08:27:04.971Z</time></trkpt><trkpt lat="45.7031419" lon="9.8630277"><ele>274.0</ele><time>2026-03-22T08:27:06.966Z</time></trkpt><trkpt lat="45.7031121" lon="9.8628813"><ele>274.0</ele><time>2026-03-22T08:27:08.963Z</time></trkpt><trkpt lat="45.7030881" lon="9.8627328"><ele>274.0</ele><time>2026-03-22T08:27:11.04Z</time></trkpt><trkpt lat="45.7030444" lon="9.862577"><ele>274.0</ele><time>2026-03-22T08:27:12.95Z</time></trkpt><trkpt lat="45.7030016" lon="9.862418"><ele>275.0</ele><time>2026-03-22T08:27:14.954Z</time></trkpt><trkpt lat="45.7029384" lon="9.8622743"><ele>276.0</ele><time>2026-03-22T08:27:16.956Z</time></trkpt><trkpt lat="45.702894" lon="9.8622074"><ele>277.0</ele><time>2026-03-22T08:27:17.956Z</time></trkpt><trkpt lat="45.7028468" lon="9.8621449"><ele>278.0</ele><time>2026-03-22T08:27:19.036Z</time></trkpt><trkpt lat="45.7027438" lon="9.8620644"><ele>279.0</ele><time>2026-03-22T08:27:21.035Z</time></trkpt><trkpt lat="45.7026255" lon="9.8620036"><ele>279.0</ele><time>2026-03-22T08:27:22.954Z</time></trkpt><trkpt lat="45.7025668" lon="9.8619677"><ele>279.0</ele><time>2026-03-22T08:27:23.962Z</time></trkpt><trkpt lat="45.7024673" lon="9.8618922"><ele>279.0</ele><time>2026-03-22T08:27:25.968Z</time></trkpt><trkpt lat="45.7023705" lon="9.8618112"><ele>279.0</ele><time>2026-03-22T08:27:27.96Z</time></trkpt><trkpt lat="45.7022719" lon="9.861748"><ele>279.0</ele><time>2026-03-22T08:27:29.975Z</time></trkpt><trkpt lat="45.7021747" lon="9.861686"><ele>276.5</ele><time>2026-03-22T08:27:32.019Z</time></trkpt><trkpt lat="45.7020696" lon="9.8616431"><ele>274.0</ele><time>2026-03-22T08:27:33.961Z</time></trkpt><trkpt lat="45.701954" lon="9.8616045"><ele>271.5</ele><time>2026-03-22T08:27:36.033Z</time></trkpt><trkpt lat="45.701838" lon="9.861555"><ele>269.0</ele><time>2026-03-22T08:27:37.953Z</time></trkpt><trkpt lat="45.701726" lon="9.8615025"><ele>269.0</ele><time>2026-03-22T08:27:39.977Z</time></trkpt><trkpt lat="45.701626" lon="9.8614524"><ele>269.0</ele><time>2026-03-22T08:27:42.035Z</time></trkpt><trkpt lat="45.701527" lon="9.8614165"><ele>269.0</ele><time>2026-03-22T08:27:43.961Z</time></trkpt><trkpt lat="45.7014254" lon="9.8614098"><ele>269.0</ele><time>2026-03-22T08:27:45.963Z</time></trkpt><trkpt lat="45.7013161" lon="9.8614206"><ele>269.0</ele><time>2026-03-22T08:27:47.965Z</time></trkpt><trkpt lat="45.7011974" lon="9.8614331"><ele>269.2</ele><time>2026-03-22T08:27:49.962Z</time></trkpt><trkpt lat="45.7010698" lon="9.8614382"><ele>269.4</ele><time>2026-03-22T08:27:52.023Z</time></trkpt><trkpt lat="45.7009943" lon="9.8614553"><ele>269.6</ele><time>2026-03-22T08:27:52.968Z</time></trkpt><trkpt lat="45.7009146" lon="9.8614699"><ele>269.8</ele><time>2026-03-22T08:27:53.963Z</time></trkpt><trkpt lat="45.7008293" lon="9.8614857"><ele>270.0</ele><time>2026-03-22T08:27:54.959Z</time></trkpt><trkpt lat="45.700742" lon="9.8615038"><ele>270.0</ele><time>2026-03-22T08:27:55.956Z</time></trkpt><trkpt lat="45.7006603" lon="9.8615144"><ele>270.0</ele><time>2026-03-22T08:27:56.967Z</time></trkpt><trkpt lat="45.7005779" lon="9.8615107"><ele>270.0</ele><time>2026-03-22T08:27:57.955Z</time></trkpt><trkpt lat="45.7005002" lon="9.8614921"><ele>270.0</ele><time>2026-03-22T08:27:58.964Z</time></trkpt><trkpt lat="45.7004398" lon="9.8614599"><ele>270.0</ele><time>2026-03-22T08:28:00.023Z</time></trkpt><trkpt lat="45.7003737" lon="9.861416"><ele>270.0</ele><time>2026-03-22T08:28:00.964Z</time></trkpt><trkpt lat="45.7003159" lon="9.8613756"><ele>270.0</ele><time>2026-03-22T08:28:02.021Z</time></trkpt><trkpt lat="45.7002127" lon="9.8612876"><ele>270.5</ele><time>2026-03-22T08:28:03.959Z</time></trkpt><trkpt lat="45.7001142" lon="9.861201"><ele>271.0</ele><time>2026-03-22T08:28:05.98Z</time></trkpt><trkpt lat="45.7000175" lon="9.8611028"><ele>271.5</ele><time>2026-03-22T08:28:07.96Z</time></trkpt><trkpt lat="45.6999245" lon="9.8610072"><ele>272.0</ele><time>2026-03-22T08:28:10.033Z</time></trkpt><trkpt lat="45.6998266" lon="9.8609178"><ele>269.25</ele><time>2026-03-22T08:28:12.024Z</time></trkpt><trkpt lat="45.6997221" lon="9.8608418"><ele>266.5</ele><time>2026-03-22T08:28:13.957Z</time></trkpt><trkpt lat="45.6996265" lon="9.860757"><ele>263.75</ele><time>2026-03-22T08:28:16.017Z</time></trkpt><trkpt lat="45.6995376" lon="9.8606453"><ele>261.0</ele><time>2026-03-22T08:28:17.96Z</time></trkpt><trkpt lat="45.6994462" lon="9.8605348"><ele>261.5</ele><time>2026-03-22T08:28:19.972Z</time></trkpt><trkpt lat="45.6993541" lon="9.8604393"><ele>262.0</ele><time>2026-03-22T08:28:22.039Z</time></trkpt><trkpt lat="45.699262" lon="9.8603276"><ele>262.5</ele><time>2026-03-22T08:28:23.956Z</time></trkpt><trkpt lat="45.6991948" lon="9.8601896"><ele>263.0</ele><time>2026-03-22T08:28:26.041Z</time></trkpt><trkpt lat="45.6991102" lon="9.8600594"><ele>263.0</ele><time>2026-03-22T08:28:27.947Z</time></trkpt><trkpt lat="45.6990383" lon="9.8599358"><ele>263.0</ele><time>2026-03-22T08:28:29.95Z</time></trkpt><trkpt lat="45.6989497" lon="9.8598229"><ele>263.0</ele><time>2026-03-22T08:28:31.936Z</time></trkpt><trkpt lat="45.6988955" lon="9.8597618"><ele>263.0</ele><time>2026-03-22T08:28:32.949Z</time></trkpt><trkpt lat="45.6988553" lon="9.8596916"><ele>263.0</ele><time>2026-03-22T08:28:33.949Z</time></trkpt><trkpt lat="45.6987796" lon="9.8595487"><ele>263.0</ele><time>2026-03-22T08:28:35.953Z</time></trkpt><trkpt lat="45.6987071" lon="9.8594201"><ele>263.0</ele><time>2026-03-22T08:28:37.944Z</time></trkpt><trkpt lat="45.6986223" lon="9.8593016"><ele>263.0</ele><time>2026-03-22T08:28:39.95Z</time></trkpt><trkpt lat="45.6985776" lon="9.8592325"><ele>263.0</ele><time>2026-03-22T08:28:40.952Z</time></trkpt><trkpt lat="45.6985302" lon="9.8591666"><ele>263.0</ele><time>2026-03-22T08:28:41.952Z</time></trkpt><trkpt lat="45.6984845" lon="9.8590994"><ele>263.0</ele><time>2026-03-22T08:28:42.945Z</time></trkpt><trkpt lat="45.6984411" lon="9.8590321"><ele>266.4</ele><time>2026-03-22T08:28:43.943Z</time></trkpt><trkpt lat="45.6983957" lon="9.8589666"><ele>269.8</ele><time>2026-03-22T08:28:44.952Z</time></trkpt><trkpt lat="45.6983075" lon="9.8588409"><ele>273.2</ele><time>2026-03-22T08:28:46.954Z</time></trkpt><trkpt lat="45.6982615" lon="9.8587783"><ele>276.6</ele><time>2026-03-22T08:28:47.954Z</time></trkpt><trkpt lat="45.6981735" lon="9.8586555"><ele>280.0</ele><time>2026-03-22T08:28:50.03Z</time></trkpt><trkpt lat="45.6980887" lon="9.8585383"><ele>275.5</ele><time>2026-03-22T08:28:51.949Z</time></trkpt><trkpt lat="45.698007" lon="9.858416"><ele>271.0</ele><time>2026-03-22T08:28:53.958Z</time></trkpt><trkpt lat="45.6979301" lon="9.8582924"><ele>266.5</ele><time>2026-03-22T08:28:56.037Z</time></trkpt><trkpt lat="45.6978514" lon="9.8581649"><ele>262.0</ele><time>2026-03-22T08:28:57.949Z</time></trkpt><trkpt lat="45.6977739" lon="9.8580431"><ele>261.25</ele><time>2026-03-22T08:29:00.039Z</time></trkpt><trkpt lat="45.6976862" lon="9.8579301"><ele>260.5</ele><time>2026-03-22T08:29:02.032Z</time></trkpt><trkpt lat="45.6976029" lon="9.8578143"><ele>259.75</ele><time>2026-03-22T08:29:03.949Z</time></trkpt><trkpt lat="45.6975277" lon="9.8576913"><ele>259.0</ele><time>2026-03-22T08:29:06.035Z</time></trkpt><trkpt lat="45.6974628" lon="9.8575379"><ele>259.0</ele><time>2026-03-22T08:29:07.966Z</time></trkpt><trkpt lat="45.6974324" lon="9.8574418"><ele>259.0</ele><time>2026-03-22T08:29:08.971Z</time></trkpt><trkpt lat="45.6974008" lon="9.8573579"><ele>259.0</ele><time>2026-03-22T08:29:09.962Z</time></trkpt><trkpt lat="45.6973562" lon="9.8572826"><ele>259.0</ele><time>2026-03-22T08:29:11.037Z</time></trkpt><trkpt lat="45.697311" lon="9.8572126"><ele>259.0</ele><time>2026-03-22T08:29:12.008Z</time></trkpt><trkpt lat="45.6972602" lon="9.8571473"><ele>259.0</ele><time>2026-03-22T08:29:12.953Z</time></trkpt><trkpt lat="45.6972067" lon="9.8570911"><ele>259.0</ele><time>2026-03-22T08:29:13.954Z</time></trkpt><trkpt lat="45.6971493" lon="9.8570332"><ele>259.0</ele><time>2026-03-22T08:29:14.966Z</time></trkpt><trkpt lat="45.6970904" lon="9.8569785"><ele>259.0</ele><time>2026-03-22T08:29:15.952Z</time></trkpt><trkpt lat="45.6970347" lon="9.8569296"><ele>259.0</ele><time>2026-03-22T08:29:16.942Z</time></trkpt><trkpt lat="45.6969824" lon="9.8568774"><ele>259.0</ele><time>2026-03-22T08:29:17.951Z</time></trkpt><trkpt lat="45.69693" lon="9.8568228"><ele>259.0</ele><time>2026-03-22T08:29:18.956Z</time></trkpt><trkpt lat="45.6968795" lon="9.8567635"><ele>259.0</ele><time>2026-03-22T08:29:19.943Z</time></trkpt><trkpt lat="45.6967838" lon="9.8566665"><ele>259.0</ele><time>2026-03-22T08:29:21.945Z</time></trkpt><trkpt lat="45.6967256" lon="9.8566135"><ele>259.8</ele><time>2026-03-22T08:29:22.945Z</time></trkpt><trkpt lat="45.6966361" lon="9.8565077"><ele>260.59999999999997</ele><time>2026-03-22T08:29:24.956Z</time></trkpt><trkpt lat="45.6965505" lon="9.8563881"><ele>261.4</ele><time>2026-03-22T08:29:26.942Z</time></trkpt><trkpt lat="45.6965007" lon="9.8563282"><ele>262.2</ele><time>2026-03-22T08:29:27.961Z</time></trkpt><trkpt lat="45.6964269" lon="9.856204"><ele>263.0</ele><time>2026-03-22T08:29:29.957Z</time></trkpt><trkpt lat="45.6963424" lon="9.8560876"><ele>263.0</ele><time>2026-03-22T08:29:32.011Z</time></trkpt><trkpt lat="45.6962653" lon="9.8559857"><ele>263.0</ele><time>2026-03-22T08:29:33.958Z</time></trkpt><trkpt lat="45.696187" lon="9.8558811"><ele>263.0</ele><time>2026-03-22T08:29:35.951Z</time></trkpt><trkpt lat="45.6961314" lon="9.8558285"><ele>263.0</ele><time>2026-03-22T08:29:37.031Z</time></trkpt><trkpt lat="45.6960828" lon="9.8557708"><ele>263.0</ele><time>2026-03-22T08:29:37.961Z</time></trkpt><trkpt lat="45.695987" lon="9.8556629"><ele>266.0</ele><time>2026-03-22T08:29:39.992Z</time></trkpt><trkpt lat="45.6958992" lon="9.8555476"><ele>269.0</ele><time>2026-03-22T08:29:41.963Z</time></trkpt><trkpt lat="45.6958123" lon="9.8554406"><ele>272.0</ele><time>2026-03-22T08:29:43.955Z</time></trkpt><trkpt lat="45.6957353" lon="9.8553194"><ele>275.0</ele><time>2026-03-22T08:29:45.961Z</time></trkpt><trkpt lat="45.6956615" lon="9.8551976"><ele>271.8</ele><time>2026-03-22T08:29:47.952Z</time></trkpt><trkpt lat="45.6955796" lon="9.8550943"><ele>268.6</ele><time>2026-03-22T08:29:49.981Z</time></trkpt><trkpt lat="45.6955061" lon="9.8549923"><ele>265.4</ele><time>2026-03-22T08:29:52.034Z</time></trkpt><trkpt lat="45.6954267" lon="9.8548877"><ele>262.2</ele><time>2026-03-22T08:29:53.947Z</time></trkpt><trkpt lat="45.6953551" lon="9.8547606"><ele>259.0</ele><time>2026-03-22T08:29:55.948Z</time></trkpt><trkpt lat="45.6952833" lon="9.854633"><ele>259.16666666666663</ele><time>2026-03-22T08:29:57.953Z</time></trkpt><trkpt lat="45.6952109" lon="9.8545119"><ele>259.3333333333333</ele><time>2026-03-22T08:29:59.948Z</time></trkpt><trkpt lat="45.695162" lon="9.8544513"><ele>259.5</ele><time>2026-03-22T08:30:00.953Z</time></trkpt><trkpt lat="45.6951156" lon="9.8543845"><ele>259.6666666666667</ele><time>2026-03-22T08:30:02.035Z</time></trkpt><trkpt lat="45.6950618" lon="9.8542968"><ele>259.83333333333337</ele><time>2026-03-22T08:30:02.963Z</time></trkpt><trkpt lat="45.6950015" lon="9.8542095"><ele>260.0</ele><time>2026-03-22T08:30:03.967Z</time></trkpt><trkpt lat="45.694942" lon="9.8541301"><ele>260.00000000000006</ele><time>2026-03-22T08:30:04.967Z</time></trkpt><trkpt lat="45.6948879" lon="9.8540566"><ele>260.0</ele><time>2026-03-22T08:30:05.963Z</time></trkpt><trkpt lat="45.6948376" lon="9.8539993"><ele>260.0</ele><time>2026-03-22T08:30:06.964Z</time></trkpt><trkpt lat="45.6947862" lon="9.8539409"><ele>260.0</ele><time>2026-03-22T08:30:07.972Z</time></trkpt><trkpt lat="45.6947358" lon="9.8538862"><ele>260.0</ele><time>2026-03-22T08:30:08.967Z</time></trkpt><trkpt lat="45.6946806" lon="9.8538372"><ele>260.00000000000006</ele><time>2026-03-22T08:30:10.041Z</time></trkpt><trkpt lat="45.6945856" lon="9.8537468"><ele>260.0</ele><time>2026-03-22T08:30:12.01Z</time></trkpt><trkpt lat="45.6944925" lon="9.8536603"><ele>260.0</ele><time>2026-03-22T08:30:13.965Z</time></trkpt><trkpt lat="45.694398" lon="9.8535859"><ele>260.0</ele><time>2026-03-22T08:30:15.974Z</time></trkpt><trkpt lat="45.6943053" lon="9.8535157"><ele>260.0</ele><time>2026-03-22T08:30:17.961Z</time></trkpt><trkpt lat="45.6942078" lon="9.8534503"><ele>260.0</ele><time>2026-03-22T08:30:19.97Z</time></trkpt><trkpt lat="45.6941129" lon="9.8533831"><ele>260.0</ele><time>2026-03-22T08:30:21.97Z</time></trkpt><trkpt lat="45.6940129" lon="9.85332"><ele>260.0</ele><time>2026-03-22T08:30:23.97Z</time></trkpt><trkpt lat="45.6939044" lon="9.8532471"><ele>260.0</ele><time>2026-03-22T08:30:26.032Z</time></trkpt><trkpt lat="45.6937987" lon="9.8531739"><ele>260.0</ele><time>2026-03-22T08:30:27.968Z</time></trkpt><trkpt lat="45.6936858" lon="9.8530966"><ele>260.0</ele><time>2026-03-22T08:30:29.992Z</time></trkpt><trkpt lat="45.6935916" lon="9.8530033"><ele>259.6666666666667</ele><time>2026-03-22T08:30:32.06Z</time></trkpt><trkpt lat="45.6934962" lon="9.8529002"><ele>259.33333333333337</ele><time>2026-03-22T08:30:33.95Z</time></trkpt><trkpt lat="45.6934149" lon="9.8527662"><ele>259.0</ele><time>2026-03-22T08:30:36.031Z</time></trkpt><trkpt lat="45.6933763" lon="9.8526916"><ele>258.6666666666667</ele><time>2026-03-22T08:30:37.045Z</time></trkpt><trkpt lat="45.6933394" lon="9.8526089"><ele>258.3333333333333</ele><time>2026-03-22T08:30:37.962Z</time></trkpt><trkpt lat="45.693307" lon="9.8525236"><ele>258.0</ele><time>2026-03-22T08:30:38.963Z</time></trkpt><trkpt lat="45.6932667" lon="9.8524342"><ele>257.99999999999994</ele><time>2026-03-22T08:30:40.071Z</time></trkpt><trkpt lat="45.6932269" lon="9.8523482"><ele>258.0</ele><time>2026-03-22T08:30:41.03Z</time></trkpt><trkpt lat="45.6931883" lon="9.8522724"><ele>258.0</ele><time>2026-03-22T08:30:42.059Z</time></trkpt><trkpt lat="45.6931492" lon="9.8521915"><ele>258.0</ele><time>2026-03-22T08:30:42.958Z</time></trkpt><trkpt lat="45.693108" lon="9.852104"><ele>258.0</ele><time>2026-03-22T08:30:44.034Z</time></trkpt><trkpt lat="45.693063" lon="9.8520313"><ele>257.99999999999994</ele><time>2026-03-22T08:30:45.028Z</time></trkpt><trkpt lat="45.6930204" lon="9.8519457"><ele>258.0</ele><time>2026-03-22T08:30:45.955Z</time></trkpt><trkpt lat="45.6929808" lon="9.8518613"><ele>257.2857142857143</ele><time>2026-03-22T08:30:46.962Z</time></trkpt><trkpt lat="45.6929392" lon="9.8517803"><ele>256.57142857142856</ele><time>2026-03-22T08:30:47.956Z</time></trkpt><trkpt lat="45.6928958" lon="9.8517094"><ele>255.85714285714286</ele><time>2026-03-22T08:30:48.951Z</time></trkpt><trkpt lat="45.6928452" lon="9.8516411"><ele>255.14285714285714</ele><time>2026-03-22T08:30:49.952Z</time></trkpt><trkpt lat="45.6927886" lon="9.8515994"><ele>254.42857142857144</ele><time>2026-03-22T08:30:51.033Z</time></trkpt><trkpt lat="45.6927272" lon="9.8515774"><ele>253.71428571428575</ele><time>2026-03-22T08:30:51.961Z</time></trkpt><trkpt lat="45.6926622" lon="9.8515659"><ele>253.00000000000003</ele><time>2026-03-22T08:30:52.955Z</time></trkpt><trkpt lat="45.6925979" lon="9.8515662"><ele>253.0</ele><time>2026-03-22T08:30:53.958Z</time></trkpt><trkpt lat="45.6924727" lon="9.8515991"><ele>253.0</ele><time>2026-03-22T08:30:55.961Z</time></trkpt><trkpt lat="45.692357" lon="9.8516281"><ele>253.0</ele><time>2026-03-22T08:30:57.962Z</time></trkpt><trkpt lat="45.6922424" lon="9.8516419"><ele>253.0</ele><time>2026-03-22T08:30:59.956Z</time></trkpt><trkpt lat="45.6921436" lon="9.8515733"><ele>252.99999999999997</ele><time>2026-03-22T08:31:02.047Z</time></trkpt><trkpt lat="45.6920942" lon="9.8515061"><ele>253.0</ele><time>2026-03-22T08:31:02.957Z</time></trkpt><trkpt lat="45.6920431" lon="9.8514479"><ele>253.0</ele><time>2026-03-22T08:31:03.953Z</time></trkpt><trkpt lat="45.6919873" lon="9.851394"><ele>253.0</ele><time>2026-03-22T08:31:04.953Z</time></trkpt><trkpt lat="45.6919337" lon="9.851339"><ele>252.99999999999997</ele><time>2026-03-22T08:31:05.952Z</time></trkpt><trkpt lat="45.6918253" lon="9.8512446"><ele>253.0</ele><time>2026-03-22T08:31:07.956Z</time></trkpt><trkpt lat="45.6917193" lon="9.851147"><ele>252.5</ele><time>2026-03-22T08:31:10.028Z</time></trkpt><trkpt lat="45.6916164" lon="9.8510513"><ele>252.0</ele><time>2026-03-22T08:31:12.042Z</time></trkpt><trkpt lat="45.6915103" lon="9.8509708"><ele>251.5</ele><time>2026-03-22T08:31:13.958Z</time></trkpt><trkpt lat="45.6913977" lon="9.8509024"><ele>251.0</ele><time>2026-03-22T08:31:16.035Z</time></trkpt><trkpt lat="45.6912809" lon="9.8508382"><ele>251.0</ele><time>2026-03-22T08:31:17.955Z</time></trkpt><trkpt lat="45.691177" lon="9.8507583"><ele>251.0</ele><time>2026-03-22T08:31:19.978Z</time></trkpt><trkpt lat="45.6910719" lon="9.8506784"><ele>251.0</ele><time>2026-03-22T08:31:21.959Z</time></trkpt><trkpt lat="45.6909818" lon="9.8505861"><ele>251.0</ele><time>2026-03-22T08:31:24.036Z</time></trkpt><trkpt lat="45.6909106" lon="9.8504756"><ele>251.60000000000002</ele><time>2026-03-22T08:31:25.964Z</time></trkpt><trkpt lat="45.6908291" lon="9.8503971"><ele>252.20000000000002</ele><time>2026-03-22T08:31:27.977Z</time></trkpt><trkpt lat="45.6907316" lon="9.8504261"><ele>252.79999999999998</ele><time>2026-03-22T08:31:30.025Z</time></trkpt><trkpt lat="45.6906293" lon="9.8505066"><ele>253.39999999999998</ele><time>2026-03-22T08:31:31.956Z</time></trkpt><trkpt lat="45.6905282" lon="9.850573"><ele>254.0</ele><time>2026-03-22T08:31:33.956Z</time></trkpt><trkpt lat="45.6904173" lon="9.8505864"><ele>254.0</ele><time>2026-03-22T08:31:35.968Z</time></trkpt><trkpt lat="45.6903361" lon="9.8504827"><ele>253.99999999999997</ele><time>2026-03-22T08:31:37.97Z</time></trkpt><trkpt lat="45.6902819" lon="9.850358"><ele>253.99999999999997</ele><time>2026-03-22T08:31:39.965Z</time></trkpt><trkpt lat="45.6902486" lon="9.8502269"><ele>254.0</ele><time>2026-03-22T08:31:41.972Z</time></trkpt><trkpt lat="45.6902242" lon="9.8501272"><ele>254.0</ele><time>2026-03-22T08:31:43.954Z</time></trkpt><trkpt lat="45.690225" lon="9.8500151"><ele>253.79999999999998</ele><time>2026-03-22T08:31:46.971Z</time></trkpt><trkpt lat="45.6902259" lon="9.8498884"><ele>253.59999999999997</ele><time>2026-03-22T08:31:48.969Z</time></trkpt><trkpt lat="45.6902464" lon="9.8497411"><ele>253.4</ele><time>2026-03-22T08:31:50.956Z</time></trkpt><trkpt lat="45.6902791" lon="9.8495871"><ele>253.2</ele><time>2026-03-22T08:31:52.957Z</time></trkpt><trkpt lat="45.6903077" lon="9.8494542"><ele>253.0</ele><time>2026-03-22T08:31:54.963Z</time></trkpt><trkpt lat="45.6903248" lon="9.849333"><ele>252.49999999999997</ele><time>2026-03-22T08:31:57.036Z</time></trkpt><trkpt lat="45.6902815" lon="9.8492282"><ele>252.0</ele><time>2026-03-22T08:31:58.959Z</time></trkpt><trkpt lat="45.6901777" lon="9.8491528"><ele>251.5</ele><time>2026-03-22T08:32:00.962Z</time></trkpt><trkpt lat="45.690111" lon="9.8491236"><ele>251.0</ele><time>2026-03-22T08:32:01.951Z</time></trkpt><trkpt lat="45.6900415" lon="9.8490947"><ele>250.49999999999997</ele><time>2026-03-22T08:32:02.961Z</time></trkpt><trkpt lat="45.6899751" lon="9.8490693"><ele>250.0</ele><time>2026-03-22T08:32:03.957Z</time></trkpt><trkpt lat="45.6899132" lon="9.8490294"><ele>250.0</ele><time>2026-03-22T08:32:04.975Z</time></trkpt><trkpt lat="45.689801" lon="9.84894"><ele>250.0</ele><time>2026-03-22T08:32:06.961Z</time></trkpt><trkpt lat="45.6897509" lon="9.8488848"><ele>250.0</ele><time>2026-03-22T08:32:07.961Z</time></trkpt><trkpt lat="45.689674" lon="9.8487637"><ele>250.0</ele><time>2026-03-22T08:32:09.955Z</time></trkpt><trkpt lat="45.6896012" lon="9.8486408"><ele>250.0</ele><time>2026-03-22T08:32:11.959Z</time></trkpt><trkpt lat="45.6895324" lon="9.848506"><ele>249.5</ele><time>2026-03-22T08:32:13.961Z</time></trkpt><trkpt lat="45.6894752" lon="9.8483639"><ele>249.0</ele><time>2026-03-22T08:32:15.955Z</time></trkpt><trkpt lat="45.6894151" lon="9.8482193"><ele>248.5</ele><time>2026-03-22T08:32:17.958Z</time></trkpt><trkpt lat="45.6893558" lon="9.8480713"><ele>248.0</ele><time>2026-03-22T08:32:19.952Z</time></trkpt><trkpt lat="45.6892937" lon="9.8479325"><ele>248.0</ele><time>2026-03-22T08:32:21.965Z</time></trkpt><trkpt lat="45.6892348" lon="9.8477875"><ele>248.0</ele><time>2026-03-22T08:32:23.963Z</time></trkpt><trkpt lat="45.6891809" lon="9.8476493"><ele>248.0</ele><time>2026-03-22T08:32:25.956Z</time></trkpt><trkpt lat="45.6891272" lon="9.8475238"><ele>248.0</ele><time>2026-03-22T08:32:27.957Z</time></trkpt><trkpt lat="45.6890223" lon="9.8474571"><ele>248.0</ele><time>2026-03-22T08:32:29.962Z</time></trkpt><trkpt lat="45.6889054" lon="9.8473724"><ele>248.0</ele><time>2026-03-22T08:32:31.958Z</time></trkpt><trkpt lat="45.6888428" lon="9.847323"><ele>248.0</ele><time>2026-03-22T08:32:32.963Z</time></trkpt><trkpt lat="45.688738" lon="9.847245"><ele>248.0</ele><time>2026-03-22T08:32:34.957Z</time></trkpt><trkpt lat="45.6886374" lon="9.8471726"><ele>248.0</ele><time>2026-03-22T08:32:37.029Z</time></trkpt><trkpt lat="45.6885411" lon="9.847099"><ele>248.0</ele><time>2026-03-22T08:32:38.958Z</time></trkpt><trkpt lat="45.6884438" lon="9.8470495"><ele>247.8</ele><time>2026-03-22T08:32:40.955Z</time></trkpt><trkpt lat="45.6883748" lon="9.8471266"><ele>247.60000000000002</ele><time>2026-03-22T08:32:42.962Z</time></trkpt><trkpt lat="45.6883696" lon="9.847268"><ele>247.39999999999998</ele><time>2026-03-22T08:32:44.964Z</time></trkpt><trkpt lat="45.6883391" lon="9.847422"><ele>247.2</ele><time>2026-03-22T08:32:47.055Z</time></trkpt><trkpt lat="45.6882896" lon="9.8475671"><ele>247.0</ele><time>2026-03-22T08:32:48.959Z</time></trkpt><trkpt lat="45.6882337" lon="9.8477027"><ele>247.0</ele><time>2026-03-22T08:32:50.96Z</time></trkpt><trkpt lat="45.6881827" lon="9.8478263"><ele>247.0</ele><time>2026-03-22T08:32:52.957Z</time></trkpt><trkpt lat="45.6881001" lon="9.847907"><ele>247.0</ele><time>2026-03-22T08:32:54.976Z</time></trkpt><trkpt lat="45.6879868" lon="9.8479176"><ele>247.0</ele><time>2026-03-22T08:32:56.974Z</time></trkpt><trkpt lat="45.6878749" lon="9.8479432"><ele>247.0</ele><time>2026-03-22T08:32:58.96Z</time></trkpt><trkpt lat="45.6877677" lon="9.8479581"><ele>246.6</ele><time>2026-03-22T08:33:00.962Z</time></trkpt><trkpt lat="45.6876564" lon="9.8479823"><ele>246.2</ele><time>2026-03-22T08:33:02.944Z</time></trkpt><trkpt lat="45.687544" lon="9.8479946"><ele>245.8</ele><time>2026-03-22T08:33:04.954Z</time></trkpt><trkpt lat="45.6874374" lon="9.8479948"><ele>245.4</ele><time>2026-03-22T08:33:06.957Z</time></trkpt><trkpt lat="45.687357" lon="9.8479204"><ele>245.0</ele><time>2026-03-22T08:33:08.959Z</time></trkpt><trkpt lat="45.687269" lon="9.8478342"><ele>245.0</ele><time>2026-03-22T08:33:11.032Z</time></trkpt><trkpt lat="45.6871568" lon="9.8477976"><ele>245.0</ele><time>2026-03-22T08:33:12.964Z</time></trkpt><trkpt lat="45.6870922" lon="9.8477985"><ele>245.0</ele><time>2026-03-22T08:33:14.046Z</time></trkpt><trkpt lat="45.6869757" lon="9.8477859"><ele>245.0</ele><time>2026-03-22T08:33:16.052Z</time></trkpt><trkpt lat="45.6868647" lon="9.8477717"><ele>245.0</ele><time>2026-03-22T08:33:17.958Z</time></trkpt><trkpt lat="45.6867563" lon="9.8477509"><ele>244.75</ele><time>2026-03-22T08:33:20.02Z</time></trkpt><trkpt lat="45.6866367" lon="9.8477195"><ele>244.5</ele><time>2026-03-22T08:33:22.035Z</time></trkpt><trkpt lat="45.6865249" lon="9.847691"><ele>244.25</ele><time>2026-03-22T08:33:23.954Z</time></trkpt><trkpt lat="45.6864073" lon="9.8476696"><ele>244.0</ele><time>2026-03-22T08:33:26.037Z</time></trkpt><trkpt lat="45.6862987" lon="9.8476437"><ele>244.0</ele><time>2026-03-22T08:33:27.97Z</time></trkpt><trkpt lat="45.6861822" lon="9.847631"><ele>244.0</ele><time>2026-03-22T08:33:29.969Z</time></trkpt><trkpt lat="45.686065" lon="9.8476081"><ele>244.0</ele><time>2026-03-22T08:33:31.968Z</time></trkpt><trkpt lat="45.6859505" lon="9.8475844"><ele>244.0</ele><time>2026-03-22T08:33:33.97Z</time></trkpt><trkpt lat="45.6858434" lon="9.8475635"><ele>243.79999999999998</ele><time>2026-03-22T08:33:36.032Z</time></trkpt><trkpt lat="45.6857413" lon="9.8475451"><ele>243.59999999999997</ele><time>2026-03-22T08:33:37.962Z</time></trkpt><trkpt lat="45.685637" lon="9.8475274"><ele>243.4</ele><time>2026-03-22T08:33:39.959Z</time></trkpt><trkpt lat="45.6855251" lon="9.8474949"><ele>243.2</ele><time>2026-03-22T08:33:41.956Z</time></trkpt><trkpt lat="45.6854195" lon="9.8474811"><ele>243.0</ele><time>2026-03-22T08:33:44.033Z</time></trkpt><trkpt lat="45.6853387" lon="9.8475365"><ele>243.0</ele><time>2026-03-22T08:33:46.038Z</time></trkpt><trkpt lat="45.6853167" lon="9.8476339"><ele>243.0</ele><time>2026-03-22T08:33:47.956Z</time></trkpt><trkpt lat="45.6853358" lon="9.8477697"><ele>243.0</ele><time>2026-03-22T08:33:49.956Z</time></trkpt><trkpt lat="45.6853427" lon="9.8479223"><ele>243.0</ele><time>2026-03-22T08:33:51.957Z</time></trkpt><trkpt lat="45.6852658" lon="9.8479877"><ele>243.0</ele><time>2026-03-22T08:33:53.962Z</time></trkpt><trkpt lat="45.685167" lon="9.8479593"><ele>243.0</ele><time>2026-03-22T08:33:55.975Z</time></trkpt><trkpt lat="45.6850644" lon="9.8479322"><ele>243.0</ele><time>2026-03-22T08:33:57.953Z</time></trkpt><trkpt lat="45.684957" lon="9.8479078"><ele>243.0</ele><time>2026-03-22T08:33:59.957Z</time></trkpt><trkpt lat="45.6848465" lon="9.8478891"><ele>243.0</ele><time>2026-03-22T08:34:02.048Z</time></trkpt><trkpt lat="45.6847359" lon="9.8478747"><ele>243.0</ele><time>2026-03-22T08:34:03.956Z</time></trkpt><trkpt lat="45.684624" lon="9.8478547"><ele>243.0</ele><time>2026-03-22T08:34:06.054Z</time></trkpt><trkpt lat="45.6845113" lon="9.8478348"><ele>243.0</ele><time>2026-03-22T08:34:07.954Z</time></trkpt><trkpt lat="45.6844052" lon="9.8478124"><ele>243.0</ele><time>2026-03-22T08:34:10.022Z</time></trkpt><trkpt lat="45.6842948" lon="9.8477922"><ele>243.0</ele><time>2026-03-22T08:34:12.027Z</time></trkpt><trkpt lat="45.6841697" lon="9.84776"><ele>243.0</ele><time>2026-03-22T08:34:13.976Z</time></trkpt><trkpt lat="45.684055" lon="9.8476931"><ele>243.0</ele><time>2026-03-22T08:34:16.035Z</time></trkpt><trkpt lat="45.6839447" lon="9.8476396"><ele>243.0</ele><time>2026-03-22T08:34:17.955Z</time></trkpt><trkpt lat="45.683825" lon="9.8476115"><ele>243.0</ele><time>2026-03-22T08:34:19.956Z</time></trkpt><trkpt lat="45.6837099" lon="9.8475703"><ele>242.4</ele><time>2026-03-22T08:34:21.948Z</time></trkpt><trkpt lat="45.683591" lon="9.8475366"><ele>241.8</ele><time>2026-03-22T08:34:23.956Z</time></trkpt><trkpt lat="45.6834741" lon="9.8474955"><ele>241.2</ele><time>2026-03-22T08:34:25.957Z</time></trkpt><trkpt lat="45.6834111" lon="9.8474846"><ele>240.6</ele><time>2026-03-22T08:34:26.954Z</time></trkpt><trkpt lat="45.683292" lon="9.8474488"><ele>240.0</ele><time>2026-03-22T08:34:28.956Z</time></trkpt><trkpt lat="45.683176" lon="9.8474153"><ele>240.0</ele><time>2026-03-22T08:34:31.015Z</time></trkpt><trkpt lat="45.683063" lon="9.8473831"><ele>240.0</ele><time>2026-03-22T08:34:32.959Z</time></trkpt><trkpt lat="45.6829527" lon="9.8473515"><ele>240.0</ele><time>2026-03-22T08:34:34.954Z</time></trkpt><trkpt lat="45.6828462" lon="9.8473178"><ele>240.0</ele><time>2026-03-22T08:34:36.96Z</time></trkpt><trkpt lat="45.6827342" lon="9.8472768"><ele>240.4</ele><time>2026-03-22T08:34:38.959Z</time></trkpt><trkpt lat="45.6826257" lon="9.847251"><ele>240.8</ele><time>2026-03-22T08:34:41.046Z</time></trkpt><trkpt lat="45.6825107" lon="9.8472195"><ele>241.2</ele><time>2026-03-22T08:34:42.958Z</time></trkpt><trkpt lat="45.6824005" lon="9.8471869"><ele>241.6</ele><time>2026-03-22T08:34:44.983Z</time></trkpt><trkpt lat="45.6823032" lon="9.8471584"><ele>242.0</ele><time>2026-03-22T08:34:47.031Z</time></trkpt><trkpt lat="45.6822211" lon="9.8471756"><ele>242.00000000000003</ele><time>2026-03-22T08:34:48.958Z</time></trkpt><trkpt lat="45.6822015" lon="9.8472723"><ele>242.0</ele><time>2026-03-22T08:34:50.956Z</time></trkpt><trkpt lat="45.6821491" lon="9.8473568"><ele>242.0</ele><time>2026-03-22T08:34:53.965Z</time></trkpt><trkpt lat="45.6820701" lon="9.8473677"><ele>242.0</ele><time>2026-03-22T08:34:56.953Z</time></trkpt><trkpt lat="45.682016" lon="9.8473204"><ele>242.00000000000003</ele><time>2026-03-22T08:34:59.965Z</time></trkpt><trkpt lat="45.6819987" lon="9.8471857"><ele>242.0</ele><time>2026-03-22T08:35:02.962Z</time></trkpt><trkpt lat="45.6819561" lon="9.8470803"><ele>242.0</ele><time>2026-03-22T08:35:04.962Z</time></trkpt><trkpt lat="45.6819146" lon="9.8469553"><ele>242.0</ele><time>2026-03-22T08:35:07.033Z</time></trkpt><trkpt lat="45.6818777" lon="9.8468177"><ele>242.0</ele><time>2026-03-22T08:35:08.966Z</time></trkpt><trkpt lat="45.6818268" lon="9.8467069"><ele>242.0</ele><time>2026-03-22T08:35:11.027Z</time></trkpt><trkpt lat="45.6817322" lon="9.8466704"><ele>242.0</ele><time>2026-03-22T08:35:12.952Z</time></trkpt><trkpt lat="45.6816568" lon="9.8467392"><ele>242.0</ele><time>2026-03-22T08:35:14.968Z</time></trkpt><trkpt lat="45.6816016" lon="9.8468602"><ele>242.0</ele><time>2026-03-22T08:35:17.033Z</time></trkpt><trkpt lat="45.6815541" lon="9.8470004"><ele>242.0</ele><time>2026-03-22T08:35:18.96Z</time></trkpt><trkpt lat="45.681521" lon="9.847137"><ele>242.0</ele><time>2026-03-22T08:35:20.955Z</time></trkpt><trkpt lat="45.6814727" lon="9.8472729"><ele>242.0</ele><time>2026-03-22T08:35:22.961Z</time></trkpt><trkpt lat="45.6814194" lon="9.8474095"><ele>242.0</ele><time>2026-03-22T08:35:25.024Z</time></trkpt><trkpt lat="45.6813603" lon="9.8475519"><ele>242.0</ele><time>2026-03-22T08:35:26.956Z</time></trkpt><trkpt lat="45.6813091" lon="9.8476675"><ele>242.0</ele><time>2026-03-22T08:35:28.96Z</time></trkpt><trkpt lat="45.6812641" lon="9.8477783"><ele>242.0</ele><time>2026-03-22T08:35:30.96Z</time></trkpt><trkpt lat="45.6812144" lon="9.8478786"><ele>242.0</ele><time>2026-03-22T08:35:32.959Z</time></trkpt><trkpt lat="45.6811571" lon="9.8479364"><ele>243.8</ele><time>2026-03-22T08:35:36.035Z</time></trkpt><trkpt lat="45.6810562" lon="9.8479337"><ele>245.6</ele><time>2026-03-22T08:35:38.958Z</time></trkpt><trkpt lat="45.6809315" lon="9.8479137"><ele>247.40000000000003</ele><time>2026-03-22T08:35:40.959Z</time></trkpt><trkpt lat="45.6808625" lon="9.8479135"><ele>249.20000000000002</ele><time>2026-03-22T08:35:41.943Z</time></trkpt><trkpt lat="45.68074" lon="9.8478714"><ele>251.0</ele><time>2026-03-22T08:35:44.039Z</time></trkpt><trkpt lat="45.6806571" lon="9.8477723"><ele>251.00000000000003</ele><time>2026-03-22T08:35:45.948Z</time></trkpt><trkpt lat="45.6806345" lon="9.847688"><ele>251.0</ele><time>2026-03-22T08:35:47.95Z</time></trkpt><trkpt lat="45.680654" lon="9.8475563"><ele>251.0</ele><time>2026-03-22T08:35:49.949Z</time></trkpt><trkpt lat="45.6806377" lon="9.8474127"><ele>251.0</ele><time>2026-03-22T08:35:52.043Z</time></trkpt><trkpt lat="45.6806113" lon="9.8472783"><ele>251.00000000000003</ele><time>2026-03-22T08:35:53.963Z</time></trkpt><trkpt lat="45.6805967" lon="9.8471836"><ele>251.0</ele><time>2026-03-22T08:35:55.948Z</time></trkpt><trkpt lat="45.6805743" lon="9.8470846"><ele>250.50000000000003</ele><time>2026-03-22T08:35:57.956Z</time></trkpt><trkpt lat="45.6805633" lon="9.8469803"><ele>250.0</ele><time>2026-03-22T08:35:59.958Z</time></trkpt><trkpt lat="45.6805483" lon="9.8468632"><ele>249.5</ele><time>2026-03-22T08:36:01.946Z</time></trkpt><trkpt lat="45.6805518" lon="9.8467412"><ele>249.0</ele><time>2026-03-22T08:36:03.953Z</time></trkpt><trkpt lat="45.6805771" lon="9.8466137"><ele>248.50000000000003</ele><time>2026-03-22T08:36:05.947Z</time></trkpt><trkpt lat="45.6806063" lon="9.8464574"><ele>248.0</ele><time>2026-03-22T08:36:07.952Z</time></trkpt><trkpt lat="45.6806592" lon="9.8463118"><ele>248.0</ele><time>2026-03-22T08:36:09.958Z</time></trkpt><trkpt lat="45.6806728" lon="9.8461341"><ele>248.0</ele><time>2026-03-22T08:36:12.039Z</time></trkpt><trkpt lat="45.6806739" lon="9.8460433"><ele>248.0</ele><time>2026-03-22T08:36:12.968Z</time></trkpt><trkpt lat="45.6806774" lon="9.8458876"><ele>248.0</ele><time>2026-03-22T08:36:14.962Z</time></trkpt><trkpt lat="45.6806797" lon="9.8457261"><ele>248.0</ele><time>2026-03-22T08:36:16.966Z</time></trkpt><trkpt lat="45.680683" lon="9.8455829"><ele>248.0</ele><time>2026-03-22T08:36:18.964Z</time></trkpt><trkpt lat="45.6806985" lon="9.8454272"><ele>248.0</ele><time>2026-03-22T08:36:21.031Z</time></trkpt><trkpt lat="45.6807046" lon="9.8452631"><ele>248.0</ele><time>2026-03-22T08:36:22.954Z</time></trkpt><trkpt lat="45.6807008" lon="9.845173"><ele>248.0</ele><time>2026-03-22T08:36:23.961Z</time></trkpt><trkpt lat="45.6806851" lon="9.8450023"><ele>248.0</ele><time>2026-03-22T08:36:25.958Z</time></trkpt><trkpt lat="45.6806678" lon="9.84484"><ele>247.25</ele><time>2026-03-22T08:36:27.957Z</time></trkpt><trkpt lat="45.6806133" lon="9.8446929"><ele>246.5</ele><time>2026-03-22T08:36:29.959Z</time></trkpt><trkpt lat="45.6805525" lon="9.8445462"><ele>245.75</ele><time>2026-03-22T08:36:32.031Z</time></trkpt><trkpt lat="45.6804898" lon="9.8444023"><ele>245.0</ele><time>2026-03-22T08:36:33.956Z</time></trkpt><trkpt lat="45.6804416" lon="9.844265"><ele>244.6</ele><time>2026-03-22T08:36:36.015Z</time></trkpt><trkpt lat="45.6803968" lon="9.8441195"><ele>244.2</ele><time>2026-03-22T08:36:37.952Z</time></trkpt><trkpt lat="45.6803531" lon="9.8439742"><ele>243.8</ele><time>2026-03-22T08:36:39.949Z</time></trkpt><trkpt lat="45.680309" lon="9.8438355"><ele>243.4</ele><time>2026-03-22T08:36:42.035Z</time></trkpt><trkpt lat="45.6802671" lon="9.8437016"><ele>243.0</ele><time>2026-03-22T08:36:43.958Z</time></trkpt><trkpt lat="45.6802198" lon="9.8435837"><ele>244.60000000000002</ele><time>2026-03-22T08:36:45.955Z</time></trkpt><trkpt lat="45.6801633" lon="9.8434721"><ele>246.20000000000002</ele><time>2026-03-22T08:36:47.956Z</time></trkpt><trkpt lat="45.6800984" lon="9.8433736"><ele>247.8</ele><time>2026-03-22T08:36:50.037Z</time></trkpt><trkpt lat="45.6800209" lon="9.8432741"><ele>249.4</ele><time>2026-03-22T08:36:51.951Z</time></trkpt><trkpt lat="45.6799444" lon="9.8431913"><ele>251.0</ele><time>2026-03-22T08:36:53.943Z</time></trkpt><trkpt lat="45.6798647" lon="9.84314"><ele>251.0</ele><time>2026-03-22T08:36:55.949Z</time></trkpt><trkpt lat="45.6797653" lon="9.8430933"><ele>251.0</ele><time>2026-03-22T08:36:57.947Z</time></trkpt><trkpt lat="45.6796484" lon="9.8430704"><ele>251.0</ele><time>2026-03-22T08:37:00.03Z</time></trkpt><trkpt lat="45.6795301" lon="9.8430335"><ele>251.0</ele><time>2026-03-22T08:37:01.955Z</time></trkpt><trkpt lat="45.6794157" lon="9.8430062"><ele>251.5</ele><time>2026-03-22T08:37:03.969Z</time></trkpt><trkpt lat="45.679306" lon="9.8429727"><ele>252.0</ele><time>2026-03-22T08:37:06.036Z</time></trkpt><trkpt lat="45.6791847" lon="9.8429577"><ele>252.5</ele><time>2026-03-22T08:37:07.941Z</time></trkpt><trkpt lat="45.679066" lon="9.8429499"><ele>253.0</ele><time>2026-03-22T08:37:09.943Z</time></trkpt><trkpt lat="45.6789576" lon="9.8429717"><ele>253.0</ele><time>2026-03-22T08:37:11.952Z</time></trkpt><trkpt lat="45.6788465" lon="9.8430011"><ele>253.0</ele><time>2026-03-22T08:37:13.951Z</time></trkpt><trkpt lat="45.6787365" lon="9.8430462"><ele>253.0</ele><time>2026-03-22T08:37:15.958Z</time></trkpt><trkpt lat="45.6786234" lon="9.8430855"><ele>253.0</ele><time>2026-03-22T08:37:17.952Z</time></trkpt><trkpt lat="45.6785208" lon="9.8431223"><ele>251.33333333333331</ele><time>2026-03-22T08:37:20.031Z</time></trkpt><trkpt lat="45.6784181" lon="9.8431473"><ele>249.66666666666666</ele><time>2026-03-22T08:37:22.032Z</time></trkpt><trkpt lat="45.6783201" lon="9.8431703"><ele>248.0</ele><time>2026-03-22T08:37:23.954Z</time></trkpt><trkpt lat="45.6782327" lon="9.8431964"><ele>246.33333333333331</ele><time>2026-03-22T08:37:25.955Z</time></trkpt><trkpt lat="45.6781526" lon="9.843224"><ele>244.66666666666666</ele><time>2026-03-22T08:37:27.975Z</time></trkpt><trkpt lat="45.6780808" lon="9.8432434"><ele>243.0</ele><time>2026-03-22T08:37:29.971Z</time></trkpt><trkpt lat="45.6780364" lon="9.8431498"><ele>243.0</ele><time>2026-03-22T08:37:31.975Z</time></trkpt><trkpt lat="45.6780373" lon="9.8430093"><ele>243.0</ele><time>2026-03-22T08:37:33.969Z</time></trkpt><trkpt lat="45.6780305" lon="9.842865"><ele>243.0</ele><time>2026-03-22T08:37:36.028Z</time></trkpt><trkpt lat="45.6780217" lon="9.842715"><ele>243.0</ele><time>2026-03-22T08:37:37.956Z</time></trkpt><trkpt lat="45.6780202" lon="9.8425659"><ele>243.0</ele><time>2026-03-22T08:37:39.957Z</time></trkpt><trkpt lat="45.6780244" lon="9.8424211"><ele>241.8</ele><time>2026-03-22T08:37:41.956Z</time></trkpt><trkpt lat="45.6780223" lon="9.842276"><ele>240.60000000000002</ele><time>2026-03-22T08:37:43.96Z</time></trkpt><trkpt lat="45.6780324" lon="9.8421307"><ele>239.39999999999998</ele><time>2026-03-22T08:37:45.953Z</time></trkpt><trkpt lat="45.6780426" lon="9.8419806"><ele>238.2</ele><time>2026-03-22T08:37:47.964Z</time></trkpt><trkpt lat="45.6780634" lon="9.8418106"><ele>237.0</ele><time>2026-03-22T08:37:49.972Z</time></trkpt><trkpt lat="45.6780781" lon="9.8416366"><ele>237.0</ele><time>2026-03-22T08:37:52.035Z</time></trkpt><trkpt lat="45.6780904" lon="9.8414732"><ele>237.0</ele><time>2026-03-22T08:37:53.961Z</time></trkpt><trkpt lat="45.6781075" lon="9.8413207"><ele>237.0</ele><time>2026-03-22T08:37:56.045Z</time></trkpt><trkpt lat="45.678125" lon="9.8411696"><ele>237.0</ele><time>2026-03-22T08:37:57.958Z</time></trkpt><trkpt lat="45.6781385" lon="9.8410261"><ele>237.0</ele><time>2026-03-22T08:38:00.041Z</time></trkpt><trkpt lat="45.6781483" lon="9.840882"><ele>237.25</ele><time>2026-03-22T08:38:02.036Z</time></trkpt><trkpt lat="45.6781617" lon="9.8407408"><ele>237.5</ele><time>2026-03-22T08:38:03.967Z</time></trkpt><trkpt lat="45.6781788" lon="9.8405622"><ele>237.75</ele><time>2026-03-22T08:38:05.964Z</time></trkpt><trkpt lat="45.6781867" lon="9.8403928"><ele>238.0</ele><time>2026-03-22T08:38:07.981Z</time></trkpt><trkpt lat="45.6781737" lon="9.8402224"><ele>237.75</ele><time>2026-03-22T08:38:09.957Z</time></trkpt><trkpt lat="45.6781444" lon="9.8400721"><ele>237.5</ele><time>2026-03-22T08:38:11.957Z</time></trkpt><trkpt lat="45.6781238" lon="9.8399216"><ele>237.25</ele><time>2026-03-22T08:38:13.955Z</time></trkpt><trkpt lat="45.6780885" lon="9.8397719"><ele>237.0</ele><time>2026-03-22T08:38:15.953Z</time></trkpt><trkpt lat="45.6780463" lon="9.8395301"><ele>237.0</ele><time>2026-03-22T08:38:18.962Z</time></trkpt><trkpt lat="45.6780253" lon="9.839368"><ele>237.0</ele><time>2026-03-22T08:38:20.954Z</time></trkpt><trkpt lat="45.678004" lon="9.8392171"><ele>237.0</ele><time>2026-03-22T08:38:22.96Z</time></trkpt><trkpt lat="45.6779823" lon="9.8390626"><ele>237.0</ele><time>2026-03-22T08:38:25.038Z</time></trkpt><trkpt lat="45.6779556" lon="9.8389055"><ele>237.0</ele><time>2026-03-22T08:38:27.029Z</time></trkpt><trkpt lat="45.6779187" lon="9.8387481"><ele>237.2</ele><time>2026-03-22T08:38:28.952Z</time></trkpt><trkpt lat="45.677891" lon="9.8385915"><ele>237.39999999999998</ele><time>2026-03-22T08:38:30.949Z</time></trkpt><trkpt lat="45.6778607" lon="9.8384352"><ele>237.60000000000002</ele><time>2026-03-22T08:38:32.952Z</time></trkpt><trkpt lat="45.6778312" lon="9.8382868"><ele>237.8</ele><time>2026-03-22T08:38:35.165Z</time></trkpt><trkpt lat="45.6778078" lon="9.8381497"><ele>238.0</ele><time>2026-03-22T08:38:37.036Z</time></trkpt><trkpt lat="45.6778488" lon="9.8380142"><ele>238.2</ele><time>2026-03-22T08:38:38.953Z</time></trkpt><trkpt lat="45.6779057" lon="9.8379714"><ele>238.4</ele><time>2026-03-22T08:38:39.964Z</time></trkpt><trkpt lat="45.6780128" lon="9.8379061"><ele>238.59999999999997</ele><time>2026-03-22T08:38:42.048Z</time></trkpt><trkpt lat="45.6780919" lon="9.8377966"><ele>238.79999999999998</ele><time>2026-03-22T08:38:44.042Z</time></trkpt><trkpt lat="45.6781347" lon="9.8376381"><ele>239.0</ele><time>2026-03-22T08:38:46.03Z</time></trkpt><trkpt lat="45.6781857" lon="9.8375041"><ele>238.6</ele><time>2026-03-22T08:38:47.96Z</time></trkpt><trkpt lat="45.6782372" lon="9.8373525"><ele>238.2</ele><time>2026-03-22T08:38:50.006Z</time></trkpt><trkpt lat="45.6782845" lon="9.8372189"><ele>237.79999999999998</ele><time>2026-03-22T08:38:51.956Z</time></trkpt><trkpt lat="45.6783353" lon="9.837086"><ele>237.39999999999998</ele><time>2026-03-22T08:38:53.959Z</time></trkpt><trkpt lat="45.6783792" lon="9.8369488"><ele>237.0</ele><time>2026-03-22T08:38:56.028Z</time></trkpt><trkpt lat="45.6784226" lon="9.8368017"><ele>237.0</ele><time>2026-03-22T08:38:57.952Z</time></trkpt><trkpt lat="45.6784725" lon="9.8366634"><ele>237.0</ele><time>2026-03-22T08:38:59.95Z</time></trkpt><trkpt lat="45.6785223" lon="9.8365204"><ele>237.0</ele><time>2026-03-22T08:39:01.948Z</time></trkpt><trkpt lat="45.6785735" lon="9.8363672"><ele>237.0</ele><time>2026-03-22T08:39:03.953Z</time></trkpt><trkpt lat="45.6786196" lon="9.8362228"><ele>237.2</ele><time>2026-03-22T08:39:06.045Z</time></trkpt><trkpt lat="45.6786646" lon="9.836077"><ele>237.39999999999998</ele><time>2026-03-22T08:39:07.952Z</time></trkpt><trkpt lat="45.6787125" lon="9.8359482"><ele>237.60000000000002</ele><time>2026-03-22T08:39:09.966Z</time></trkpt><trkpt lat="45.6787506" lon="9.8358316"><ele>237.8</ele><time>2026-03-22T08:39:12.034Z</time></trkpt><trkpt lat="45.678794" lon="9.8357182"><ele>238.0</ele><time>2026-03-22T08:39:13.96Z</time></trkpt><trkpt lat="45.6788395" lon="9.8355869"><ele>238.2</ele><time>2026-03-22T08:39:16.057Z</time></trkpt><trkpt lat="45.6788892" lon="9.8354452"><ele>238.4</ele><time>2026-03-22T08:39:17.954Z</time></trkpt><trkpt lat="45.6789386" lon="9.8352981"><ele>238.59999999999997</ele><time>2026-03-22T08:39:19.947Z</time></trkpt><trkpt lat="45.6789886" lon="9.8351534"><ele>238.79999999999998</ele><time>2026-03-22T08:39:21.961Z</time></trkpt><trkpt lat="45.6790364" lon="9.8350104"><ele>239.0</ele><time>2026-03-22T08:39:23.957Z</time></trkpt><trkpt lat="45.6790839" lon="9.8348674"><ele>239.0</ele><time>2026-03-22T08:39:26.034Z</time></trkpt><trkpt lat="45.6791309" lon="9.8347305"><ele>238.99999999999997</ele><time>2026-03-22T08:39:27.96Z</time></trkpt><trkpt lat="45.6791785" lon="9.8345897"><ele>238.99999999999997</ele><time>2026-03-22T08:39:30.032Z</time></trkpt><trkpt lat="45.6792287" lon="9.8344436"><ele>239.0</ele><time>2026-03-22T08:39:32.032Z</time></trkpt><trkpt lat="45.6792766" lon="9.8343022"><ele>239.0</ele><time>2026-03-22T08:39:33.958Z</time></trkpt><trkpt lat="45.6793337" lon="9.8341633"><ele>239.0</ele><time>2026-03-22T08:39:36.029Z</time></trkpt><trkpt lat="45.6793819" lon="9.8340226"><ele>238.99999999999997</ele><time>2026-03-22T08:39:37.957Z</time></trkpt><trkpt lat="45.6794286" lon="9.8338781"><ele>238.99999999999997</ele><time>2026-03-22T08:39:39.952Z</time></trkpt><trkpt lat="45.6794777" lon="9.8337311"><ele>239.0</ele><time>2026-03-22T08:39:41.958Z</time></trkpt><trkpt lat="45.6795272" lon="9.8335835"><ele>239.0</ele><time>2026-03-22T08:39:43.958Z</time></trkpt><trkpt lat="45.6795682" lon="9.8334445"><ele>239.0</ele><time>2026-03-22T08:39:45.951Z</time></trkpt><trkpt lat="45.6795991" lon="9.8333127"><ele>238.99999999999997</ele><time>2026-03-22T08:39:47.955Z</time></trkpt><trkpt lat="45.6795747" lon="9.8332056"><ele>238.99999999999997</ele><time>2026-03-22T08:39:49.955Z</time></trkpt><trkpt lat="45.6794874" lon="9.833162"><ele>239.0</ele><time>2026-03-22T08:39:52.052Z</time></trkpt><trkpt lat="45.6793998" lon="9.8330914"><ele>239.0</ele><time>2026-03-22T08:39:53.961Z</time></trkpt><trkpt lat="45.6793064" lon="9.833016"><ele>239.0</ele><time>2026-03-22T08:39:55.953Z</time></trkpt><trkpt lat="45.6792143" lon="9.832943"><ele>238.99999999999997</ele><time>2026-03-22T08:39:57.96Z</time></trkpt><trkpt lat="45.6791133" lon="9.83287"><ele>238.99999999999997</ele><time>2026-03-22T08:39:59.973Z</time></trkpt><trkpt lat="45.6790173" lon="9.8327907"><ele>239.0</ele><time>2026-03-22T08:40:02.031Z</time></trkpt><trkpt lat="45.6789151" lon="9.8327249"><ele>239.0</ele><time>2026-03-22T08:40:03.963Z</time></trkpt><trkpt lat="45.6788086" lon="9.8326648"><ele>239.0</ele><time>2026-03-22T08:40:05.969Z</time></trkpt><trkpt lat="45.6787114" lon="9.8325886"><ele>238.99999999999997</ele><time>2026-03-22T08:40:07.97Z</time></trkpt><trkpt lat="45.6786147" lon="9.8325125"><ele>238.99999999999997</ele><time>2026-03-22T08:40:09.993Z</time></trkpt><trkpt lat="45.6785156" lon="9.8324395"><ele>239.0</ele><time>2026-03-22T08:40:11.967Z</time></trkpt><trkpt lat="45.6784159" lon="9.8323643"><ele>239.0</ele><time>2026-03-22T08:40:13.967Z</time></trkpt><trkpt lat="45.6783168" lon="9.83229"><ele>239.0</ele><time>2026-03-22T08:40:15.97Z</time></trkpt><trkpt lat="45.6782127" lon="9.8322168"><ele>239.0</ele><time>2026-03-22T08:40:17.951Z</time></trkpt><trkpt lat="45.6781058" lon="9.8321555"><ele>239.0</ele><time>2026-03-22T08:40:20.064Z</time></trkpt><trkpt lat="45.6780054" lon="9.8320766"><ele>239.0</ele><time>2026-03-22T08:40:22.025Z</time></trkpt><trkpt lat="45.6779109" lon="9.832001"><ele>239.0</ele><time>2026-03-22T08:40:24.036Z</time></trkpt><trkpt lat="45.6778049" lon="9.8319375"><ele>239.0</ele><time>2026-03-22T08:40:26.031Z</time></trkpt><trkpt lat="45.677696" lon="9.8318679"><ele>239.0</ele><time>2026-03-22T08:40:27.956Z</time></trkpt><trkpt lat="45.6776024" lon="9.8317916"><ele>239.0</ele><time>2026-03-22T08:40:29.971Z</time></trkpt><trkpt lat="45.6775026" lon="9.8317212"><ele>239.0</ele><time>2026-03-22T08:40:31.975Z</time></trkpt><trkpt lat="45.6774087" lon="9.8316692"><ele>238.99999999999997</ele><time>2026-03-22T08:40:33.972Z</time></trkpt><trkpt lat="45.6773526" lon="9.8315866"><ele>238.99999999999997</ele><time>2026-03-22T08:40:35.958Z</time></trkpt><trkpt lat="45.6773898" lon="9.8314606"><ele>239.0</ele><time>2026-03-22T08:40:37.956Z</time></trkpt><trkpt lat="45.6774375" lon="9.8313201"><ele>239.0</ele><time>2026-03-22T08:40:40.034Z</time></trkpt><trkpt lat="45.6774819" lon="9.831167"><ele>239.0</ele><time>2026-03-22T08:40:42.011Z</time></trkpt><trkpt lat="45.6775308" lon="9.8310058"><ele>239.0</ele><time>2026-03-22T08:40:43.958Z</time></trkpt><trkpt lat="45.6775814" lon="9.8308463"><ele>239.0</ele><time>2026-03-22T08:40:45.952Z</time></trkpt><trkpt lat="45.6776278" lon="9.8306808"><ele>239.0</ele><time>2026-03-22T08:40:47.946Z</time></trkpt><trkpt lat="45.677669" lon="9.8305146"><ele>239.16666666666669</ele><time>2026-03-22T08:40:49.951Z</time></trkpt><trkpt lat="45.6777104" lon="9.830372"><ele>239.33333333333334</ele><time>2026-03-22T08:40:51.956Z</time></trkpt><trkpt lat="45.6777506" lon="9.8302388"><ele>239.5</ele><time>2026-03-22T08:40:53.949Z</time></trkpt><trkpt lat="45.6777692" lon="9.8301244"><ele>239.66666666666669</ele><time>2026-03-22T08:40:55.948Z</time></trkpt><trkpt lat="45.6778407" lon="9.8300873"><ele>239.83333333333334</ele><time>2026-03-22T08:41:13.96Z</time></trkpt><trkpt lat="45.6779168" lon="9.830087"><ele>240.0</ele><time>2026-03-22T08:41:16.947Z</time></trkpt><trkpt lat="45.6779786" lon="9.8300183"><ele>240.2</ele><time>2026-03-22T08:41:18.954Z</time></trkpt><trkpt lat="45.6780404" lon="9.8298748"><ele>240.4</ele><time>2026-03-22T08:41:20.949Z</time></trkpt><trkpt lat="45.6780782" lon="9.8297521"><ele>240.60000000000002</ele><time>2026-03-22T08:41:22.938Z</time></trkpt><trkpt lat="45.6781243" lon="9.8296285"><ele>240.8</ele><time>2026-03-22T08:41:24.955Z</time></trkpt><trkpt lat="45.6781717" lon="9.8295049"><ele>241.0</ele><time>2026-03-22T08:41:26.959Z</time></trkpt><trkpt lat="45.6782195" lon="9.8293893"><ele>241.16666666666666</ele><time>2026-03-22T08:41:28.954Z</time></trkpt><trkpt lat="45.678298" lon="9.8292834"><ele>241.33333333333331</ele><time>2026-03-22T08:41:30.958Z</time></trkpt><trkpt lat="45.6783621" lon="9.8291941"><ele>241.5</ele><time>2026-03-22T08:41:32.952Z</time></trkpt><trkpt lat="45.6784125" lon="9.8291235"><ele>241.66666666666669</ele><time>2026-03-22T08:41:34.956Z</time></trkpt><trkpt lat="45.67847" lon="9.8290391"><ele>241.83333333333334</ele><time>2026-03-22T08:41:36.957Z</time></trkpt><trkpt lat="45.6785044" lon="9.8289405"><ele>242.0</ele><time>2026-03-22T08:41:38.957Z</time></trkpt><trkpt lat="45.6785131" lon="9.8288244"><ele>242.00000000000003</ele><time>2026-03-22T08:41:40.949Z</time></trkpt><trkpt lat="45.6785182" lon="9.828716"><ele>242.0</ele><time>2026-03-22T08:41:42.958Z</time></trkpt><trkpt lat="45.678534" lon="9.8285969"><ele>242.0</ele><time>2026-03-22T08:41:44.962Z</time></trkpt><trkpt lat="45.6785777" lon="9.8284969"><ele>242.0</ele><time>2026-03-22T08:41:46.955Z</time></trkpt><trkpt lat="45.6786302" lon="9.8284099"><ele>242.00000000000003</ele><time>2026-03-22T08:41:48.953Z</time></trkpt><trkpt lat="45.678687" lon="9.8283345"><ele>242.0</ele><time>2026-03-22T08:41:50.951Z</time></trkpt><trkpt lat="45.6787403" lon="9.8282514"><ele>242.66666666666669</ele><time>2026-03-22T08:41:52.953Z</time></trkpt><trkpt lat="45.6788039" lon="9.828167"><ele>243.33333333333334</ele><time>2026-03-22T08:41:54.957Z</time></trkpt><trkpt lat="45.6788738" lon="9.8281085"><ele>244.0</ele><time>2026-03-22T08:41:57.031Z</time></trkpt><trkpt lat="45.678939" lon="9.8280752"><ele>244.66666666666669</ele><time>2026-03-22T08:41:58.961Z</time></trkpt><trkpt lat="45.6789912" lon="9.827999"><ele>245.33333333333334</ele><time>2026-03-22T08:42:02.958Z</time></trkpt><trkpt lat="45.6789938" lon="9.827907"><ele>246.0</ele><time>2026-03-22T08:42:04.965Z</time></trkpt><trkpt lat="45.6789521" lon="9.8278097"><ele>246.0</ele><time>2026-03-22T08:42:06.961Z</time></trkpt><trkpt lat="45.678906" lon="9.8277054"><ele>246.00000000000003</ele><time>2026-03-22T08:42:08.968Z</time></trkpt><trkpt lat="45.6788851" lon="9.8275816"><ele>246.00000000000003</ele><time>2026-03-22T08:42:10.963Z</time></trkpt><trkpt lat="45.6789446" lon="9.8274821"><ele>246.0</ele><time>2026-03-22T08:42:12.955Z</time></trkpt><trkpt lat="45.6790073" lon="9.8273954"><ele>246.0</ele><time>2026-03-22T08:42:14.961Z</time></trkpt><trkpt lat="45.6790875" lon="9.8273159"><ele>246.20000000000002</ele><time>2026-03-22T08:42:16.962Z</time></trkpt><trkpt lat="45.6791631" lon="9.8272409"><ele>246.40000000000003</ele><time>2026-03-22T08:42:18.96Z</time></trkpt><trkpt lat="45.6792431" lon="9.8271541"><ele>246.6</ele><time>2026-03-22T08:42:21.034Z</time></trkpt><trkpt lat="45.6793222" lon="9.8270621"><ele>246.8</ele><time>2026-03-22T08:42:23.007Z</time></trkpt><trkpt lat="45.6794139" lon="9.8269796"><ele>247.0</ele><time>2026-03-22T08:42:25.063Z</time></trkpt><trkpt lat="45.6795004" lon="9.8268818"><ele>247.0</ele><time>2026-03-22T08:42:27.034Z</time></trkpt><trkpt lat="45.6795855" lon="9.8267842"><ele>247.0</ele><time>2026-03-22T08:42:28.959Z</time></trkpt><trkpt lat="45.6796687" lon="9.8266839"><ele>247.0</ele><time>2026-03-22T08:42:31.041Z</time></trkpt><trkpt lat="45.6797542" lon="9.8265881"><ele>247.0</ele><time>2026-03-22T08:42:32.952Z</time></trkpt><trkpt lat="45.6798389" lon="9.8265008"><ele>247.0</ele><time>2026-03-22T08:42:34.972Z</time></trkpt><trkpt lat="45.6799249" lon="9.8263995"><ele>247.0</ele><time>2026-03-22T08:42:37.047Z</time></trkpt><trkpt lat="45.6800117" lon="9.8263025"><ele>247.0</ele><time>2026-03-22T08:42:38.961Z</time></trkpt><trkpt lat="45.6801011" lon="9.8262127"><ele>247.0</ele><time>2026-03-22T08:42:41.046Z</time></trkpt><trkpt lat="45.6801908" lon="9.8261115"><ele>247.0</ele><time>2026-03-22T08:42:42.956Z</time></trkpt><trkpt lat="45.680276" lon="9.8260077"><ele>247.0</ele><time>2026-03-22T08:42:44.949Z</time></trkpt><trkpt lat="45.68036" lon="9.8258957"><ele>246.8</ele><time>2026-03-22T08:42:46.955Z</time></trkpt><trkpt lat="45.6804414" lon="9.8257951"><ele>246.6</ele><time>2026-03-22T08:42:49.035Z</time></trkpt><trkpt lat="45.6805108" lon="9.8256857"><ele>246.40000000000003</ele><time>2026-03-22T08:42:51.038Z</time></trkpt><trkpt lat="45.6805768" lon="9.8255655"><ele>246.20000000000002</ele><time>2026-03-22T08:42:52.961Z</time></trkpt><trkpt lat="45.6806436" lon="9.8254288"><ele>246.0</ele><time>2026-03-22T08:42:54.963Z</time></trkpt><trkpt lat="45.6807151" lon="9.8252967"><ele>246.0</ele><time>2026-03-22T08:42:56.959Z</time></trkpt><trkpt lat="45.6807769" lon="9.8251694"><ele>246.00000000000003</ele><time>2026-03-22T08:42:59.037Z</time></trkpt><trkpt lat="45.6808404" lon="9.8250364"><ele>246.00000000000003</ele><time>2026-03-22T08:43:00.96Z</time></trkpt><trkpt lat="45.6809064" lon="9.8249049"><ele>246.0</ele><time>2026-03-22T08:43:02.963Z</time></trkpt><trkpt lat="45.6809661" lon="9.824774"><ele>246.0</ele><time>2026-03-22T08:43:05Z</time></trkpt><trkpt lat="45.6810319" lon="9.8246595"><ele>246.4</ele><time>2026-03-22T08:43:06.961Z</time></trkpt><trkpt lat="45.6811173" lon="9.824606"><ele>246.8</ele><time>2026-03-22T08:43:08.96Z</time></trkpt><trkpt lat="45.6812118" lon="9.8246175"><ele>247.20000000000002</ele><time>2026-03-22T08:43:11.027Z</time></trkpt><trkpt lat="45.6812957" lon="9.8245825"><ele>247.60000000000002</ele><time>2026-03-22T08:43:12.955Z</time></trkpt><trkpt lat="45.6813395" lon="9.8244767"><ele>248.0</ele><time>2026-03-22T08:43:14.954Z</time></trkpt><trkpt lat="45.6813701" lon="9.824357"><ele>248.60000000000002</ele><time>2026-03-22T08:43:16.947Z</time></trkpt><trkpt lat="45.6813964" lon="9.8242244"><ele>249.20000000000002</ele><time>2026-03-22T08:43:18.955Z</time></trkpt><trkpt lat="45.6814152" lon="9.824082"><ele>249.8</ele><time>2026-03-22T08:43:20.954Z</time></trkpt><trkpt lat="45.6814313" lon="9.8239288"><ele>250.4</ele><time>2026-03-22T08:43:22.953Z</time></trkpt><trkpt lat="45.6814439" lon="9.823772"><ele>251.0</ele><time>2026-03-22T08:43:24.962Z</time></trkpt><trkpt lat="45.6814496" lon="9.823615"><ele>250.8</ele><time>2026-03-22T08:43:26.957Z</time></trkpt><trkpt lat="45.6814605" lon="9.8234668"><ele>250.60000000000002</ele><time>2026-03-22T08:43:28.953Z</time></trkpt><trkpt lat="45.6814791" lon="9.8233302"><ele>250.4</ele><time>2026-03-22T08:43:31.012Z</time></trkpt><trkpt lat="45.6814905" lon="9.8232018"><ele>250.2</ele><time>2026-03-22T08:43:32.961Z</time></trkpt><trkpt lat="45.6815012" lon="9.8230802"><ele>250.0</ele><time>2026-03-22T08:43:34.948Z</time></trkpt><trkpt lat="45.6815105" lon="9.8229684"><ele>250.0</ele><time>2026-03-22T08:43:36.954Z</time></trkpt><trkpt lat="45.6815245" lon="9.8228551"><ele>250.0</ele><time>2026-03-22T08:43:38.951Z</time></trkpt><trkpt lat="45.6815315" lon="9.8227421"><ele>250.0</ele><time>2026-03-22T08:43:40.949Z</time></trkpt><trkpt lat="45.6815195" lon="9.8226338"><ele>250.0</ele><time>2026-03-22T08:43:42.951Z</time></trkpt><trkpt lat="45.6814711" lon="9.8225298"><ele>250.0</ele><time>2026-03-22T08:43:44.95Z</time></trkpt><trkpt lat="45.6814161" lon="9.8223364"><ele>249.2</ele><time>2026-03-22T08:43:47.949Z</time></trkpt><trkpt lat="45.6814243" lon="9.8221963"><ele>248.4</ele><time>2026-03-22T08:43:49.952Z</time></trkpt><trkpt lat="45.6814316" lon="9.8220669"><ele>247.60000000000002</ele><time>2026-03-22T08:43:51.953Z</time></trkpt><trkpt lat="45.6814451" lon="9.8219308"><ele>246.8</ele><time>2026-03-22T08:43:53.96Z</time></trkpt><trkpt lat="45.6814667" lon="9.8217951"><ele>246.0</ele><time>2026-03-22T08:43:55.952Z</time></trkpt><trkpt lat="45.6815113" lon="9.8216872"><ele>245.8</ele><time>2026-03-22T08:43:57.956Z</time></trkpt><trkpt lat="45.6815836" lon="9.8216035"><ele>245.60000000000002</ele><time>2026-03-22T08:43:59.954Z</time></trkpt><trkpt lat="45.6816752" lon="9.8215822"><ele>245.4</ele><time>2026-03-22T08:44:02.035Z</time></trkpt><trkpt lat="45.6817718" lon="9.8215661"><ele>245.2</ele><time>2026-03-22T08:44:03.97Z</time></trkpt><trkpt lat="45.6819177" lon="9.8215266"><ele>245.0</ele><time>2026-03-22T08:44:07.03Z</time></trkpt><trkpt lat="45.6820026" lon="9.8214412"><ele>244.8</ele><time>2026-03-22T08:44:08.957Z</time></trkpt><trkpt lat="45.6820633" lon="9.8213272"><ele>244.6</ele><time>2026-03-22T08:44:10.962Z</time></trkpt><trkpt lat="45.6820983" lon="9.8211859"><ele>244.39999999999998</ele><time>2026-03-22T08:44:12.958Z</time></trkpt><trkpt lat="45.6821221" lon="9.8210405"><ele>244.2</ele><time>2026-03-22T08:44:14.979Z</time></trkpt><trkpt lat="45.6821347" lon="9.8209095"><ele>244.0</ele><time>2026-03-22T08:44:16.957Z</time></trkpt><trkpt lat="45.6821619" lon="9.8207893"><ele>244.0</ele><time>2026-03-22T08:44:18.953Z</time></trkpt><trkpt lat="45.6821815" lon="9.8206548"><ele>243.99999999999997</ele><time>2026-03-22T08:44:21.023Z</time></trkpt><trkpt lat="45.6821933" lon="9.8205037"><ele>243.99999999999997</ele><time>2026-03-22T08:44:22.953Z</time></trkpt><trkpt lat="45.6821974" lon="9.8203386"><ele>244.0</ele><time>2026-03-22T08:44:24.969Z</time></trkpt><trkpt lat="45.6822134" lon="9.8201733"><ele>244.0</ele><time>2026-03-22T08:44:26.958Z</time></trkpt><trkpt lat="45.682226" lon="9.8200171"><ele>244.25</ele><time>2026-03-22T08:44:28.986Z</time></trkpt><trkpt lat="45.6822377" lon="9.8198448"><ele>244.5</ele><time>2026-03-22T08:44:30.951Z</time></trkpt><trkpt lat="45.6822492" lon="9.8196867"><ele>244.75</ele><time>2026-03-22T08:44:32.967Z</time></trkpt><trkpt lat="45.6822616" lon="9.8195233"><ele>245.0</ele><time>2026-03-22T08:44:34.959Z</time></trkpt><trkpt lat="45.6822792" lon="9.8193571"><ele>244.75</ele><time>2026-03-22T08:44:36.964Z</time></trkpt><trkpt lat="45.6822978" lon="9.8191971"><ele>244.5</ele><time>2026-03-22T08:44:38.966Z</time></trkpt><trkpt lat="45.6823129" lon="9.8190366"><ele>244.25</ele><time>2026-03-22T08:44:41.037Z</time></trkpt><trkpt lat="45.6823297" lon="9.8188766"><ele>244.0</ele><time>2026-03-22T08:44:42.954Z</time></trkpt><trkpt lat="45.6823437" lon="9.81872"><ele>244.0</ele><time>2026-03-22T08:44:45.057Z</time></trkpt><trkpt lat="45.6823528" lon="9.8185627"><ele>244.0</ele><time>2026-03-22T08:44:46.959Z</time></trkpt><trkpt lat="45.6823589" lon="9.8183942"><ele>244.0</ele><time>2026-03-22T08:44:48.959Z</time></trkpt><trkpt lat="45.6823465" lon="9.8182161"><ele>244.0</ele><time>2026-03-22T08:44:51.052Z</time></trkpt><trkpt lat="45.6822931" lon="9.8179751"><ele>244.16666666666666</ele><time>2026-03-22T08:44:53.968Z</time></trkpt><trkpt lat="45.6822524" lon="9.8178491"><ele>244.33333333333331</ele><time>2026-03-22T08:44:56.036Z</time></trkpt><trkpt lat="45.6822245" lon="9.8177582"><ele>244.5</ele><time>2026-03-22T08:44:57.968Z</time></trkpt><trkpt lat="45.6821951" lon="9.8176602"><ele>244.66666666666669</ele><time>2026-03-22T08:44:59.989Z</time></trkpt><trkpt lat="45.6821682" lon="9.8175722"><ele>244.83333333333334</ele><time>2026-03-22T08:45:01.969Z</time></trkpt><trkpt lat="45.6821436" lon="9.8174618"><ele>245.0</ele><time>2026-03-22T08:45:03.965Z</time></trkpt><trkpt lat="45.6821038" lon="9.8173256"><ele>244.6</ele><time>2026-03-22T08:45:05.964Z</time></trkpt><trkpt lat="45.6820632" lon="9.8171862"><ele>244.2</ele><time>2026-03-22T08:45:07.964Z</time></trkpt><trkpt lat="45.6820202" lon="9.8170448"><ele>243.8</ele><time>2026-03-22T08:45:09.978Z</time></trkpt><trkpt lat="45.6819794" lon="9.8168907"><ele>243.4</ele><time>2026-03-22T08:45:11.965Z</time></trkpt><trkpt lat="45.6819433" lon="9.8167376"><ele>243.0</ele><time>2026-03-22T08:45:13.968Z</time></trkpt><trkpt lat="45.6818954" lon="9.8165788"><ele>242.4</ele><time>2026-03-22T08:45:15.955Z</time></trkpt><trkpt lat="45.6818536" lon="9.8164198"><ele>241.8</ele><time>2026-03-22T08:45:17.967Z</time></trkpt><trkpt lat="45.6818172" lon="9.8162693"><ele>241.2</ele><time>2026-03-22T08:45:20.034Z</time></trkpt><trkpt lat="45.6817843" lon="9.8161212"><ele>240.6</ele><time>2026-03-22T08:45:22.04Z</time></trkpt><trkpt lat="45.6817496" lon="9.8159782"><ele>240.0</ele><time>2026-03-22T08:45:24.048Z</time></trkpt><trkpt lat="45.681715" lon="9.8158249"><ele>240.0</ele><time>2026-03-22T08:45:26.03Z</time></trkpt><trkpt lat="45.6816739" lon="9.815669"><ele>240.0</ele><time>2026-03-22T08:45:27.946Z</time></trkpt><trkpt lat="45.6816307" lon="9.8155161"><ele>240.0</ele><time>2026-03-22T08:45:30.009Z</time></trkpt><trkpt lat="45.6815895" lon="9.8153551"><ele>240.0</ele><time>2026-03-22T08:45:31.952Z</time></trkpt><trkpt lat="45.6815505" lon="9.8151938"><ele>240.2</ele><time>2026-03-22T08:45:33.948Z</time></trkpt><trkpt lat="45.681505" lon="9.8150343"><ele>240.4</ele><time>2026-03-22T08:45:35.95Z</time></trkpt><trkpt lat="45.6814798" lon="9.8149483"><ele>240.60000000000002</ele><time>2026-03-22T08:45:36.95Z</time></trkpt><trkpt lat="45.6814288" lon="9.8148023"><ele>240.8</ele><time>2026-03-22T08:45:38.948Z</time></trkpt><trkpt lat="45.6813758" lon="9.8146731"><ele>241.0</ele><time>2026-03-22T08:45:40.954Z</time></trkpt><trkpt lat="45.6812928" lon="9.8145563"><ele>241.0</ele><time>2026-03-22T08:45:42.958Z</time></trkpt><trkpt lat="45.6812219" lon="9.8144363"><ele>241.00000000000003</ele><time>2026-03-22T08:45:44.948Z</time></trkpt><trkpt lat="45.6811976" lon="9.8142563"><ele>241.00000000000003</ele><time>2026-03-22T08:45:46.943Z</time></trkpt><trkpt lat="45.6812201" lon="9.8141459"><ele>241.0</ele><time>2026-03-22T08:45:47.945Z</time></trkpt><trkpt lat="45.6813004" lon="9.8140205"><ele>241.0</ele><time>2026-03-22T08:45:49.932Z</time></trkpt><trkpt lat="45.6813579" lon="9.8139831"><ele>240.8</ele><time>2026-03-22T08:45:50.936Z</time></trkpt><trkpt lat="45.6814173" lon="9.8139508"><ele>240.60000000000002</ele><time>2026-03-22T08:45:51.951Z</time></trkpt><trkpt lat="45.6814837" lon="9.8139304"><ele>240.4</ele><time>2026-03-22T08:45:52.947Z</time></trkpt><trkpt lat="45.6816034" lon="9.813916"><ele>240.2</ele><time>2026-03-22T08:45:54.944Z</time></trkpt><trkpt lat="45.6817073" lon="9.8140047"><ele>240.0</ele><time>2026-03-22T08:45:56.943Z</time></trkpt><trkpt lat="45.681758" lon="9.814146"><ele>240.0</ele><time>2026-03-22T08:45:58.952Z</time></trkpt><trkpt lat="45.6817771" lon="9.8142782"><ele>240.0</ele><time>2026-03-22T08:46:00.947Z</time></trkpt><trkpt lat="45.6818368" lon="9.8143828"><ele>240.0</ele><time>2026-03-22T08:46:02.951Z</time></trkpt><trkpt lat="45.6819332" lon="9.8144458"><ele>240.0</ele><time>2026-03-22T08:46:04.951Z</time></trkpt><trkpt lat="45.6820488" lon="9.8144566"><ele>240.0</ele><time>2026-03-22T08:46:06.958Z</time></trkpt><trkpt lat="45.6821563" lon="9.8144849"><ele>239.8</ele><time>2026-03-22T08:46:09.073Z</time></trkpt><trkpt lat="45.6822446" lon="9.8145336"><ele>239.6</ele><time>2026-03-22T08:46:10.993Z</time></trkpt><trkpt lat="45.6823378" lon="9.8145616"><ele>239.39999999999998</ele><time>2026-03-22T08:46:12.937Z</time></trkpt><trkpt lat="45.6824401" lon="9.8145712"><ele>239.2</ele><time>2026-03-22T08:46:14.95Z</time></trkpt><trkpt lat="45.6825427" lon="9.8145906"><ele>239.0</ele><time>2026-03-22T08:46:17.01Z</time></trkpt><trkpt lat="45.6826472" lon="9.8146186"><ele>239.0</ele><time>2026-03-22T08:46:18.948Z</time></trkpt><trkpt lat="45.6827543" lon="9.814641"><ele>238.99999999999997</ele><time>2026-03-22T08:46:20.949Z</time></trkpt><trkpt lat="45.6828588" lon="9.8146713"><ele>238.99999999999997</ele><time>2026-03-22T08:46:22.959Z</time></trkpt><trkpt lat="45.6829695" lon="9.8146948"><ele>239.0</ele><time>2026-03-22T08:46:24.947Z</time></trkpt><trkpt lat="45.6830783" lon="9.814717"><ele>239.0</ele><time>2026-03-22T08:46:26.951Z</time></trkpt><trkpt lat="45.6831925" lon="9.8147356"><ele>239.39999999999998</ele><time>2026-03-22T08:46:28.943Z</time></trkpt><trkpt lat="45.683301" lon="9.8147591"><ele>239.79999999999998</ele><time>2026-03-22T08:46:30.955Z</time></trkpt><trkpt lat="45.683405" lon="9.8147951"><ele>240.20000000000002</ele><time>2026-03-22T08:46:32.951Z</time></trkpt><trkpt lat="45.6835113" lon="9.8148196"><ele>240.60000000000002</ele><time>2026-03-22T08:46:34.964Z</time></trkpt><trkpt lat="45.6836218" lon="9.8148393"><ele>241.0</ele><time>2026-03-22T08:46:36.951Z</time></trkpt><trkpt lat="45.6837299" lon="9.8148581"><ele>241.4</ele><time>2026-03-22T08:46:38.949Z</time></trkpt><trkpt lat="45.6838362" lon="9.8148757"><ele>241.8</ele><time>2026-03-22T08:46:40.955Z</time></trkpt><trkpt lat="45.6839366" lon="9.8148955"><ele>242.20000000000002</ele><time>2026-03-22T08:46:42.954Z</time></trkpt><trkpt lat="45.6840394" lon="9.8149188"><ele>242.60000000000002</ele><time>2026-03-22T08:46:44.962Z</time></trkpt><trkpt lat="45.6841495" lon="9.814937"><ele>243.0</ele><time>2026-03-22T08:46:46.947Z</time></trkpt><trkpt lat="45.6842602" lon="9.8149604"><ele>243.0</ele><time>2026-03-22T08:46:48.938Z</time></trkpt><trkpt lat="45.684373" lon="9.8149857"><ele>243.0</ele><time>2026-03-22T08:46:50.952Z</time></trkpt><trkpt lat="45.6844818" lon="9.8150152"><ele>243.0</ele><time>2026-03-22T08:46:52.959Z</time></trkpt><trkpt lat="45.68459" lon="9.8150481"><ele>243.0</ele><time>2026-03-22T08:46:54.954Z</time></trkpt><trkpt lat="45.6846962" lon="9.815083"><ele>243.0</ele><time>2026-03-22T08:46:56.954Z</time></trkpt><trkpt lat="45.6847995" lon="9.815106"><ele>243.0</ele><time>2026-03-22T08:46:58.951Z</time></trkpt><trkpt lat="45.6849058" lon="9.8151338"><ele>243.0</ele><time>2026-03-22T08:47:00.952Z</time></trkpt><trkpt lat="45.6850093" lon="9.8151687"><ele>243.0</ele><time>2026-03-22T08:47:02.955Z</time></trkpt><trkpt lat="45.6851263" lon="9.8151957"><ele>243.0</ele><time>2026-03-22T08:47:05.009Z</time></trkpt><trkpt lat="45.6852342" lon="9.8152105"><ele>243.0</ele><time>2026-03-22T08:47:07.03Z</time></trkpt><trkpt lat="45.6853418" lon="9.8152226"><ele>243.25</ele><time>2026-03-22T08:47:08.954Z</time></trkpt><trkpt lat="45.6854532" lon="9.8152561"><ele>243.5</ele><time>2026-03-22T08:47:10.953Z</time></trkpt><trkpt lat="45.6855678" lon="9.8152895"><ele>243.75</ele><time>2026-03-22T08:47:12.96Z</time></trkpt><trkpt lat="45.6856806" lon="9.8153244"><ele>244.0</ele><time>2026-03-22T08:47:15.074Z</time></trkpt><trkpt lat="45.6857905" lon="9.815359"><ele>244.0</ele><time>2026-03-22T08:47:17.046Z</time></trkpt><trkpt lat="45.6859059" lon="9.8153855"><ele>243.99999999999997</ele><time>2026-03-22T08:47:18.965Z</time></trkpt><trkpt lat="45.6860178" lon="9.815412"><ele>243.99999999999997</ele><time>2026-03-22T08:47:21.034Z</time></trkpt><trkpt lat="45.686117" lon="9.8154529"><ele>244.0</ele><time>2026-03-22T08:47:22.955Z</time></trkpt><trkpt lat="45.6861951" lon="9.815498"><ele>244.0</ele><time>2026-03-22T08:47:25.043Z</time></trkpt><trkpt lat="45.6862776" lon="9.8155586"><ele>244.2</ele><time>2026-03-22T08:47:26.96Z</time></trkpt><trkpt lat="45.6863731" lon="9.8155811"><ele>244.39999999999998</ele><time>2026-03-22T08:47:29.04Z</time></trkpt><trkpt lat="45.6864651" lon="9.8155467"><ele>244.6</ele><time>2026-03-22T08:47:31.033Z</time></trkpt><trkpt lat="45.6865691" lon="9.8155036"><ele>244.8</ele><time>2026-03-22T08:47:32.952Z</time></trkpt><trkpt lat="45.6866777" lon="9.8155169"><ele>245.0</ele><time>2026-03-22T08:47:34.954Z</time></trkpt><trkpt lat="45.686769" lon="9.8155385"><ele>245.0</ele><time>2026-03-22T08:47:36.947Z</time></trkpt><trkpt lat="45.6868624" lon="9.8155664"><ele>245.0</ele><time>2026-03-22T08:47:38.956Z</time></trkpt><trkpt lat="45.6869567" lon="9.8155852"><ele>245.0</ele><time>2026-03-22T08:47:40.951Z</time></trkpt><trkpt lat="45.6870442" lon="9.8155928"><ele>245.0</ele><time>2026-03-22T08:47:42.943Z</time></trkpt><trkpt lat="45.6871425" lon="9.8156156"><ele>245.0</ele><time>2026-03-22T08:47:45.038Z</time></trkpt><trkpt lat="45.6872418" lon="9.8156477"><ele>245.2</ele><time>2026-03-22T08:47:47.037Z</time></trkpt><trkpt lat="45.6873407" lon="9.8156718"><ele>245.4</ele><time>2026-03-22T08:47:48.978Z</time></trkpt><trkpt lat="45.6874438" lon="9.8157021"><ele>245.60000000000002</ele><time>2026-03-22T08:47:51.023Z</time></trkpt><trkpt lat="45.6875501" lon="9.8157215"><ele>245.8</ele><time>2026-03-22T08:47:52.958Z</time></trkpt><trkpt lat="45.6876551" lon="9.8157554"><ele>246.0</ele><time>2026-03-22T08:47:54.959Z</time></trkpt><trkpt lat="45.6877603" lon="9.8157772"><ele>246.0</ele><time>2026-03-22T08:47:57.032Z</time></trkpt><trkpt lat="45.6878673" lon="9.8157955"><ele>246.00000000000003</ele><time>2026-03-22T08:47:59.033Z</time></trkpt><trkpt lat="45.6879725" lon="9.815813"><ele>246.00000000000003</ele><time>2026-03-22T08:48:00.972Z</time></trkpt><trkpt lat="45.6880768" lon="9.8158415"><ele>246.0</ele><time>2026-03-22T08:48:02.951Z</time></trkpt><trkpt lat="45.6881853" lon="9.8158637"><ele>246.0</ele><time>2026-03-22T08:48:05.028Z</time></trkpt><trkpt lat="45.6882915" lon="9.8158909"><ele>246.0</ele><time>2026-03-22T08:48:07.035Z</time></trkpt><trkpt lat="45.6883934" lon="9.8159222"><ele>246.00000000000003</ele><time>2026-03-22T08:48:08.967Z</time></trkpt><trkpt lat="45.6885056" lon="9.8159491"><ele>246.00000000000003</ele><time>2026-03-22T08:48:10.96Z</time></trkpt><trkpt lat="45.6886152" lon="9.8159771"><ele>246.0</ele><time>2026-03-22T08:48:12.959Z</time></trkpt><trkpt lat="45.6887323" lon="9.8159904"><ele>246.0</ele><time>2026-03-22T08:48:14.966Z</time></trkpt><trkpt lat="45.6888393" lon="9.8160246"><ele>246.20000000000002</ele><time>2026-03-22T08:48:17.034Z</time></trkpt><trkpt lat="45.6889518" lon="9.8160325"><ele>246.40000000000003</ele><time>2026-03-22T08:48:18.964Z</time></trkpt><trkpt lat="45.6890466" lon="9.816046"><ele>246.6</ele><time>2026-03-22T08:48:20.961Z</time></trkpt><trkpt lat="45.6891373" lon="9.8160828"><ele>246.8</ele><time>2026-03-22T08:48:22.956Z</time></trkpt><trkpt lat="45.6892236" lon="9.8161141"><ele>247.0</ele><time>2026-03-22T08:48:24.973Z</time></trkpt><trkpt lat="45.6893128" lon="9.816128"><ele>247.0</ele><time>2026-03-22T08:48:27.034Z</time></trkpt><trkpt lat="45.6894194" lon="9.8161592"><ele>247.0</ele><time>2026-03-22T08:48:28.953Z</time></trkpt><trkpt lat="45.6895243" lon="9.816204"><ele>247.0</ele><time>2026-03-22T08:48:31.037Z</time></trkpt><trkpt lat="45.6896424" lon="9.8162279"><ele>247.0</ele><time>2026-03-22T08:48:32.964Z</time></trkpt><trkpt lat="45.6897563" lon="9.8162488"><ele>247.0</ele><time>2026-03-22T08:48:34.951Z</time></trkpt><trkpt lat="45.6898632" lon="9.8162749"><ele>247.0</ele><time>2026-03-22T08:48:37.03Z</time></trkpt><trkpt lat="45.6899808" lon="9.8162799"><ele>247.0</ele><time>2026-03-22T08:48:38.963Z</time></trkpt><trkpt lat="45.690091" lon="9.8163086"><ele>247.0</ele><time>2026-03-22T08:48:41.039Z</time></trkpt><trkpt lat="45.6902088" lon="9.8163472"><ele>246.75</ele><time>2026-03-22T08:48:42.951Z</time></trkpt><trkpt lat="45.6903237" lon="9.8163611"><ele>246.5</ele><time>2026-03-22T08:48:44.969Z</time></trkpt><trkpt lat="45.6904312" lon="9.8163553"><ele>246.25</ele><time>2026-03-22T08:48:47.032Z</time></trkpt><trkpt lat="45.6905389" lon="9.8163408"><ele>246.0</ele><time>2026-03-22T08:48:48.953Z</time></trkpt><trkpt lat="45.6906893" lon="9.8163145"><ele>246.0</ele><time>2026-03-22T08:48:51.957Z</time></trkpt><trkpt lat="45.6907858" lon="9.8163137"><ele>246.00000000000003</ele><time>2026-03-22T08:48:53.952Z</time></trkpt><trkpt lat="45.6908808" lon="9.8163052"><ele>246.00000000000003</ele><time>2026-03-22T08:48:55.962Z</time></trkpt><trkpt lat="45.6909471" lon="9.816274"><ele>246.0</ele><time>2026-03-22T08:48:57.955Z</time></trkpt><trkpt lat="45.69099" lon="9.8161231"><ele>246.0</ele><time>2026-03-22T08:48:59.951Z</time></trkpt><trkpt lat="45.6910111" lon="9.8159866"><ele>246.0</ele><time>2026-03-22T08:49:01.956Z</time></trkpt><trkpt lat="45.6910161" lon="9.8158305"><ele>246.00000000000003</ele><time>2026-03-22T08:49:03.949Z</time></trkpt><trkpt lat="45.6910183" lon="9.8156656"><ele>246.00000000000003</ele><time>2026-03-22T08:49:05.952Z</time></trkpt><trkpt lat="45.6910129" lon="9.8155136"><ele>246.0</ele><time>2026-03-22T08:49:07.955Z</time></trkpt><trkpt lat="45.6910116" lon="9.8153503"><ele>246.0</ele><time>2026-03-22T08:49:09.949Z</time></trkpt><trkpt lat="45.6910025" lon="9.8151856"><ele>246.0</ele><time>2026-03-22T08:49:11.951Z</time></trkpt><trkpt lat="45.690998" lon="9.8150197"><ele>246.0</ele><time>2026-03-22T08:49:13.949Z</time></trkpt><trkpt lat="45.691003" lon="9.8148544"><ele>246.0</ele><time>2026-03-22T08:49:16.03Z</time></trkpt><trkpt lat="45.6910072" lon="9.8146873"><ele>246.0</ele><time>2026-03-22T08:49:17.971Z</time></trkpt><trkpt lat="45.6910065" lon="9.8145223"><ele>246.0</ele><time>2026-03-22T08:49:20.021Z</time></trkpt><trkpt lat="45.691009" lon="9.8143582"><ele>246.0</ele><time>2026-03-22T08:49:22.034Z</time></trkpt><trkpt lat="45.6910144" lon="9.8141859"><ele>246.0</ele><time>2026-03-22T08:49:23.962Z</time></trkpt><trkpt lat="45.6910168" lon="9.8140184"><ele>246.0</ele><time>2026-03-22T08:49:26.034Z</time></trkpt><trkpt lat="45.6910223" lon="9.813844"><ele>246.0</ele><time>2026-03-22T08:49:27.951Z</time></trkpt><trkpt lat="45.6910261" lon="9.8136714"><ele>246.0</ele><time>2026-03-22T08:49:29.977Z</time></trkpt><trkpt lat="45.6910271" lon="9.8134973"><ele>246.0</ele><time>2026-03-22T08:49:32.025Z</time></trkpt><trkpt lat="45.6910431" lon="9.8133336"><ele>246.0</ele><time>2026-03-22T08:49:33.97Z</time></trkpt><trkpt lat="45.6910996" lon="9.8132008"><ele>245.75</ele><time>2026-03-22T08:49:36.046Z</time></trkpt><trkpt lat="45.6912064" lon="9.813165"><ele>245.5</ele><time>2026-03-22T08:49:37.969Z</time></trkpt><trkpt lat="45.6913211" lon="9.8131914"><ele>245.25</ele><time>2026-03-22T08:49:39.96Z</time></trkpt><trkpt lat="45.6914344" lon="9.8132113"><ele>245.0</ele><time>2026-03-22T08:49:41.971Z</time></trkpt><trkpt lat="45.6915425" lon="9.8132428"><ele>245.0</ele><time>2026-03-22T08:49:43.971Z</time></trkpt><trkpt lat="45.6916594" lon="9.8132633"><ele>245.0</ele><time>2026-03-22T08:49:45.967Z</time></trkpt><trkpt lat="45.6917723" lon="9.8132837"><ele>245.0</ele><time>2026-03-22T08:49:47.977Z</time></trkpt><trkpt lat="45.6918919" lon="9.8133137"><ele>245.0</ele><time>2026-03-22T08:49:49.967Z</time></trkpt><trkpt lat="45.6919548" lon="9.8133211"><ele>245.0</ele><time>2026-03-22T08:49:50.967Z</time></trkpt><trkpt lat="45.6920652" lon="9.8133387"><ele>245.00000000000003</ele><time>2026-03-22T08:49:52.985Z</time></trkpt><trkpt lat="45.6921712" lon="9.8133535"><ele>245.0</ele><time>2026-03-22T08:49:54.964Z</time></trkpt><trkpt lat="45.6922681" lon="9.8133606"><ele>245.0</ele><time>2026-03-22T08:49:56.971Z</time></trkpt><trkpt lat="45.6923449" lon="9.8133878"><ele>245.0</ele><time>2026-03-22T08:49:59.967Z</time></trkpt><trkpt lat="45.6923844" lon="9.8134684"><ele>245.00000000000003</ele><time>2026-03-22T08:50:02.026Z</time></trkpt><trkpt lat="45.6924257" lon="9.8135578"><ele>245.0</ele><time>2026-03-22T08:50:03.96Z</time></trkpt><trkpt lat="45.6924821" lon="9.8136771"><ele>245.0</ele><time>2026-03-22T08:50:05.96Z</time></trkpt><trkpt lat="45.6925453" lon="9.8137936"><ele>245.0</ele><time>2026-03-22T08:50:07.959Z</time></trkpt><trkpt lat="45.692645" lon="9.8138609"><ele>245.0</ele><time>2026-03-22T08:50:09.982Z</time></trkpt><trkpt lat="45.6927543" lon="9.8138328"><ele>245.0</ele><time>2026-03-22T08:50:11.958Z</time></trkpt><trkpt lat="45.6928692" lon="9.8138713"><ele>245.0</ele><time>2026-03-22T08:50:13.955Z</time></trkpt><trkpt lat="45.6929375" lon="9.8138789"><ele>245.0</ele><time>2026-03-22T08:50:14.958Z</time></trkpt><trkpt lat="45.6930243" lon="9.8139162"><ele>245.0</ele><time>2026-03-22T08:50:16.955Z</time></trkpt><trkpt lat="45.6931229" lon="9.8139564"><ele>245.0</ele><time>2026-03-22T08:50:18.959Z</time></trkpt><trkpt lat="45.6932051" lon="9.8140232"><ele>245.0</ele><time>2026-03-22T08:50:20.955Z</time></trkpt><trkpt lat="45.6932861" lon="9.8141028"><ele>245.0</ele><time>2026-03-22T08:50:22.948Z</time></trkpt><trkpt lat="45.6933657" lon="9.8141661"><ele>245.0</ele><time>2026-03-22T08:50:25.041Z</time></trkpt><trkpt lat="45.6934696" lon="9.8141711"><ele>245.0</ele><time>2026-03-22T08:50:27.028Z</time></trkpt><trkpt lat="45.6935809" lon="9.8141527"><ele>245.0</ele><time>2026-03-22T08:50:28.958Z</time></trkpt><trkpt lat="45.6936911" lon="9.8141336"><ele>245.0</ele><time>2026-03-22T08:50:31.041Z</time></trkpt><trkpt lat="45.6938073" lon="9.8141275"><ele>245.0</ele><time>2026-03-22T08:50:32.953Z</time></trkpt><trkpt lat="45.6939141" lon="9.8141212"><ele>245.6</ele><time>2026-03-22T08:50:34.955Z</time></trkpt><trkpt lat="45.694007" lon="9.8141279"><ele>246.2</ele><time>2026-03-22T08:50:36.962Z</time></trkpt><trkpt lat="45.6941009" lon="9.8141611"><ele>246.8</ele><time>2026-03-22T08:50:39.051Z</time></trkpt><trkpt lat="45.6941932" lon="9.8142014"><ele>247.4</ele><time>2026-03-22T08:50:41.031Z</time></trkpt><trkpt lat="45.6942884" lon="9.8142286"><ele>248.0</ele><time>2026-03-22T08:50:42.964Z</time></trkpt><trkpt lat="45.6943857" lon="9.8142512"><ele>248.4</ele><time>2026-03-22T08:50:44.968Z</time></trkpt><trkpt lat="45.6944826" lon="9.8142582"><ele>248.8</ele><time>2026-03-22T08:50:46.97Z</time></trkpt><trkpt lat="45.6945813" lon="9.814273"><ele>249.2</ele><time>2026-03-22T08:50:48.987Z</time></trkpt><trkpt lat="45.6946771" lon="9.8142792"><ele>249.6</ele><time>2026-03-22T08:50:50.963Z</time></trkpt><trkpt lat="45.6947782" lon="9.8142874"><ele>250.0</ele><time>2026-03-22T08:50:52.965Z</time></trkpt><trkpt lat="45.6948772" lon="9.8142828"><ele>250.0</ele><time>2026-03-22T08:50:54.961Z</time></trkpt><trkpt lat="45.694974" lon="9.8142771"><ele>250.0</ele><time>2026-03-22T08:50:56.971Z</time></trkpt><trkpt lat="45.6950659" lon="9.8142692"><ele>250.0</ele><time>2026-03-22T08:50:58.964Z</time></trkpt><trkpt lat="45.6951611" lon="9.8142545"><ele>250.0</ele><time>2026-03-22T08:51:00.969Z</time></trkpt><trkpt lat="45.6952536" lon="9.8142421"><ele>250.0</ele><time>2026-03-22T08:51:02.962Z</time></trkpt><trkpt lat="45.6953476" lon="9.8142309"><ele>250.6</ele><time>2026-03-22T08:51:04.963Z</time></trkpt><trkpt lat="45.6954391" lon="9.814224"><ele>251.2</ele><time>2026-03-22T08:51:06.97Z</time></trkpt><trkpt lat="45.6955388" lon="9.8142209"><ele>251.8</ele><time>2026-03-22T08:51:08.974Z</time></trkpt><trkpt lat="45.6956322" lon="9.8142212"><ele>252.4</ele><time>2026-03-22T08:51:10.961Z</time></trkpt><trkpt lat="45.6957389" lon="9.8142014"><ele>253.0</ele><time>2026-03-22T08:51:12.952Z</time></trkpt><trkpt lat="45.6958522" lon="9.8141818"><ele>253.0</ele><time>2026-03-22T08:51:14.961Z</time></trkpt><trkpt lat="45.6959565" lon="9.8141654"><ele>253.0</ele><time>2026-03-22T08:51:16.967Z</time></trkpt><trkpt lat="45.6960517" lon="9.8141517"><ele>253.0</ele><time>2026-03-22T08:51:18.971Z</time></trkpt><trkpt lat="45.6961452" lon="9.8141066"><ele>253.0</ele><time>2026-03-22T08:51:20.967Z</time></trkpt><trkpt lat="45.6962294" lon="9.814064"><ele>253.0</ele><time>2026-03-22T08:51:22.964Z</time></trkpt><trkpt lat="45.6963173" lon="9.8140129"><ele>253.16666666666666</ele><time>2026-03-22T08:51:24.959Z</time></trkpt><trkpt lat="45.696404" lon="9.8139414"><ele>253.33333333333331</ele><time>2026-03-22T08:51:26.968Z</time></trkpt><trkpt lat="45.6964663" lon="9.8138347"><ele>253.5</ele><time>2026-03-22T08:51:28.969Z</time></trkpt><trkpt lat="45.6964997" lon="9.8137303"><ele>253.66666666666669</ele><time>2026-03-22T08:51:30.966Z</time></trkpt><trkpt lat="45.6965243" lon="9.8136218"><ele>253.83333333333334</ele><time>2026-03-22T08:51:32.952Z</time></trkpt><trkpt lat="45.6965623" lon="9.8135408"><ele>254.0</ele><time>2026-03-22T08:51:34.969Z</time></trkpt><trkpt lat="45.6966483" lon="9.8134894"><ele>254.16666666666669</ele><time>2026-03-22T08:51:37.971Z</time></trkpt><trkpt lat="45.6967035" lon="9.813414"><ele>254.33333333333334</ele><time>2026-03-22T08:51:39.971Z</time></trkpt><trkpt lat="45.696764" lon="9.8133498"><ele>254.5</ele><time>2026-03-22T08:51:41.967Z</time></trkpt><trkpt lat="45.6967955" lon="9.8132442"><ele>254.66666666666669</ele><time>2026-03-22T08:51:43.968Z</time></trkpt><trkpt lat="45.696808" lon="9.8131371"><ele>254.83333333333334</ele><time>2026-03-22T08:51:45.961Z</time></trkpt><trkpt lat="45.6968234" lon="9.8130314"><ele>255.0</ele><time>2026-03-22T08:51:47.95Z</time></trkpt><trkpt lat="45.6968522" lon="9.8129144"><ele>255.0</ele><time>2026-03-22T08:51:49.95Z</time></trkpt><trkpt lat="45.6969021" lon="9.8127914"><ele>255.0</ele><time>2026-03-22T08:51:51.966Z</time></trkpt><trkpt lat="45.6969999" lon="9.8127125"><ele>255.0</ele><time>2026-03-22T08:51:53.961Z</time></trkpt><trkpt lat="45.6971138" lon="9.8126716"><ele>255.0</ele><time>2026-03-22T08:51:55.963Z</time></trkpt><trkpt lat="45.6972175" lon="9.8126551"><ele>255.0</ele><time>2026-03-22T08:51:57.963Z</time></trkpt><trkpt lat="45.6973092" lon="9.812648"><ele>254.5</ele><time>2026-03-22T08:51:59.967Z</time></trkpt><trkpt lat="45.6974087" lon="9.8126457"><ele>254.0</ele><time>2026-03-22T08:52:01.964Z</time></trkpt><trkpt lat="45.6975205" lon="9.8126387"><ele>253.5</ele><time>2026-03-22T08:52:03.961Z</time></trkpt><trkpt lat="45.6976421" lon="9.8126155"><ele>253.0</ele><time>2026-03-22T08:52:05.965Z</time></trkpt><trkpt lat="45.6977595" lon="9.8125901"><ele>252.60000000000002</ele><time>2026-03-22T08:52:07.964Z</time></trkpt><trkpt lat="45.6978724" lon="9.8125569"><ele>252.20000000000002</ele><time>2026-03-22T08:52:09.968Z</time></trkpt><trkpt lat="45.6979794" lon="9.81252"><ele>251.8</ele><time>2026-03-22T08:52:11.966Z</time></trkpt><trkpt lat="45.6980868" lon="9.8124956"><ele>251.4</ele><time>2026-03-22T08:52:13.963Z</time></trkpt><trkpt lat="45.6981904" lon="9.8124634"><ele>251.0</ele><time>2026-03-22T08:52:15.958Z</time></trkpt><trkpt lat="45.6982957" lon="9.8124314"><ele>251.0</ele><time>2026-03-22T08:52:17.963Z</time></trkpt><trkpt lat="45.6983885" lon="9.8124115"><ele>251.00000000000003</ele><time>2026-03-22T08:52:19.962Z</time></trkpt><trkpt lat="45.6984771" lon="9.8123734"><ele>251.00000000000003</ele><time>2026-03-22T08:52:21.961Z</time></trkpt><trkpt lat="45.6985606" lon="9.812339"><ele>251.0</ele><time>2026-03-22T08:52:23.963Z</time></trkpt><trkpt lat="45.6986468" lon="9.8122914"><ele>251.0</ele><time>2026-03-22T08:52:25.958Z</time></trkpt><trkpt lat="45.698728" lon="9.8122333"><ele>251.16666666666669</ele><time>2026-03-22T08:52:27.962Z</time></trkpt><trkpt lat="45.6988004" lon="9.8122591"><ele>251.33333333333334</ele><time>2026-03-22T08:52:30.967Z</time></trkpt><trkpt lat="45.698868" lon="9.8122038"><ele>251.5</ele><time>2026-03-22T08:52:33.956Z</time></trkpt><trkpt lat="45.6989291" lon="9.8121351"><ele>251.66666666666669</ele><time>2026-03-22T08:52:35.96Z</time></trkpt><trkpt lat="45.6989899" lon="9.8120481"><ele>251.83333333333334</ele><time>2026-03-22T08:52:37.963Z</time></trkpt><trkpt lat="45.699054" lon="9.8119613"><ele>252.0</ele><time>2026-03-22T08:52:39.968Z</time></trkpt><trkpt lat="45.6991197" lon="9.8118761"><ele>252.16666666666666</ele><time>2026-03-22T08:52:41.951Z</time></trkpt><trkpt lat="45.6991916" lon="9.8117745"><ele>252.33333333333331</ele><time>2026-03-22T08:52:44.022Z</time></trkpt><trkpt lat="45.6992667" lon="9.8117023"><ele>252.5</ele><time>2026-03-22T08:52:45.962Z</time></trkpt><trkpt lat="45.6993367" lon="9.8116369"><ele>252.66666666666666</ele><time>2026-03-22T08:52:47.948Z</time></trkpt><trkpt lat="45.6994018" lon="9.8115849"><ele>252.83333333333331</ele><time>2026-03-22T08:52:49.968Z</time></trkpt><trkpt lat="45.6994628" lon="9.8115184"><ele>253.0</ele><time>2026-03-22T08:52:51.963Z</time></trkpt><trkpt lat="45.6995219" lon="9.811457"><ele>253.66666666666666</ele><time>2026-03-22T08:52:53.969Z</time></trkpt><trkpt lat="45.699584" lon="9.8113739"><ele>254.33333333333331</ele><time>2026-03-22T08:52:55.964Z</time></trkpt><trkpt lat="45.6996344" lon="9.8112849"><ele>255.0</ele><time>2026-03-22T08:52:57.955Z</time></trkpt><trkpt lat="45.6996682" lon="9.8111885"><ele>255.66666666666669</ele><time>2026-03-22T08:52:59.954Z</time></trkpt><trkpt lat="45.6997043" lon="9.8110837"><ele>256.33333333333337</ele><time>2026-03-22T08:53:02.03Z</time></trkpt><trkpt lat="45.699748" lon="9.8110002"><ele>257.0</ele><time>2026-03-22T08:53:03.963Z</time></trkpt><trkpt lat="45.6998009" lon="9.8109364"><ele>257.0</ele><time>2026-03-22T08:53:05.946Z</time></trkpt><trkpt lat="45.6998571" lon="9.8108844"><ele>257.0</ele><time>2026-03-22T08:53:07.958Z</time></trkpt><trkpt lat="45.6999276" lon="9.8108598"><ele>257.0</ele><time>2026-03-22T08:53:09.96Z</time></trkpt><trkpt lat="45.700004" lon="9.8108398"><ele>257.0</ele><time>2026-03-22T08:53:11.962Z</time></trkpt><trkpt lat="45.7000787" lon="9.8107723"><ele>257.0</ele><time>2026-03-22T08:53:14.029Z</time></trkpt><trkpt lat="45.7001475" lon="9.8107172"><ele>257.0</ele><time>2026-03-22T08:53:15.958Z</time></trkpt><trkpt lat="45.7002074" lon="9.8106353"><ele>257.1666666666667</ele><time>2026-03-22T08:53:17.951Z</time></trkpt><trkpt lat="45.7002525" lon="9.8105674"><ele>257.33333333333337</ele><time>2026-03-22T08:53:19.95Z</time></trkpt><trkpt lat="45.7002967" lon="9.8104908"><ele>257.5</ele><time>2026-03-22T08:53:22.038Z</time></trkpt><trkpt lat="45.7003461" lon="9.8103957"><ele>257.6666666666667</ele><time>2026-03-22T08:53:24.967Z</time></trkpt><trkpt lat="45.7004086" lon="9.8103114"><ele>257.8333333333333</ele><time>2026-03-22T08:53:27.941Z</time></trkpt><trkpt lat="45.7004514" lon="9.8102281"><ele>258.0</ele><time>2026-03-22T08:53:29.961Z</time></trkpt><trkpt lat="45.7005119" lon="9.810153"><ele>258.0</ele><time>2026-03-22T08:53:31.962Z</time></trkpt><trkpt lat="45.7005766" lon="9.810079"><ele>258.0</ele><time>2026-03-22T08:53:33.961Z</time></trkpt><trkpt lat="45.7006434" lon="9.8100004"><ele>258.0</ele><time>2026-03-22T08:53:35.947Z</time></trkpt><trkpt lat="45.7007226" lon="9.8099312"><ele>258.0</ele><time>2026-03-22T08:53:37.947Z</time></trkpt><trkpt lat="45.7007921" lon="9.8098586"><ele>258.0</ele><time>2026-03-22T08:53:39.948Z</time></trkpt><trkpt lat="45.7008447" lon="9.8097636"><ele>258.0</ele><time>2026-03-22T08:53:42.045Z</time></trkpt><trkpt lat="45.700839" lon="9.8096434"><ele>258.0</ele><time>2026-03-22T08:53:44.96Z</time></trkpt><trkpt lat="45.7007828" lon="9.809542"><ele>258.0</ele><time>2026-03-22T08:53:47.96Z</time></trkpt><trkpt lat="45.7007216" lon="9.8094508"><ele>258.0</ele><time>2026-03-22T08:53:49.96Z</time></trkpt><trkpt lat="45.7006467" lon="9.8093511"><ele>258.0</ele><time>2026-03-22T08:53:51.964Z</time></trkpt><trkpt lat="45.7005474" lon="9.8092639"><ele>258.0</ele><time>2026-03-22T08:53:53.968Z</time></trkpt><trkpt lat="45.7004696" lon="9.8091898"><ele>258.0</ele><time>2026-03-22T08:53:55.962Z</time></trkpt><trkpt lat="45.7004113" lon="9.8091133"><ele>258.0</ele><time>2026-03-22T08:53:57.968Z</time></trkpt><trkpt lat="45.7003897" lon="9.8090124"><ele>258.0</ele><time>2026-03-22T08:53:59.952Z</time></trkpt><trkpt lat="45.7004319" lon="9.8088887"><ele>258.0</ele><time>2026-03-22T08:54:02.963Z</time></trkpt><trkpt lat="45.700487" lon="9.8087924"><ele>258.0</ele><time>2026-03-22T08:54:04.962Z</time></trkpt><trkpt lat="45.7005469" lon="9.8086848"><ele>258.0</ele><time>2026-03-22T08:54:06.957Z</time></trkpt><trkpt lat="45.7006078" lon="9.8085896"><ele>258.6</ele><time>2026-03-22T08:54:08.964Z</time></trkpt><trkpt lat="45.7006682" lon="9.8084864"><ele>259.20000000000005</ele><time>2026-03-22T08:54:10.959Z</time></trkpt><trkpt lat="45.7007339" lon="9.8083816"><ele>259.8</ele><time>2026-03-22T08:54:12.965Z</time></trkpt><trkpt lat="45.7007808" lon="9.8082609"><ele>260.40000000000003</ele><time>2026-03-22T08:54:14.964Z</time></trkpt><trkpt lat="45.7008275" lon="9.8081391"><ele>261.0</ele><time>2026-03-22T08:54:16.962Z</time></trkpt><trkpt lat="45.7008797" lon="9.8080218"><ele>261.0</ele><time>2026-03-22T08:54:18.958Z</time></trkpt><trkpt lat="45.7009341" lon="9.8079217"><ele>261.0</ele><time>2026-03-22T08:54:20.961Z</time></trkpt><trkpt lat="45.7009746" lon="9.8078135"><ele>261.0</ele><time>2026-03-22T08:54:22.969Z</time></trkpt><trkpt lat="45.7010239" lon="9.8077088"><ele>261.0</ele><time>2026-03-22T08:54:24.963Z</time></trkpt><trkpt lat="45.7010755" lon="9.807612"><ele>261.0</ele><time>2026-03-22T08:54:26.949Z</time></trkpt><trkpt lat="45.7011286" lon="9.8074943"><ele>261.0</ele><time>2026-03-22T08:54:29.03Z</time></trkpt><trkpt lat="45.7011803" lon="9.8073803"><ele>260.6666666666667</ele><time>2026-03-22T08:54:31.025Z</time></trkpt><trkpt lat="45.7012336" lon="9.8072763"><ele>260.3333333333333</ele><time>2026-03-22T08:54:32.959Z</time></trkpt><trkpt lat="45.7012927" lon="9.8071742"><ele>260.0</ele><time>2026-03-22T08:54:34.965Z</time></trkpt><trkpt lat="45.7013517" lon="9.8070756"><ele>259.66666666666663</ele><time>2026-03-22T08:54:37.057Z</time></trkpt><trkpt lat="45.7014016" lon="9.8069824"><ele>259.3333333333333</ele><time>2026-03-22T08:54:38.96Z</time></trkpt><trkpt lat="45.7014452" lon="9.8068795"><ele>259.0</ele><time>2026-03-22T08:54:40.966Z</time></trkpt><trkpt lat="45.701483" lon="9.8067947"><ele>260.0</ele><time>2026-03-22T08:54:42.953Z</time></trkpt><trkpt lat="45.7015354" lon="9.8067365"><ele>261.0</ele><time>2026-03-22T08:54:44.963Z</time></trkpt><trkpt lat="45.7015915" lon="9.8066412"><ele>262.0</ele><time>2026-03-22T08:54:47.029Z</time></trkpt><trkpt lat="45.7016564" lon="9.80654"><ele>263.0</ele><time>2026-03-22T08:54:48.959Z</time></trkpt><trkpt lat="45.7017341" lon="9.8064417"><ele>264.0</ele><time>2026-03-22T08:54:50.959Z</time></trkpt><trkpt lat="45.7018133" lon="9.8063616"><ele>264.0</ele><time>2026-03-22T08:54:52.962Z</time></trkpt><trkpt lat="45.7018901" lon="9.8062881"><ele>264.0</ele><time>2026-03-22T08:54:54.962Z</time></trkpt><trkpt lat="45.7019688" lon="9.8062436"><ele>264.0</ele><time>2026-03-22T08:54:56.956Z</time></trkpt><trkpt lat="45.7020292" lon="9.8062068"><ele>264.0</ele><time>2026-03-22T08:54:58.963Z</time></trkpt><trkpt lat="45.702087" lon="9.8061585"><ele>264.0</ele><time>2026-03-22T08:55:00.962Z</time></trkpt><trkpt lat="45.7021411" lon="9.8061016"><ele>264.0</ele><time>2026-03-22T08:55:02.958Z</time></trkpt><trkpt lat="45.7021988" lon="9.8060412"><ele>264.0</ele><time>2026-03-22T08:55:04.962Z</time></trkpt><trkpt lat="45.7022734" lon="9.8059564"><ele>265.0</ele><time>2026-03-22T08:55:07.955Z</time></trkpt><trkpt lat="45.7023163" lon="9.8058737"><ele>266.0</ele><time>2026-03-22T08:55:09.963Z</time></trkpt><trkpt lat="45.7022551" lon="9.8058454"><ele>267.0</ele><time>2026-03-22T08:55:14.96Z</time></trkpt><trkpt lat="45.7021802" lon="9.8058414"><ele>268.0</ele><time>2026-03-22T08:55:16.963Z</time></trkpt><trkpt lat="45.7020987" lon="9.8058369"><ele>269.0</ele><time>2026-03-22T08:55:18.961Z</time></trkpt><trkpt lat="45.7020223" lon="9.8058291"><ele>270.0</ele><time>2026-03-22T08:55:20.961Z</time></trkpt><trkpt lat="45.7019501" lon="9.8058015"><ele>271.0</ele><time>2026-03-22T08:55:22.964Z</time></trkpt><trkpt lat="45.7019271" lon="9.8056973"><ele>271.0</ele><time>2026-03-22T08:55:25.962Z</time></trkpt><trkpt lat="45.70197" lon="9.8056164"><ele>271.0</ele><time>2026-03-22T08:55:28.956Z</time></trkpt><trkpt lat="45.7020233" lon="9.8055225"><ele>271.0</ele><time>2026-03-22T08:55:31.963Z</time></trkpt><trkpt lat="45.7020378" lon="9.8054346"><ele>271.0</ele><time>2026-03-22T08:55:34.961Z</time></trkpt><trkpt lat="45.7020012" lon="9.8053528"><ele>271.0</ele><time>2026-03-22T08:55:38.964Z</time></trkpt><trkpt lat="45.7019683" lon="9.8052605"><ele>271.0</ele><time>2026-03-22T08:55:41.961Z</time></trkpt><trkpt lat="45.7019863" lon="9.8051561"><ele>271.0</ele><time>2026-03-22T08:55:44.962Z</time></trkpt><trkpt lat="45.7019546" lon="9.8050477"><ele>274.3333333333333</ele><time>2026-03-22T08:55:48.946Z</time></trkpt><trkpt lat="45.7018745" lon="9.8050109"><ele>277.66666666666663</ele><time>2026-03-22T08:55:51.949Z</time></trkpt><trkpt lat="45.7018046" lon="9.8049649"><ele>281.0</ele><time>2026-03-22T08:55:54.953Z</time></trkpt><trkpt lat="45.7017285" lon="9.8049506"><ele>284.3333333333333</ele><time>2026-03-22T08:55:57.955Z</time></trkpt><trkpt lat="45.7016625" lon="9.8049188"><ele>287.6666666666667</ele><time>2026-03-22T08:56:00.966Z</time></trkpt><trkpt lat="45.7015876" lon="9.8048544"><ele>291.0</ele><time>2026-03-22T08:56:04.963Z</time></trkpt><trkpt lat="45.701619" lon="9.8047452"><ele>291.0</ele><time>2026-03-22T08:56:10.951Z</time></trkpt><trkpt lat="45.7016463" lon="9.8046622"><ele>291.0</ele><time>2026-03-22T08:56:13.948Z</time></trkpt><trkpt lat="45.7015843" lon="9.8045287"><ele>291.0</ele><time>2026-03-22T08:56:21.957Z</time></trkpt><trkpt lat="45.7015099" lon="9.8044172"><ele>291.0</ele><time>2026-03-22T08:56:27.951Z</time></trkpt><trkpt lat="45.7014081" lon="9.8042908"><ele>291.0</ele><time>2026-03-22T08:56:33.957Z</time></trkpt><trkpt lat="45.7013526" lon="9.8042158"><ele>293.5</ele><time>2026-03-22T08:56:36.958Z</time></trkpt><trkpt lat="45.7013041" lon="9.8041304"><ele>296.0</ele><time>2026-03-22T08:56:39.955Z</time></trkpt><trkpt lat="45.7013171" lon="9.8039878"><ele>298.5</ele><time>2026-03-22T08:56:48.956Z</time></trkpt><trkpt lat="45.7013659" lon="9.8039161"><ele>301.0</ele><time>2026-03-22T08:56:51.957Z</time></trkpt><trkpt lat="45.7014152" lon="9.8038515"><ele>303.5</ele><time>2026-03-22T08:56:53.953Z</time></trkpt><trkpt lat="45.7014658" lon="9.8037903"><ele>306.0</ele><time>2026-03-22T08:56:55.954Z</time></trkpt><trkpt lat="45.7015272" lon="9.8037107"><ele>306.0</ele><time>2026-03-22T08:56:58.956Z</time></trkpt><trkpt lat="45.7015867" lon="9.8036666"><ele>306.0</ele><time>2026-03-22T08:57:01.044Z</time></trkpt><trkpt lat="45.7016533" lon="9.8035965"><ele>306.0</ele><time>2026-03-22T08:57:02.956Z</time></trkpt><trkpt lat="45.7017256" lon="9.8035208"><ele>306.0</ele><time>2026-03-22T08:57:04.963Z</time></trkpt><trkpt lat="45.7017954" lon="9.803451"><ele>306.0</ele><time>2026-03-22T08:57:06.963Z</time></trkpt><trkpt lat="45.7018429" lon="9.8033865"><ele>306.0</ele><time>2026-03-22T08:57:08.968Z</time></trkpt><trkpt lat="45.7019132" lon="9.8033083"><ele>306.1666666666667</ele><time>2026-03-22T08:57:11.96Z</time></trkpt><trkpt lat="45.7019794" lon="9.8032256"><ele>306.3333333333333</ele><time>2026-03-22T08:57:14.947Z</time></trkpt><trkpt lat="45.7020328" lon="9.8031346"><ele>306.5</ele><time>2026-03-22T08:57:17.956Z</time></trkpt><trkpt lat="45.702065" lon="9.803053"><ele>306.66666666666663</ele><time>2026-03-22T08:57:19.955Z</time></trkpt><trkpt lat="45.702093" lon="9.8029663"><ele>306.8333333333333</ele><time>2026-03-22T08:57:21.948Z</time></trkpt><trkpt lat="45.7021222" lon="9.8028764"><ele>307.0</ele><time>2026-03-22T08:57:23.95Z</time></trkpt><trkpt lat="45.7021669" lon="9.8027794"><ele>307.0</ele><time>2026-03-22T08:57:26.958Z</time></trkpt><trkpt lat="45.7022307" lon="9.8027011"><ele>307.0</ele><time>2026-03-22T08:57:29.953Z</time></trkpt><trkpt lat="45.7022838" lon="9.8026292"><ele>307.0</ele><time>2026-03-22T08:57:32.955Z</time></trkpt><trkpt lat="45.702329" lon="9.8025346"><ele>307.0</ele><time>2026-03-22T08:57:35.96Z</time></trkpt><trkpt lat="45.702391" lon="9.8024419"><ele>307.0</ele><time>2026-03-22T08:57:38.962Z</time></trkpt><trkpt lat="45.7024547" lon="9.8023546"><ele>307.0</ele><time>2026-03-22T08:57:41.965Z</time></trkpt><trkpt lat="45.702499" lon="9.8022546"><ele>305.8333333333333</ele><time>2026-03-22T08:57:44.961Z</time></trkpt><trkpt lat="45.7025635" lon="9.8021731"><ele>304.66666666666663</ele><time>2026-03-22T08:57:47.961Z</time></trkpt><trkpt lat="45.7026051" lon="9.8020997"><ele>303.5</ele><time>2026-03-22T08:57:49.952Z</time></trkpt><trkpt lat="45.7026459" lon="9.8020162"><ele>302.3333333333333</ele><time>2026-03-22T08:57:51.959Z</time></trkpt><trkpt lat="45.7026973" lon="9.8019241"><ele>301.1666666666667</ele><time>2026-03-22T08:57:54.959Z</time></trkpt><trkpt lat="45.7027529" lon="9.8018601"><ele>300.0</ele><time>2026-03-22T08:57:56.958Z</time></trkpt><trkpt lat="45.7028209" lon="9.8018085"><ele>302.5</ele><time>2026-03-22T08:57:58.96Z</time></trkpt><trkpt lat="45.702881" lon="9.8017428"><ele>305.0</ele><time>2026-03-22T08:58:00.954Z</time></trkpt><trkpt lat="45.7029349" lon="9.8016762"><ele>307.5</ele><time>2026-03-22T08:58:02.953Z</time></trkpt><trkpt lat="45.7029982" lon="9.8016065"><ele>310.0</ele><time>2026-03-22T08:58:04.935Z</time></trkpt><trkpt lat="45.703067" lon="9.8015392"><ele>312.5</ele><time>2026-03-22T08:58:06.947Z</time></trkpt><trkpt lat="45.7031304" lon="9.8014797"><ele>315.0</ele><time>2026-03-22T08:58:08.949Z</time></trkpt><trkpt lat="45.7032001" lon="9.8014187"><ele>315.0</ele><time>2026-03-22T08:58:11.978Z</time></trkpt><trkpt lat="45.703261" lon="9.8013401"><ele>315.0</ele><time>2026-03-22T08:58:14.952Z</time></trkpt><trkpt lat="45.7033115" lon="9.8012379"><ele>315.0</ele><time>2026-03-22T08:58:17.946Z</time></trkpt><trkpt lat="45.7033491" lon="9.8011345"><ele>315.0</ele><time>2026-03-22T08:58:20.951Z</time></trkpt><trkpt lat="45.7033793" lon="9.8010199"><ele>315.0</ele><time>2026-03-22T08:58:23.949Z</time></trkpt><trkpt lat="45.7034147" lon="9.8008992"><ele>315.0</ele><time>2026-03-22T08:58:26.947Z</time></trkpt><trkpt lat="45.7034474" lon="9.8008029"><ele>316.1666666666667</ele><time>2026-03-22T08:58:30.032Z</time></trkpt><trkpt lat="45.7035044" lon="9.8006731"><ele>317.3333333333333</ele><time>2026-03-22T08:58:34.955Z</time></trkpt><trkpt lat="45.7035661" lon="9.800585"><ele>318.5</ele><time>2026-03-22T08:58:37.952Z</time></trkpt><trkpt lat="45.7036199" lon="9.8004956"><ele>319.66666666666663</ele><time>2026-03-22T08:58:40.954Z</time></trkpt><trkpt lat="45.7036688" lon="9.800425"><ele>320.8333333333333</ele><time>2026-03-22T08:58:42.94Z</time></trkpt><trkpt lat="45.7037089" lon="9.8003374"><ele>322.0</ele><time>2026-03-22T08:58:44.937Z</time></trkpt><trkpt lat="45.7037248" lon="9.8002394"><ele>324.0</ele><time>2026-03-22T08:58:47.956Z</time></trkpt><trkpt lat="45.7036999" lon="9.8001556"><ele>326.0</ele><time>2026-03-22T08:58:51.955Z</time></trkpt><trkpt lat="45.7036275" lon="9.8001659"><ele>328.0</ele><time>2026-03-22T08:58:56.06Z</time></trkpt><trkpt lat="45.7035573" lon="9.8001496"><ele>330.0</ele><time>2026-03-22T08:58:59.053Z</time></trkpt><trkpt lat="45.7035698" lon="9.8000551"><ele>332.0</ele><time>2026-03-22T08:59:03.038Z</time></trkpt><trkpt lat="45.7035988" lon="9.7999567"><ele>334.0</ele><time>2026-03-22T08:59:06.045Z</time></trkpt><trkpt lat="45.7035881" lon="9.7998619"><ele>336.0</ele><time>2026-03-22T08:59:10.046Z</time></trkpt><trkpt lat="45.7035241" lon="9.7998091"><ele>337.85714285714283</ele><time>2026-03-22T08:59:13.96Z</time></trkpt><trkpt lat="45.7034577" lon="9.799786"><ele>339.7142857142857</ele><time>2026-03-22T08:59:16.954Z</time></trkpt><trkpt lat="45.7034127" lon="9.799696"><ele>341.57142857142856</ele><time>2026-03-22T08:59:21.957Z</time></trkpt><trkpt lat="45.7034104" lon="9.7996036"><ele>343.42857142857144</ele><time>2026-03-22T08:59:25.945Z</time></trkpt><trkpt lat="45.7033978" lon="9.7995005"><ele>345.2857142857143</ele><time>2026-03-22T08:59:29.953Z</time></trkpt><trkpt lat="45.7034055" lon="9.7993961"><ele>347.1428571428571</ele><time>2026-03-22T08:59:33.958Z</time></trkpt><trkpt lat="45.7034457" lon="9.7993262"><ele>349.0</ele><time>2026-03-22T08:59:36.958Z</time></trkpt><trkpt lat="45.7034747" lon="9.7992314"><ele>351.57142857142856</ele><time>2026-03-22T08:59:39.955Z</time></trkpt><trkpt lat="45.7034941" lon="9.7991376"><ele>354.1428571428571</ele><time>2026-03-22T08:59:42.96Z</time></trkpt><trkpt lat="45.7034315" lon="9.7990655"><ele>356.71428571428567</ele><time>2026-03-22T08:59:45.955Z</time></trkpt><trkpt lat="45.7033718" lon="9.799021"><ele>359.2857142857143</ele><time>2026-03-22T08:59:47.954Z</time></trkpt><trkpt lat="45.7033013" lon="9.7990024"><ele>361.8571428571429</ele><time>2026-03-22T08:59:51.051Z</time></trkpt><trkpt lat="45.7032282" lon="9.7990202"><ele>364.4285714285714</ele><time>2026-03-22T08:59:53.951Z</time></trkpt><trkpt lat="45.7031622" lon="9.7990345"><ele>367.0</ele><time>2026-03-22T08:59:56.945Z</time></trkpt><trkpt lat="45.7030897" lon="9.7990761"><ele>367.0</ele><time>2026-03-22T09:00:00.958Z</time></trkpt><trkpt lat="45.7030206" lon="9.799109"><ele>367.0</ele><time>2026-03-22T09:00:04.961Z</time></trkpt><trkpt lat="45.7030332" lon="9.7990063"><ele>367.0</ele><time>2026-03-22T09:00:10.962Z</time></trkpt><trkpt lat="45.7030542" lon="9.7989018"><ele>367.0</ele><time>2026-03-22T09:00:14.959Z</time></trkpt><trkpt lat="45.7029849" lon="9.7988821"><ele>367.0</ele><time>2026-03-22T09:00:19.958Z</time></trkpt><trkpt lat="45.7029177" lon="9.7989076"><ele>367.0</ele><time>2026-03-22T09:00:23.941Z</time></trkpt><trkpt lat="45.7028458" lon="9.7989279"><ele>367.0</ele><time>2026-03-22T09:00:27.961Z</time></trkpt><trkpt lat="45.7027893" lon="9.7989964"><ele>367.16666666666663</ele><time>2026-03-22T09:00:30.953Z</time></trkpt><trkpt lat="45.7027232" lon="9.7990936"><ele>367.3333333333333</ele><time>2026-03-22T09:00:33.951Z</time></trkpt><trkpt lat="45.7026681" lon="9.7991674"><ele>367.5</ele><time>2026-03-22T09:00:35.952Z</time></trkpt><trkpt lat="45.7026148" lon="9.7992762"><ele>367.6666666666667</ele><time>2026-03-22T09:00:38.947Z</time></trkpt><trkpt lat="45.7025908" lon="9.7993631"><ele>367.83333333333337</ele><time>2026-03-22T09:00:40.952Z</time></trkpt><trkpt lat="45.702545" lon="9.7994284"><ele>368.0</ele><time>2026-03-22T09:00:42.954Z</time></trkpt><trkpt lat="45.7024848" lon="9.7995047"><ele>368.0</ele><time>2026-03-22T09:00:44.952Z</time></trkpt><trkpt lat="45.7024054" lon="9.7995554"><ele>368.0</ele><time>2026-03-22T09:00:47.015Z</time></trkpt><trkpt lat="45.7023235" lon="9.799601"><ele>368.0</ele><time>2026-03-22T09:00:48.955Z</time></trkpt><trkpt lat="45.7022314" lon="9.7996845"><ele>368.0</ele><time>2026-03-22T09:00:50.951Z</time></trkpt><trkpt lat="45.702169" lon="9.7997679"><ele>368.0</ele><time>2026-03-22T09:00:51.949Z</time></trkpt><trkpt lat="45.7021022" lon="9.7998447"><ele>368.0</ele><time>2026-03-22T09:00:53.947Z</time></trkpt><trkpt lat="45.7020123" lon="9.7999332"><ele>368.0</ele><time>2026-03-22T09:00:55.952Z</time></trkpt><trkpt lat="45.7019293" lon="9.8000177"><ele>368.0</ele><time>2026-03-22T09:00:56.946Z</time></trkpt><trkpt lat="45.7018389" lon="9.8001218"><ele>368.0</ele><time>2026-03-22T09:00:57.948Z</time></trkpt><trkpt lat="45.7017647" lon="9.8002288"><ele>368.0</ele><time>2026-03-22T09:00:59.058Z</time></trkpt><trkpt lat="45.7016801" lon="9.8003393"><ele>367.2</ele><time>2026-03-22T09:00:59.996Z</time></trkpt><trkpt lat="45.701611" lon="9.8004527"><ele>366.4</ele><time>2026-03-22T09:01:01.031Z</time></trkpt><trkpt lat="45.7015512" lon="9.8005732"><ele>365.59999999999997</ele><time>2026-03-22T09:01:01.955Z</time></trkpt><trkpt lat="45.7014891" lon="9.8006691"><ele>364.79999999999995</ele><time>2026-03-22T09:01:02.954Z</time></trkpt><trkpt lat="45.7014372" lon="9.8007679"><ele>364.0</ele><time>2026-03-22T09:01:03.955Z</time></trkpt><trkpt lat="45.7013879" lon="9.8008497"><ele>364.0</ele><time>2026-03-22T09:01:04.961Z</time></trkpt><trkpt lat="45.7013321" lon="9.8009341"><ele>364.0</ele><time>2026-03-22T09:01:05.958Z</time></trkpt><trkpt lat="45.7012839" lon="9.8010226"><ele>364.0</ele><time>2026-03-22T09:01:06.949Z</time></trkpt><trkpt lat="45.7012046" lon="9.8011553"><ele>364.0</ele><time>2026-03-22T09:01:08.956Z</time></trkpt><trkpt lat="45.7011579" lon="9.8012166"><ele>364.0</ele><time>2026-03-22T09:01:10.04Z</time></trkpt><trkpt lat="45.7010663" lon="9.8013474"><ele>364.66666666666663</ele><time>2026-03-22T09:01:11.952Z</time></trkpt><trkpt lat="45.701015" lon="9.8014169"><ele>365.3333333333333</ele><time>2026-03-22T09:01:12.959Z</time></trkpt><trkpt lat="45.7009648" lon="9.8014891"><ele>366.0</ele><time>2026-03-22T09:01:13.959Z</time></trkpt><trkpt lat="45.7009034" lon="9.801572"><ele>366.6666666666667</ele><time>2026-03-22T09:01:15.015Z</time></trkpt><trkpt lat="45.7008331" lon="9.8016719"><ele>367.33333333333337</ele><time>2026-03-22T09:01:15.952Z</time></trkpt><trkpt lat="45.7007658" lon="9.8017635"><ele>368.0</ele><time>2026-03-22T09:01:16.959Z</time></trkpt><trkpt lat="45.7007027" lon="9.8018501"><ele>364.0</ele><time>2026-03-22T09:01:17.942Z</time></trkpt><trkpt lat="45.7006384" lon="9.8019251"><ele>360.0</ele><time>2026-03-22T09:01:18.942Z</time></trkpt><trkpt lat="45.7005714" lon="9.8019996"><ele>356.0</ele><time>2026-03-22T09:01:19.952Z</time></trkpt><trkpt lat="45.7004968" lon="9.8020687"><ele>352.0</ele><time>2026-03-22T09:01:20.947Z</time></trkpt><trkpt lat="45.7004245" lon="9.8021507"><ele>348.0</ele><time>2026-03-22T09:01:21.961Z</time></trkpt><trkpt lat="45.7003221" lon="9.8022617"><ele>350.4</ele><time>2026-03-22T09:01:22.963Z</time></trkpt><trkpt lat="45.7002209" lon="9.802371"><ele>352.79999999999995</ele><time>2026-03-22T09:01:24.029Z</time></trkpt><trkpt lat="45.7001355" lon="9.802412"><ele>355.2</ele><time>2026-03-22T09:01:24.985Z</time></trkpt><trkpt lat="45.7000706" lon="9.8024541"><ele>357.6</ele><time>2026-03-22T09:01:26.044Z</time></trkpt><trkpt lat="45.7000152" lon="9.8025107"><ele>360.0</ele><time>2026-03-22T09:01:27.014Z</time></trkpt><trkpt lat="45.6999342" lon="9.8025865"><ele>360.0</ele><time>2026-03-22T09:01:28.953Z</time></trkpt><trkpt lat="45.6998475" lon="9.8026632"><ele>360.0</ele><time>2026-03-22T09:01:31.036Z</time></trkpt><trkpt lat="45.699778" lon="9.8027257"><ele>360.0</ele><time>2026-03-22T09:01:32.957Z</time></trkpt><trkpt lat="45.6997128" lon="9.8028033"><ele>360.0</ele><time>2026-03-22T09:01:35.027Z</time></trkpt><trkpt lat="45.6996413" lon="9.8028839"><ele>360.0</ele><time>2026-03-22T09:01:36.965Z</time></trkpt><trkpt lat="45.6995887" lon="9.8029408"><ele>360.0</ele><time>2026-03-22T09:01:38.946Z</time></trkpt><trkpt lat="45.6995172" lon="9.8030097"><ele>360.1666666666667</ele><time>2026-03-22T09:01:42.029Z</time></trkpt><trkpt lat="45.6994409" lon="9.8030773"><ele>360.3333333333333</ele><time>2026-03-22T09:01:44.954Z</time></trkpt><trkpt lat="45.6993904" lon="9.8031517"><ele>360.5</ele><time>2026-03-22T09:01:46.962Z</time></trkpt><trkpt lat="45.6993476" lon="9.8032436"><ele>360.66666666666663</ele><time>2026-03-22T09:01:48.961Z</time></trkpt><trkpt lat="45.69929" lon="9.803343"><ele>360.8333333333333</ele><time>2026-03-22T09:01:50.968Z</time></trkpt><trkpt lat="45.6992322" lon="9.8034556"><ele>361.0</ele><time>2026-03-22T09:01:52.96Z</time></trkpt><trkpt lat="45.6991635" lon="9.8035656"><ele>358.8</ele><time>2026-03-22T09:01:55.032Z</time></trkpt><trkpt lat="45.6991111" lon="9.8036843"><ele>356.6</ele><time>2026-03-22T09:01:56.961Z</time></trkpt><trkpt lat="45.6990778" lon="9.8038309"><ele>354.4</ele><time>2026-03-22T09:01:58.968Z</time></trkpt><trkpt lat="45.6990367" lon="9.8039717"><ele>352.2</ele><time>2026-03-22T09:02:00.95Z</time></trkpt><trkpt lat="45.6989915" lon="9.8041034"><ele>350.0</ele><time>2026-03-22T09:02:02.958Z</time></trkpt><trkpt lat="45.6989329" lon="9.8042359"><ele>348.75</ele><time>2026-03-22T09:02:04.959Z</time></trkpt><trkpt lat="45.698885" lon="9.8043798"><ele>347.5</ele><time>2026-03-22T09:02:06.964Z</time></trkpt><trkpt lat="45.6988232" lon="9.8045479"><ele>346.25</ele><time>2026-03-22T09:02:08.959Z</time></trkpt><trkpt lat="45.6987543" lon="9.8046788"><ele>345.0</ele><time>2026-03-22T09:02:10.961Z</time></trkpt><trkpt lat="45.698706" lon="9.8048058"><ele>345.0</ele><time>2026-03-22T09:02:12.962Z</time></trkpt><trkpt lat="45.6986603" lon="9.8049252"><ele>345.0</ele><time>2026-03-22T09:02:15.03Z</time></trkpt><trkpt lat="45.6986178" lon="9.8050346"><ele>345.0</ele><time>2026-03-22T09:02:16.946Z</time></trkpt><trkpt lat="45.6985722" lon="9.8051454"><ele>345.0</ele><time>2026-03-22T09:02:18.956Z</time></trkpt><trkpt lat="45.6985126" lon="9.8052419"><ele>345.0</ele><time>2026-03-22T09:02:20.955Z</time></trkpt><trkpt lat="45.6984469" lon="9.8053484"><ele>346.2</ele><time>2026-03-22T09:02:22.957Z</time></trkpt><trkpt lat="45.698358" lon="9.8054675"><ele>347.4</ele><time>2026-03-22T09:02:24.96Z</time></trkpt><trkpt lat="45.6982593" lon="9.8055642"><ele>348.6</ele><time>2026-03-22T09:02:26.982Z</time></trkpt><trkpt lat="45.6981604" lon="9.8056539"><ele>349.8</ele><time>2026-03-22T09:02:28.951Z</time></trkpt><trkpt lat="45.6980982" lon="9.805688"><ele>351.0</ele><time>2026-03-22T09:02:29.953Z</time></trkpt><trkpt lat="45.6980073" lon="9.8057667"><ele>351.0</ele><time>2026-03-22T09:02:31.95Z</time></trkpt><trkpt lat="45.6979165" lon="9.8058535"><ele>351.0</ele><time>2026-03-22T09:02:33.96Z</time></trkpt><trkpt lat="45.6978293" lon="9.8059516"><ele>351.0</ele><time>2026-03-22T09:02:35.953Z</time></trkpt><trkpt lat="45.697733" lon="9.80606"><ele>351.0</ele><time>2026-03-22T09:02:37.957Z</time></trkpt><trkpt lat="45.6976812" lon="9.8061202"><ele>351.0</ele><time>2026-03-22T09:02:38.946Z</time></trkpt><trkpt lat="45.6976315" lon="9.8061951"><ele>350.6666666666667</ele><time>2026-03-22T09:02:39.951Z</time></trkpt><trkpt lat="45.6975849" lon="9.8062642"><ele>350.3333333333333</ele><time>2026-03-22T09:02:40.954Z</time></trkpt><trkpt lat="45.6975348" lon="9.806331"><ele>350.0</ele><time>2026-03-22T09:02:41.959Z</time></trkpt><trkpt lat="45.6974858" lon="9.8064035"><ele>349.66666666666663</ele><time>2026-03-22T09:02:42.954Z</time></trkpt><trkpt lat="45.6974295" lon="9.8064701"><ele>349.3333333333333</ele><time>2026-03-22T09:02:44.029Z</time></trkpt><trkpt lat="45.6973488" lon="9.80657"><ele>349.0</ele><time>2026-03-22T09:02:46.033Z</time></trkpt><trkpt lat="45.6972819" lon="9.8066457"><ele>349.0</ele><time>2026-03-22T09:02:47.969Z</time></trkpt><trkpt lat="45.6972028" lon="9.806733"><ele>349.0</ele><time>2026-03-22T09:02:49.968Z</time></trkpt><trkpt lat="45.697127" lon="9.8068218"><ele>349.0</ele><time>2026-03-22T09:02:52.032Z</time></trkpt><trkpt lat="45.6970565" lon="9.8069073"><ele>349.0</ele><time>2026-03-22T09:02:53.963Z</time></trkpt><trkpt lat="45.6969731" lon="9.8070136"><ele>349.0</ele><time>2026-03-22T09:02:55.952Z</time></trkpt><trkpt lat="45.6969022" lon="9.8071062"><ele>349.79999999999995</ele><time>2026-03-22T09:02:57.955Z</time></trkpt><trkpt lat="45.6968169" lon="9.8072041"><ele>350.59999999999997</ele><time>2026-03-22T09:02:59.962Z</time></trkpt><trkpt lat="45.6967348" lon="9.8072976"><ele>351.4</ele><time>2026-03-22T09:03:01.953Z</time></trkpt><trkpt lat="45.6966537" lon="9.8073798"><ele>352.2</ele><time>2026-03-22T09:03:03.958Z</time></trkpt><trkpt lat="45.6965754" lon="9.8074476"><ele>353.0</ele><time>2026-03-22T09:03:05.957Z</time></trkpt><trkpt lat="45.696503" lon="9.8075096"><ele>353.0</ele><time>2026-03-22T09:03:07.953Z</time></trkpt><trkpt lat="45.6964309" lon="9.807573"><ele>353.0</ele><time>2026-03-22T09:03:09.969Z</time></trkpt><trkpt lat="45.6963681" lon="9.807646"><ele>353.0</ele><time>2026-03-22T09:03:11.956Z</time></trkpt><trkpt lat="45.6963059" lon="9.8077305"><ele>353.0</ele><time>2026-03-22T09:03:13.952Z</time></trkpt><trkpt lat="45.6962378" lon="9.8077782"><ele>353.0</ele><time>2026-03-22T09:03:15.954Z</time></trkpt><trkpt lat="45.6961712" lon="9.8078322"><ele>353.0</ele><time>2026-03-22T09:03:18.952Z</time></trkpt><trkpt lat="45.6961188" lon="9.8078874"><ele>351.83333333333337</ele><time>2026-03-22T09:03:20.962Z</time></trkpt><trkpt lat="45.6960444" lon="9.8079531"><ele>350.6666666666667</ele><time>2026-03-22T09:03:22.956Z</time></trkpt><trkpt lat="45.6959559" lon="9.8080168"><ele>349.5</ele><time>2026-03-22T09:03:24.955Z</time></trkpt><trkpt lat="45.6958787" lon="9.8080729"><ele>348.3333333333333</ele><time>2026-03-22T09:03:26.963Z</time></trkpt><trkpt lat="45.6958094" lon="9.8081246"><ele>347.16666666666663</ele><time>2026-03-22T09:03:28.956Z</time></trkpt><trkpt lat="45.6957472" lon="9.8081599"><ele>346.0</ele><time>2026-03-22T09:03:30.954Z</time></trkpt><trkpt lat="45.6956686" lon="9.8082385"><ele>346.0</ele><time>2026-03-22T09:03:38.942Z</time></trkpt><trkpt lat="45.6956255" lon="9.8081272"><ele>346.0</ele><time>2026-03-22T09:04:31.948Z</time></trkpt><trkpt lat="45.6956133" lon="9.8082313"><ele>346.0</ele><time>2026-03-22T09:05:55.955Z</time></trkpt><trkpt lat="45.6956629" lon="9.8082939"><ele>346.0</ele><time>2026-03-22T09:07:42.958Z</time></trkpt><trkpt lat="45.6957017" lon="9.8082217"><ele>346.0</ele><time>2026-03-22T09:07:46.043Z</time></trkpt><trkpt lat="45.6957321" lon="9.8081406"><ele>346.0</ele><time>2026-03-22T09:07:48.964Z</time></trkpt><trkpt lat="45.6957651" lon="9.8080384"><ele>346.0</ele><time>2026-03-22T09:07:51.966Z</time></trkpt><trkpt lat="45.6958042" lon="9.8079649"><ele>346.0</ele><time>2026-03-22T09:07:54.955Z</time></trkpt><trkpt lat="45.6958495" lon="9.8078943"><ele>346.0</ele><time>2026-03-22T09:07:57.961Z</time></trkpt><trkpt lat="45.695898" lon="9.8078186"><ele>346.0</ele><time>2026-03-22T09:08:00.967Z</time></trkpt><trkpt lat="45.6959556" lon="9.8077525"><ele>346.0</ele><time>2026-03-22T09:08:04.053Z</time></trkpt><trkpt lat="45.69601" lon="9.8076917"><ele>346.0</ele><time>2026-03-22T09:08:06.958Z</time></trkpt><trkpt lat="45.6960234" lon="9.807595"><ele>346.0</ele><time>2026-03-22T09:08:10.964Z</time></trkpt><trkpt lat="45.6960091" lon="9.8074892"><ele>346.0</ele><time>2026-03-22T09:08:14.967Z</time></trkpt><trkpt lat="45.696011" lon="9.8073914"><ele>346.57142857142856</ele><time>2026-03-22T09:08:17.954Z</time></trkpt><trkpt lat="45.6960497" lon="9.8073144"><ele>347.14285714285717</ele><time>2026-03-22T09:08:20.953Z</time></trkpt><trkpt lat="45.6960763" lon="9.8072092"><ele>347.7142857142857</ele><time>2026-03-22T09:08:24.979Z</time></trkpt><trkpt lat="45.6961032" lon="9.8071194"><ele>348.2857142857143</ele><time>2026-03-22T09:08:28.963Z</time></trkpt><trkpt lat="45.6961317" lon="9.807033"><ele>348.8571428571429</ele><time>2026-03-22T09:08:32.951Z</time></trkpt><trkpt lat="45.6961272" lon="9.806927"><ele>349.42857142857144</ele><time>2026-03-22T09:08:36.954Z</time></trkpt><trkpt lat="45.6961419" lon="9.8068198"><ele>350.0</ele><time>2026-03-22T09:08:40.947Z</time></trkpt><trkpt lat="45.696172" lon="9.8067311"><ele>353.14285714285717</ele><time>2026-03-22T09:08:43.956Z</time></trkpt><trkpt lat="45.6962046" lon="9.8066395"><ele>356.2857142857143</ele><time>2026-03-22T09:08:47.043Z</time></trkpt><trkpt lat="45.6962408" lon="9.8065552"><ele>359.42857142857144</ele><time>2026-03-22T09:08:50.962Z</time></trkpt><trkpt lat="45.6962763" lon="9.8064774"><ele>362.57142857142856</ele><time>2026-03-22T09:08:54.963Z</time></trkpt><trkpt lat="45.6963235" lon="9.8064068"><ele>365.7142857142857</ele><time>2026-03-22T09:08:58.96Z</time></trkpt><trkpt lat="45.6963554" lon="9.8063178"><ele>368.8571428571429</ele><time>2026-03-22T09:09:01.963Z</time></trkpt><trkpt lat="45.6963817" lon="9.806234"><ele>372.0</ele><time>2026-03-22T09:09:05.061Z</time></trkpt><trkpt lat="45.6964082" lon="9.8061292"><ele>372.0</ele><time>2026-03-22T09:09:08.97Z</time></trkpt><trkpt lat="45.6964301" lon="9.8060222"><ele>372.0</ele><time>2026-03-22T09:09:12.957Z</time></trkpt><trkpt lat="45.696454" lon="9.8059079"><ele>372.0</ele><time>2026-03-22T09:09:17.046Z</time></trkpt><trkpt lat="45.6964852" lon="9.805824"><ele>372.0</ele><time>2026-03-22T09:09:20.964Z</time></trkpt><trkpt lat="45.6965235" lon="9.8057196"><ele>372.0</ele><time>2026-03-22T09:09:25.975Z</time></trkpt><trkpt lat="45.6965495" lon="9.8056368"><ele>372.0</ele><time>2026-03-22T09:09:30.968Z</time></trkpt><trkpt lat="45.6965271" lon="9.8055147"><ele>374.3333333333333</ele><time>2026-03-22T09:09:33.96Z</time></trkpt><trkpt lat="45.6965278" lon="9.8053928"><ele>376.66666666666663</ele><time>2026-03-22T09:09:36.964Z</time></trkpt><trkpt lat="45.6965547" lon="9.8052843"><ele>379.0</ele><time>2026-03-22T09:09:40.971Z</time></trkpt><trkpt lat="45.6965738" lon="9.805196"><ele>381.3333333333333</ele><time>2026-03-22T09:09:43.963Z</time></trkpt><trkpt lat="45.6966079" lon="9.8050904"><ele>383.66666666666663</ele><time>2026-03-22T09:09:48.964Z</time></trkpt><trkpt lat="45.6966382" lon="9.8049867"><ele>386.0</ele><time>2026-03-22T09:09:52.958Z</time></trkpt><trkpt lat="45.6966821" lon="9.8048995"><ele>387.8333333333333</ele><time>2026-03-22T09:09:57.07Z</time></trkpt><trkpt lat="45.6967175" lon="9.8048083"><ele>389.66666666666663</ele><time>2026-03-22T09:09:59.96Z</time></trkpt><trkpt lat="45.6966953" lon="9.8047015"><ele>391.5</ele><time>2026-03-22T09:10:03.962Z</time></trkpt><trkpt lat="45.6966808" lon="9.8046096"><ele>393.33333333333337</ele><time>2026-03-22T09:10:06.957Z</time></trkpt><trkpt lat="45.6966756" lon="9.8044953"><ele>395.1666666666667</ele><time>2026-03-22T09:10:10.951Z</time></trkpt><trkpt lat="45.6966978" lon="9.8043494"><ele>397.0</ele><time>2026-03-22T09:10:18.96Z</time></trkpt><trkpt lat="45.6967022" lon="9.8042492"><ele>398.2857142857143</ele><time>2026-03-22T09:10:22.031Z</time></trkpt><trkpt lat="45.6966977" lon="9.8041398"><ele>399.57142857142856</ele><time>2026-03-22T09:10:26.969Z</time></trkpt><trkpt lat="45.6966831" lon="9.8040394"><ele>400.8571428571429</ele><time>2026-03-22T09:10:30.04Z</time></trkpt><trkpt lat="45.6966605" lon="9.8039498"><ele>402.1428571428571</ele><time>2026-03-22T09:10:32.973Z</time></trkpt><trkpt lat="45.6966479" lon="9.8038415"><ele>403.42857142857144</ele><time>2026-03-22T09:10:35.967Z</time></trkpt><trkpt lat="45.6966479" lon="9.8037327"><ele>404.7142857142857</ele><time>2026-03-22T09:10:39.975Z</time></trkpt><trkpt lat="45.696661" lon="9.8036395"><ele>406.0</ele><time>2026-03-22T09:10:42.968Z</time></trkpt><trkpt lat="45.6966737" lon="9.8035428"><ele>407.57142857142856</ele><time>2026-03-22T09:10:45.968Z</time></trkpt><trkpt lat="45.6966662" lon="9.8034398"><ele>409.1428571428571</ele><time>2026-03-22T09:10:48.969Z</time></trkpt><trkpt lat="45.6966661" lon="9.8033189"><ele>410.7142857142857</ele><time>2026-03-22T09:10:51.97Z</time></trkpt><trkpt lat="45.6966768" lon="9.8032237"><ele>412.2857142857143</ele><time>2026-03-22T09:10:55.972Z</time></trkpt><trkpt lat="45.6966972" lon="9.8031127"><ele>413.85714285714283</ele><time>2026-03-22T09:11:00.039Z</time></trkpt><trkpt lat="45.696724" lon="9.8030306"><ele>415.42857142857144</ele><time>2026-03-22T09:11:02.958Z</time></trkpt><trkpt lat="45.696741" lon="9.8029382"><ele>417.0</ele><time>2026-03-22T09:11:06.955Z</time></trkpt><trkpt lat="45.6967631" lon="9.8028508"><ele>417.0</ele><time>2026-03-22T09:11:10.041Z</time></trkpt><trkpt lat="45.6967887" lon="9.8027585"><ele>417.0</ele><time>2026-03-22T09:11:13.957Z</time></trkpt><trkpt lat="45.6968368" lon="9.8026938"><ele>417.0</ele><time>2026-03-22T09:12:12.959Z</time></trkpt><trkpt lat="45.6968996" lon="9.8026163"><ele>417.0</ele><time>2026-03-22T09:12:16.959Z</time></trkpt><trkpt lat="45.6969623" lon="9.8025309"><ele>417.0</ele><time>2026-03-22T09:12:19.961Z</time></trkpt><trkpt lat="45.697007" lon="9.8024642"><ele>417.0</ele><time>2026-03-22T09:12:21.96Z</time></trkpt><trkpt lat="45.6970513" lon="9.802389"><ele>417.0</ele><time>2026-03-22T09:12:23.962Z</time></trkpt><trkpt lat="45.6970905" lon="9.8023048"><ele>416.6666666666667</ele><time>2026-03-22T09:12:25.956Z</time></trkpt><trkpt lat="45.697126" lon="9.8022111"><ele>416.33333333333337</ele><time>2026-03-22T09:12:27.959Z</time></trkpt><trkpt lat="45.6971573" lon="9.8020906"><ele>416.0</ele><time>2026-03-22T09:12:29.96Z</time></trkpt><trkpt lat="45.6971967" lon="9.8020017"><ele>415.6666666666667</ele><time>2026-03-22T09:12:31.962Z</time></trkpt><trkpt lat="45.6972371" lon="9.801922"><ele>415.33333333333337</ele><time>2026-03-22T09:12:33.957Z</time></trkpt><trkpt lat="45.6972717" lon="9.8018355"><ele>415.0</ele><time>2026-03-22T09:12:35.963Z</time></trkpt><trkpt lat="45.6973337" lon="9.8017394"><ele>418.33333333333337</ele><time>2026-03-22T09:12:38.962Z</time></trkpt><trkpt lat="45.6973824" lon="9.8016813"><ele>421.6666666666667</ele><time>2026-03-22T09:12:40.959Z</time></trkpt><trkpt lat="45.6974459" lon="9.8016019"><ele>425.0</ele><time>2026-03-22T09:12:43.959Z</time></trkpt><trkpt lat="45.6975008" lon="9.8015139"><ele>428.33333333333337</ele><time>2026-03-22T09:12:46.95Z</time></trkpt><trkpt lat="45.6975619" lon="9.8014312"><ele>431.6666666666667</ele><time>2026-03-22T09:12:49.96Z</time></trkpt><trkpt lat="45.6976176" lon="9.8013467"><ele>435.0</ele><time>2026-03-22T09:12:52.963Z</time></trkpt><trkpt lat="45.6976657" lon="9.8012785"><ele>435.00000000000006</ele><time>2026-03-22T09:12:55.962Z</time></trkpt><trkpt lat="45.6977266" lon="9.801243"><ele>435.0</ele><time>2026-03-22T09:12:58.96Z</time></trkpt><trkpt lat="45.6977684" lon="9.8011551"><ele>435.0</ele><time>2026-03-22T09:13:01.956Z</time></trkpt><trkpt lat="45.6978162" lon="9.8010612"><ele>435.0</ele><time>2026-03-22T09:13:04.964Z</time></trkpt><trkpt lat="45.6978653" lon="9.8009803"><ele>435.0</ele><time>2026-03-22T09:13:07.962Z</time></trkpt><trkpt lat="45.6979184" lon="9.8009192"><ele>435.00000000000006</ele><time>2026-03-22T09:13:10.965Z</time></trkpt><trkpt lat="45.6979906" lon="9.8008642"><ele>435.0</ele><time>2026-03-22T09:13:13.957Z</time></trkpt><trkpt lat="45.6980415" lon="9.8008052"><ele>436.6666666666667</ele><time>2026-03-22T09:13:16.965Z</time></trkpt><trkpt lat="45.6981042" lon="9.8007487"><ele>438.33333333333337</ele><time>2026-03-22T09:13:19.963Z</time></trkpt><trkpt lat="45.6981594" lon="9.8006829"><ele>440.0</ele><time>2026-03-22T09:13:22.969Z</time></trkpt><trkpt lat="45.6982186" lon="9.8006107"><ele>441.6666666666667</ele><time>2026-03-22T09:13:26.96Z</time></trkpt><trkpt lat="45.6983012" lon="9.8005365"><ele>443.33333333333337</ele><time>2026-03-22T09:13:29.958Z</time></trkpt><trkpt lat="45.698355" lon="9.800481"><ele>445.0</ele><time>2026-03-22T09:13:31.957Z</time></trkpt><trkpt lat="45.6984186" lon="9.800436"><ele>445.00000000000006</ele><time>2026-03-22T09:13:33.96Z</time></trkpt><trkpt lat="45.6984716" lon="9.8003865"><ele>445.0</ele><time>2026-03-22T09:13:35.959Z</time></trkpt><trkpt lat="45.69853" lon="9.8003206"><ele>445.0</ele><time>2026-03-22T09:13:37.96Z</time></trkpt><trkpt lat="45.6985894" lon="9.8002541"><ele>445.0</ele><time>2026-03-22T09:13:39.982Z</time></trkpt><trkpt lat="45.6986414" lon="9.8001887"><ele>445.00000000000006</ele><time>2026-03-22T09:13:41.966Z</time></trkpt><trkpt lat="45.6986924" lon="9.8001214"><ele>445.0</ele><time>2026-03-22T09:13:43.96Z</time></trkpt><trkpt lat="45.6987691" lon="9.8000335"><ele>444.33333333333337</ele><time>2026-03-22T09:13:46.963Z</time></trkpt><trkpt lat="45.6988211" lon="9.799952"><ele>443.6666666666667</ele><time>2026-03-22T09:13:48.968Z</time></trkpt><trkpt lat="45.6988778" lon="9.7998608"><ele>443.0</ele><time>2026-03-22T09:13:50.959Z</time></trkpt><trkpt lat="45.6989288" lon="9.7997586"><ele>442.33333333333337</ele><time>2026-03-22T09:13:52.958Z</time></trkpt><trkpt lat="45.698971" lon="9.799654"><ele>441.6666666666667</ele><time>2026-03-22T09:13:54.961Z</time></trkpt><trkpt lat="45.6989976" lon="9.7995647"><ele>441.0</ele><time>2026-03-22T09:13:55.967Z</time></trkpt><trkpt lat="45.6990557" lon="9.7994119"><ele>441.0</ele><time>2026-03-22T09:13:57.961Z</time></trkpt><trkpt lat="45.6990973" lon="9.7993149"><ele>441.0</ele><time>2026-03-22T09:14:01.02Z</time></trkpt><trkpt lat="45.6990264" lon="9.7993259"><ele>441.0</ele><time>2026-03-22T09:14:30.975Z</time></trkpt><trkpt lat="45.6989535" lon="9.7993662"><ele>441.0</ele><time>2026-03-22T09:14:34.041Z</time></trkpt><trkpt lat="45.6988632" lon="9.7993804"><ele>441.0</ele><time>2026-03-22T09:14:36.966Z</time></trkpt><trkpt lat="45.6987931" lon="9.7993807"><ele>441.0</ele><time>2026-03-22T09:14:38.967Z</time></trkpt><trkpt lat="45.698723" lon="9.7993841"><ele>441.0</ele><time>2026-03-22T09:14:40.945Z</time></trkpt><trkpt lat="45.6986476" lon="9.799394"><ele>441.0</ele><time>2026-03-22T09:14:42.959Z</time></trkpt><trkpt lat="45.6985697" lon="9.7993962"><ele>441.0</ele><time>2026-03-22T09:14:45.028Z</time></trkpt><trkpt lat="45.6984961" lon="9.7994046"><ele>441.0</ele><time>2026-03-22T09:14:46.953Z</time></trkpt><trkpt lat="45.6984176" lon="9.7994039"><ele>441.0</ele><time>2026-03-22T09:14:48.964Z</time></trkpt><trkpt lat="45.6983519" lon="9.7994139"><ele>441.0</ele><time>2026-03-22T09:14:50.964Z</time></trkpt><trkpt lat="45.6982631" lon="9.7994488"><ele>443.1428571428571</ele><time>2026-03-22T09:14:53.958Z</time></trkpt><trkpt lat="45.6981792" lon="9.799459"><ele>445.2857142857143</ele><time>2026-03-22T09:14:57.03Z</time></trkpt><trkpt lat="45.6981152" lon="9.7994578"><ele>447.42857142857144</ele><time>2026-03-22T09:14:58.962Z</time></trkpt><trkpt lat="45.6980437" lon="9.7994632"><ele>449.57142857142856</ele><time>2026-03-22T09:15:00.954Z</time></trkpt><trkpt lat="45.6979731" lon="9.79945"><ele>451.71428571428567</ele><time>2026-03-22T09:15:02.95Z</time></trkpt><trkpt lat="45.6979019" lon="9.7994354"><ele>453.85714285714283</ele><time>2026-03-22T09:15:05.03Z</time></trkpt><trkpt lat="45.6978408" lon="9.7994115"><ele>456.0</ele><time>2026-03-22T09:15:06.962Z</time></trkpt><trkpt lat="45.697757" lon="9.7993752"><ele>456.6666666666667</ele><time>2026-03-22T09:15:09.961Z</time></trkpt><trkpt lat="45.6976668" lon="9.7993485"><ele>457.33333333333337</ele><time>2026-03-22T09:15:12.965Z</time></trkpt><trkpt lat="45.6975823" lon="9.7993475"><ele>458.0</ele><time>2026-03-22T09:15:16.029Z</time></trkpt><trkpt lat="45.6975016" lon="9.7993314"><ele>458.6666666666667</ele><time>2026-03-22T09:15:18.956Z</time></trkpt><trkpt lat="45.6974331" lon="9.7993182"><ele>459.33333333333337</ele><time>2026-03-22T09:15:21.957Z</time></trkpt><trkpt lat="45.6973661" lon="9.7992998"><ele>460.0</ele><time>2026-03-22T09:15:24.971Z</time></trkpt><trkpt lat="45.6972943" lon="9.7992826"><ele>460.00000000000006</ele><time>2026-03-22T09:15:27.978Z</time></trkpt><trkpt lat="45.697224" lon="9.7992555"><ele>460.0</ele><time>2026-03-22T09:15:30.961Z</time></trkpt><trkpt lat="45.697151" lon="9.7992356"><ele>460.0</ele><time>2026-03-22T09:15:33.961Z</time></trkpt><trkpt lat="45.6970636" lon="9.7991947"><ele>460.0</ele><time>2026-03-22T09:15:36.954Z</time></trkpt><trkpt lat="45.6969817" lon="9.799146"><ele>460.00000000000006</ele><time>2026-03-22T09:15:39.977Z</time></trkpt><trkpt lat="45.6968945" lon="9.7990984"><ele>460.0</ele><time>2026-03-22T09:15:42.961Z</time></trkpt><trkpt lat="45.6968291" lon="9.7990708"><ele>461.83333333333337</ele><time>2026-03-22T09:15:44.954Z</time></trkpt><trkpt lat="45.6967542" lon="9.7990431"><ele>463.6666666666667</ele><time>2026-03-22T09:15:47.963Z</time></trkpt><trkpt lat="45.6966815" lon="9.7990263"><ele>465.5</ele><time>2026-03-22T09:15:51.03Z</time></trkpt><trkpt lat="45.6966067" lon="9.7990035"><ele>467.33333333333337</ele><time>2026-03-22T09:15:53.969Z</time></trkpt><trkpt lat="45.696521" lon="9.7989833"><ele>469.1666666666667</ele><time>2026-03-22T09:15:57.976Z</time></trkpt><trkpt lat="45.6964578" lon="9.7989514"><ele>471.0</ele><time>2026-03-22T09:16:01.033Z</time></trkpt><trkpt lat="45.696385" lon="9.798902"><ele>471.0</ele><time>2026-03-22T09:16:03.947Z</time></trkpt><trkpt lat="45.6963287" lon="9.7988522"><ele>471.0</ele><time>2026-03-22T09:16:05.954Z</time></trkpt><trkpt lat="45.6962722" lon="9.7987968"><ele>471.0</ele><time>2026-03-22T09:16:07.954Z</time></trkpt><trkpt lat="45.6962191" lon="9.7987458"><ele>471.0</ele><time>2026-03-22T09:16:09.942Z</time></trkpt><trkpt lat="45.6961284" lon="9.7986945"><ele>471.0</ele><time>2026-03-22T09:16:12.038Z</time></trkpt><trkpt lat="45.6960557" lon="9.7986129"><ele>471.0</ele><time>2026-03-22T09:16:13.972Z</time></trkpt><trkpt lat="45.6960069" lon="9.7985375"><ele>470.57142857142867</ele><time>2026-03-22T09:16:15.962Z</time></trkpt><trkpt lat="45.6959657" lon="9.7984567"><ele>470.14285714285717</ele><time>2026-03-22T09:16:17.971Z</time></trkpt><trkpt lat="45.6959244" lon="9.7983617"><ele>469.7142857142858</ele><time>2026-03-22T09:16:20.991Z</time></trkpt><trkpt lat="45.6958436" lon="9.7983187"><ele>469.28571428571433</ele><time>2026-03-22T09:16:24.977Z</time></trkpt><trkpt lat="45.6957838" lon="9.798286"><ele>468.8571428571429</ele><time>2026-03-22T09:16:26.975Z</time></trkpt><trkpt lat="45.695726" lon="9.7982271"><ele>468.42857142857144</ele><time>2026-03-22T09:16:28.974Z</time></trkpt><trkpt lat="45.6956781" lon="9.7981581"><ele>468.0</ele><time>2026-03-22T09:16:30.98Z</time></trkpt><trkpt lat="45.6956069" lon="9.7980752"><ele>468.0</ele><time>2026-03-22T09:16:33.973Z</time></trkpt><trkpt lat="45.69554" lon="9.7979804"><ele>467.99999999999994</ele><time>2026-03-22T09:16:36.964Z</time></trkpt><trkpt lat="45.6954555" lon="9.797854"><ele>467.99999999999994</ele><time>2026-03-22T09:16:38.975Z</time></trkpt><trkpt lat="45.6954093" lon="9.7977707"><ele>468.0</ele><time>2026-03-22T09:16:39.97Z</time></trkpt><trkpt lat="45.6953578" lon="9.7976514"><ele>468.0</ele><time>2026-03-22T09:16:42.041Z</time></trkpt><trkpt lat="45.6953111" lon="9.797577"><ele>465.0</ele><time>2026-03-22T09:16:43.981Z</time></trkpt><trkpt lat="45.6952453" lon="9.7974867"><ele>462.0</ele><time>2026-03-22T09:16:46.979Z</time></trkpt><trkpt lat="45.6952" lon="9.7973849"><ele>459.0</ele><time>2026-03-22T09:16:49.978Z</time></trkpt><trkpt lat="45.695152" lon="9.7973263"><ele>456.0</ele><time>2026-03-22T09:16:52.96Z</time></trkpt><trkpt lat="45.6950951" lon="9.797259"><ele>453.0</ele><time>2026-03-22T09:16:55.964Z</time></trkpt><trkpt lat="45.6950676" lon="9.7971723"><ele>450.0</ele><time>2026-03-22T09:16:58.972Z</time></trkpt><trkpt lat="45.6950661" lon="9.7970684"><ele>450.00000000000006</ele><time>2026-03-22T09:17:01.977Z</time></trkpt><trkpt lat="45.6950698" lon="9.796954"><ele>450.0</ele><time>2026-03-22T09:17:04.957Z</time></trkpt><trkpt lat="45.6950702" lon="9.7968571"><ele>450.00000000000006</ele><time>2026-03-22T09:17:06.96Z</time></trkpt><trkpt lat="45.6950975" lon="9.7967675"><ele>450.00000000000006</ele><time>2026-03-22T09:17:08.957Z</time></trkpt><trkpt lat="45.6951183" lon="9.7966782"><ele>450.0</ele><time>2026-03-22T09:17:10.961Z</time></trkpt><trkpt lat="45.6951236" lon="9.7965649"><ele>450.00000000000006</ele><time>2026-03-22T09:17:12.96Z</time></trkpt><trkpt lat="45.6951095" lon="9.7964704"><ele>450.00000000000006</ele><time>2026-03-22T09:17:14.954Z</time></trkpt><trkpt lat="45.6951007" lon="9.7963565"><ele>448.4</ele><time>2026-03-22T09:17:16.973Z</time></trkpt><trkpt lat="45.6951018" lon="9.7961889"><ele>446.8</ele><time>2026-03-22T09:17:18.967Z</time></trkpt><trkpt lat="45.6951125" lon="9.7960389"><ele>445.20000000000005</ele><time>2026-03-22T09:17:20.967Z</time></trkpt><trkpt lat="45.6950912" lon="9.7959482"><ele>443.6</ele><time>2026-03-22T09:17:21.961Z</time></trkpt><trkpt lat="45.6950643" lon="9.7958442"><ele>442.0</ele><time>2026-03-22T09:17:22.968Z</time></trkpt><trkpt lat="45.6950391" lon="9.7957282"><ele>441.00000000000006</ele><time>2026-03-22T09:17:23.966Z</time></trkpt><trkpt lat="45.6950165" lon="9.7956181"><ele>440.0</ele><time>2026-03-22T09:17:24.957Z</time></trkpt><trkpt lat="45.6949919" lon="9.7955133"><ele>439.0</ele><time>2026-03-22T09:17:25.963Z</time></trkpt><trkpt lat="45.6949641" lon="9.7954131"><ele>438.0</ele><time>2026-03-22T09:17:26.963Z</time></trkpt><trkpt lat="45.6949388" lon="9.7953116"><ele>437.00000000000006</ele><time>2026-03-22T09:17:27.962Z</time></trkpt><trkpt lat="45.6949068" lon="9.7952233"><ele>436.0</ele><time>2026-03-22T09:17:28.951Z</time></trkpt><trkpt lat="45.6948469" lon="9.7950733"><ele>436.0</ele><time>2026-03-22T09:17:30.959Z</time></trkpt><trkpt lat="45.6948075" lon="9.7949675"><ele>436.0</ele><time>2026-03-22T09:17:32.971Z</time></trkpt><trkpt lat="45.6947821" lon="9.7948633"><ele>436.0</ele><time>2026-03-22T09:17:35.979Z</time></trkpt><trkpt lat="45.6947573" lon="9.7947748"><ele>436.0</ele><time>2026-03-22T09:17:37.967Z</time></trkpt><trkpt lat="45.6947315" lon="9.7946863"><ele>436.0</ele><time>2026-03-22T09:17:39.966Z</time></trkpt><trkpt lat="45.6947076" lon="9.7945842"><ele>436.0</ele><time>2026-03-22T09:17:41.975Z</time></trkpt><trkpt lat="45.6946865" lon="9.7944913"><ele>436.0</ele><time>2026-03-22T09:17:43.96Z</time></trkpt><trkpt lat="45.69467" lon="9.7943952"><ele>436.6666666666667</ele><time>2026-03-22T09:17:46.042Z</time></trkpt><trkpt lat="45.6946646" lon="9.7943005"><ele>437.33333333333337</ele><time>2026-03-22T09:17:47.954Z</time></trkpt><trkpt lat="45.6946569" lon="9.7941884"><ele>438.0</ele><time>2026-03-22T09:17:50.962Z</time></trkpt><trkpt lat="45.6946645" lon="9.7940794"><ele>438.66666666666663</ele><time>2026-03-22T09:17:54.031Z</time></trkpt><trkpt lat="45.6946649" lon="9.7939869"><ele>439.3333333333333</ele><time>2026-03-22T09:17:57.96Z</time></trkpt><trkpt lat="45.6946943" lon="9.7938654"><ele>440.0</ele><time>2026-03-22T09:18:01.956Z</time></trkpt><trkpt lat="45.6947223" lon="9.7937541"><ele>439.99999999999994</ele><time>2026-03-22T09:18:04.952Z</time></trkpt><trkpt lat="45.6947675" lon="9.7936484"><ele>440.0</ele><time>2026-03-22T09:18:07.948Z</time></trkpt><trkpt lat="45.6947591" lon="9.7935494"><ele>440.0</ele><time>2026-03-22T09:18:09.941Z</time></trkpt><trkpt lat="45.6947718" lon="9.7934135"><ele>440.0</ele><time>2026-03-22T09:18:11.951Z</time></trkpt><trkpt lat="45.6948006" lon="9.7933229"><ele>439.99999999999994</ele><time>2026-03-22T09:18:15.96Z</time></trkpt><trkpt lat="45.6948265" lon="9.7932044"><ele>440.0</ele><time>2026-03-22T09:18:20.034Z</time></trkpt><trkpt lat="45.6948728" lon="9.7931284"><ele>440.1428571428571</ele><time>2026-03-22T09:18:22.974Z</time></trkpt><trkpt lat="45.6948491" lon="9.7930044"><ele>440.2857142857143</ele><time>2026-03-22T09:18:26.957Z</time></trkpt><trkpt lat="45.6948208" lon="9.7929225"><ele>440.42857142857144</ele><time>2026-03-22T09:18:28.976Z</time></trkpt><trkpt lat="45.6947848" lon="9.7928318"><ele>440.57142857142856</ele><time>2026-03-22T09:18:30.964Z</time></trkpt><trkpt lat="45.694754" lon="9.79275"><ele>440.7142857142857</ele><time>2026-03-22T09:18:32.974Z</time></trkpt><trkpt lat="45.6947209" lon="9.7926727"><ele>440.85714285714283</ele><time>2026-03-22T09:18:35.972Z</time></trkpt><trkpt lat="45.694709" lon="9.7925747"><ele>441.0</ele><time>2026-03-22T09:18:39.975Z</time></trkpt><trkpt lat="45.6946729" lon="9.7924961"><ele>442.1666666666667</ele><time>2026-03-22T09:18:42.971Z</time></trkpt><trkpt lat="45.6946096" lon="9.7923891"><ele>443.33333333333337</ele><time>2026-03-22T09:18:45.973Z</time></trkpt><trkpt lat="45.6945439" lon="9.7923193"><ele>444.5</ele><time>2026-03-22T09:18:47.966Z</time></trkpt><trkpt lat="45.6944709" lon="9.7922538"><ele>445.6666666666667</ele><time>2026-03-22T09:18:49.97Z</time></trkpt><trkpt lat="45.6944107" lon="9.7922049"><ele>446.83333333333337</ele><time>2026-03-22T09:18:51.97Z</time></trkpt><trkpt lat="45.6943449" lon="9.7921475"><ele>448.0</ele><time>2026-03-22T09:18:54.97Z</time></trkpt><trkpt lat="45.694344" lon="9.7920294"><ele>448.00000000000006</ele><time>2026-03-22T09:18:58.974Z</time></trkpt><trkpt lat="45.6942963" lon="9.7919225"><ele>448.0</ele><time>2026-03-22T09:19:00.974Z</time></trkpt><trkpt lat="45.6942328" lon="9.7918385"><ele>448.0</ele><time>2026-03-22T09:19:01.97Z</time></trkpt><trkpt lat="45.6941707" lon="9.7917844"><ele>448.0</ele><time>2026-03-22T09:19:02.967Z</time></trkpt><trkpt lat="45.6941115" lon="9.7917177"><ele>448.00000000000006</ele><time>2026-03-22T09:19:03.969Z</time></trkpt><trkpt lat="45.6940488" lon="9.7916626"><ele>448.0</ele><time>2026-03-22T09:19:04.966Z</time></trkpt><trkpt lat="45.6939329" lon="9.7915297"><ele>444.83333333333337</ele><time>2026-03-22T09:19:06.967Z</time></trkpt><trkpt lat="45.6938771" lon="9.7914665"><ele>441.6666666666667</ele><time>2026-03-22T09:19:07.967Z</time></trkpt><trkpt lat="45.6938022" lon="9.7914198"><ele>438.5</ele><time>2026-03-22T09:19:08.967Z</time></trkpt><trkpt lat="45.6937156" lon="9.791365"><ele>435.33333333333337</ele><time>2026-03-22T09:19:10.967Z</time></trkpt><trkpt lat="45.6936488" lon="9.791282"><ele>432.1666666666667</ele><time>2026-03-22T09:19:12.971Z</time></trkpt><trkpt lat="45.693576" lon="9.7911992"><ele>429.0</ele><time>2026-03-22T09:19:14.97Z</time></trkpt><trkpt lat="45.6935028" lon="9.7911009"><ele>429.0</ele><time>2026-03-22T09:19:16.966Z</time></trkpt><trkpt lat="45.6934191" lon="9.7910268"><ele>429.0</ele><time>2026-03-22T09:19:18.962Z</time></trkpt><trkpt lat="45.69334" lon="9.7909713"><ele>429.0</ele><time>2026-03-22T09:19:20.962Z</time></trkpt><trkpt lat="45.6932722" lon="9.7908993"><ele>429.0</ele><time>2026-03-22T09:19:22.965Z</time></trkpt><trkpt lat="45.693202" lon="9.7908112"><ele>429.0</ele><time>2026-03-22T09:19:24.968Z</time></trkpt><trkpt lat="45.6931579" lon="9.7906969"><ele>426.1666666666667</ele><time>2026-03-22T09:19:26.97Z</time></trkpt><trkpt lat="45.6931126" lon="9.7906005"><ele>423.33333333333337</ele><time>2026-03-22T09:19:28.966Z</time></trkpt><trkpt lat="45.6930382" lon="9.7905752"><ele>420.5</ele><time>2026-03-22T09:19:31.953Z</time></trkpt><trkpt lat="45.6929769" lon="9.7906185"><ele>417.6666666666667</ele><time>2026-03-22T09:20:31.961Z</time></trkpt><trkpt lat="45.6929116" lon="9.7906755"><ele>414.83333333333337</ele><time>2026-03-22T09:20:34.956Z</time></trkpt><trkpt lat="45.6928574" lon="9.7907434"><ele>412.0</ele><time>2026-03-22T09:20:37.953Z</time></trkpt><trkpt lat="45.6928074" lon="9.7908575"><ele>412.00000000000006</ele><time>2026-03-22T09:20:40.958Z</time></trkpt><trkpt lat="45.6927805" lon="9.7909956"><ele>412.0</ele><time>2026-03-22T09:20:42.958Z</time></trkpt><trkpt lat="45.6927683" lon="9.7910868"><ele>412.0</ele><time>2026-03-22T09:20:43.957Z</time></trkpt><trkpt lat="45.6927601" lon="9.7912424"><ele>412.0</ele><time>2026-03-22T09:20:45.953Z</time></trkpt><trkpt lat="45.6927718" lon="9.7913615"><ele>412.00000000000006</ele><time>2026-03-22T09:20:47.962Z</time></trkpt><trkpt lat="45.6927834" lon="9.7914757"><ele>412.0</ele><time>2026-03-22T09:20:50.952Z</time></trkpt><trkpt lat="45.6927636" lon="9.791585"><ele>416.40000000000003</ele><time>2026-03-22T09:20:52.951Z</time></trkpt><trkpt lat="45.6927504" lon="9.7917151"><ele>420.8</ele><time>2026-03-22T09:20:54.958Z</time></trkpt><trkpt lat="45.6927494" lon="9.7918482"><ele>425.2</ele><time>2026-03-22T09:20:56.952Z</time></trkpt><trkpt lat="45.6927442" lon="9.7919848"><ele>429.6</ele><time>2026-03-22T09:20:58.955Z</time></trkpt><trkpt lat="45.6927615" lon="9.7921638"><ele>434.0</ele><time>2026-03-22T09:21:01.043Z</time></trkpt><trkpt lat="45.6927935" lon="9.7923246"><ele>433.99999999999994</ele><time>2026-03-22T09:21:02.965Z</time></trkpt><trkpt lat="45.6928034" lon="9.7924471"><ele>434.0</ele><time>2026-03-22T09:21:04.974Z</time></trkpt><trkpt lat="45.6928148" lon="9.7925445"><ele>434.0</ele><time>2026-03-22T09:21:07.041Z</time></trkpt><trkpt lat="45.6928524" lon="9.7926445"><ele>434.0</ele><time>2026-03-22T09:21:09.969Z</time></trkpt><trkpt lat="45.6928975" lon="9.7927127"><ele>433.99999999999994</ele><time>2026-03-22T09:21:11.959Z</time></trkpt><trkpt lat="45.6929629" lon="9.7928117"><ele>434.0</ele><time>2026-03-22T09:21:14.951Z</time></trkpt><trkpt lat="45.6930103" lon="9.7929106"><ele>430.0</ele><time>2026-03-22T09:21:16.944Z</time></trkpt><trkpt lat="45.6930499" lon="9.7929995"><ele>426.0</ele><time>2026-03-22T09:21:19.033Z</time></trkpt><trkpt lat="45.6930996" lon="9.7931117"><ele>422.0</ele><time>2026-03-22T09:21:21.028Z</time></trkpt><trkpt lat="45.6931778" lon="9.7932469"><ele>418.0</ele><time>2026-03-22T09:21:22.946Z</time></trkpt><trkpt lat="45.6932489" lon="9.7933424"><ele>414.0</ele><time>2026-03-22T09:21:24.953Z</time></trkpt><trkpt lat="45.6933276" lon="9.7934264"><ele>416.0</ele><time>2026-03-22T09:21:26.946Z</time></trkpt><trkpt lat="45.6933833" lon="9.7935064"><ele>418.0</ele><time>2026-03-22T09:21:28.944Z</time></trkpt><trkpt lat="45.6934387" lon="9.7935911"><ele>420.0</ele><time>2026-03-22T09:21:30.947Z</time></trkpt><trkpt lat="45.6934927" lon="9.7936793"><ele>422.0</ele><time>2026-03-22T09:21:32.94Z</time></trkpt><trkpt lat="45.6935519" lon="9.7937855"><ele>424.0</ele><time>2026-03-22T09:21:34.94Z</time></trkpt><trkpt lat="45.6935988" lon="9.7938606"><ele>426.0</ele><time>2026-03-22T09:21:36.944Z</time></trkpt><trkpt lat="45.6936553" lon="9.7939555"><ele>426.0</ele><time>2026-03-22T09:21:40.023Z</time></trkpt><trkpt lat="45.6936824" lon="9.7940607"><ele>426.0</ele><time>2026-03-22T09:21:41.95Z</time></trkpt><trkpt lat="45.6937159" lon="9.7941695"><ele>426.0</ele><time>2026-03-22T09:21:43.949Z</time></trkpt><trkpt lat="45.6937387" lon="9.7942675"><ele>426.0</ele><time>2026-03-22T09:21:45.947Z</time></trkpt><trkpt lat="45.693747" lon="9.7943985"><ele>426.0</ele><time>2026-03-22T09:21:47.948Z</time></trkpt><trkpt lat="45.6937508" lon="9.79453"><ele>426.0</ele><time>2026-03-22T09:21:49.957Z</time></trkpt><trkpt lat="45.6937543" lon="9.794661"><ele>423.6666666666667</ele><time>2026-03-22T09:21:51.949Z</time></trkpt><trkpt lat="45.6937598" lon="9.7948049"><ele>421.33333333333337</ele><time>2026-03-22T09:21:53.956Z</time></trkpt><trkpt lat="45.693803" lon="9.7949729"><ele>419.0</ele><time>2026-03-22T09:21:55.939Z</time></trkpt><trkpt lat="45.6938202" lon="9.7950685"><ele>416.6666666666667</ele><time>2026-03-22T09:21:56.952Z</time></trkpt><trkpt lat="45.6938291" lon="9.7951677"><ele>414.33333333333337</ele><time>2026-03-22T09:21:57.954Z</time></trkpt><trkpt lat="45.6938392" lon="9.7952781"><ele>412.0</ele><time>2026-03-22T09:21:59.023Z</time></trkpt><trkpt lat="45.693864" lon="9.7954182"><ele>411.00000000000006</ele><time>2026-03-22T09:22:01.036Z</time></trkpt><trkpt lat="45.6938811" lon="9.7955252"><ele>410.0</ele><time>2026-03-22T09:22:02.953Z</time></trkpt><trkpt lat="45.693915" lon="9.7956246"><ele>409.0</ele><time>2026-03-22T09:22:05.955Z</time></trkpt><trkpt lat="45.6939527" lon="9.7957003"><ele>408.0</ele><time>2026-03-22T09:22:08.951Z</time></trkpt><trkpt lat="45.6939757" lon="9.7958163"><ele>407.00000000000006</ele><time>2026-03-22T09:22:11.945Z</time></trkpt><trkpt lat="45.6939829" lon="9.7959439"><ele>406.0</ele><time>2026-03-22T09:22:14.028Z</time></trkpt><trkpt lat="45.6940095" lon="9.7960448"><ele>406.00000000000006</ele><time>2026-03-22T09:22:15.955Z</time></trkpt><trkpt lat="45.6940233" lon="9.7961647"><ele>406.0</ele><time>2026-03-22T09:22:18.945Z</time></trkpt><trkpt lat="45.693985" lon="9.7962726"><ele>406.0</ele><time>2026-03-22T09:22:20.959Z</time></trkpt><trkpt lat="45.6939646" lon="9.796378"><ele>406.0</ele><time>2026-03-22T09:22:22.951Z</time></trkpt><trkpt lat="45.6939552" lon="9.7964786"><ele>406.00000000000006</ele><time>2026-03-22T09:22:24.948Z</time></trkpt><trkpt lat="45.693962" lon="9.7966067"><ele>406.0</ele><time>2026-03-22T09:22:27.956Z</time></trkpt><trkpt lat="45.6939814" lon="9.796732"><ele>406.83333333333337</ele><time>2026-03-22T09:22:30.955Z</time></trkpt><trkpt lat="45.693996" lon="9.7968391"><ele>407.6666666666667</ele><time>2026-03-22T09:22:33.956Z</time></trkpt><trkpt lat="45.6939893" lon="9.7969528"><ele>408.5</ele><time>2026-03-22T09:22:37.961Z</time></trkpt><trkpt lat="45.6939874" lon="9.7970544"><ele>409.33333333333337</ele><time>2026-03-22T09:22:39.961Z</time></trkpt><trkpt lat="45.6939629" lon="9.7971906"><ele>410.1666666666667</ele><time>2026-03-22T09:22:41.967Z</time></trkpt><trkpt lat="45.6939415" lon="9.7972913"><ele>411.0</ele><time>2026-03-22T09:22:43.962Z</time></trkpt><trkpt lat="45.6939507" lon="9.7974177"><ele>411.0</ele><time>2026-03-22T09:22:46.954Z</time></trkpt><trkpt lat="45.6939889" lon="9.7975151"><ele>411.0</ele><time>2026-03-22T09:22:48.965Z</time></trkpt><trkpt lat="45.6940269" lon="9.797592"><ele>411.0</ele><time>2026-03-22T09:22:49.958Z</time></trkpt><trkpt lat="45.6940641" lon="9.7976661"><ele>411.0</ele><time>2026-03-22T09:22:50.96Z</time></trkpt><trkpt lat="45.6941181" lon="9.7977839"><ele>411.0</ele><time>2026-03-22T09:22:52.959Z</time></trkpt><trkpt lat="45.6941466" lon="9.7978765"><ele>411.0</ele><time>2026-03-22T09:22:54.966Z</time></trkpt><trkpt lat="45.6941577" lon="9.7979843"><ele>407.6666666666667</ele><time>2026-03-22T09:22:56.958Z</time></trkpt><trkpt lat="45.6941982" lon="9.7981284"><ele>404.33333333333337</ele><time>2026-03-22T09:22:58.964Z</time></trkpt><trkpt lat="45.6942228" lon="9.7982193"><ele>401.0</ele><time>2026-03-22T09:23:00.963Z</time></trkpt><trkpt lat="45.6942574" lon="9.7983162"><ele>397.6666666666667</ele><time>2026-03-22T09:23:02.96Z</time></trkpt><trkpt lat="45.6942914" lon="9.7983955"><ele>394.33333333333337</ele><time>2026-03-22T09:23:04.961Z</time></trkpt><trkpt lat="45.6943313" lon="9.7984771"><ele>391.0</ele><time>2026-03-22T09:23:06.957Z</time></trkpt><trkpt lat="45.6943903" lon="9.7985798"><ele>394.83333333333337</ele><time>2026-03-22T09:23:09.971Z</time></trkpt><trkpt lat="45.6944665" lon="9.7986561"><ele>398.6666666666667</ele><time>2026-03-22T09:23:13.031Z</time></trkpt><trkpt lat="45.6945176" lon="9.7987385"><ele>402.5</ele><time>2026-03-22T09:23:15.96Z</time></trkpt><trkpt lat="45.6945443" lon="9.7988228"><ele>406.33333333333337</ele><time>2026-03-22T09:23:17.959Z</time></trkpt><trkpt lat="45.694575" lon="9.7989275"><ele>410.1666666666667</ele><time>2026-03-22T09:23:19.966Z</time></trkpt><trkpt lat="45.694618" lon="9.799038"><ele>414.0</ele><time>2026-03-22T09:23:21.984Z</time></trkpt><trkpt lat="45.6946599" lon="9.7991141"><ele>414.0</ele><time>2026-03-22T09:23:22.954Z</time></trkpt><trkpt lat="45.6947071" lon="9.7992857"><ele>414.0</ele><time>2026-03-22T09:23:24.959Z</time></trkpt><trkpt lat="45.6947411" lon="9.7994694"><ele>414.0</ele><time>2026-03-22T09:23:26.963Z</time></trkpt><trkpt lat="45.6947705" lon="9.7995795"><ele>414.0</ele><time>2026-03-22T09:23:27.96Z</time></trkpt><trkpt lat="45.6947912" lon="9.799679"><ele>414.0</ele><time>2026-03-22T09:23:29.087Z</time></trkpt><trkpt lat="45.6948137" lon="9.7998647"><ele>411.4</ele><time>2026-03-22T09:23:30.965Z</time></trkpt><trkpt lat="45.6948207" lon="9.7999737"><ele>408.79999999999995</ele><time>2026-03-22T09:23:31.961Z</time></trkpt><trkpt lat="45.6948131" lon="9.8001112"><ele>406.20000000000005</ele><time>2026-03-22T09:23:34.03Z</time></trkpt><trkpt lat="45.694778" lon="9.8002348"><ele>403.6</ele><time>2026-03-22T09:23:35.957Z</time></trkpt><trkpt lat="45.6947577" lon="9.8003546"><ele>401.0</ele><time>2026-03-22T09:23:36.964Z</time></trkpt><trkpt lat="45.6947254" lon="9.800496"><ele>399.42857142857144</ele><time>2026-03-22T09:23:38.959Z</time></trkpt><trkpt lat="45.6947298" lon="9.8005933"><ele>397.8571428571429</ele><time>2026-03-22T09:23:40.959Z</time></trkpt><trkpt lat="45.6947756" lon="9.8006715"><ele>396.2857142857143</ele><time>2026-03-22T09:23:43.956Z</time></trkpt><trkpt lat="45.6948514" lon="9.8006806"><ele>394.7142857142857</ele><time>2026-03-22T09:23:47.939Z</time></trkpt><trkpt lat="45.6949302" lon="9.8007135"><ele>393.1428571428571</ele><time>2026-03-22T09:23:50.946Z</time></trkpt><trkpt lat="45.6950011" lon="9.8007181"><ele>391.57142857142856</ele><time>2026-03-22T09:23:53.945Z</time></trkpt><trkpt lat="45.6950735" lon="9.8007214"><ele>390.0</ele><time>2026-03-22T09:23:57.958Z</time></trkpt><trkpt lat="45.6951484" lon="9.8007393"><ele>390.0</ele><time>2026-03-22T09:24:04.957Z</time></trkpt><trkpt lat="45.6951836" lon="9.8008375"><ele>390.0</ele><time>2026-03-22T09:24:07.952Z</time></trkpt><trkpt lat="45.6952245" lon="9.8009683"><ele>390.0</ele><time>2026-03-22T09:24:09.955Z</time></trkpt><trkpt lat="45.6952522" lon="9.8010916"><ele>390.0</ele><time>2026-03-22T09:24:11.958Z</time></trkpt><trkpt lat="45.6952839" lon="9.8012066"><ele>390.0</ele><time>2026-03-22T09:24:13.952Z</time></trkpt><trkpt lat="45.6953212" lon="9.8013104"><ele>390.0</ele><time>2026-03-22T09:24:15.945Z</time></trkpt><trkpt lat="45.6953789" lon="9.8014551"><ele>388.6</ele><time>2026-03-22T09:24:17.956Z</time></trkpt><trkpt lat="45.6954527" lon="9.8016042"><ele>387.2</ele><time>2026-03-22T09:24:19.955Z</time></trkpt><trkpt lat="45.6954802" lon="9.8016939"><ele>385.79999999999995</ele><time>2026-03-22T09:24:20.955Z</time></trkpt><trkpt lat="45.6955351" lon="9.8018244"><ele>384.4</ele><time>2026-03-22T09:24:22.953Z</time></trkpt><trkpt lat="45.6955802" lon="9.8019132"><ele>383.0</ele><time>2026-03-22T09:24:25.964Z</time></trkpt><trkpt lat="45.6955999" lon="9.8020146"><ele>383.0</ele><time>2026-03-22T09:24:28.965Z</time></trkpt><trkpt lat="45.6956231" lon="9.802138"><ele>383.0</ele><time>2026-03-22T09:24:31.954Z</time></trkpt><trkpt lat="45.6956435" lon="9.8022247"><ele>383.0</ele><time>2026-03-22T09:24:33.954Z</time></trkpt><trkpt lat="45.6956615" lon="9.802313"><ele>383.0</ele><time>2026-03-22T09:24:35.956Z</time></trkpt><trkpt lat="45.6956776" lon="9.8024416"><ele>383.0</ele><time>2026-03-22T09:24:39.027Z</time></trkpt><trkpt lat="45.6957118" lon="9.8026378"><ele>382.33333333333337</ele><time>2026-03-22T09:24:41.031Z</time></trkpt><trkpt lat="45.6957005" lon="9.8027637"><ele>381.6666666666667</ele><time>2026-03-22T09:24:42.962Z</time></trkpt><trkpt lat="45.6957003" lon="9.8029761"><ele>381.0</ele><time>2026-03-22T09:24:44.947Z</time></trkpt><trkpt lat="45.6957072" lon="9.8030786"><ele>380.3333333333333</ele><time>2026-03-22T09:24:45.953Z</time></trkpt><trkpt lat="45.6957135" lon="9.803174"><ele>379.66666666666663</ele><time>2026-03-22T09:24:46.945Z</time></trkpt><trkpt lat="45.6957227" lon="9.8032752"><ele>379.0</ele><time>2026-03-22T09:24:47.951Z</time></trkpt><trkpt lat="45.6957404" lon="9.8033684"><ele>377.2</ele><time>2026-03-22T09:24:49.014Z</time></trkpt><trkpt lat="45.6957623" lon="9.8035454"><ele>375.4</ele><time>2026-03-22T09:24:50.954Z</time></trkpt><trkpt lat="45.6957849" lon="9.8037046"><ele>373.6</ele><time>2026-03-22T09:24:52.96Z</time></trkpt><trkpt lat="45.6957905" lon="9.8037976"><ele>371.8</ele><time>2026-03-22T09:24:53.953Z</time></trkpt><trkpt lat="45.6958023" lon="9.8038863"><ele>370.0</ele><time>2026-03-22T09:24:54.98Z</time></trkpt><trkpt lat="45.6958029" lon="9.804054"><ele>370.0</ele><time>2026-03-22T09:24:56.955Z</time></trkpt><trkpt lat="45.695814" lon="9.8042139"><ele>370.0</ele><time>2026-03-22T09:24:58.973Z</time></trkpt><trkpt lat="45.6958232" lon="9.8043452"><ele>370.0</ele><time>2026-03-22T09:25:00.965Z</time></trkpt><trkpt lat="45.6958489" lon="9.8044608"><ele>370.0</ele><time>2026-03-22T09:25:02.964Z</time></trkpt><trkpt lat="45.6958749" lon="9.8045845"><ele>370.0</ele><time>2026-03-22T09:25:04.966Z</time></trkpt><trkpt lat="45.6958592" lon="9.8046918"><ele>368.5</ele><time>2026-03-22T09:25:06.959Z</time></trkpt><trkpt lat="45.6958488" lon="9.8047887"><ele>367.0</ele><time>2026-03-22T09:25:08.981Z</time></trkpt><trkpt lat="45.6958382" lon="9.8048878"><ele>365.5</ele><time>2026-03-22T09:25:10.963Z</time></trkpt><trkpt lat="45.6958366" lon="9.8050084"><ele>364.0</ele><time>2026-03-22T09:25:12.968Z</time></trkpt><trkpt lat="45.6958395" lon="9.805116"><ele>362.5</ele><time>2026-03-22T09:25:14.962Z</time></trkpt><trkpt lat="45.6958401" lon="9.8052296"><ele>361.0</ele><time>2026-03-22T09:25:16.967Z</time></trkpt><trkpt lat="45.6958347" lon="9.8053913"><ele>360.3333333333333</ele><time>2026-03-22T09:25:19.033Z</time></trkpt><trkpt lat="45.6958185" lon="9.8055648"><ele>359.66666666666663</ele><time>2026-03-22T09:25:20.958Z</time></trkpt><trkpt lat="45.6958072" lon="9.8056614"><ele>359.0</ele><time>2026-03-22T09:25:21.952Z</time></trkpt><trkpt lat="45.6957974" lon="9.8057559"><ele>358.3333333333333</ele><time>2026-03-22T09:25:22.961Z</time></trkpt><trkpt lat="45.695793" lon="9.805868"><ele>357.6666666666667</ele><time>2026-03-22T09:25:23.957Z</time></trkpt><trkpt lat="45.6957901" lon="9.8059725"><ele>357.0</ele><time>2026-03-22T09:25:24.957Z</time></trkpt><trkpt lat="45.6957851" lon="9.8060632"><ele>356.75</ele><time>2026-03-22T09:25:26.035Z</time></trkpt><trkpt lat="45.6957732" lon="9.8062415"><ele>356.5</ele><time>2026-03-22T09:25:27.95Z</time></trkpt><trkpt lat="45.6957546" lon="9.8064121"><ele>356.25</ele><time>2026-03-22T09:25:29.954Z</time></trkpt><trkpt lat="45.6957457" lon="9.8065662"><ele>356.0</ele><time>2026-03-22T09:25:31.952Z</time></trkpt><trkpt lat="45.6957343" lon="9.8067248"><ele>354.8</ele><time>2026-03-22T09:25:33.947Z</time></trkpt><trkpt lat="45.6957264" lon="9.8068869"><ele>353.6</ele><time>2026-03-22T09:25:35.956Z</time></trkpt><trkpt lat="45.6957205" lon="9.8070461"><ele>352.4</ele><time>2026-03-22T09:25:37.949Z</time></trkpt><trkpt lat="45.6957219" lon="9.8071994"><ele>351.2</ele><time>2026-03-22T09:25:40.042Z</time></trkpt><trkpt lat="45.6957249" lon="9.8073641"><ele>350.0</ele><time>2026-03-22T09:25:41.962Z</time></trkpt><trkpt lat="45.6957268" lon="9.8075063"><ele>350.0</ele><time>2026-03-22T09:25:43.962Z</time></trkpt><trkpt lat="45.6957283" lon="9.8076519"><ele>350.0</ele><time>2026-03-22T09:25:45.955Z</time></trkpt><trkpt lat="45.6957356" lon="9.8077538"><ele>350.0</ele><time>2026-03-22T09:25:47.96Z</time></trkpt><trkpt lat="45.6957449" lon="9.8078457"><ele>350.0</ele><time>2026-03-22T09:25:49.959Z</time></trkpt><trkpt lat="45.6957317" lon="9.8079511"><ele>350.0</ele><time>2026-03-22T09:25:52.962Z</time></trkpt><trkpt lat="45.6957009" lon="9.8080608"><ele>350.0</ele><time>2026-03-22T09:25:56.04Z</time></trkpt><trkpt lat="45.6956806" lon="9.8081637"><ele>349.33333333333337</ele><time>2026-03-22T09:25:59.96Z</time></trkpt><trkpt lat="45.6956881" lon="9.8082596"><ele>348.6666666666667</ele><time>2026-03-22T09:26:37.953Z</time></trkpt><trkpt lat="45.6957558" lon="9.8082065"><ele>348.0</ele><time>2026-03-22T09:26:43.951Z</time></trkpt><trkpt lat="45.69581" lon="9.808149"><ele>347.3333333333333</ele><time>2026-03-22T09:26:47.945Z</time></trkpt><trkpt lat="45.6958709" lon="9.8081252"><ele>346.66666666666663</ele><time>2026-03-22T09:26:50.957Z</time></trkpt><trkpt lat="45.6959564" lon="9.8081132"><ele>346.0</ele><time>2026-03-22T09:26:53.96Z</time></trkpt><trkpt lat="45.6960543" lon="9.8080835"><ele>343.0</ele><time>2026-03-22T09:26:55.954Z</time></trkpt><trkpt lat="45.6961422" lon="9.8080431"><ele>340.0</ele><time>2026-03-22T09:26:57.946Z</time></trkpt><trkpt lat="45.6962245" lon="9.8079656"><ele>337.0</ele><time>2026-03-22T09:26:59.956Z</time></trkpt><trkpt lat="45.6962931" lon="9.8078745"><ele>334.0</ele><time>2026-03-22T09:27:01.958Z</time></trkpt><trkpt lat="45.696353" lon="9.8078024"><ele>331.0</ele><time>2026-03-22T09:27:03.96Z</time></trkpt><trkpt lat="45.6964238" lon="9.8077242"><ele>335.4</ele><time>2026-03-22T09:27:05.959Z</time></trkpt><trkpt lat="45.6965143" lon="9.8076284"><ele>339.8</ele><time>2026-03-22T09:27:07.952Z</time></trkpt><trkpt lat="45.6965999" lon="9.8075483"><ele>344.2</ele><time>2026-03-22T09:27:09.957Z</time></trkpt><trkpt lat="45.6966519" lon="9.8074805"><ele>348.59999999999997</ele><time>2026-03-22T09:27:11.959Z</time></trkpt><trkpt lat="45.6967131" lon="9.8073765"><ele>353.0</ele><time>2026-03-22T09:27:14.961Z</time></trkpt><trkpt lat="45.6967615" lon="9.8072844"><ele>353.0</ele><time>2026-03-22T09:27:16.951Z</time></trkpt><trkpt lat="45.6968461" lon="9.8072119"><ele>353.0</ele><time>2026-03-22T09:27:18.96Z</time></trkpt><trkpt lat="45.6969365" lon="9.8071301"><ele>353.0</ele><time>2026-03-22T09:27:20.96Z</time></trkpt><trkpt lat="45.697014" lon="9.8070352"><ele>353.0</ele><time>2026-03-22T09:27:22.961Z</time></trkpt><trkpt lat="45.6970989" lon="9.8069265"><ele>353.0</ele><time>2026-03-22T09:27:24.963Z</time></trkpt><trkpt lat="45.6971811" lon="9.8068553"><ele>352.33333333333337</ele><time>2026-03-22T09:27:26.953Z</time></trkpt><trkpt lat="45.6972498" lon="9.8067903"><ele>351.6666666666667</ele><time>2026-03-22T09:27:28.957Z</time></trkpt><trkpt lat="45.6973057" lon="9.8067179"><ele>351.0</ele><time>2026-03-22T09:27:30.961Z</time></trkpt><trkpt lat="45.697366" lon="9.8066431"><ele>350.3333333333333</ele><time>2026-03-22T09:27:32.954Z</time></trkpt><trkpt lat="45.6974204" lon="9.8065585"><ele>349.66666666666663</ele><time>2026-03-22T09:27:34.963Z</time></trkpt><trkpt lat="45.6974829" lon="9.8064641"><ele>349.0</ele><time>2026-03-22T09:27:36.957Z</time></trkpt><trkpt lat="45.6975251" lon="9.8063807"><ele>349.0</ele><time>2026-03-22T09:27:37.948Z</time></trkpt><trkpt lat="45.6976085" lon="9.8062624"><ele>349.0</ele><time>2026-03-22T09:27:39.96Z</time></trkpt><trkpt lat="45.697685" lon="9.8061557"><ele>349.0</ele><time>2026-03-22T09:27:41.958Z</time></trkpt><trkpt lat="45.6977794" lon="9.8060754"><ele>349.0</ele><time>2026-03-22T09:27:43.954Z</time></trkpt><trkpt lat="45.6978493" lon="9.8060228"><ele>349.0</ele><time>2026-03-22T09:27:45.96Z</time></trkpt><trkpt lat="45.6979055" lon="9.8059761"><ele>349.3333333333333</ele><time>2026-03-22T09:27:46.957Z</time></trkpt><trkpt lat="45.6979635" lon="9.8059349"><ele>349.66666666666663</ele><time>2026-03-22T09:27:47.95Z</time></trkpt><trkpt lat="45.6980197" lon="9.8058912"><ele>350.0</ele><time>2026-03-22T09:27:48.954Z</time></trkpt><trkpt lat="45.6981169" lon="9.8058347"><ele>350.3333333333333</ele><time>2026-03-22T09:27:50.959Z</time></trkpt><trkpt lat="45.698217" lon="9.8057546"><ele>350.6666666666667</ele><time>2026-03-22T09:27:52.96Z</time></trkpt><trkpt lat="45.6983046" lon="9.8056833"><ele>351.0</ele><time>2026-03-22T09:27:54.956Z</time></trkpt><trkpt lat="45.6983712" lon="9.8056224"><ele>351.0</ele><time>2026-03-22T09:27:56.957Z</time></trkpt><trkpt lat="45.6984741" lon="9.8055222"><ele>351.0</ele><time>2026-03-22T09:27:58.961Z</time></trkpt><trkpt lat="45.6985447" lon="9.8054295"><ele>351.0</ele><time>2026-03-22T09:28:00.958Z</time></trkpt><trkpt lat="45.6986105" lon="9.8052949"><ele>351.0</ele><time>2026-03-22T09:28:02.959Z</time></trkpt><trkpt lat="45.6986805" lon="9.8051504"><ele>349.8</ele><time>2026-03-22T09:28:04.954Z</time></trkpt><trkpt lat="45.6987489" lon="9.8050108"><ele>348.6</ele><time>2026-03-22T09:28:06.957Z</time></trkpt><trkpt lat="45.6988104" lon="9.8048726"><ele>347.4</ele><time>2026-03-22T09:28:08.957Z</time></trkpt><trkpt lat="45.698865" lon="9.8047228"><ele>346.2</ele><time>2026-03-22T09:28:10.955Z</time></trkpt><trkpt lat="45.6989052" lon="9.8046034"><ele>345.0</ele><time>2026-03-22T09:28:12.95Z</time></trkpt><trkpt lat="45.6989366" lon="9.8045113"><ele>345.0</ele><time>2026-03-22T09:28:14.941Z</time></trkpt><trkpt lat="45.6989737" lon="9.8044253"><ele>345.0</ele><time>2026-03-22T09:28:16.954Z</time></trkpt><trkpt lat="45.6990063" lon="9.8043251"><ele>345.0</ele><time>2026-03-22T09:28:18.967Z</time></trkpt><trkpt lat="45.6990387" lon="9.8041888"><ele>345.0</ele><time>2026-03-22T09:28:20.956Z</time></trkpt><trkpt lat="45.6990704" lon="9.8040794"><ele>345.0</ele><time>2026-03-22T09:28:22.961Z</time></trkpt><trkpt lat="45.699102" lon="9.8039697"><ele>345.0</ele><time>2026-03-22T09:28:24.955Z</time></trkpt><trkpt lat="45.6991467" lon="9.8038434"><ele>345.8333333333333</ele><time>2026-03-22T09:28:26.951Z</time></trkpt><trkpt lat="45.6991809" lon="9.8037398"><ele>346.6666666666667</ele><time>2026-03-22T09:28:28.951Z</time></trkpt><trkpt lat="45.6992192" lon="9.8038547"><ele>347.5</ele><time>2026-03-22T09:28:36.951Z</time></trkpt><trkpt lat="45.6992159" lon="9.8039847"><ele>348.33333333333337</ele><time>2026-03-22T09:28:38.956Z</time></trkpt><trkpt lat="45.6992099" lon="9.8041"><ele>349.1666666666667</ele><time>2026-03-22T09:28:40.948Z</time></trkpt><trkpt lat="45.6992139" lon="9.8042104"><ele>350.0</ele><time>2026-03-22T09:28:42.952Z</time></trkpt><trkpt lat="45.6992066" lon="9.8043103"><ele>349.1666666666667</ele><time>2026-03-22T09:28:44.961Z</time></trkpt><trkpt lat="45.6991929" lon="9.8044001"><ele>348.33333333333337</ele><time>2026-03-22T09:28:46.961Z</time></trkpt><trkpt lat="45.6991718" lon="9.804496"><ele>347.5</ele><time>2026-03-22T09:28:48.951Z</time></trkpt><trkpt lat="45.6991468" lon="9.8046147"><ele>346.6666666666667</ele><time>2026-03-22T09:28:51.959Z</time></trkpt><trkpt lat="45.6991614" lon="9.8047033"><ele>345.8333333333333</ele><time>2026-03-22T09:28:53.96Z</time></trkpt><trkpt lat="45.6992003" lon="9.804806"><ele>345.0</ele><time>2026-03-22T09:28:55.949Z</time></trkpt><trkpt lat="45.6991966" lon="9.8049384"><ele>345.0</ele><time>2026-03-22T09:28:57.941Z</time></trkpt><trkpt lat="45.6991637" lon="9.8050266"><ele>345.0</ele><time>2026-03-22T09:28:58.954Z</time></trkpt><trkpt lat="45.6991279" lon="9.8051136"><ele>345.0</ele><time>2026-03-22T09:29:00.96Z</time></trkpt><trkpt lat="45.6990931" lon="9.8052431"><ele>345.0</ele><time>2026-03-22T09:29:02.953Z</time></trkpt><trkpt lat="45.6990576" lon="9.8053506"><ele>345.0</ele><time>2026-03-22T09:29:03.954Z</time></trkpt><trkpt lat="45.6990295" lon="9.8054362"><ele>345.0</ele><time>2026-03-22T09:29:04.958Z</time></trkpt><trkpt lat="45.6990105" lon="9.8055268"><ele>343.0</ele><time>2026-03-22T09:29:05.961Z</time></trkpt><trkpt lat="45.698993" lon="9.8056232"><ele>341.0</ele><time>2026-03-22T09:29:06.959Z</time></trkpt><trkpt lat="45.6989553" lon="9.8057766"><ele>339.0</ele><time>2026-03-22T09:29:08.954Z</time></trkpt><trkpt lat="45.6989354" lon="9.8059409"><ele>337.0</ele><time>2026-03-22T09:29:10.952Z</time></trkpt><trkpt lat="45.6989322" lon="9.8061041"><ele>335.0</ele><time>2026-03-22T09:29:12.958Z</time></trkpt><trkpt lat="45.6989049" lon="9.8062019"><ele>334.5</ele><time>2026-03-22T09:29:14.954Z</time></trkpt><trkpt lat="45.6988616" lon="9.8062789"><ele>334.0</ele><time>2026-03-22T09:29:16.961Z</time></trkpt><trkpt lat="45.698796" lon="9.806305"><ele>333.5</ele><time>2026-03-22T09:29:18.953Z</time></trkpt><trkpt lat="45.6987138" lon="9.8063167"><ele>333.0</ele><time>2026-03-22T09:29:20.955Z</time></trkpt><trkpt lat="45.6986168" lon="9.8063128"><ele>332.5</ele><time>2026-03-22T09:29:22.955Z</time></trkpt><trkpt lat="45.6985247" lon="9.8063739"><ele>332.0</ele><time>2026-03-22T09:29:25.032Z</time></trkpt><trkpt lat="45.6984878" lon="9.8064541"><ele>332.0</ele><time>2026-03-22T09:29:25.954Z</time></trkpt><trkpt lat="45.6984627" lon="9.8065399"><ele>332.0</ele><time>2026-03-22T09:29:26.957Z</time></trkpt><trkpt lat="45.6984138" lon="9.8066982"><ele>332.0</ele><time>2026-03-22T09:29:28.957Z</time></trkpt><trkpt lat="45.6983638" lon="9.8068268"><ele>332.0</ele><time>2026-03-22T09:29:30.958Z</time></trkpt><trkpt lat="45.6983264" lon="9.8069305"><ele>332.0</ele><time>2026-03-22T09:29:33.038Z</time></trkpt><trkpt lat="45.6982908" lon="9.8070075"><ele>332.0</ele><time>2026-03-22T09:29:34.031Z</time></trkpt><trkpt lat="45.6982275" lon="9.8071083"><ele>329.6666666666667</ele><time>2026-03-22T09:29:35.953Z</time></trkpt><trkpt lat="45.6981445" lon="9.8071781"><ele>327.33333333333337</ele><time>2026-03-22T09:29:38.953Z</time></trkpt><trkpt lat="45.6980871" lon="9.8072853"><ele>325.0</ele><time>2026-03-22T09:29:41.949Z</time></trkpt><trkpt lat="45.6980629" lon="9.8073993"><ele>322.6666666666667</ele><time>2026-03-22T09:29:43.956Z</time></trkpt><trkpt lat="45.698049" lon="9.8075135"><ele>320.3333333333333</ele><time>2026-03-22T09:29:45.955Z</time></trkpt><trkpt lat="45.6980255" lon="9.8076257"><ele>318.0</ele><time>2026-03-22T09:29:47.957Z</time></trkpt><trkpt lat="45.6979947" lon="9.8077377"><ele>317.5</ele><time>2026-03-22T09:29:49.948Z</time></trkpt><trkpt lat="45.6979335" lon="9.8077996"><ele>317.0</ele><time>2026-03-22T09:29:51.955Z</time></trkpt><trkpt lat="45.6978479" lon="9.8078585"><ele>316.5</ele><time>2026-03-22T09:29:54.951Z</time></trkpt><trkpt lat="45.6977802" lon="9.8079379"><ele>316.0</ele><time>2026-03-22T09:29:57.956Z</time></trkpt><trkpt lat="45.6977309" lon="9.8080659"><ele>315.5</ele><time>2026-03-22T09:29:59.952Z</time></trkpt><trkpt lat="45.6977041" lon="9.8081767"><ele>315.0</ele><time>2026-03-22T09:30:00.952Z</time></trkpt><trkpt lat="45.6976784" lon="9.8082608"><ele>315.0</ele><time>2026-03-22T09:30:01.955Z</time></trkpt><trkpt lat="45.69764" lon="9.8083463"><ele>315.0</ele><time>2026-03-22T09:30:04.034Z</time></trkpt><trkpt lat="45.6975884" lon="9.8084365"><ele>315.0</ele><time>2026-03-22T09:30:05.947Z</time></trkpt><trkpt lat="45.6975379" lon="9.8085376"><ele>315.0</ele><time>2026-03-22T09:30:07.949Z</time></trkpt><trkpt lat="45.6974821" lon="9.8086682"><ele>315.0</ele><time>2026-03-22T09:30:11.032Z</time></trkpt><trkpt lat="45.6974271" lon="9.8087557"><ele>315.0</ele><time>2026-03-22T09:30:12.96Z</time></trkpt><trkpt lat="45.6973646" lon="9.8088552"><ele>311.0</ele><time>2026-03-22T09:30:14.946Z</time></trkpt><trkpt lat="45.697269" lon="9.8089882"><ele>307.0</ele><time>2026-03-22T09:30:16.953Z</time></trkpt><trkpt lat="45.6971922" lon="9.8091212"><ele>303.0</ele><time>2026-03-22T09:30:19.028Z</time></trkpt><trkpt lat="45.6971208" lon="9.8092605"><ele>299.0</ele><time>2026-03-22T09:30:21.036Z</time></trkpt><trkpt lat="45.6970516" lon="9.8093991"><ele>298.83333333333337</ele><time>2026-03-22T09:30:22.959Z</time></trkpt><trkpt lat="45.6970064" lon="9.8094706"><ele>298.6666666666667</ele><time>2026-03-22T09:30:23.954Z</time></trkpt><trkpt lat="45.6969397" lon="9.8095669"><ele>298.5</ele><time>2026-03-22T09:30:25.958Z</time></trkpt><trkpt lat="45.6968639" lon="9.8096792"><ele>298.3333333333333</ele><time>2026-03-22T09:30:27.956Z</time></trkpt><trkpt lat="45.6968151" lon="9.8097405"><ele>298.16666666666663</ele><time>2026-03-22T09:30:28.957Z</time></trkpt><trkpt lat="45.6967261" lon="9.8098356"><ele>298.0</ele><time>2026-03-22T09:30:30.953Z</time></trkpt><trkpt lat="45.696623" lon="9.8099323"><ele>298.0</ele><time>2026-03-22T09:30:32.951Z</time></trkpt><trkpt lat="45.696535" lon="9.8100371"><ele>298.0</ele><time>2026-03-22T09:30:34.949Z</time></trkpt><trkpt lat="45.6964615" lon="9.8101558"><ele>298.0</ele><time>2026-03-22T09:30:36.953Z</time></trkpt><trkpt lat="45.6963755" lon="9.8102765"><ele>298.0</ele><time>2026-03-22T09:30:38.946Z</time></trkpt><trkpt lat="45.6963258" lon="9.8103495"><ele>298.0</ele><time>2026-03-22T09:30:39.963Z</time></trkpt><trkpt lat="45.6962832" lon="9.8104308"><ele>297.16666666666663</ele><time>2026-03-22T09:30:40.959Z</time></trkpt><trkpt lat="45.6962321" lon="9.8104998"><ele>296.3333333333333</ele><time>2026-03-22T09:30:41.96Z</time></trkpt><trkpt lat="45.6961825" lon="9.8105645"><ele>295.5</ele><time>2026-03-22T09:30:42.958Z</time></trkpt><trkpt lat="45.6961335" lon="9.810641"><ele>294.6666666666667</ele><time>2026-03-22T09:30:44.028Z</time></trkpt><trkpt lat="45.696082" lon="9.8107042"><ele>293.83333333333337</ele><time>2026-03-22T09:30:45.037Z</time></trkpt><trkpt lat="45.6960264" lon="9.8107546"><ele>293.0</ele><time>2026-03-22T09:30:45.956Z</time></trkpt><trkpt lat="45.6959174" lon="9.810852"><ele>293.0</ele><time>2026-03-22T09:30:47.954Z</time></trkpt><trkpt lat="45.6958104" lon="9.8109522"><ele>293.0</ele><time>2026-03-22T09:30:50.033Z</time></trkpt><trkpt lat="45.6957554" lon="9.8110365"><ele>293.0</ele><time>2026-03-22T09:30:51.023Z</time></trkpt><trkpt lat="45.6956988" lon="9.8111165"><ele>293.0</ele><time>2026-03-22T09:30:51.951Z</time></trkpt><trkpt lat="45.6956372" lon="9.8111911"><ele>293.0</ele><time>2026-03-22T09:30:52.959Z</time></trkpt><trkpt lat="45.6955763" lon="9.811263"><ele>293.0</ele><time>2026-03-22T09:30:53.955Z</time></trkpt><trkpt lat="45.695522" lon="9.8113239"><ele>290.1666666666667</ele><time>2026-03-22T09:30:54.953Z</time></trkpt><trkpt lat="45.6954178" lon="9.8114114"><ele>287.33333333333337</ele><time>2026-03-22T09:30:56.953Z</time></trkpt><trkpt lat="45.6953339" lon="9.8114681"><ele>284.5</ele><time>2026-03-22T09:30:59.032Z</time></trkpt><trkpt lat="45.6952696" lon="9.811509"><ele>281.6666666666667</ele><time>2026-03-22T09:31:00.966Z</time></trkpt><trkpt lat="45.6952056" lon="9.8115392"><ele>278.8333333333333</ele><time>2026-03-22T09:31:03.068Z</time></trkpt><trkpt lat="45.6951365" lon="9.8115719"><ele>276.0</ele><time>2026-03-22T09:31:04.96Z</time></trkpt><trkpt lat="45.6950751" lon="9.811686"><ele>276.0</ele><time>2026-03-22T09:31:06.965Z</time></trkpt><trkpt lat="45.6950163" lon="9.8118148"><ele>276.0</ele><time>2026-03-22T09:31:08.963Z</time></trkpt><trkpt lat="45.695" lon="9.8119433"><ele>276.0</ele><time>2026-03-22T09:31:11.061Z</time></trkpt><trkpt lat="45.6949969" lon="9.8120926"><ele>276.0</ele><time>2026-03-22T09:31:12.975Z</time></trkpt><trkpt lat="45.6949912" lon="9.8122334"><ele>276.0</ele><time>2026-03-22T09:31:14.946Z</time></trkpt><trkpt lat="45.6949223" lon="9.8123314"><ele>273.6666666666667</ele><time>2026-03-22T09:31:16.954Z</time></trkpt><trkpt lat="45.6948366" lon="9.8124178"><ele>271.3333333333333</ele><time>2026-03-22T09:31:18.96Z</time></trkpt><trkpt lat="45.6947729" lon="9.8124307"><ele>269.0</ele><time>2026-03-22T09:31:19.947Z</time></trkpt><trkpt lat="45.6946915" lon="9.8124084"><ele>266.66666666666663</ele><time>2026-03-22T09:31:20.961Z</time></trkpt><trkpt lat="45.6946125" lon="9.8123745"><ele>264.3333333333333</ele><time>2026-03-22T09:31:21.954Z</time></trkpt><trkpt lat="45.6945349" lon="9.812354"><ele>262.0</ele><time>2026-03-22T09:31:22.959Z</time></trkpt><trkpt lat="45.6944579" lon="9.8123471"><ele>260.2</ele><time>2026-03-22T09:31:23.959Z</time></trkpt><trkpt lat="45.6943626" lon="9.8123376"><ele>258.4</ele><time>2026-03-22T09:31:25.07Z</time></trkpt><trkpt lat="45.6942646" lon="9.8123071"><ele>256.6</ele><time>2026-03-22T09:31:26.034Z</time></trkpt><trkpt lat="45.6941764" lon="9.8122764"><ele>254.8</ele><time>2026-03-22T09:31:26.969Z</time></trkpt><trkpt lat="45.6940941" lon="9.8122726"><ele>253.0</ele><time>2026-03-22T09:31:27.97Z</time></trkpt><trkpt lat="45.6940166" lon="9.812319"><ele>253.0</ele><time>2026-03-22T09:31:28.965Z</time></trkpt><trkpt lat="45.6939459" lon="9.812429"><ele>253.0</ele><time>2026-03-22T09:31:29.966Z</time></trkpt><trkpt lat="45.6938935" lon="9.8125529"><ele>253.0</ele><time>2026-03-22T09:31:31.036Z</time></trkpt><trkpt lat="45.6938387" lon="9.812655"><ele>253.0</ele><time>2026-03-22T09:31:31.96Z</time></trkpt><trkpt lat="45.6937804" lon="9.812763"><ele>253.0</ele><time>2026-03-22T09:31:32.958Z</time></trkpt><trkpt lat="45.6937272" lon="9.8128644"><ele>252.16666666666666</ele><time>2026-03-22T09:31:33.947Z</time></trkpt><trkpt lat="45.6936766" lon="9.8129705"><ele>251.33333333333331</ele><time>2026-03-22T09:31:35.033Z</time></trkpt><trkpt lat="45.6936346" lon="9.8130714"><ele>250.5</ele><time>2026-03-22T09:31:36.035Z</time></trkpt><trkpt lat="45.6935818" lon="9.8131716"><ele>249.66666666666669</ele><time>2026-03-22T09:31:36.957Z</time></trkpt><trkpt lat="45.6935277" lon="9.8132706"><ele>248.83333333333334</ele><time>2026-03-22T09:31:37.959Z</time></trkpt><trkpt lat="45.6934794" lon="9.8133571"><ele>248.0</ele><time>2026-03-22T09:31:39.003Z</time></trkpt><trkpt lat="45.6934227" lon="9.8134499"><ele>247.50000000000003</ele><time>2026-03-22T09:31:40.037Z</time></trkpt><trkpt lat="45.6933686" lon="9.8135402"><ele>247.0</ele><time>2026-03-22T09:31:41.04Z</time></trkpt><trkpt lat="45.6933189" lon="9.8136367"><ele>246.5</ele><time>2026-03-22T09:31:41.961Z</time></trkpt><trkpt lat="45.6932726" lon="9.8137191"><ele>246.0</ele><time>2026-03-22T09:31:42.964Z</time></trkpt><trkpt lat="45.6932336" lon="9.8138062"><ele>245.50000000000003</ele><time>2026-03-22T09:31:44.04Z</time></trkpt><trkpt lat="45.693168" lon="9.8139196"><ele>245.0</ele><time>2026-03-22T09:31:46.031Z</time></trkpt><trkpt lat="45.6930758" lon="9.8139056"><ele>245.00000000000003</ele><time>2026-03-22T09:31:47.962Z</time></trkpt><trkpt lat="45.6929921" lon="9.8138626"><ele>245.0</ele><time>2026-03-22T09:31:49.965Z</time></trkpt><trkpt lat="45.6929006" lon="9.8138533"><ele>245.0</ele><time>2026-03-22T09:31:51.963Z</time></trkpt><trkpt lat="45.6928132" lon="9.8138404"><ele>245.0</ele><time>2026-03-22T09:31:53.964Z</time></trkpt><trkpt lat="45.6927263" lon="9.8138286"><ele>245.00000000000003</ele><time>2026-03-22T09:31:55.969Z</time></trkpt><trkpt lat="45.6926522" lon="9.8138097"><ele>245.0</ele><time>2026-03-22T09:31:57.971Z</time></trkpt><trkpt lat="45.6925873" lon="9.8137813"><ele>245.0</ele><time>2026-03-22T09:31:59.957Z</time></trkpt><trkpt lat="45.692532" lon="9.8137097"><ele>245.0</ele><time>2026-03-22T09:32:01.974Z</time></trkpt><trkpt lat="45.6924674" lon="9.8136005"><ele>245.0</ele><time>2026-03-22T09:32:04.041Z</time></trkpt><trkpt lat="45.6923902" lon="9.8134836"><ele>245.0</ele><time>2026-03-22T09:32:05.967Z</time></trkpt><trkpt lat="45.6923197" lon="9.8133797"><ele>245.0</ele><time>2026-03-22T09:32:07.969Z</time></trkpt><trkpt lat="45.6922075" lon="9.8133433"><ele>245.0</ele><time>2026-03-22T09:32:09.967Z</time></trkpt><trkpt lat="45.6920989" lon="9.8133425"><ele>245.0</ele><time>2026-03-22T09:32:11.971Z</time></trkpt><trkpt lat="45.6920087" lon="9.8133275"><ele>245.0</ele><time>2026-03-22T09:32:13.967Z</time></trkpt><trkpt lat="45.6919129" lon="9.8132965"><ele>245.0</ele><time>2026-03-22T09:32:15.969Z</time></trkpt><trkpt lat="45.6918169" lon="9.8132575"><ele>245.0</ele><time>2026-03-22T09:32:18.043Z</time></trkpt><trkpt lat="45.6917151" lon="9.813245"><ele>245.0</ele><time>2026-03-22T09:32:20.03Z</time></trkpt><trkpt lat="45.6916178" lon="9.8132291"><ele>245.0</ele><time>2026-03-22T09:32:21.965Z</time></trkpt><trkpt lat="45.6915216" lon="9.8132076"><ele>245.0</ele><time>2026-03-22T09:32:23.966Z</time></trkpt><trkpt lat="45.691421" lon="9.8131895"><ele>245.0</ele><time>2026-03-22T09:32:25.976Z</time></trkpt><trkpt lat="45.6913165" lon="9.8131685"><ele>245.0</ele><time>2026-03-22T09:32:27.971Z</time></trkpt><trkpt lat="45.6912154" lon="9.813154"><ele>245.0</ele><time>2026-03-22T09:32:29.965Z</time></trkpt><trkpt lat="45.6911234" lon="9.8131937"><ele>245.0</ele><time>2026-03-22T09:32:31.966Z</time></trkpt><trkpt lat="45.691053" lon="9.8133008"><ele>245.0</ele><time>2026-03-22T09:32:33.963Z</time></trkpt><trkpt lat="45.6910204" lon="9.8134257"><ele>245.0</ele><time>2026-03-22T09:32:35.964Z</time></trkpt><trkpt lat="45.6910193" lon="9.8135785"><ele>245.0</ele><time>2026-03-22T09:32:37.962Z</time></trkpt><trkpt lat="45.6910227" lon="9.8137473"><ele>245.2</ele><time>2026-03-22T09:32:39.961Z</time></trkpt><trkpt lat="45.6910171" lon="9.8139051"><ele>245.4</ele><time>2026-03-22T09:32:41.963Z</time></trkpt><trkpt lat="45.6910076" lon="9.8140594"><ele>245.60000000000002</ele><time>2026-03-22T09:32:43.966Z</time></trkpt><trkpt lat="45.6910074" lon="9.8142134"><ele>245.8</ele><time>2026-03-22T09:32:45.97Z</time></trkpt><trkpt lat="45.6910024" lon="9.8143514"><ele>246.0</ele><time>2026-03-22T09:32:47.969Z</time></trkpt><trkpt lat="45.6909916" lon="9.8144996"><ele>246.0</ele><time>2026-03-22T09:32:49.969Z</time></trkpt><trkpt lat="45.6909918" lon="9.8146739"><ele>246.00000000000003</ele><time>2026-03-22T09:32:51.972Z</time></trkpt><trkpt lat="45.6909904" lon="9.8148313"><ele>246.00000000000003</ele><time>2026-03-22T09:32:53.967Z</time></trkpt><trkpt lat="45.6909915" lon="9.8149812"><ele>246.0</ele><time>2026-03-22T09:32:55.969Z</time></trkpt><trkpt lat="45.6909842" lon="9.8151413"><ele>246.0</ele><time>2026-03-22T09:32:57.962Z</time></trkpt><trkpt lat="45.690978" lon="9.8152879"><ele>246.0</ele><time>2026-03-22T09:32:59.965Z</time></trkpt><trkpt lat="45.6909806" lon="9.8154406"><ele>246.00000000000003</ele><time>2026-03-22T09:33:01.971Z</time></trkpt><trkpt lat="45.6909761" lon="9.8155966"><ele>246.00000000000003</ele><time>2026-03-22T09:33:03.968Z</time></trkpt><trkpt lat="45.6909772" lon="9.8157548"><ele>246.0</ele><time>2026-03-22T09:33:05.966Z</time></trkpt><trkpt lat="45.6909726" lon="9.8159119"><ele>246.0</ele><time>2026-03-22T09:33:07.972Z</time></trkpt><trkpt lat="45.6909615" lon="9.8160669"><ele>246.0</ele><time>2026-03-22T09:33:09.974Z</time></trkpt><trkpt lat="45.6909451" lon="9.8162077"><ele>246.00000000000003</ele><time>2026-03-22T09:33:11.968Z</time></trkpt><trkpt lat="45.6908656" lon="9.816267"><ele>246.00000000000003</ele><time>2026-03-22T09:33:13.966Z</time></trkpt><trkpt lat="45.6907767" lon="9.816282"><ele>246.0</ele><time>2026-03-22T09:33:15.965Z</time></trkpt><trkpt lat="45.6906775" lon="9.8162791"><ele>246.0</ele><time>2026-03-22T09:33:17.973Z</time></trkpt><trkpt lat="45.6905703" lon="9.8162846"><ele>246.0</ele><time>2026-03-22T09:33:19.969Z</time></trkpt><trkpt lat="45.6904503" lon="9.8162955"><ele>246.00000000000003</ele><time>2026-03-22T09:33:21.969Z</time></trkpt><trkpt lat="45.6903418" lon="9.8162986"><ele>246.00000000000003</ele><time>2026-03-22T09:33:23.993Z</time></trkpt><trkpt lat="45.6902313" lon="9.8163035"><ele>246.0</ele><time>2026-03-22T09:33:25.966Z</time></trkpt><trkpt lat="45.6901655" lon="9.8162986"><ele>246.0</ele><time>2026-03-22T09:33:26.965Z</time></trkpt><trkpt lat="45.690046" lon="9.8162846"><ele>246.25</ele><time>2026-03-22T09:33:28.963Z</time></trkpt><trkpt lat="45.6899322" lon="9.8162588"><ele>246.5</ele><time>2026-03-22T09:33:30.971Z</time></trkpt><trkpt lat="45.6898145" lon="9.8162334"><ele>246.75</ele><time>2026-03-22T09:33:32.969Z</time></trkpt><trkpt lat="45.689702" lon="9.8162046"><ele>247.0</ele><time>2026-03-22T09:33:34.972Z</time></trkpt><trkpt lat="45.689595" lon="9.8161817"><ele>247.0</ele><time>2026-03-22T09:33:36.967Z</time></trkpt><trkpt lat="45.6894872" lon="9.8161489"><ele>247.0</ele><time>2026-03-22T09:33:38.96Z</time></trkpt><trkpt lat="45.6893811" lon="9.8161321"><ele>247.0</ele><time>2026-03-22T09:33:40.97Z</time></trkpt><trkpt lat="45.6892823" lon="9.8161112"><ele>247.0</ele><time>2026-03-22T09:33:42.969Z</time></trkpt><trkpt lat="45.6891733" lon="9.8160875"><ele>247.0</ele><time>2026-03-22T09:33:44.977Z</time></trkpt><trkpt lat="45.6890721" lon="9.8160543"><ele>247.0</ele><time>2026-03-22T09:33:46.965Z</time></trkpt><trkpt lat="45.6889571" lon="9.8160292"><ele>247.0</ele><time>2026-03-22T09:33:48.964Z</time></trkpt><trkpt lat="45.6888393" lon="9.8160252"><ele>247.0</ele><time>2026-03-22T09:33:50.972Z</time></trkpt><trkpt lat="45.688723" lon="9.8159947"><ele>247.0</ele><time>2026-03-22T09:33:52.968Z</time></trkpt><trkpt lat="45.6886047" lon="9.8159575"><ele>246.83333333333331</ele><time>2026-03-22T09:33:54.959Z</time></trkpt><trkpt lat="45.6884911" lon="9.8159214"><ele>246.66666666666666</ele><time>2026-03-22T09:33:56.957Z</time></trkpt><trkpt lat="45.688379" lon="9.8159223"><ele>246.5</ele><time>2026-03-22T09:33:58.955Z</time></trkpt><trkpt lat="45.6883093" lon="9.8159165"><ele>246.33333333333331</ele><time>2026-03-22T09:33:59.954Z</time></trkpt><trkpt lat="45.6882491" lon="9.8158824"><ele>246.16666666666666</ele><time>2026-03-22T09:34:00.977Z</time></trkpt><trkpt lat="45.6881867" lon="9.8158587"><ele>246.0</ele><time>2026-03-22T09:34:01.971Z</time></trkpt><trkpt lat="45.688078" lon="9.8158286"><ele>246.0</ele><time>2026-03-22T09:34:03.97Z</time></trkpt><trkpt lat="45.6879663" lon="9.8158233"><ele>246.0</ele><time>2026-03-22T09:34:05.96Z</time></trkpt><trkpt lat="45.6878587" lon="9.8158033"><ele>246.0</ele><time>2026-03-22T09:34:07.969Z</time></trkpt><trkpt lat="45.6877373" lon="9.8157678"><ele>246.0</ele><time>2026-03-22T09:34:09.969Z</time></trkpt><trkpt lat="45.6876209" lon="9.8157439"><ele>246.0</ele><time>2026-03-22T09:34:11.965Z</time></trkpt><trkpt lat="45.6875052" lon="9.8157027"><ele>246.0</ele><time>2026-03-22T09:34:13.961Z</time></trkpt><trkpt lat="45.6873909" lon="9.8156704"><ele>246.0</ele><time>2026-03-22T09:34:16.03Z</time></trkpt><trkpt lat="45.6872841" lon="9.8156355"><ele>246.0</ele><time>2026-03-22T09:34:17.954Z</time></trkpt><trkpt lat="45.6871705" lon="9.8156106"><ele>246.0</ele><time>2026-03-22T09:34:20.032Z</time></trkpt><trkpt lat="45.6870597" lon="9.815583"><ele>246.0</ele><time>2026-03-22T09:34:21.968Z</time></trkpt><trkpt lat="45.6869482" lon="9.8155585"><ele>246.0</ele><time>2026-03-22T09:34:23.976Z</time></trkpt><trkpt lat="45.6868286" lon="9.8155283"><ele>246.0</ele><time>2026-03-22T09:34:26.029Z</time></trkpt><trkpt lat="45.6867148" lon="9.8154966"><ele>245.8</ele><time>2026-03-22T09:34:27.964Z</time></trkpt><trkpt lat="45.686612" lon="9.8154514"><ele>245.60000000000002</ele><time>2026-03-22T09:34:30.019Z</time></trkpt><trkpt lat="45.686519" lon="9.8153911"><ele>245.4</ele><time>2026-03-22T09:34:31.954Z</time></trkpt><trkpt lat="45.6864294" lon="9.815304"><ele>245.2</ele><time>2026-03-22T09:34:33.961Z</time></trkpt><trkpt lat="45.686332" lon="9.815253"><ele>245.0</ele><time>2026-03-22T09:34:35.949Z</time></trkpt><trkpt lat="45.6862343" lon="9.8153175"><ele>245.0</ele><time>2026-03-22T09:34:38.036Z</time></trkpt><trkpt lat="45.6861306" lon="9.8153907"><ele>245.0</ele><time>2026-03-22T09:34:39.964Z</time></trkpt><trkpt lat="45.6860677" lon="9.8153987"><ele>245.0</ele><time>2026-03-22T09:34:40.961Z</time></trkpt><trkpt lat="45.6859464" lon="9.8153899"><ele>245.0</ele><time>2026-03-22T09:34:42.961Z</time></trkpt><trkpt lat="45.6858338" lon="9.8153517"><ele>245.0</ele><time>2026-03-22T09:34:44.969Z</time></trkpt><trkpt lat="45.6857717" lon="9.8153356"><ele>244.75</ele><time>2026-03-22T09:34:45.959Z</time></trkpt><trkpt lat="45.6856538" lon="9.815308"><ele>244.5</ele><time>2026-03-22T09:34:47.967Z</time></trkpt><trkpt lat="45.6855427" lon="9.8152879"><ele>244.25</ele><time>2026-03-22T09:34:49.962Z</time></trkpt><trkpt lat="45.685429" lon="9.815254"><ele>244.0</ele><time>2026-03-22T09:34:51.966Z</time></trkpt><trkpt lat="45.6853175" lon="9.8152203"><ele>244.25</ele><time>2026-03-22T09:34:53.948Z</time></trkpt><trkpt lat="45.6852012" lon="9.8152013"><ele>244.5</ele><time>2026-03-22T09:34:56.026Z</time></trkpt><trkpt lat="45.6850908" lon="9.8151684"><ele>244.75</ele><time>2026-03-22T09:34:57.965Z</time></trkpt><trkpt lat="45.6849801" lon="9.8151359"><ele>245.0</ele><time>2026-03-22T09:35:00.032Z</time></trkpt><trkpt lat="45.6848676" lon="9.8151012"><ele>244.6</ele><time>2026-03-22T09:35:01.954Z</time></trkpt><trkpt lat="45.6847504" lon="9.8150738"><ele>244.2</ele><time>2026-03-22T09:35:04.065Z</time></trkpt><trkpt lat="45.6846358" lon="9.8150529"><ele>243.8</ele><time>2026-03-22T09:35:06.033Z</time></trkpt><trkpt lat="45.6845119" lon="9.8150252"><ele>243.4</ele><time>2026-03-22T09:35:07.952Z</time></trkpt><trkpt lat="45.6844496" lon="9.8150107"><ele>243.0</ele><time>2026-03-22T09:35:08.949Z</time></trkpt><trkpt lat="45.6843319" lon="9.8149694"><ele>243.0</ele><time>2026-03-22T09:35:11.032Z</time></trkpt><trkpt lat="45.6842114" lon="9.8149408"><ele>243.0</ele><time>2026-03-22T09:35:13.01Z</time></trkpt><trkpt lat="45.6840926" lon="9.814922"><ele>243.0</ele><time>2026-03-22T09:35:14.956Z</time></trkpt><trkpt lat="45.6839767" lon="9.8149011"><ele>243.0</ele><time>2026-03-22T09:35:16.98Z</time></trkpt><trkpt lat="45.6838577" lon="9.8148822"><ele>243.0</ele><time>2026-03-22T09:35:19.027Z</time></trkpt><trkpt lat="45.6837329" lon="9.814868"><ele>243.0</ele><time>2026-03-22T09:35:21.051Z</time></trkpt><trkpt lat="45.6836689" lon="9.8148541"><ele>243.0</ele><time>2026-03-22T09:35:21.959Z</time></trkpt><trkpt lat="45.6835483" lon="9.8148376"><ele>243.0</ele><time>2026-03-22T09:35:23.963Z</time></trkpt><trkpt lat="45.6834311" lon="9.8147973"><ele>243.0</ele><time>2026-03-22T09:35:25.964Z</time></trkpt><trkpt lat="45.6833151" lon="9.8147707"><ele>242.5</ele><time>2026-03-22T09:35:28.04Z</time></trkpt><trkpt lat="45.6831966" lon="9.8147513"><ele>242.0</ele><time>2026-03-22T09:35:30.03Z</time></trkpt><trkpt lat="45.6830858" lon="9.8147219"><ele>241.5</ele><time>2026-03-22T09:35:31.958Z</time></trkpt><trkpt lat="45.6829731" lon="9.814687"><ele>241.0</ele><time>2026-03-22T09:35:33.953Z</time></trkpt><trkpt lat="45.682857" lon="9.8146619"><ele>240.5</ele><time>2026-03-22T09:35:35.963Z</time></trkpt><trkpt lat="45.6827433" lon="9.8146347"><ele>240.0</ele><time>2026-03-22T09:35:37.958Z</time></trkpt><trkpt lat="45.6826281" lon="9.8146134"><ele>239.5</ele><time>2026-03-22T09:35:39.963Z</time></trkpt><trkpt lat="45.6825084" lon="9.8145862"><ele>239.0</ele><time>2026-03-22T09:35:41.956Z</time></trkpt><trkpt lat="45.6823904" lon="9.8145603"><ele>239.0</ele><time>2026-03-22T09:35:43.961Z</time></trkpt><trkpt lat="45.682271" lon="9.8145337"><ele>239.0</ele><time>2026-03-22T09:35:46.03Z</time></trkpt><trkpt lat="45.6821582" lon="9.8144971"><ele>239.0</ele><time>2026-03-22T09:35:48.042Z</time></trkpt><trkpt lat="45.6820399" lon="9.8144654"><ele>239.0</ele><time>2026-03-22T09:35:50.03Z</time></trkpt><trkpt lat="45.6819232" lon="9.8144169"><ele>239.2</ele><time>2026-03-22T09:35:51.961Z</time></trkpt><trkpt lat="45.6818426" lon="9.8143229"><ele>239.39999999999998</ele><time>2026-03-22T09:35:54.038Z</time></trkpt><trkpt lat="45.681778" lon="9.8141984"><ele>239.6</ele><time>2026-03-22T09:35:55.953Z</time></trkpt><trkpt lat="45.6817242" lon="9.8140567"><ele>239.8</ele><time>2026-03-22T09:35:57.975Z</time></trkpt><trkpt lat="45.6816315" lon="9.8139735"><ele>240.0</ele><time>2026-03-22T09:36:00.029Z</time></trkpt><trkpt lat="45.6815183" lon="9.8139727"><ele>240.0</ele><time>2026-03-22T09:36:01.959Z</time></trkpt><trkpt lat="45.6814113" lon="9.8140244"><ele>240.0</ele><time>2026-03-22T09:36:04.024Z</time></trkpt><trkpt lat="45.6813228" lon="9.8140816"><ele>240.0</ele><time>2026-03-22T09:36:05.95Z</time></trkpt><trkpt lat="45.6812561" lon="9.8141881"><ele>240.0</ele><time>2026-03-22T09:36:07.956Z</time></trkpt><trkpt lat="45.6812323" lon="9.8143296"><ele>240.0</ele><time>2026-03-22T09:36:09.963Z</time></trkpt><trkpt lat="45.6812484" lon="9.8144724"><ele>240.25</ele><time>2026-03-22T09:36:11.946Z</time></trkpt><trkpt lat="45.6813284" lon="9.8145846"><ele>240.5</ele><time>2026-03-22T09:36:13.951Z</time></trkpt><trkpt lat="45.6814035" lon="9.8147062"><ele>240.75</ele><time>2026-03-22T09:36:15.944Z</time></trkpt><trkpt lat="45.6814633" lon="9.81485"><ele>241.0</ele><time>2026-03-22T09:36:18.014Z</time></trkpt><trkpt lat="45.681512" lon="9.814987"><ele>241.0</ele><time>2026-03-22T09:36:20.028Z</time></trkpt><trkpt lat="45.6815662" lon="9.8151379"><ele>241.0</ele><time>2026-03-22T09:36:21.968Z</time></trkpt><trkpt lat="45.6816073" lon="9.8152856"><ele>241.0</ele><time>2026-03-22T09:36:23.956Z</time></trkpt><trkpt lat="45.6816432" lon="9.8154392"><ele>241.0</ele><time>2026-03-22T09:36:25.959Z</time></trkpt><trkpt lat="45.6816818" lon="9.8155833"><ele>240.8</ele><time>2026-03-22T09:36:27.96Z</time></trkpt><trkpt lat="45.68171" lon="9.8157301"><ele>240.60000000000002</ele><time>2026-03-22T09:36:29.959Z</time></trkpt><trkpt lat="45.6817504" lon="9.8158699"><ele>240.4</ele><time>2026-03-22T09:36:31.958Z</time></trkpt><trkpt lat="45.6817885" lon="9.8160149"><ele>240.2</ele><time>2026-03-22T09:36:33.96Z</time></trkpt><trkpt lat="45.6818295" lon="9.8161571"><ele>240.0</ele><time>2026-03-22T09:36:35.966Z</time></trkpt><trkpt lat="45.6818664" lon="9.8163071"><ele>240.0</ele><time>2026-03-22T09:36:38.019Z</time></trkpt><trkpt lat="45.6819036" lon="9.8164539"><ele>240.0</ele><time>2026-03-22T09:36:39.971Z</time></trkpt><trkpt lat="45.6819444" lon="9.8165951"><ele>240.0</ele><time>2026-03-22T09:36:41.983Z</time></trkpt><trkpt lat="45.6819897" lon="9.8167451"><ele>240.0</ele><time>2026-03-22T09:36:43.955Z</time></trkpt><trkpt lat="45.682024" lon="9.8168945"><ele>240.0</ele><time>2026-03-22T09:36:45.959Z</time></trkpt><trkpt lat="45.6820562" lon="9.8170337"><ele>240.6</ele><time>2026-03-22T09:36:47.956Z</time></trkpt><trkpt lat="45.6820884" lon="9.8171669"><ele>241.2</ele><time>2026-03-22T09:36:50.04Z</time></trkpt><trkpt lat="45.6821257" lon="9.8173197"><ele>241.8</ele><time>2026-03-22T09:36:51.96Z</time></trkpt><trkpt lat="45.6821622" lon="9.8174585"><ele>242.4</ele><time>2026-03-22T09:36:54.048Z</time></trkpt><trkpt lat="45.6822048" lon="9.8176001"><ele>243.0</ele><time>2026-03-22T09:36:56.031Z</time></trkpt><trkpt lat="45.6822464" lon="9.8177436"><ele>243.4</ele><time>2026-03-22T09:36:57.956Z</time></trkpt><trkpt lat="45.6822791" lon="9.8178779"><ele>243.8</ele><time>2026-03-22T09:37:00.043Z</time></trkpt><trkpt lat="45.6823163" lon="9.8180272"><ele>244.2</ele><time>2026-03-22T09:37:01.957Z</time></trkpt><trkpt lat="45.6823404" lon="9.8181698"><ele>244.6</ele><time>2026-03-22T09:37:03.961Z</time></trkpt><trkpt lat="45.682365" lon="9.8183212"><ele>245.0</ele><time>2026-03-22T09:37:05.964Z</time></trkpt><trkpt lat="45.6823654" lon="9.8184646"><ele>244.8</ele><time>2026-03-22T09:37:08.042Z</time></trkpt><trkpt lat="45.6823582" lon="9.8186091"><ele>244.6</ele><time>2026-03-22T09:37:10.036Z</time></trkpt><trkpt lat="45.6823492" lon="9.8187614"><ele>244.39999999999998</ele><time>2026-03-22T09:37:11.97Z</time></trkpt><trkpt lat="45.6823314" lon="9.8189082"><ele>244.2</ele><time>2026-03-22T09:37:13.971Z</time></trkpt><trkpt lat="45.6823165" lon="9.8190614"><ele>244.0</ele><time>2026-03-22T09:37:16.047Z</time></trkpt><trkpt lat="45.682303" lon="9.8192083"><ele>244.2</ele><time>2026-03-22T09:37:17.963Z</time></trkpt><trkpt lat="45.6822882" lon="9.8193512"><ele>244.39999999999998</ele><time>2026-03-22T09:37:19.97Z</time></trkpt><trkpt lat="45.6822772" lon="9.819491"><ele>244.6</ele><time>2026-03-22T09:37:21.967Z</time></trkpt><trkpt lat="45.6822645" lon="9.8196467"><ele>244.8</ele><time>2026-03-22T09:37:23.969Z</time></trkpt><trkpt lat="45.6822526" lon="9.8198027"><ele>245.0</ele><time>2026-03-22T09:37:26.034Z</time></trkpt><trkpt lat="45.6822407" lon="9.819947"><ele>245.0</ele><time>2026-03-22T09:37:27.959Z</time></trkpt><trkpt lat="45.6822269" lon="9.8201015"><ele>245.0</ele><time>2026-03-22T09:37:30.045Z</time></trkpt><trkpt lat="45.6822118" lon="9.8202564"><ele>245.0</ele><time>2026-03-22T09:37:31.953Z</time></trkpt><trkpt lat="45.6822004" lon="9.8204113"><ele>245.0</ele><time>2026-03-22T09:37:33.972Z</time></trkpt><trkpt lat="45.6821947" lon="9.8205501"><ele>245.0</ele><time>2026-03-22T09:37:36.047Z</time></trkpt><trkpt lat="45.6821749" lon="9.8206809"><ele>244.8</ele><time>2026-03-22T09:37:37.96Z</time></trkpt><trkpt lat="45.6821585" lon="9.8208222"><ele>244.6</ele><time>2026-03-22T09:37:40.037Z</time></trkpt><trkpt lat="45.6821454" lon="9.8209664"><ele>244.39999999999998</ele><time>2026-03-22T09:37:41.97Z</time></trkpt><trkpt lat="45.6821223" lon="9.8211224"><ele>244.2</ele><time>2026-03-22T09:37:43.969Z</time></trkpt><trkpt lat="45.6820908" lon="9.8212672"><ele>244.0</ele><time>2026-03-22T09:37:45.969Z</time></trkpt><trkpt lat="45.6820517" lon="9.8213835"><ele>244.0</ele><time>2026-03-22T09:37:47.969Z</time></trkpt><trkpt lat="45.6819868" lon="9.8214887"><ele>244.0</ele><time>2026-03-22T09:37:49.968Z</time></trkpt><trkpt lat="45.6818903" lon="9.8215471"><ele>244.0</ele><time>2026-03-22T09:37:51.961Z</time></trkpt><trkpt lat="45.6817289" lon="9.8215625"><ele>244.0</ele><time>2026-03-22T09:37:54.952Z</time></trkpt><trkpt lat="45.6816207" lon="9.8215723"><ele>244.2</ele><time>2026-03-22T09:37:56.956Z</time></trkpt><trkpt lat="45.6815312" lon="9.8216223"><ele>244.39999999999998</ele><time>2026-03-22T09:37:58.952Z</time></trkpt><trkpt lat="45.6814829" lon="9.8217704"><ele>244.6</ele><time>2026-03-22T09:38:00.983Z</time></trkpt><trkpt lat="45.6814657" lon="9.821933"><ele>244.8</ele><time>2026-03-22T09:38:03.029Z</time></trkpt><trkpt lat="45.6814655" lon="9.8220842"><ele>245.0</ele><time>2026-03-22T09:38:04.956Z</time></trkpt><trkpt lat="45.6814626" lon="9.822236"><ele>245.2</ele><time>2026-03-22T09:38:06.961Z</time></trkpt><trkpt lat="45.6814682" lon="9.8223837"><ele>245.4</ele><time>2026-03-22T09:38:09.016Z</time></trkpt><trkpt lat="45.6814992" lon="9.8225186"><ele>245.60000000000002</ele><time>2026-03-22T09:38:11.034Z</time></trkpt><trkpt lat="45.6815376" lon="9.8226471"><ele>245.8</ele><time>2026-03-22T09:38:12.966Z</time></trkpt><trkpt lat="45.6815515" lon="9.8228144"><ele>246.0</ele><time>2026-03-22T09:38:14.976Z</time></trkpt><trkpt lat="45.6815442" lon="9.8229805"><ele>246.8</ele><time>2026-03-22T09:38:16.957Z</time></trkpt><trkpt lat="45.6815307" lon="9.8231348"><ele>247.60000000000002</ele><time>2026-03-22T09:38:18.96Z</time></trkpt><trkpt lat="45.6815133" lon="9.8232793"><ele>248.4</ele><time>2026-03-22T09:38:20.956Z</time></trkpt><trkpt lat="45.6815056" lon="9.8234246"><ele>249.2</ele><time>2026-03-22T09:38:22.979Z</time></trkpt><trkpt lat="45.6814858" lon="9.8235499"><ele>250.0</ele><time>2026-03-22T09:38:24.965Z</time></trkpt><trkpt lat="45.6814749" lon="9.8236771"><ele>250.2</ele><time>2026-03-22T09:38:26.966Z</time></trkpt><trkpt lat="45.6814601" lon="9.8238215"><ele>250.4</ele><time>2026-03-22T09:38:29.036Z</time></trkpt><trkpt lat="45.6814392" lon="9.8239581"><ele>250.60000000000002</ele><time>2026-03-22T09:38:31.032Z</time></trkpt><trkpt lat="45.681425" lon="9.8240933"><ele>250.8</ele><time>2026-03-22T09:38:32.956Z</time></trkpt><trkpt lat="45.681395" lon="9.8242328"><ele>251.0</ele><time>2026-03-22T09:38:35.04Z</time></trkpt><trkpt lat="45.6813619" lon="9.8243693"><ele>250.60000000000002</ele><time>2026-03-22T09:38:36.953Z</time></trkpt><trkpt lat="45.681327" lon="9.8244958"><ele>250.20000000000002</ele><time>2026-03-22T09:38:38.977Z</time></trkpt><trkpt lat="45.6812629" lon="9.8245939"><ele>249.79999999999998</ele><time>2026-03-22T09:38:41.055Z</time></trkpt><trkpt lat="45.6811678" lon="9.8246115"><ele>249.39999999999998</ele><time>2026-03-22T09:38:42.958Z</time></trkpt><trkpt lat="45.6810794" lon="9.8246272"><ele>249.0</ele><time>2026-03-22T09:38:45.044Z</time></trkpt><trkpt lat="45.6810199" lon="9.8247134"><ele>249.0</ele><time>2026-03-22T09:38:46.955Z</time></trkpt><trkpt lat="45.6809754" lon="9.8248248"><ele>249.0</ele><time>2026-03-22T09:38:48.954Z</time></trkpt><trkpt lat="45.6809202" lon="9.8249329"><ele>249.0</ele><time>2026-03-22T09:38:51.03Z</time></trkpt><trkpt lat="45.6808797" lon="9.825024"><ele>249.0</ele><time>2026-03-22T09:38:52.963Z</time></trkpt><trkpt lat="45.6808377" lon="9.8251247"><ele>249.0</ele><time>2026-03-22T09:38:54.968Z</time></trkpt><trkpt lat="45.6807726" lon="9.8252397"><ele>249.0</ele><time>2026-03-22T09:38:56.969Z</time></trkpt><trkpt lat="45.6807138" lon="9.8253489"><ele>248.39999999999998</ele><time>2026-03-22T09:38:59.031Z</time></trkpt><trkpt lat="45.6806588" lon="9.8254535"><ele>247.79999999999998</ele><time>2026-03-22T09:39:01.032Z</time></trkpt><trkpt lat="45.6806074" lon="9.8255531"><ele>247.20000000000002</ele><time>2026-03-22T09:39:02.963Z</time></trkpt><trkpt lat="45.6805582" lon="9.8256529"><ele>246.60000000000002</ele><time>2026-03-22T09:39:04.963Z</time></trkpt><trkpt lat="45.6804973" lon="9.8257536"><ele>246.0</ele><time>2026-03-22T09:39:06.963Z</time></trkpt><trkpt lat="45.6804241" lon="9.8258474"><ele>246.0</ele><time>2026-03-22T09:39:09.035Z</time></trkpt><trkpt lat="45.6803582" lon="9.825942"><ele>246.00000000000003</ele><time>2026-03-22T09:39:11.032Z</time></trkpt><trkpt lat="45.6802818" lon="9.8260448"><ele>246.00000000000003</ele><time>2026-03-22T09:39:12.959Z</time></trkpt><trkpt lat="45.6802045" lon="9.8261243"><ele>246.0</ele><time>2026-03-22T09:39:14.962Z</time></trkpt><trkpt lat="45.6801255" lon="9.8262063"><ele>246.0</ele><time>2026-03-22T09:39:16.964Z</time></trkpt><trkpt lat="45.6800434" lon="9.8262908"><ele>246.20000000000002</ele><time>2026-03-22T09:39:18.965Z</time></trkpt><trkpt lat="45.6799586" lon="9.8263817"><ele>246.40000000000003</ele><time>2026-03-22T09:39:21.044Z</time></trkpt><trkpt lat="45.6798748" lon="9.8264902"><ele>246.6</ele><time>2026-03-22T09:39:22.956Z</time></trkpt><trkpt lat="45.6797942" lon="9.8265857"><ele>246.8</ele><time>2026-03-22T09:39:25.032Z</time></trkpt><trkpt lat="45.6797129" lon="9.8266777"><ele>247.0</ele><time>2026-03-22T09:39:26.956Z</time></trkpt><trkpt lat="45.679625" lon="9.8267773"><ele>247.0</ele><time>2026-03-22T09:39:28.974Z</time></trkpt><trkpt lat="45.6795367" lon="9.8268776"><ele>247.0</ele><time>2026-03-22T09:39:30.974Z</time></trkpt><trkpt lat="45.6794523" lon="9.8269648"><ele>247.0</ele><time>2026-03-22T09:39:32.953Z</time></trkpt><trkpt lat="45.6793719" lon="9.8270634"><ele>247.0</ele><time>2026-03-22T09:39:34.956Z</time></trkpt><trkpt lat="45.6792851" lon="9.8271612"><ele>247.0</ele><time>2026-03-22T09:39:36.968Z</time></trkpt><trkpt lat="45.6792039" lon="9.8272468"><ele>246.99999999999997</ele><time>2026-03-22T09:39:38.955Z</time></trkpt><trkpt lat="45.6791259" lon="9.8273376"><ele>247.0</ele><time>2026-03-22T09:39:40.957Z</time></trkpt><trkpt lat="45.6790522" lon="9.8274074"><ele>247.0</ele><time>2026-03-22T09:39:42.966Z</time></trkpt><trkpt lat="45.6789881" lon="9.8274855"><ele>247.0</ele><time>2026-03-22T09:39:44.963Z</time></trkpt><trkpt lat="45.6789317" lon="9.8275431"><ele>246.99999999999997</ele><time>2026-03-22T09:39:46.959Z</time></trkpt><trkpt lat="45.6788737" lon="9.8276095"><ele>247.0</ele><time>2026-03-22T09:39:49.958Z</time></trkpt><trkpt lat="45.6788454" lon="9.8277234"><ele>246.83333333333331</ele><time>2026-03-22T09:39:59.959Z</time></trkpt><trkpt lat="45.6789023" lon="9.8278236"><ele>246.66666666666666</ele><time>2026-03-22T09:40:01.959Z</time></trkpt><trkpt lat="45.6789611" lon="9.8279149"><ele>246.5</ele><time>2026-03-22T09:40:04.048Z</time></trkpt><trkpt lat="45.6789699" lon="9.82803"><ele>246.33333333333331</ele><time>2026-03-22T09:40:05.959Z</time></trkpt><trkpt lat="45.6789174" lon="9.8281142"><ele>246.16666666666666</ele><time>2026-03-22T09:40:07.967Z</time></trkpt><trkpt lat="45.6788464" lon="9.8281659"><ele>246.0</ele><time>2026-03-22T09:40:10.03Z</time></trkpt><trkpt lat="45.6787694" lon="9.828247"><ele>246.0</ele><time>2026-03-22T09:40:11.98Z</time></trkpt><trkpt lat="45.6786961" lon="9.8283286"><ele>246.00000000000003</ele><time>2026-03-22T09:40:13.955Z</time></trkpt><trkpt lat="45.6786172" lon="9.8284318"><ele>246.00000000000003</ele><time>2026-03-22T09:40:15.956Z</time></trkpt><trkpt lat="45.6785353" lon="9.8285498"><ele>246.0</ele><time>2026-03-22T09:40:18.041Z</time></trkpt><trkpt lat="45.678499" lon="9.828732"><ele>246.0</ele><time>2026-03-22T09:40:20.033Z</time></trkpt><trkpt lat="45.6785001" lon="9.8288339"><ele>245.33333333333334</ele><time>2026-03-22T09:40:21.031Z</time></trkpt><trkpt lat="45.6784948" lon="9.8289321"><ele>244.66666666666669</ele><time>2026-03-22T09:40:21.962Z</time></trkpt><trkpt lat="45.6784763" lon="9.8290414"><ele>244.0</ele><time>2026-03-22T09:40:23.035Z</time></trkpt><trkpt lat="45.6784317" lon="9.8291472"><ele>243.33333333333334</ele><time>2026-03-22T09:40:24.029Z</time></trkpt><trkpt lat="45.6783557" lon="9.8292457"><ele>242.66666666666669</ele><time>2026-03-22T09:40:25.066Z</time></trkpt><trkpt lat="45.678281" lon="9.8293347"><ele>242.0</ele><time>2026-03-22T09:40:26.044Z</time></trkpt><trkpt lat="45.6782212" lon="9.8294412"><ele>241.83333333333334</ele><time>2026-03-22T09:40:26.958Z</time></trkpt><trkpt lat="45.6781788" lon="9.8295637"><ele>241.66666666666669</ele><time>2026-03-22T09:40:27.965Z</time></trkpt><trkpt lat="45.6781395" lon="9.8296792"><ele>241.5</ele><time>2026-03-22T09:40:28.966Z</time></trkpt><trkpt lat="45.6781095" lon="9.8298018"><ele>241.33333333333331</ele><time>2026-03-22T09:40:30.047Z</time></trkpt><trkpt lat="45.6780828" lon="9.8299126"><ele>241.16666666666666</ele><time>2026-03-22T09:40:30.96Z</time></trkpt><trkpt lat="45.6780548" lon="9.830007"><ele>241.0</ele><time>2026-03-22T09:40:31.95Z</time></trkpt><trkpt lat="45.678023" lon="9.8300934"><ele>240.99999999999997</ele><time>2026-03-22T09:40:34.036Z</time></trkpt><trkpt lat="45.6779524" lon="9.8301096"><ele>241.0</ele><time>2026-03-22T09:40:36.966Z</time></trkpt><trkpt lat="45.6778842" lon="9.8300779"><ele>241.0</ele><time>2026-03-22T09:40:39.015Z</time></trkpt><trkpt lat="45.6778127" lon="9.8300707"><ele>241.0</ele><time>2026-03-22T09:40:40.957Z</time></trkpt><trkpt lat="45.6777506" lon="9.8301615"><ele>240.99999999999997</ele><time>2026-03-22T09:40:43.957Z</time></trkpt><trkpt lat="45.6777106" lon="9.8302705"><ele>241.0</ele><time>2026-03-22T09:40:46.082Z</time></trkpt><trkpt lat="45.6776573" lon="9.8304294"><ele>240.8</ele><time>2026-03-22T09:40:47.977Z</time></trkpt><trkpt lat="45.6776235" lon="9.830561"><ele>240.60000000000002</ele><time>2026-03-22T09:40:49.951Z</time></trkpt><trkpt lat="45.6775885" lon="9.8307121"><ele>240.4</ele><time>2026-03-22T09:40:51.94Z</time></trkpt><trkpt lat="45.6775468" lon="9.8308497"><ele>240.2</ele><time>2026-03-22T09:40:53.951Z</time></trkpt><trkpt lat="45.6775066" lon="9.8309866"><ele>240.0</ele><time>2026-03-22T09:40:56.03Z</time></trkpt><trkpt lat="45.6774809" lon="9.8311296"><ele>239.8</ele><time>2026-03-22T09:40:58.044Z</time></trkpt><trkpt lat="45.6774407" lon="9.8312632"><ele>239.6</ele><time>2026-03-22T09:41:00.036Z</time></trkpt><trkpt lat="45.6774133" lon="9.8313966"><ele>239.39999999999998</ele><time>2026-03-22T09:41:01.964Z</time></trkpt><trkpt lat="45.677387" lon="9.8315123"><ele>239.2</ele><time>2026-03-22T09:41:03.964Z</time></trkpt><trkpt lat="45.6774192" lon="9.8316703"><ele>239.0</ele><time>2026-03-22T09:41:06.952Z</time></trkpt><trkpt lat="45.6775008" lon="9.8317345"><ele>239.0</ele><time>2026-03-22T09:41:09.033Z</time></trkpt><trkpt lat="45.6776043" lon="9.8317874"><ele>238.99999999999997</ele><time>2026-03-22T09:41:10.969Z</time></trkpt><trkpt lat="45.6777055" lon="9.8318545"><ele>238.99999999999997</ele><time>2026-03-22T09:41:12.967Z</time></trkpt><trkpt lat="45.6778006" lon="9.8319381"><ele>239.0</ele><time>2026-03-22T09:41:14.97Z</time></trkpt><trkpt lat="45.6778956" lon="9.8320008"><ele>239.0</ele><time>2026-03-22T09:41:16.966Z</time></trkpt><trkpt lat="45.6779854" lon="9.8320675"><ele>239.0</ele><time>2026-03-22T09:41:18.961Z</time></trkpt><trkpt lat="45.6780818" lon="9.8321296"><ele>238.99999999999997</ele><time>2026-03-22T09:41:20.972Z</time></trkpt><trkpt lat="45.6781865" lon="9.8321933"><ele>238.99999999999997</ele><time>2026-03-22T09:41:22.968Z</time></trkpt><trkpt lat="45.6782793" lon="9.8322774"><ele>239.0</ele><time>2026-03-22T09:41:24.968Z</time></trkpt><trkpt lat="45.6783682" lon="9.8323649"><ele>239.0</ele><time>2026-03-22T09:41:26.969Z</time></trkpt><trkpt lat="45.678468" lon="9.8324396"><ele>239.0</ele><time>2026-03-22T09:41:29.03Z</time></trkpt><trkpt lat="45.6785667" lon="9.8325048"><ele>238.99999999999997</ele><time>2026-03-22T09:41:30.964Z</time></trkpt><trkpt lat="45.6786659" lon="9.8325596"><ele>238.99999999999997</ele><time>2026-03-22T09:41:32.964Z</time></trkpt><trkpt lat="45.6787661" lon="9.8326235"><ele>239.0</ele><time>2026-03-22T09:41:34.963Z</time></trkpt><trkpt lat="45.6788607" lon="9.8326941"><ele>239.0</ele><time>2026-03-22T09:41:36.969Z</time></trkpt><trkpt lat="45.6789593" lon="9.8327791"><ele>239.0</ele><time>2026-03-22T09:41:39.024Z</time></trkpt><trkpt lat="45.6790533" lon="9.8328507"><ele>238.99999999999997</ele><time>2026-03-22T09:41:41.046Z</time></trkpt><trkpt lat="45.6791494" lon="9.8329355"><ele>238.99999999999997</ele><time>2026-03-22T09:41:43.031Z</time></trkpt><trkpt lat="45.6792402" lon="9.8330077"><ele>239.0</ele><time>2026-03-22T09:41:45.03Z</time></trkpt><trkpt lat="45.6793397" lon="9.8330678"><ele>239.0</ele><time>2026-03-22T09:41:46.955Z</time></trkpt><trkpt lat="45.6794356" lon="9.8331348"><ele>239.39999999999998</ele><time>2026-03-22T09:41:49.044Z</time></trkpt><trkpt lat="45.6795333" lon="9.8332025"><ele>239.79999999999998</ele><time>2026-03-22T09:41:51.032Z</time></trkpt><trkpt lat="45.6796048" lon="9.8332887"><ele>240.20000000000002</ele><time>2026-03-22T09:41:52.96Z</time></trkpt><trkpt lat="45.6795778" lon="9.8334534"><ele>240.60000000000002</ele><time>2026-03-22T09:41:54.953Z</time></trkpt><trkpt lat="45.6795236" lon="9.8335996"><ele>241.0</ele><time>2026-03-22T09:41:56.956Z</time></trkpt><trkpt lat="45.6794733" lon="9.8337442"><ele>240.8</ele><time>2026-03-22T09:41:58.955Z</time></trkpt><trkpt lat="45.6794129" lon="9.833876"><ele>240.60000000000002</ele><time>2026-03-22T09:42:01.036Z</time></trkpt><trkpt lat="45.6793639" lon="9.8340184"><ele>240.4</ele><time>2026-03-22T09:42:02.954Z</time></trkpt><trkpt lat="45.6793187" lon="9.834155"><ele>240.2</ele><time>2026-03-22T09:42:04.947Z</time></trkpt><trkpt lat="45.6792683" lon="9.8342963"><ele>240.0</ele><time>2026-03-22T09:42:06.955Z</time></trkpt><trkpt lat="45.6792189" lon="9.8344404"><ele>240.0</ele><time>2026-03-22T09:42:08.952Z</time></trkpt><trkpt lat="45.6791685" lon="9.8345779"><ele>240.0</ele><time>2026-03-22T09:42:10.954Z</time></trkpt><trkpt lat="45.6791138" lon="9.8347271"><ele>240.0</ele><time>2026-03-22T09:42:12.958Z</time></trkpt><trkpt lat="45.6790579" lon="9.8348713"><ele>240.0</ele><time>2026-03-22T09:42:14.955Z</time></trkpt><trkpt lat="45.6790058" lon="9.8350188"><ele>239.8</ele><time>2026-03-22T09:42:16.958Z</time></trkpt><trkpt lat="45.6789585" lon="9.8351681"><ele>239.6</ele><time>2026-03-22T09:42:19.031Z</time></trkpt><trkpt lat="45.6789058" lon="9.835313"><ele>239.39999999999998</ele><time>2026-03-22T09:42:21.032Z</time></trkpt><trkpt lat="45.6788587" lon="9.8354523"><ele>239.2</ele><time>2026-03-22T09:42:22.963Z</time></trkpt><trkpt lat="45.6788136" lon="9.8355932"><ele>239.0</ele><time>2026-03-22T09:42:25.047Z</time></trkpt><trkpt lat="45.6787685" lon="9.835718"><ele>239.0</ele><time>2026-03-22T09:42:26.959Z</time></trkpt><trkpt lat="45.6787161" lon="9.8358195"><ele>239.0</ele><time>2026-03-22T09:42:28.955Z</time></trkpt><trkpt lat="45.6786756" lon="9.8359509"><ele>239.0</ele><time>2026-03-22T09:42:30.958Z</time></trkpt><trkpt lat="45.6786349" lon="9.8361028"><ele>239.0</ele><time>2026-03-22T09:42:32.957Z</time></trkpt><trkpt lat="45.6785675" lon="9.8363089"><ele>238.6</ele><time>2026-03-22T09:42:35.952Z</time></trkpt><trkpt lat="45.6785278" lon="9.8364536"><ele>238.2</ele><time>2026-03-22T09:42:37.95Z</time></trkpt><trkpt lat="45.6784855" lon="9.8365924"><ele>237.79999999999998</ele><time>2026-03-22T09:42:39.977Z</time></trkpt><trkpt lat="45.6784349" lon="9.8367304"><ele>237.39999999999998</ele><time>2026-03-22T09:42:41.954Z</time></trkpt><trkpt lat="45.6783856" lon="9.8368781"><ele>237.0</ele><time>2026-03-22T09:42:43.954Z</time></trkpt><trkpt lat="45.6783329" lon="9.8370195"><ele>237.0</ele><time>2026-03-22T09:42:45.952Z</time></trkpt><trkpt lat="45.6782877" lon="9.8371627"><ele>237.0</ele><time>2026-03-22T09:42:47.952Z</time></trkpt><trkpt lat="45.6782424" lon="9.8373043"><ele>237.0</ele><time>2026-03-22T09:42:50.04Z</time></trkpt><trkpt lat="45.6781932" lon="9.8374532"><ele>237.0</ele><time>2026-03-22T09:42:51.953Z</time></trkpt><trkpt lat="45.678147" lon="9.8375916"><ele>237.0</ele><time>2026-03-22T09:42:53.968Z</time></trkpt><trkpt lat="45.6780996" lon="9.8377297"><ele>237.39999999999998</ele><time>2026-03-22T09:42:56.034Z</time></trkpt><trkpt lat="45.6780512" lon="9.8378535"><ele>237.79999999999998</ele><time>2026-03-22T09:42:57.942Z</time></trkpt><trkpt lat="45.6779639" lon="9.837962"><ele>238.2</ele><time>2026-03-22T09:42:59.967Z</time></trkpt><trkpt lat="45.677874" lon="9.837972"><ele>238.6</ele><time>2026-03-22T09:43:01.968Z</time></trkpt><trkpt lat="45.6778021" lon="9.8380433"><ele>239.0</ele><time>2026-03-22T09:43:04.973Z</time></trkpt><trkpt lat="45.6778029" lon="9.8381855"><ele>239.0</ele><time>2026-03-22T09:43:07.967Z</time></trkpt><trkpt lat="45.6778516" lon="9.8383478"><ele>238.99999999999997</ele><time>2026-03-22T09:43:09.975Z</time></trkpt><trkpt lat="45.6778856" lon="9.8385024"><ele>238.99999999999997</ele><time>2026-03-22T09:43:11.973Z</time></trkpt><trkpt lat="45.6779018" lon="9.8386484"><ele>239.0</ele><time>2026-03-22T09:43:13.978Z</time></trkpt><trkpt lat="45.6779272" lon="9.8387898"><ele>239.0</ele><time>2026-03-22T09:43:15.951Z</time></trkpt><trkpt lat="45.6779484" lon="9.8389387"><ele>238.75</ele><time>2026-03-22T09:43:17.941Z</time></trkpt><trkpt lat="45.677983" lon="9.8390871"><ele>238.5</ele><time>2026-03-22T09:43:19.955Z</time></trkpt><trkpt lat="45.6780228" lon="9.8393287"><ele>238.25</ele><time>2026-03-22T09:43:22.951Z</time></trkpt><trkpt lat="45.678048" lon="9.8394724"><ele>238.0</ele><time>2026-03-22T09:43:24.949Z</time></trkpt><trkpt lat="45.6780746" lon="9.8396166"><ele>238.0</ele><time>2026-03-22T09:43:26.944Z</time></trkpt><trkpt lat="45.6781041" lon="9.839774"><ele>238.0</ele><time>2026-03-22T09:43:28.973Z</time></trkpt><trkpt lat="45.6781268" lon="9.8399319"><ele>238.0</ele><time>2026-03-22T09:43:31.029Z</time></trkpt><trkpt lat="45.6781418" lon="9.8400992"><ele>238.0</ele><time>2026-03-22T09:43:32.96Z</time></trkpt><trkpt lat="45.678155" lon="9.840258"><ele>238.0</ele><time>2026-03-22T09:43:34.972Z</time></trkpt><trkpt lat="45.6781643" lon="9.8404262"><ele>238.0</ele><time>2026-03-22T09:43:36.957Z</time></trkpt><trkpt lat="45.6781619" lon="9.8405878"><ele>238.0</ele><time>2026-03-22T09:43:39.036Z</time></trkpt><trkpt lat="45.6781635" lon="9.8407545"><ele>238.0</ele><time>2026-03-22T09:43:41.023Z</time></trkpt><trkpt lat="45.6781524" lon="9.8408966"><ele>238.0</ele><time>2026-03-22T09:43:43.029Z</time></trkpt><trkpt lat="45.6781349" lon="9.8410266"><ele>237.75</ele><time>2026-03-22T09:43:44.964Z</time></trkpt><trkpt lat="45.6781163" lon="9.8411755"><ele>237.5</ele><time>2026-03-22T09:43:46.966Z</time></trkpt><trkpt lat="45.6780941" lon="9.8413392"><ele>237.25</ele><time>2026-03-22T09:43:49.039Z</time></trkpt><trkpt lat="45.6780827" lon="9.8415143"><ele>237.0</ele><time>2026-03-22T09:43:50.961Z</time></trkpt><trkpt lat="45.6780698" lon="9.8416802"><ele>236.8</ele><time>2026-03-22T09:43:52.965Z</time></trkpt><trkpt lat="45.6780697" lon="9.8418447"><ele>236.6</ele><time>2026-03-22T09:43:54.965Z</time></trkpt><trkpt lat="45.6780528" lon="9.8419945"><ele>236.40000000000003</ele><time>2026-03-22T09:43:56.965Z</time></trkpt><trkpt lat="45.6780432" lon="9.842132"><ele>236.20000000000002</ele><time>2026-03-22T09:43:59.037Z</time></trkpt><trkpt lat="45.6780414" lon="9.8422817"><ele>236.0</ele><time>2026-03-22T09:44:01.041Z</time></trkpt><trkpt lat="45.6780401" lon="9.8424547"><ele>236.0</ele><time>2026-03-22T09:44:03.047Z</time></trkpt><trkpt lat="45.678038" lon="9.8425472"><ele>236.00000000000003</ele><time>2026-03-22T09:44:04.023Z</time></trkpt><trkpt lat="45.6780422" lon="9.8427085"><ele>236.00000000000003</ele><time>2026-03-22T09:44:06.035Z</time></trkpt><trkpt lat="45.6780458" lon="9.8428657"><ele>236.0</ele><time>2026-03-22T09:44:07.958Z</time></trkpt><trkpt lat="45.6780481" lon="9.8430062"><ele>236.0</ele><time>2026-03-22T09:44:10.035Z</time></trkpt><trkpt lat="45.6780665" lon="9.843138"><ele>237.4</ele><time>2026-03-22T09:44:11.959Z</time></trkpt><trkpt lat="45.678098" lon="9.8432437"><ele>238.8</ele><time>2026-03-22T09:44:13.96Z</time></trkpt><trkpt lat="45.6782015" lon="9.8432116"><ele>240.20000000000002</ele><time>2026-03-22T09:44:16.953Z</time></trkpt><trkpt lat="45.6782866" lon="9.8431961"><ele>241.60000000000002</ele><time>2026-03-22T09:44:18.957Z</time></trkpt><trkpt lat="45.6783797" lon="9.8431781"><ele>243.0</ele><time>2026-03-22T09:44:20.952Z</time></trkpt><trkpt lat="45.6784732" lon="9.8431543"><ele>243.0</ele><time>2026-03-22T09:44:22.944Z</time></trkpt><trkpt lat="45.6785685" lon="9.84311"><ele>243.0</ele><time>2026-03-22T09:44:24.953Z</time></trkpt><trkpt lat="45.6786686" lon="9.8430732"><ele>243.0</ele><time>2026-03-22T09:44:26.948Z</time></trkpt><trkpt lat="45.678763" lon="9.843053"><ele>243.0</ele><time>2026-03-22T09:44:28.949Z</time></trkpt><trkpt lat="45.6788606" lon="9.8430184"><ele>243.0</ele><time>2026-03-22T09:44:30.949Z</time></trkpt><trkpt lat="45.6789567" lon="9.8429877"><ele>244.66666666666666</ele><time>2026-03-22T09:44:33.047Z</time></trkpt><trkpt lat="45.6790589" lon="9.842968"><ele>246.33333333333331</ele><time>2026-03-22T09:44:34.958Z</time></trkpt><trkpt lat="45.6791476" lon="9.8429581"><ele>248.0</ele><time>2026-03-22T09:44:36.96Z</time></trkpt><trkpt lat="45.67923" lon="9.8429794"><ele>249.66666666666666</ele><time>2026-03-22T09:44:38.955Z</time></trkpt><trkpt lat="45.6793002" lon="9.8429912"><ele>251.33333333333331</ele><time>2026-03-22T09:44:40.955Z</time></trkpt><trkpt lat="45.6793631" lon="9.8430095"><ele>253.0</ele><time>2026-03-22T09:44:42.957Z</time></trkpt><trkpt lat="45.6794287" lon="9.8430243"><ele>252.60000000000002</ele><time>2026-03-22T09:44:44.956Z</time></trkpt><trkpt lat="45.6795118" lon="9.8430589"><ele>252.20000000000002</ele><time>2026-03-22T09:44:46.957Z</time></trkpt><trkpt lat="45.6796219" lon="9.8430774"><ele>251.8</ele><time>2026-03-22T09:44:48.962Z</time></trkpt><trkpt lat="45.679727" lon="9.8431159"><ele>251.4</ele><time>2026-03-22T09:44:50.957Z</time></trkpt><trkpt lat="45.6798269" lon="9.8431653"><ele>251.0</ele><time>2026-03-22T09:44:53.03Z</time></trkpt><trkpt lat="45.6799179" lon="9.8432478"><ele>251.0</ele><time>2026-03-22T09:44:54.983Z</time></trkpt><trkpt lat="45.6799832" lon="9.8433369"><ele>251.00000000000003</ele><time>2026-03-22T09:44:56.954Z</time></trkpt><trkpt lat="45.6800549" lon="9.8434152"><ele>251.00000000000003</ele><time>2026-03-22T09:44:58.963Z</time></trkpt><trkpt lat="45.6801078" lon="9.8435337"><ele>251.0</ele><time>2026-03-22T09:45:00.952Z</time></trkpt><trkpt lat="45.680165" lon="9.8436497"><ele>251.0</ele><time>2026-03-22T09:45:02.951Z</time></trkpt><trkpt lat="45.6802259" lon="9.8437777"><ele>249.8</ele><time>2026-03-22T09:45:04.95Z</time></trkpt><trkpt lat="45.6802811" lon="9.8439026"><ele>248.60000000000002</ele><time>2026-03-22T09:45:06.951Z</time></trkpt><trkpt lat="45.6803297" lon="9.8440229"><ele>247.4</ele><time>2026-03-22T09:45:08.959Z</time></trkpt><trkpt lat="45.6803994" lon="9.8441591"><ele>246.2</ele><time>2026-03-22T09:45:10.953Z</time></trkpt><trkpt lat="45.6804603" lon="9.8443004"><ele>245.0</ele><time>2026-03-22T09:45:12.95Z</time></trkpt><trkpt lat="45.6805205" lon="9.8444404"><ele>245.0</ele><time>2026-03-22T09:45:14.957Z</time></trkpt><trkpt lat="45.6805691" lon="9.8445958"><ele>245.0</ele><time>2026-03-22T09:45:16.945Z</time></trkpt><trkpt lat="45.6806175" lon="9.8447557"><ele>245.0</ele><time>2026-03-22T09:45:18.958Z</time></trkpt><trkpt lat="45.6806717" lon="9.8449199"><ele>245.0</ele><time>2026-03-22T09:45:21.032Z</time></trkpt><trkpt lat="45.6806997" lon="9.8450657"><ele>245.6</ele><time>2026-03-22T09:45:22.957Z</time></trkpt><trkpt lat="45.6807204" lon="9.8452031"><ele>246.2</ele><time>2026-03-22T09:45:24.956Z</time></trkpt><trkpt lat="45.6807216" lon="9.8453515"><ele>246.8</ele><time>2026-03-22T09:45:26.965Z</time></trkpt><trkpt lat="45.6807206" lon="9.8454893"><ele>247.4</ele><time>2026-03-22T09:45:28.993Z</time></trkpt><trkpt lat="45.6807121" lon="9.8456278"><ele>248.0</ele><time>2026-03-22T09:45:30.957Z</time></trkpt><trkpt lat="45.6807017" lon="9.8457679"><ele>248.0</ele><time>2026-03-22T09:45:33.034Z</time></trkpt><trkpt lat="45.6806909" lon="9.8458865"><ele>248.0</ele><time>2026-03-22T09:45:35.034Z</time></trkpt><trkpt lat="45.6806695" lon="9.8460363"><ele>248.0</ele><time>2026-03-22T09:45:36.943Z</time></trkpt><trkpt lat="45.680647" lon="9.8461922"><ele>248.0</ele><time>2026-03-22T09:45:38.95Z</time></trkpt><trkpt lat="45.6806054" lon="9.846296"><ele>248.0</ele><time>2026-03-22T09:45:41.068Z</time></trkpt><trkpt lat="45.6805643" lon="9.8464024"><ele>248.00000000000003</ele><time>2026-03-22T09:45:42.956Z</time></trkpt><trkpt lat="45.6805251" lon="9.8464929"><ele>248.0</ele><time>2026-03-22T09:45:44.948Z</time></trkpt><trkpt lat="45.6805092" lon="9.8465886"><ele>248.0</ele><time>2026-03-22T09:45:46.952Z</time></trkpt><trkpt lat="45.6805102" lon="9.8466906"><ele>248.0</ele><time>2026-03-22T09:45:48.947Z</time></trkpt><trkpt lat="45.6805145" lon="9.8467967"><ele>248.00000000000003</ele><time>2026-03-22T09:45:50.951Z</time></trkpt><trkpt lat="45.6805427" lon="9.8469143"><ele>248.0</ele><time>2026-03-22T09:45:53.031Z</time></trkpt><trkpt lat="45.6805794" lon="9.847022"><ele>248.00000000000003</ele><time>2026-03-22T09:45:55.03Z</time></trkpt><trkpt lat="45.680612" lon="9.8471459"><ele>248.0</ele><time>2026-03-22T09:45:56.956Z</time></trkpt><trkpt lat="45.6806403" lon="9.8472707"><ele>248.0</ele><time>2026-03-22T09:45:58.957Z</time></trkpt><trkpt lat="45.6806419" lon="9.8473796"><ele>248.0</ele><time>2026-03-22T09:46:00.979Z</time></trkpt><trkpt lat="45.6806381" lon="9.8474785"><ele>248.00000000000003</ele><time>2026-03-22T09:46:02.953Z</time></trkpt><trkpt lat="45.6806359" lon="9.847574"><ele>248.0</ele><time>2026-03-22T09:46:04.954Z</time></trkpt><trkpt lat="45.6806612" lon="9.8477168"><ele>248.00000000000003</ele><time>2026-03-22T09:46:07.957Z</time></trkpt><trkpt lat="45.6807131" lon="9.847784"><ele>248.0</ele><time>2026-03-22T09:46:09.959Z</time></trkpt><trkpt lat="45.6807936" lon="9.8478521"><ele>248.0</ele><time>2026-03-22T09:46:11.954Z</time></trkpt><trkpt lat="45.6808781" lon="9.8479073"><ele>248.0</ele><time>2026-03-22T09:46:14.045Z</time></trkpt><trkpt lat="45.6809569" lon="9.847953"><ele>248.00000000000003</ele><time>2026-03-22T09:46:15.951Z</time></trkpt><trkpt lat="45.6810289" lon="9.8479458"><ele>248.0</ele><time>2026-03-22T09:46:18.959Z</time></trkpt><trkpt lat="45.6811068" lon="9.8479127"><ele>248.00000000000003</ele><time>2026-03-22T09:46:21.956Z</time></trkpt><trkpt lat="45.681176" lon="9.8478387"><ele>248.0</ele><time>2026-03-22T09:46:23.951Z</time></trkpt><trkpt lat="45.6812164" lon="9.8477655"><ele>248.0</ele><time>2026-03-22T09:46:24.956Z</time></trkpt><trkpt lat="45.6812807" lon="9.8476663"><ele>248.0</ele><time>2026-03-22T09:46:25.976Z</time></trkpt><trkpt lat="45.6813327" lon="9.8475615"><ele>248.00000000000003</ele><time>2026-03-22T09:46:26.952Z</time></trkpt><trkpt lat="45.6813751" lon="9.8474642"><ele>248.0</ele><time>2026-03-22T09:46:27.953Z</time></trkpt><trkpt lat="45.6814193" lon="9.8473632"><ele>247.00000000000003</ele><time>2026-03-22T09:46:28.965Z</time></trkpt><trkpt lat="45.6814612" lon="9.8472722"><ele>246.0</ele><time>2026-03-22T09:46:29.951Z</time></trkpt><trkpt lat="45.681497" lon="9.8471859"><ele>245.0</ele><time>2026-03-22T09:46:30.957Z</time></trkpt><trkpt lat="45.6815297" lon="9.8471034"><ele>244.0</ele><time>2026-03-22T09:46:31.95Z</time></trkpt><trkpt lat="45.6815611" lon="9.8470182"><ele>243.00000000000003</ele><time>2026-03-22T09:46:32.992Z</time></trkpt><trkpt lat="45.6815909" lon="9.8469361"><ele>242.0</ele><time>2026-03-22T09:46:33.949Z</time></trkpt><trkpt lat="45.6816493" lon="9.8467908"><ele>242.0</ele><time>2026-03-22T09:46:35.955Z</time></trkpt><trkpt lat="45.6817092" lon="9.8466779"><ele>242.0</ele><time>2026-03-22T09:46:37.939Z</time></trkpt><trkpt lat="45.6817961" lon="9.8466548"><ele>242.0</ele><time>2026-03-22T09:46:39.953Z</time></trkpt><trkpt lat="45.6818614" lon="9.8467513"><ele>242.0</ele><time>2026-03-22T09:46:41.95Z</time></trkpt><trkpt lat="45.681906" lon="9.8468847"><ele>242.0</ele><time>2026-03-22T09:46:43.954Z</time></trkpt><trkpt lat="45.6819402" lon="9.8470178"><ele>242.00000000000003</ele><time>2026-03-22T09:46:45.958Z</time></trkpt><trkpt lat="45.6819818" lon="9.8471619"><ele>242.0</ele><time>2026-03-22T09:46:47.944Z</time></trkpt><trkpt lat="45.6820208" lon="9.8473007"><ele>242.0</ele><time>2026-03-22T09:46:49.954Z</time></trkpt><trkpt lat="45.6820499" lon="9.8473864"><ele>242.0</ele><time>2026-03-22T09:46:51.952Z</time></trkpt><trkpt lat="45.6821366" lon="9.847367"><ele>242.00000000000003</ele><time>2026-03-22T09:46:56.936Z</time></trkpt><trkpt lat="45.6821885" lon="9.847292"><ele>242.0</ele><time>2026-03-22T09:46:58.958Z</time></trkpt><trkpt lat="45.6822399" lon="9.8471914"><ele>242.0</ele><time>2026-03-22T09:47:00.955Z</time></trkpt><trkpt lat="45.6823552" lon="9.8471713"><ele>242.0</ele><time>2026-03-22T09:47:02.954Z</time></trkpt><trkpt lat="45.682458" lon="9.847193"><ele>242.0</ele><time>2026-03-22T09:47:04.955Z</time></trkpt><trkpt lat="45.682549" lon="9.8472336"><ele>242.0</ele><time>2026-03-22T09:47:06.955Z</time></trkpt><trkpt lat="45.6826457" lon="9.8472563"><ele>242.0</ele><time>2026-03-22T09:47:08.955Z</time></trkpt><trkpt lat="45.6827304" lon="9.8472776"><ele>241.6</ele><time>2026-03-22T09:47:10.956Z</time></trkpt><trkpt lat="45.6828257" lon="9.8473149"><ele>241.2</ele><time>2026-03-22T09:47:12.953Z</time></trkpt><trkpt lat="45.6829234" lon="9.8473364"><ele>240.8</ele><time>2026-03-22T09:47:14.956Z</time></trkpt><trkpt lat="45.6830151" lon="9.847364"><ele>240.4</ele><time>2026-03-22T09:47:16.956Z</time></trkpt><trkpt lat="45.6831089" lon="9.8473935"><ele>240.0</ele><time>2026-03-22T09:47:18.958Z</time></trkpt><trkpt lat="45.6832104" lon="9.8474199"><ele>240.0</ele><time>2026-03-22T09:47:20.953Z</time></trkpt><trkpt lat="45.6833153" lon="9.8474473"><ele>240.0</ele><time>2026-03-22T09:47:22.958Z</time></trkpt><trkpt lat="45.6834202" lon="9.8474818"><ele>240.0</ele><time>2026-03-22T09:47:24.957Z</time></trkpt><trkpt lat="45.6835183" lon="9.8475161"><ele>240.0</ele><time>2026-03-22T09:47:26.952Z</time></trkpt><trkpt lat="45.6836205" lon="9.8475399"><ele>240.0</ele><time>2026-03-22T09:47:28.947Z</time></trkpt><trkpt lat="45.6837273" lon="9.847557"><ele>240.4</ele><time>2026-03-22T09:47:31.038Z</time></trkpt><trkpt lat="45.6838284" lon="9.8475827"><ele>240.8</ele><time>2026-03-22T09:47:32.952Z</time></trkpt><trkpt lat="45.6839317" lon="9.8476077"><ele>241.2</ele><time>2026-03-22T09:47:35.044Z</time></trkpt><trkpt lat="45.684033" lon="9.8476671"><ele>241.6</ele><time>2026-03-22T09:47:36.961Z</time></trkpt><trkpt lat="45.6841314" lon="9.8477152"><ele>242.0</ele><time>2026-03-22T09:47:39.042Z</time></trkpt><trkpt lat="45.684224" lon="9.8477604"><ele>242.0</ele><time>2026-03-22T09:47:41.039Z</time></trkpt><trkpt lat="45.6843216" lon="9.8477776"><ele>242.0</ele><time>2026-03-22T09:47:42.959Z</time></trkpt><trkpt lat="45.6844239" lon="9.8477927"><ele>242.0</ele><time>2026-03-22T09:47:45.037Z</time></trkpt><trkpt lat="45.6845286" lon="9.8478152"><ele>242.0</ele><time>2026-03-22T09:47:46.956Z</time></trkpt><trkpt lat="45.6846378" lon="9.8478354"><ele>242.0</ele><time>2026-03-22T09:47:48.975Z</time></trkpt><trkpt lat="45.684743" lon="9.8478545"><ele>242.2</ele><time>2026-03-22T09:47:50.95Z</time></trkpt><trkpt lat="45.6848482" lon="9.8478733"><ele>242.39999999999998</ele><time>2026-03-22T09:47:52.956Z</time></trkpt><trkpt lat="45.6849563" lon="9.8478989"><ele>242.60000000000002</ele><time>2026-03-22T09:47:55.031Z</time></trkpt><trkpt lat="45.685057" lon="9.8479307"><ele>242.8</ele><time>2026-03-22T09:47:56.962Z</time></trkpt><trkpt lat="45.6851627" lon="9.8479614"><ele>243.0</ele><time>2026-03-22T09:47:58.958Z</time></trkpt><trkpt lat="45.6852618" lon="9.8479679"><ele>243.0</ele><time>2026-03-22T09:48:00.961Z</time></trkpt><trkpt lat="45.685364" lon="9.8479349"><ele>243.0</ele><time>2026-03-22T09:48:03.031Z</time></trkpt><trkpt lat="45.6853948" lon="9.8478272"><ele>243.0</ele><time>2026-03-22T09:48:04.957Z</time></trkpt><trkpt lat="45.6853748" lon="9.8477096"><ele>243.0</ele><time>2026-03-22T09:48:06.952Z</time></trkpt><trkpt lat="45.685361" lon="9.8475839"><ele>243.0</ele><time>2026-03-22T09:48:08.984Z</time></trkpt><trkpt lat="45.6853994" lon="9.8474862"><ele>243.0</ele><time>2026-03-22T09:48:10.954Z</time></trkpt><trkpt lat="45.6854959" lon="9.8474978"><ele>243.0</ele><time>2026-03-22T09:48:12.95Z</time></trkpt><trkpt lat="45.6855798" lon="9.8475078"><ele>243.0</ele><time>2026-03-22T09:48:14.958Z</time></trkpt><trkpt lat="45.6856906" lon="9.8475323"><ele>243.0</ele><time>2026-03-22T09:48:16.944Z</time></trkpt><trkpt lat="45.6858119" lon="9.8475448"><ele>243.0</ele><time>2026-03-22T09:48:18.962Z</time></trkpt><trkpt lat="45.6859175" lon="9.8475488"><ele>243.0</ele><time>2026-03-22T09:48:20.96Z</time></trkpt><trkpt lat="45.6860205" lon="9.8475662"><ele>243.0</ele><time>2026-03-22T09:48:22.958Z</time></trkpt><trkpt lat="45.686117" lon="9.8475827"><ele>243.0</ele><time>2026-03-22T09:48:25.033Z</time></trkpt><trkpt lat="45.6862101" lon="9.8475954"><ele>243.0</ele><time>2026-03-22T09:48:26.955Z</time></trkpt><trkpt lat="45.6863071" lon="9.8476155"><ele>243.0</ele><time>2026-03-22T09:48:29.031Z</time></trkpt><trkpt lat="45.6864081" lon="9.8476321"><ele>243.0</ele><time>2026-03-22T09:48:31.029Z</time></trkpt><trkpt lat="45.6865127" lon="9.8476628"><ele>243.2</ele><time>2026-03-22T09:48:32.967Z</time></trkpt><trkpt lat="45.6866165" lon="9.8476788"><ele>243.4</ele><time>2026-03-22T09:48:35.032Z</time></trkpt><trkpt lat="45.6867127" lon="9.8477123"><ele>243.59999999999997</ele><time>2026-03-22T09:48:36.945Z</time></trkpt><trkpt lat="45.6868164" lon="9.8477345"><ele>243.79999999999998</ele><time>2026-03-22T09:48:38.954Z</time></trkpt><trkpt lat="45.6869196" lon="9.8477669"><ele>244.0</ele><time>2026-03-22T09:48:41.034Z</time></trkpt><trkpt lat="45.6870185" lon="9.8477681"><ele>244.2</ele><time>2026-03-22T09:48:42.956Z</time></trkpt><trkpt lat="45.687121" lon="9.8477854"><ele>244.39999999999998</ele><time>2026-03-22T09:48:44.959Z</time></trkpt><trkpt lat="45.6872247" lon="9.8478103"><ele>244.6</ele><time>2026-03-22T09:48:46.963Z</time></trkpt><trkpt lat="45.6873112" lon="9.847871"><ele>244.8</ele><time>2026-03-22T09:48:48.959Z</time></trkpt><trkpt lat="45.6873808" lon="9.847956"><ele>245.0</ele><time>2026-03-22T09:48:51.028Z</time></trkpt><trkpt lat="45.6874571" lon="9.8480068"><ele>245.0</ele><time>2026-03-22T09:48:52.955Z</time></trkpt><trkpt lat="45.6875507" lon="9.8479938"><ele>245.0</ele><time>2026-03-22T09:48:55.041Z</time></trkpt><trkpt lat="45.6876411" lon="9.8479782"><ele>245.0</ele><time>2026-03-22T09:48:56.946Z</time></trkpt><trkpt lat="45.6877318" lon="9.8479671"><ele>245.0</ele><time>2026-03-22T09:48:58.96Z</time></trkpt><trkpt lat="45.6878344" lon="9.8479407"><ele>245.0</ele><time>2026-03-22T09:49:00.955Z</time></trkpt><trkpt lat="45.6879338" lon="9.8479164"><ele>245.16666666666669</ele><time>2026-03-22T09:49:02.965Z</time></trkpt><trkpt lat="45.6880248" lon="9.8478907"><ele>245.33333333333334</ele><time>2026-03-22T09:49:04.958Z</time></trkpt><trkpt lat="45.688114" lon="9.8478692"><ele>245.5</ele><time>2026-03-22T09:49:06.956Z</time></trkpt><trkpt lat="45.6881806" lon="9.8478343"><ele>245.66666666666669</ele><time>2026-03-22T09:49:08.964Z</time></trkpt><trkpt lat="45.6882381" lon="9.847774"><ele>245.83333333333334</ele><time>2026-03-22T09:49:10.954Z</time></trkpt><trkpt lat="45.688284" lon="9.847641"><ele>246.0</ele><time>2026-03-22T09:49:12.952Z</time></trkpt><trkpt lat="45.6883259" lon="9.8475186"><ele>246.0</ele><time>2026-03-22T09:49:14.955Z</time></trkpt><trkpt lat="45.6883577" lon="9.8473965"><ele>246.0</ele><time>2026-03-22T09:49:16.965Z</time></trkpt><trkpt lat="45.6883817" lon="9.8472685"><ele>246.0</ele><time>2026-03-22T09:49:18.961Z</time></trkpt><trkpt lat="45.688402" lon="9.8471396"><ele>246.0</ele><time>2026-03-22T09:49:20.96Z</time></trkpt><trkpt lat="45.6884584" lon="9.8470695"><ele>246.0</ele><time>2026-03-22T09:49:22.961Z</time></trkpt><trkpt lat="45.6885408" lon="9.8470821"><ele>246.0</ele><time>2026-03-22T09:49:25.038Z</time></trkpt><trkpt lat="45.6886199" lon="9.8471385"><ele>246.4</ele><time>2026-03-22T09:49:26.954Z</time></trkpt><trkpt lat="45.6887021" lon="9.8471937"><ele>246.8</ele><time>2026-03-22T09:49:28.948Z</time></trkpt><trkpt lat="45.6887913" lon="9.8472601"><ele>247.20000000000002</ele><time>2026-03-22T09:49:31.017Z</time></trkpt><trkpt lat="45.6888769" lon="9.8473282"><ele>247.60000000000002</ele><time>2026-03-22T09:49:32.958Z</time></trkpt><trkpt lat="45.6889773" lon="9.8473997"><ele>248.0</ele><time>2026-03-22T09:49:34.98Z</time></trkpt><trkpt lat="45.6890621" lon="9.8474727"><ele>248.0</ele><time>2026-03-22T09:49:36.959Z</time></trkpt><trkpt lat="45.689136" lon="9.8475616"><ele>248.0</ele><time>2026-03-22T09:49:38.983Z</time></trkpt><trkpt lat="45.6892017" lon="9.8476821"><ele>248.0</ele><time>2026-03-22T09:49:41.036Z</time></trkpt><trkpt lat="45.6892594" lon="9.8478051"><ele>248.0</ele><time>2026-03-22T09:49:42.959Z</time></trkpt><trkpt lat="45.6893241" lon="9.8479319"><ele>248.0</ele><time>2026-03-22T09:49:45.055Z</time></trkpt><trkpt lat="45.6893816" lon="9.8480639"><ele>248.0</ele><time>2026-03-22T09:49:46.961Z</time></trkpt><trkpt lat="45.6894391" lon="9.8481954"><ele>248.0</ele><time>2026-03-22T09:49:49.076Z</time></trkpt><trkpt lat="45.6894861" lon="9.848315"><ele>248.0</ele><time>2026-03-22T09:49:50.969Z</time></trkpt><trkpt lat="45.6895369" lon="9.8484455"><ele>248.0</ele><time>2026-03-22T09:49:52.961Z</time></trkpt><trkpt lat="45.6896095" lon="9.8485806"><ele>248.0</ele><time>2026-03-22T09:49:54.962Z</time></trkpt><trkpt lat="45.6896736" lon="9.8487019"><ele>248.33333333333334</ele><time>2026-03-22T09:49:56.96Z</time></trkpt><trkpt lat="45.6897241" lon="9.8487693"><ele>248.66666666666669</ele><time>2026-03-22T09:49:59.033Z</time></trkpt><trkpt lat="45.6897852" lon="9.8488527"><ele>249.0</ele><time>2026-03-22T09:50:00.947Z</time></trkpt><trkpt lat="45.689847" lon="9.8489426"><ele>249.33333333333331</ele><time>2026-03-22T09:50:03.038Z</time></trkpt><trkpt lat="45.6899239" lon="9.8490044"><ele>249.66666666666666</ele><time>2026-03-22T09:50:05.027Z</time></trkpt><trkpt lat="45.6900072" lon="9.8490624"><ele>250.0</ele><time>2026-03-22T09:50:06.947Z</time></trkpt><trkpt lat="45.6901002" lon="9.8491115"><ele>249.99999999999997</ele><time>2026-03-22T09:50:08.958Z</time></trkpt><trkpt lat="45.6901961" lon="9.8491487"><ele>250.0</ele><time>2026-03-22T09:50:11.031Z</time></trkpt><trkpt lat="45.6902741" lon="9.8491931"><ele>250.0</ele><time>2026-03-22T09:50:13.055Z</time></trkpt><trkpt lat="45.6903387" lon="9.8492471"><ele>250.0</ele><time>2026-03-22T09:50:14.959Z</time></trkpt><trkpt lat="45.6903596" lon="9.8493684"><ele>249.99999999999997</ele><time>2026-03-22T09:50:17.952Z</time></trkpt><trkpt lat="45.6903547" lon="9.8494891"><ele>250.0</ele><time>2026-03-22T09:50:19.959Z</time></trkpt><trkpt lat="45.6903296" lon="9.8496109"><ele>250.0</ele><time>2026-03-22T09:50:21.963Z</time></trkpt><trkpt lat="45.6902998" lon="9.8497519"><ele>250.0</ele><time>2026-03-22T09:50:23.971Z</time></trkpt><trkpt lat="45.6902614" lon="9.8499045"><ele>250.0</ele><time>2026-03-22T09:50:25.971Z</time></trkpt><trkpt lat="45.6902399" lon="9.8500677"><ele>250.0</ele><time>2026-03-22T09:50:27.972Z</time></trkpt><trkpt lat="45.6902666" lon="9.8502488"><ele>250.8</ele><time>2026-03-22T09:50:29.964Z</time></trkpt><trkpt lat="45.6903107" lon="9.8504044"><ele>251.6</ele><time>2026-03-22T09:50:31.958Z</time></trkpt><trkpt lat="45.6903487" lon="9.8505322"><ele>252.39999999999998</ele><time>2026-03-22T09:50:33.967Z</time></trkpt><trkpt lat="45.690425" lon="9.8505648"><ele>253.2</ele><time>2026-03-22T09:50:35.966Z</time></trkpt><trkpt lat="45.6905318" lon="9.8505639"><ele>254.0</ele><time>2026-03-22T09:50:37.97Z</time></trkpt><trkpt lat="45.6906444" lon="9.8505379"><ele>254.0</ele><time>2026-03-22T09:50:39.965Z</time></trkpt><trkpt lat="45.6907504" lon="9.8504829"><ele>253.99999999999997</ele><time>2026-03-22T09:50:41.962Z</time></trkpt><trkpt lat="45.6908523" lon="9.8504435"><ele>253.99999999999997</ele><time>2026-03-22T09:50:43.968Z</time></trkpt><trkpt lat="45.6909388" lon="9.8505096"><ele>254.0</ele><time>2026-03-22T09:50:45.974Z</time></trkpt><trkpt lat="45.6910068" lon="9.8505876"><ele>254.0</ele><time>2026-03-22T09:50:47.965Z</time></trkpt><trkpt lat="45.6910834" lon="9.850689"><ele>253.39999999999998</ele><time>2026-03-22T09:50:49.969Z</time></trkpt><trkpt lat="45.69117" lon="9.8507745"><ele>252.79999999999998</ele><time>2026-03-22T09:50:51.971Z</time></trkpt><trkpt lat="45.6912557" lon="9.8508405"><ele>252.20000000000002</ele><time>2026-03-22T09:50:53.957Z</time></trkpt><trkpt lat="45.691344" lon="9.850888"><ele>251.60000000000002</ele><time>2026-03-22T09:50:55.971Z</time></trkpt><trkpt lat="45.6914377" lon="9.8509394"><ele>251.0</ele><time>2026-03-22T09:50:57.97Z</time></trkpt><trkpt lat="45.6915222" lon="9.8509962"><ele>251.4</ele><time>2026-03-22T09:50:59.973Z</time></trkpt><trkpt lat="45.6916191" lon="9.8510606"><ele>251.8</ele><time>2026-03-22T09:51:01.969Z</time></trkpt><trkpt lat="45.6917161" lon="9.8511272"><ele>252.20000000000002</ele><time>2026-03-22T09:51:03.961Z</time></trkpt><trkpt lat="45.69181" lon="9.8512093"><ele>252.60000000000002</ele><time>2026-03-22T09:51:05.97Z</time></trkpt><trkpt lat="45.6919003" lon="9.8512821"><ele>253.0</ele><time>2026-03-22T09:51:07.969Z</time></trkpt><trkpt lat="45.6919893" lon="9.8513706"><ele>253.0</ele><time>2026-03-22T09:51:09.965Z</time></trkpt><trkpt lat="45.6920756" lon="9.8514583"><ele>253.0</ele><time>2026-03-22T09:51:11.97Z</time></trkpt><trkpt lat="45.6921638" lon="9.8515557"><ele>253.0</ele><time>2026-03-22T09:51:13.965Z</time></trkpt><trkpt lat="45.6922449" lon="9.8516122"><ele>253.0</ele><time>2026-03-22T09:51:15.96Z</time></trkpt><trkpt lat="45.6923403" lon="9.8516366"><ele>253.0</ele><time>2026-03-22T09:51:17.961Z</time></trkpt><trkpt lat="45.6924445" lon="9.8516079"><ele>253.0</ele><time>2026-03-22T09:51:19.97Z</time></trkpt><trkpt lat="45.6925544" lon="9.8515868"><ele>253.0</ele><time>2026-03-22T09:51:21.963Z</time></trkpt><trkpt lat="45.6926592" lon="9.8515693"><ele>253.0</ele><time>2026-03-22T09:51:23.974Z</time></trkpt><trkpt lat="45.6927777" lon="9.8515767"><ele>253.0</ele><time>2026-03-22T09:51:25.969Z</time></trkpt><trkpt lat="45.6928632" lon="9.8516441"><ele>253.0</ele><time>2026-03-22T09:51:27.967Z</time></trkpt><trkpt lat="45.6929325" lon="9.8517457"><ele>254.0</ele><time>2026-03-22T09:51:30.033Z</time></trkpt><trkpt lat="45.6929978" lon="9.8518668"><ele>255.0</ele><time>2026-03-22T09:51:31.951Z</time></trkpt><trkpt lat="45.6930487" lon="9.8519794"><ele>256.0</ele><time>2026-03-22T09:51:33.976Z</time></trkpt><trkpt lat="45.6930904" lon="9.8520817"><ele>257.0</ele><time>2026-03-22T09:51:35.954Z</time></trkpt><trkpt lat="45.6931427" lon="9.8521942"><ele>258.0</ele><time>2026-03-22T09:51:37.953Z</time></trkpt><trkpt lat="45.6932074" lon="9.8523251"><ele>258.0</ele><time>2026-03-22T09:51:40.015Z</time></trkpt><trkpt lat="45.693262" lon="9.852443"><ele>258.0</ele><time>2026-03-22T09:51:41.958Z</time></trkpt><trkpt lat="45.6933217" lon="9.8525695"><ele>258.0</ele><time>2026-03-22T09:51:43.957Z</time></trkpt><trkpt lat="45.6933722" lon="9.8526839"><ele>258.0</ele><time>2026-03-22T09:51:45.957Z</time></trkpt><trkpt lat="45.6934273" lon="9.8527885"><ele>258.0</ele><time>2026-03-22T09:51:48.037Z</time></trkpt><trkpt lat="45.693491" lon="9.8528753"><ele>258.4</ele><time>2026-03-22T09:51:49.954Z</time></trkpt><trkpt lat="45.693562" lon="9.8529691"><ele>258.8</ele><time>2026-03-22T09:51:51.975Z</time></trkpt><trkpt lat="45.6936518" lon="9.8530239"><ele>259.2</ele><time>2026-03-22T09:51:54.032Z</time></trkpt><trkpt lat="45.6937459" lon="9.8530968"><ele>259.6</ele><time>2026-03-22T09:51:55.943Z</time></trkpt><trkpt lat="45.6938491" lon="9.853162"><ele>260.0</ele><time>2026-03-22T09:51:57.954Z</time></trkpt><trkpt lat="45.6939406" lon="9.8532197"><ele>260.0</ele><time>2026-03-22T09:52:00.003Z</time></trkpt><trkpt lat="45.6940231" lon="9.853287"><ele>260.0</ele><time>2026-03-22T09:52:01.972Z</time></trkpt><trkpt lat="45.6941199" lon="9.8533589"><ele>260.0</ele><time>2026-03-22T09:52:03.955Z</time></trkpt><trkpt lat="45.694226" lon="9.8534441"><ele>260.0</ele><time>2026-03-22T09:52:05.957Z</time></trkpt><trkpt lat="45.6942824" lon="9.8534873"><ele>260.0</ele><time>2026-03-22T09:52:06.954Z</time></trkpt><trkpt lat="45.6943387" lon="9.8535313"><ele>260.00000000000006</ele><time>2026-03-22T09:52:07.952Z</time></trkpt><trkpt lat="45.6943963" lon="9.8535783"><ele>260.0</ele><time>2026-03-22T09:52:09.033Z</time></trkpt><trkpt lat="45.6944585" lon="9.8536167"><ele>260.0</ele><time>2026-03-22T09:52:09.961Z</time></trkpt><trkpt lat="45.6945189" lon="9.8536696"><ele>260.0</ele><time>2026-03-22T09:52:11.032Z</time></trkpt><trkpt lat="45.6945809" lon="9.853717"><ele>260.0</ele><time>2026-03-22T09:52:11.969Z</time></trkpt><trkpt lat="45.6946351" lon="9.8537697"><ele>260.00000000000006</ele><time>2026-03-22T09:52:12.963Z</time></trkpt><trkpt lat="45.694693" lon="9.853823"><ele>260.0</ele><time>2026-03-22T09:52:13.979Z</time></trkpt><trkpt lat="45.6947408" lon="9.8538887"><ele>260.0</ele><time>2026-03-22T09:52:15.034Z</time></trkpt><trkpt lat="45.6947894" lon="9.8539594"><ele>260.0</ele><time>2026-03-22T09:52:16.032Z</time></trkpt><trkpt lat="45.6948456" lon="9.8540232"><ele>260.0</ele><time>2026-03-22T09:52:16.959Z</time></trkpt><trkpt lat="45.6949045" lon="9.8540908"><ele>260.0</ele><time>2026-03-22T09:52:17.953Z</time></trkpt><trkpt lat="45.6949617" lon="9.8541488"><ele>260.0</ele><time>2026-03-22T09:52:19.047Z</time></trkpt><trkpt lat="45.6950081" lon="9.8542147"><ele>260.0</ele><time>2026-03-22T09:52:20.006Z</time></trkpt><trkpt lat="45.6950808" lon="9.854333"><ele>259.83333333333337</ele><time>2026-03-22T09:52:21.947Z</time></trkpt><trkpt lat="45.6951464" lon="9.8544204"><ele>259.6666666666667</ele><time>2026-03-22T09:52:23.96Z</time></trkpt><trkpt lat="45.6952078" lon="9.8545011"><ele>259.5</ele><time>2026-03-22T09:52:25.955Z</time></trkpt><trkpt lat="45.695239" lon="9.8545885"><ele>259.3333333333333</ele><time>2026-03-22T09:52:28.031Z</time></trkpt><trkpt lat="45.6952827" lon="9.8546828"><ele>259.16666666666663</ele><time>2026-03-22T09:52:29.955Z</time></trkpt><trkpt lat="45.6953388" lon="9.854795"><ele>259.0</ele><time>2026-03-22T09:52:31.954Z</time></trkpt><trkpt lat="45.6953971" lon="9.8549056"><ele>259.0</ele><time>2026-03-22T09:52:33.95Z</time></trkpt><trkpt lat="45.6954618" lon="9.855005"><ele>259.0</ele><time>2026-03-22T09:52:35.953Z</time></trkpt><trkpt lat="45.6955359" lon="9.8551041"><ele>259.0</ele><time>2026-03-22T09:52:37.958Z</time></trkpt><trkpt lat="45.6956182" lon="9.8552014"><ele>259.0</ele><time>2026-03-22T09:52:39.955Z</time></trkpt><trkpt lat="45.6956901" lon="9.8553136"><ele>259.0</ele><time>2026-03-22T09:52:41.961Z</time></trkpt><trkpt lat="45.6957624" lon="9.8554501"><ele>258.3333333333333</ele><time>2026-03-22T09:52:44.029Z</time></trkpt><trkpt lat="45.6958081" lon="9.8555146"><ele>257.66666666666663</ele><time>2026-03-22T09:52:45.032Z</time></trkpt><trkpt lat="45.6958537" lon="9.8555769"><ele>257.0</ele><time>2026-03-22T09:52:45.976Z</time></trkpt><trkpt lat="45.6959029" lon="9.8556382"><ele>256.3333333333333</ele><time>2026-03-22T09:52:46.945Z</time></trkpt><trkpt lat="45.695998" lon="9.855758"><ele>255.66666666666666</ele><time>2026-03-22T09:52:48.946Z</time></trkpt><trkpt lat="45.6960448" lon="9.8558197"><ele>255.0</ele><time>2026-03-22T09:52:50.032Z</time></trkpt><trkpt lat="45.6961014" lon="9.8558745"><ele>255.0</ele><time>2026-03-22T09:52:51.039Z</time></trkpt><trkpt lat="45.6961537" lon="9.8559309"><ele>255.0</ele><time>2026-03-22T09:52:51.959Z</time></trkpt><trkpt lat="45.6962447" lon="9.8560487"><ele>255.0</ele><time>2026-03-22T09:52:53.956Z</time></trkpt><trkpt lat="45.696293" lon="9.8561074"><ele>255.0</ele><time>2026-03-22T09:52:55.023Z</time></trkpt><trkpt lat="45.6963813" lon="9.8562219"><ele>255.0</ele><time>2026-03-22T09:52:56.942Z</time></trkpt><trkpt lat="45.6964763" lon="9.8563281"><ele>255.0</ele><time>2026-03-22T09:52:58.979Z</time></trkpt><trkpt lat="45.6965662" lon="9.8564236"><ele>255.0</ele><time>2026-03-22T09:53:01.038Z</time></trkpt><trkpt lat="45.6966481" lon="9.8565156"><ele>255.0</ele><time>2026-03-22T09:53:02.958Z</time></trkpt><trkpt lat="45.6967321" lon="9.8566001"><ele>255.0</ele><time>2026-03-22T09:53:05.032Z</time></trkpt><trkpt lat="45.6968224" lon="9.856688"><ele>255.0</ele><time>2026-03-22T09:53:06.96Z</time></trkpt><trkpt lat="45.6969195" lon="9.8567763"><ele>255.8</ele><time>2026-03-22T09:53:08.984Z</time></trkpt><trkpt lat="45.6970098" lon="9.8568753"><ele>256.6</ele><time>2026-03-22T09:53:10.954Z</time></trkpt><trkpt lat="45.697063" lon="9.8569244"><ele>257.4</ele><time>2026-03-22T09:53:11.954Z</time></trkpt><trkpt lat="45.6971146" lon="9.8569794"><ele>258.2</ele><time>2026-03-22T09:53:12.959Z</time></trkpt><trkpt lat="45.6972075" lon="9.857082"><ele>259.0</ele><time>2026-03-22T09:53:14.958Z</time></trkpt><trkpt lat="45.6972944" lon="9.8571941"><ele>259.0</ele><time>2026-03-22T09:53:16.957Z</time></trkpt><trkpt lat="45.6973704" lon="9.8573228"><ele>259.0</ele><time>2026-03-22T09:53:18.955Z</time></trkpt><trkpt lat="45.6974354" lon="9.8574454"><ele>259.0</ele><time>2026-03-22T09:53:20.954Z</time></trkpt><trkpt lat="45.6974707" lon="9.8575791"><ele>259.0</ele><time>2026-03-22T09:53:22.958Z</time></trkpt><trkpt lat="45.6975147" lon="9.8576974"><ele>259.0</ele><time>2026-03-22T09:53:24.955Z</time></trkpt><trkpt lat="45.697578" lon="9.857795"><ele>259.59999999999997</ele><time>2026-03-22T09:53:26.953Z</time></trkpt><trkpt lat="45.6976523" lon="9.8578923"><ele>260.2</ele><time>2026-03-22T09:53:28.977Z</time></trkpt><trkpt lat="45.6977331" lon="9.858001"><ele>260.79999999999995</ele><time>2026-03-22T09:53:30.957Z</time></trkpt><trkpt lat="45.6978132" lon="9.8581064"><ele>261.4</ele><time>2026-03-22T09:53:33.036Z</time></trkpt><trkpt lat="45.6978941" lon="9.8582446"><ele>262.0</ele><time>2026-03-22T09:53:35.031Z</time></trkpt><trkpt lat="45.6979327" lon="9.8583168"><ele>262.0</ele><time>2026-03-22T09:53:36.044Z</time></trkpt><trkpt lat="45.6980069" lon="9.858431"><ele>262.0</ele><time>2026-03-22T09:53:37.96Z</time></trkpt><trkpt lat="45.6980814" lon="9.8585461"><ele>262.0</ele><time>2026-03-22T09:53:40.019Z</time></trkpt><trkpt lat="45.6981564" lon="9.858657"><ele>262.0</ele><time>2026-03-22T09:53:41.954Z</time></trkpt><trkpt lat="45.6982332" lon="9.8587594"><ele>262.0</ele><time>2026-03-22T09:53:44.032Z</time></trkpt><trkpt lat="45.6983179" lon="9.8588658"><ele>262.2</ele><time>2026-03-22T09:53:46.034Z</time></trkpt><trkpt lat="45.6983912" lon="9.8589666"><ele>262.4</ele><time>2026-03-22T09:53:47.952Z</time></trkpt><trkpt lat="45.6984683" lon="9.8590792"><ele>262.6</ele><time>2026-03-22T09:53:50.038Z</time></trkpt><trkpt lat="45.6985377" lon="9.8591897"><ele>262.8</ele><time>2026-03-22T09:53:51.953Z</time></trkpt><trkpt lat="45.6986215" lon="9.8593018"><ele>263.0</ele><time>2026-03-22T09:53:53.955Z</time></trkpt><trkpt lat="45.6987003" lon="9.8594195"><ele>263.0</ele><time>2026-03-22T09:53:56.038Z</time></trkpt><trkpt lat="45.6987664" lon="9.8595353"><ele>263.0</ele><time>2026-03-22T09:53:57.974Z</time></trkpt><trkpt lat="45.6988229" lon="9.8596377"><ele>263.0</ele><time>2026-03-22T09:54:00.045Z</time></trkpt><trkpt lat="45.6988991" lon="9.8597435"><ele>263.0</ele><time>2026-03-22T09:54:01.956Z</time></trkpt><trkpt lat="45.69898" lon="9.8598661"><ele>263.0</ele><time>2026-03-22T09:54:03.953Z</time></trkpt><trkpt lat="45.6990375" lon="9.8600103"><ele>265.0</ele><time>2026-03-22T09:54:06.041Z</time></trkpt><trkpt lat="45.6991082" lon="9.8601169"><ele>267.0</ele><time>2026-03-22T09:54:07.956Z</time></trkpt><trkpt lat="45.6991933" lon="9.860226"><ele>269.0</ele><time>2026-03-22T09:54:09.952Z</time></trkpt><trkpt lat="45.6992739" lon="9.8603379"><ele>271.0</ele><time>2026-03-22T09:54:11.953Z</time></trkpt><trkpt lat="45.6993317" lon="9.8603939"><ele>273.0</ele><time>2026-03-22T09:54:12.953Z</time></trkpt><trkpt lat="45.6993843" lon="9.8604473"><ele>270.6</ele><time>2026-03-22T09:54:13.954Z</time></trkpt><trkpt lat="45.6994682" lon="9.8605352"><ele>268.20000000000005</ele><time>2026-03-22T09:54:15.959Z</time></trkpt><trkpt lat="45.6995437" lon="9.8606414"><ele>265.8</ele><time>2026-03-22T09:54:17.957Z</time></trkpt><trkpt lat="45.6996169" lon="9.8607436"><ele>263.40000000000003</ele><time>2026-03-22T09:54:19.968Z</time></trkpt><trkpt lat="45.6997077" lon="9.8608369"><ele>261.0</ele><time>2026-03-22T09:54:21.946Z</time></trkpt><trkpt lat="45.6998114" lon="9.8608995"><ele>262.8</ele><time>2026-03-22T09:54:23.952Z</time></trkpt><trkpt lat="45.6999201" lon="9.86098"><ele>264.6</ele><time>2026-03-22T09:54:25.956Z</time></trkpt><trkpt lat="45.7000289" lon="9.8610765"><ele>266.4</ele><time>2026-03-22T09:54:27.954Z</time></trkpt><trkpt lat="45.7000826" lon="9.8611294"><ele>268.2</ele><time>2026-03-22T09:54:28.957Z</time></trkpt><trkpt lat="45.7001796" lon="9.86124"><ele>270.0</ele><time>2026-03-22T09:54:30.96Z</time></trkpt><trkpt lat="45.7002687" lon="9.8613419"><ele>270.0</ele><time>2026-03-22T09:54:32.953Z</time></trkpt><trkpt lat="45.7003649" lon="9.8614107"><ele>270.0</ele><time>2026-03-22T09:54:34.96Z</time></trkpt><trkpt lat="45.7004634" lon="9.8614752"><ele>270.0</ele><time>2026-03-22T09:54:36.953Z</time></trkpt><trkpt lat="45.7005752" lon="9.8615259"><ele>270.0</ele><time>2026-03-22T09:54:38.963Z</time></trkpt><trkpt lat="45.7006861" lon="9.8615361"><ele>270.0</ele><time>2026-03-22T09:54:41.032Z</time></trkpt><trkpt lat="45.7007963" lon="9.8615273"><ele>270.0</ele><time>2026-03-22T09:54:42.966Z</time></trkpt><trkpt lat="45.7009093" lon="9.8615154"><ele>270.0</ele><time>2026-03-22T09:54:44.962Z</time></trkpt><trkpt lat="45.7010073" lon="9.861497"><ele>270.0</ele><time>2026-03-22T09:54:46.959Z</time></trkpt><trkpt lat="45.7011081" lon="9.8614759"><ele>270.0</ele><time>2026-03-22T09:54:48.992Z</time></trkpt><trkpt lat="45.7012128" lon="9.8614634"><ele>270.0</ele><time>2026-03-22T09:54:50.959Z</time></trkpt><trkpt lat="45.7013167" lon="9.8614563"><ele>269.8</ele><time>2026-03-22T09:54:52.956Z</time></trkpt><trkpt lat="45.701412" lon="9.8614351"><ele>269.6</ele><time>2026-03-22T09:54:54.96Z</time></trkpt><trkpt lat="45.7015165" lon="9.8614062"><ele>269.4</ele><time>2026-03-22T09:54:56.962Z</time></trkpt><trkpt lat="45.7016193" lon="9.861418"><ele>269.2</ele><time>2026-03-22T09:54:59.01Z</time></trkpt><trkpt lat="45.7017052" lon="9.8614599"><ele>269.0</ele><time>2026-03-22T09:55:01.032Z</time></trkpt><trkpt lat="45.7017928" lon="9.8615036"><ele>269.0</ele><time>2026-03-22T09:55:02.951Z</time></trkpt><trkpt lat="45.7018812" lon="9.861547"><ele>269.0</ele><time>2026-03-22T09:55:05.021Z</time></trkpt><trkpt lat="45.7019749" lon="9.861581"><ele>269.0</ele><time>2026-03-22T09:55:06.956Z</time></trkpt><trkpt lat="45.702073" lon="9.8616209"><ele>269.0</ele><time>2026-03-22T09:55:09.04Z</time></trkpt><trkpt lat="45.702163" lon="9.8616639"><ele>269.0</ele><time>2026-03-22T09:55:11.023Z</time></trkpt><trkpt lat="45.702257" lon="9.8617061"><ele>268.59999999999997</ele><time>2026-03-22T09:55:12.953Z</time></trkpt><trkpt lat="45.7023514" lon="9.8617672"><ele>268.2</ele><time>2026-03-22T09:55:15.038Z</time></trkpt><trkpt lat="45.7024385" lon="9.8618382"><ele>267.79999999999995</ele><time>2026-03-22T09:55:16.967Z</time></trkpt><trkpt lat="45.7025309" lon="9.8619225"><ele>267.4</ele><time>2026-03-22T09:55:18.986Z</time></trkpt><trkpt lat="45.7026241" lon="9.8619795"><ele>267.0</ele><time>2026-03-22T09:55:21.042Z</time></trkpt><trkpt lat="45.7027197" lon="9.8620293"><ele>267.2</ele><time>2026-03-22T09:55:22.966Z</time></trkpt><trkpt lat="45.7028182" lon="9.8620832"><ele>267.4</ele><time>2026-03-22T09:55:24.957Z</time></trkpt><trkpt lat="45.7028968" lon="9.8621888"><ele>267.6</ele><time>2026-03-22T09:55:26.961Z</time></trkpt><trkpt lat="45.7029639" lon="9.8623043"><ele>267.8</ele><time>2026-03-22T09:55:29.035Z</time></trkpt><trkpt lat="45.7030139" lon="9.8624209"><ele>268.0</ele><time>2026-03-22T09:55:30.95Z</time></trkpt><trkpt lat="45.7030566" lon="9.8625452"><ele>269.2</ele><time>2026-03-22T09:55:32.948Z</time></trkpt><trkpt lat="45.7030952" lon="9.8626653"><ele>270.4</ele><time>2026-03-22T09:55:34.961Z</time></trkpt><trkpt lat="45.7031229" lon="9.8627902"><ele>271.59999999999997</ele><time>2026-03-22T09:55:36.94Z</time></trkpt><trkpt lat="45.7031558" lon="9.8629205"><ele>272.8</ele><time>2026-03-22T09:55:38.958Z</time></trkpt><trkpt lat="45.7031776" lon="9.8630429"><ele>274.0</ele><time>2026-03-22T09:55:40.95Z</time></trkpt><trkpt lat="45.7032142" lon="9.8631585"><ele>274.0</ele><time>2026-03-22T09:55:42.954Z</time></trkpt><trkpt lat="45.7032483" lon="9.86326"><ele>274.0</ele><time>2026-03-22T09:55:44.954Z</time></trkpt><trkpt lat="45.7032951" lon="9.8633488"><ele>274.0</ele><time>2026-03-22T09:55:46.953Z</time></trkpt><trkpt lat="45.7033776" lon="9.8633743"><ele>274.0</ele><time>2026-03-22T09:55:48.967Z</time></trkpt><trkpt lat="45.7034644" lon="9.8633223"><ele>274.0</ele><time>2026-03-22T09:55:50.958Z</time></trkpt><trkpt lat="45.7035503" lon="9.8632621"><ele>274.0</ele><time>2026-03-22T09:55:52.944Z</time></trkpt><trkpt lat="45.7036355" lon="9.863233"><ele>273.0</ele><time>2026-03-22T09:55:55.039Z</time></trkpt><trkpt lat="45.7037171" lon="9.8632628"><ele>272.0</ele><time>2026-03-22T09:55:56.961Z</time></trkpt><trkpt lat="45.7037989" lon="9.8632886"><ele>271.0</ele><time>2026-03-22T09:55:58.968Z</time></trkpt><trkpt lat="45.7038765" lon="9.8633151"><ele>270.0</ele><time>2026-03-22T09:56:01.038Z</time></trkpt><trkpt lat="45.703958" lon="9.8633316"><ele>269.0</ele><time>2026-03-22T09:56:02.96Z</time></trkpt><trkpt lat="45.7040214" lon="9.8633323"><ele>268.0</ele><time>2026-03-22T09:56:04.96Z</time></trkpt><trkpt lat="45.7041016" lon="9.8633261"><ele>268.0</ele><time>2026-03-22T09:56:06.964Z</time></trkpt><trkpt lat="45.7041723" lon="9.8633483"><ele>268.0</ele><time>2026-03-22T09:56:08.962Z</time></trkpt><trkpt lat="45.7042623" lon="9.8633218"><ele>268.0</ele><time>2026-03-22T09:56:10.954Z</time></trkpt><trkpt lat="45.7043855" lon="9.8633208"><ele>268.0</ele><time>2026-03-22T09:56:12.958Z</time></trkpt><trkpt lat="45.7044464" lon="9.8634554"><ele>268.0</ele><time>2026-03-22T09:56:14.949Z</time></trkpt><trkpt lat="45.7044722" lon="9.8636013"><ele>267.6</ele><time>2026-03-22T09:56:16.957Z</time></trkpt><trkpt lat="45.7045062" lon="9.8637366"><ele>267.20000000000005</ele><time>2026-03-22T09:56:18.981Z</time></trkpt><trkpt lat="45.7045441" lon="9.8638798"><ele>266.8</ele><time>2026-03-22T09:56:20.952Z</time></trkpt><trkpt lat="45.7045729" lon="9.8640191"><ele>266.40000000000003</ele><time>2026-03-22T09:56:22.959Z</time></trkpt><trkpt lat="45.7046037" lon="9.864149"><ele>266.0</ele><time>2026-03-22T09:56:24.954Z</time></trkpt><trkpt lat="45.7046317" lon="9.864299"><ele>266.0</ele><time>2026-03-22T09:56:26.96Z</time></trkpt><trkpt lat="45.7046621" lon="9.8644431"><ele>266.0</ele><time>2026-03-22T09:56:29.029Z</time></trkpt><trkpt lat="45.7046888" lon="9.8645858"><ele>266.0</ele><time>2026-03-22T09:56:31.027Z</time></trkpt><trkpt lat="45.7047223" lon="9.864715"><ele>266.0</ele><time>2026-03-22T09:56:32.961Z</time></trkpt><trkpt lat="45.7047462" lon="9.8648519"><ele>266.0</ele><time>2026-03-22T09:56:35.039Z</time></trkpt><trkpt lat="45.7047767" lon="9.8649879"><ele>265.8</ele><time>2026-03-22T09:56:36.961Z</time></trkpt><trkpt lat="45.7048115" lon="9.8651436"><ele>265.6</ele><time>2026-03-22T09:56:38.995Z</time></trkpt><trkpt lat="45.7048335" lon="9.8652824"><ele>265.4</ele><time>2026-03-22T09:56:40.966Z</time></trkpt><trkpt lat="45.7048515" lon="9.8654329"><ele>265.2</ele><time>2026-03-22T09:56:42.969Z</time></trkpt><trkpt lat="45.7048677" lon="9.865604"><ele>265.0</ele><time>2026-03-22T09:56:45.04Z</time></trkpt><trkpt lat="45.704876" lon="9.8657708"><ele>265.0</ele><time>2026-03-22T09:56:46.955Z</time></trkpt><trkpt lat="45.7048862" lon="9.8659434"><ele>265.0</ele><time>2026-03-22T09:56:48.987Z</time></trkpt><trkpt lat="45.7049016" lon="9.8661149"><ele>265.0</ele><time>2026-03-22T09:56:51.033Z</time></trkpt><trkpt lat="45.7049165" lon="9.8662926"><ele>265.0</ele><time>2026-03-22T09:56:52.962Z</time></trkpt><trkpt lat="45.7049432" lon="9.8665512"><ele>265.75</ele><time>2026-03-22T09:56:55.965Z</time></trkpt><trkpt lat="45.7049507" lon="9.8667279"><ele>266.5</ele><time>2026-03-22T09:56:57.966Z</time></trkpt><trkpt lat="45.7049594" lon="9.8668983"><ele>267.25</ele><time>2026-03-22T09:56:59.966Z</time></trkpt><trkpt lat="45.7049706" lon="9.8670535"><ele>268.0</ele><time>2026-03-22T09:57:01.96Z</time></trkpt><trkpt lat="45.7049829" lon="9.8672143"><ele>268.2</ele><time>2026-03-22T09:57:03.959Z</time></trkpt><trkpt lat="45.7050033" lon="9.8673688"><ele>268.4</ele><time>2026-03-22T09:57:05.97Z</time></trkpt><trkpt lat="45.705015" lon="9.8675278"><ele>268.59999999999997</ele><time>2026-03-22T09:57:07.962Z</time></trkpt><trkpt lat="45.7050403" lon="9.8676772"><ele>268.8</ele><time>2026-03-22T09:57:10.047Z</time></trkpt><trkpt lat="45.7050495" lon="9.8678381"><ele>269.0</ele><time>2026-03-22T09:57:11.955Z</time></trkpt><trkpt lat="45.7050717" lon="9.8679947"><ele>269.0</ele><time>2026-03-22T09:57:14.07Z</time></trkpt><trkpt lat="45.7050799" lon="9.8681555"><ele>269.0</ele><time>2026-03-22T09:57:16.026Z</time></trkpt><trkpt lat="45.7051041" lon="9.8683078"><ele>269.0</ele><time>2026-03-22T09:57:17.959Z</time></trkpt><trkpt lat="45.7051177" lon="9.868456"><ele>269.0</ele><time>2026-03-22T09:57:20.035Z</time></trkpt><trkpt lat="45.7051099" lon="9.8686082"><ele>269.0</ele><time>2026-03-22T09:57:21.974Z</time></trkpt><trkpt lat="45.7051254" lon="9.8687554"><ele>269.0</ele><time>2026-03-22T09:57:23.972Z</time></trkpt><trkpt lat="45.7051857" lon="9.8688735"><ele>269.0</ele><time>2026-03-22T09:57:26.032Z</time></trkpt><trkpt lat="45.7052459" lon="9.8689967"><ele>269.0</ele><time>2026-03-22T09:57:27.967Z</time></trkpt><trkpt lat="45.7052791" lon="9.869141"><ele>269.0</ele><time>2026-03-22T09:57:30.035Z</time></trkpt><trkpt lat="45.7053094" lon="9.8692996"><ele>269.0</ele><time>2026-03-22T09:57:31.967Z</time></trkpt><trkpt lat="45.7053418" lon="9.8694561"><ele>269.0</ele><time>2026-03-22T09:57:34.034Z</time></trkpt><trkpt lat="45.7053773" lon="9.8696084"><ele>269.0</ele><time>2026-03-22T09:57:35.96Z</time></trkpt><trkpt lat="45.705408" lon="9.8697579"><ele>269.0</ele><time>2026-03-22T09:57:37.958Z</time></trkpt><trkpt lat="45.7054349" lon="9.8699065"><ele>269.0</ele><time>2026-03-22T09:57:39.956Z</time></trkpt><trkpt lat="45.7054724" lon="9.8700673"><ele>269.0</ele><time>2026-03-22T09:57:41.977Z</time></trkpt><trkpt lat="45.7055062" lon="9.8702253"><ele>269.25</ele><time>2026-03-22T09:57:44.038Z</time></trkpt><trkpt lat="45.7055431" lon="9.8703832"><ele>269.5</ele><time>2026-03-22T09:57:45.96Z</time></trkpt><trkpt lat="45.7055848" lon="9.8705391"><ele>269.75</ele><time>2026-03-22T09:57:47.965Z</time></trkpt><trkpt lat="45.7056237" lon="9.8706954"><ele>270.0</ele><time>2026-03-22T09:57:50.037Z</time></trkpt><trkpt lat="45.7056681" lon="9.8708412"><ele>270.0</ele><time>2026-03-22T09:57:51.954Z</time></trkpt><trkpt lat="45.7057195" lon="9.8709876"><ele>270.0</ele><time>2026-03-22T09:57:53.946Z</time></trkpt><trkpt lat="45.7057658" lon="9.8711359"><ele>270.0</ele><time>2026-03-22T09:57:55.958Z</time></trkpt><trkpt lat="45.7058215" lon="9.8712767"><ele>270.0</ele><time>2026-03-22T09:57:57.954Z</time></trkpt><trkpt lat="45.705869" lon="9.8714234"><ele>270.0</ele><time>2026-03-22T09:58:00.033Z</time></trkpt><trkpt lat="45.7059234" lon="9.8715651"><ele>270.0</ele><time>2026-03-22T09:58:01.949Z</time></trkpt><trkpt lat="45.7059697" lon="9.8717097"><ele>270.0</ele><time>2026-03-22T09:58:04.042Z</time></trkpt><trkpt lat="45.7060166" lon="9.8718518"><ele>270.0</ele><time>2026-03-22T09:58:06.043Z</time></trkpt><trkpt lat="45.7060745" lon="9.871999"><ele>270.0</ele><time>2026-03-22T09:58:07.956Z</time></trkpt><trkpt lat="45.7061278" lon="9.8721379"><ele>270.0</ele><time>2026-03-22T09:58:09.956Z</time></trkpt><trkpt lat="45.7061821" lon="9.8722904"><ele>270.0</ele><time>2026-03-22T09:58:11.955Z</time></trkpt><trkpt lat="45.706241" lon="9.8724371"><ele>270.0</ele><time>2026-03-22T09:58:13.949Z</time></trkpt><trkpt lat="45.7062965" lon="9.8725881"><ele>270.25</ele><time>2026-03-22T09:58:15.95Z</time></trkpt><trkpt lat="45.7063561" lon="9.8727319"><ele>270.5</ele><time>2026-03-22T09:58:17.956Z</time></trkpt><trkpt lat="45.7064114" lon="9.8728728"><ele>270.75</ele><time>2026-03-22T09:58:20.031Z</time></trkpt><trkpt lat="45.7064672" lon="9.8730125"><ele>271.0</ele><time>2026-03-22T09:58:21.974Z</time></trkpt><trkpt lat="45.706525" lon="9.8731538"><ele>271.0</ele><time>2026-03-22T09:58:23.987Z</time></trkpt><trkpt lat="45.7065769" lon="9.8733079"><ele>271.0</ele><time>2026-03-22T09:58:25.976Z</time></trkpt><trkpt lat="45.7066296" lon="9.8734549"><ele>271.0</ele><time>2026-03-22T09:58:27.967Z</time></trkpt><trkpt lat="45.7066855" lon="9.873599"><ele>271.0</ele><time>2026-03-22T09:58:29.973Z</time></trkpt><trkpt lat="45.7067338" lon="9.8737365"><ele>271.75</ele><time>2026-03-22T09:58:31.978Z</time></trkpt><trkpt lat="45.7068095" lon="9.8739503"><ele>272.5</ele><time>2026-03-22T09:58:34.971Z</time></trkpt><trkpt lat="45.7068654" lon="9.8740979"><ele>273.25</ele><time>2026-03-22T09:58:36.971Z</time></trkpt><trkpt lat="45.7069158" lon="9.8742408"><ele>274.0</ele><time>2026-03-22T09:58:38.972Z</time></trkpt><trkpt lat="45.7069649" lon="9.8743903"><ele>274.0</ele><time>2026-03-22T09:58:41.048Z</time></trkpt><trkpt lat="45.7070224" lon="9.8745344"><ele>274.0</ele><time>2026-03-22T09:58:42.967Z</time></trkpt><trkpt lat="45.7070737" lon="9.8746703"><ele>274.0</ele><time>2026-03-22T09:58:44.968Z</time></trkpt><trkpt lat="45.7071296" lon="9.8748034"><ele>274.0</ele><time>2026-03-22T09:58:46.969Z</time></trkpt><trkpt lat="45.7071792" lon="9.8749393"><ele>274.0</ele><time>2026-03-22T09:58:48.96Z</time></trkpt><trkpt lat="45.7072247" lon="9.8750557"><ele>274.16666666666663</ele><time>2026-03-22T09:58:51.034Z</time></trkpt><trkpt lat="45.707268" lon="9.8751575"><ele>274.3333333333333</ele><time>2026-03-22T09:58:52.972Z</time></trkpt><trkpt lat="45.7072921" lon="9.8752549"><ele>274.5</ele><time>2026-03-22T09:58:55.033Z</time></trkpt><trkpt lat="45.7073147" lon="9.8753602"><ele>274.6666666666667</ele><time>2026-03-22T09:58:56.962Z</time></trkpt><trkpt lat="45.7073777" lon="9.8754359"><ele>274.83333333333337</ele><time>2026-03-22T09:58:58.968Z</time></trkpt><trkpt lat="45.7074439" lon="9.8755391"><ele>275.0</ele><time>2026-03-22T09:59:00.965Z</time></trkpt><trkpt lat="45.7075146" lon="9.8756507"><ele>275.0</ele><time>2026-03-22T09:59:02.987Z</time></trkpt><trkpt lat="45.7075779" lon="9.8757618"><ele>275.0</ele><time>2026-03-22T09:59:04.97Z</time></trkpt><trkpt lat="45.707653" lon="9.8758636"><ele>275.0</ele><time>2026-03-22T09:59:06.965Z</time></trkpt><trkpt lat="45.7077197" lon="9.8759608"><ele>275.0</ele><time>2026-03-22T09:59:08.966Z</time></trkpt><trkpt lat="45.7077966" lon="9.876059"><ele>275.0</ele><time>2026-03-22T09:59:10.972Z</time></trkpt><trkpt lat="45.7078715" lon="9.8761586"><ele>275.8</ele><time>2026-03-22T09:59:12.972Z</time></trkpt><trkpt lat="45.7079604" lon="9.8762447"><ele>276.6</ele><time>2026-03-22T09:59:14.962Z</time></trkpt><trkpt lat="45.7080519" lon="9.8763229"><ele>277.4</ele><time>2026-03-22T09:59:16.96Z</time></trkpt><trkpt lat="45.7081408" lon="9.8764112"><ele>278.2</ele><time>2026-03-22T09:59:19.035Z</time></trkpt><trkpt lat="45.7082427" lon="9.8764912"><ele>279.0</ele><time>2026-03-22T09:59:21.043Z</time></trkpt><trkpt lat="45.7083455" lon="9.8765663"><ele>279.0</ele><time>2026-03-22T09:59:22.96Z</time></trkpt><trkpt lat="45.7084536" lon="9.8766509"><ele>279.0</ele><time>2026-03-22T09:59:25.034Z</time></trkpt><trkpt lat="45.7085577" lon="9.8767304"><ele>279.0</ele><time>2026-03-22T09:59:26.949Z</time></trkpt><trkpt lat="45.7086578" lon="9.8768077"><ele>279.0</ele><time>2026-03-22T09:59:28.961Z</time></trkpt><trkpt lat="45.7087482" lon="9.876885"><ele>280.0</ele><time>2026-03-22T09:59:31.028Z</time></trkpt><trkpt lat="45.7088304" lon="9.8769648"><ele>281.0</ele><time>2026-03-22T09:59:33.036Z</time></trkpt><trkpt lat="45.7089235" lon="9.8770521"><ele>282.0</ele><time>2026-03-22T09:59:35.029Z</time></trkpt><trkpt lat="45.7090185" lon="9.8771382"><ele>283.0</ele><time>2026-03-22T09:59:36.961Z</time></trkpt><trkpt lat="45.7091025" lon="9.8772303"><ele>284.0</ele><time>2026-03-22T09:59:38.964Z</time></trkpt><trkpt lat="45.7091911" lon="9.8773018"><ele>284.0</ele><time>2026-03-22T09:59:40.962Z</time></trkpt><trkpt lat="45.7092789" lon="9.877394"><ele>284.0</ele><time>2026-03-22T09:59:42.963Z</time></trkpt><trkpt lat="45.7093673" lon="9.877472"><ele>284.0</ele><time>2026-03-22T09:59:44.984Z</time></trkpt><trkpt lat="45.7094559" lon="9.8775613"><ele>284.0</ele><time>2026-03-22T09:59:46.962Z</time></trkpt><trkpt lat="45.70955" lon="9.8776375"><ele>284.0</ele><time>2026-03-22T09:59:48.959Z</time></trkpt><trkpt lat="45.7096385" lon="9.8777226"><ele>283.59999999999997</ele><time>2026-03-22T09:59:50.964Z</time></trkpt><trkpt lat="45.7097269" lon="9.8777796"><ele>283.2</ele><time>2026-03-22T09:59:53.033Z</time></trkpt><trkpt lat="45.7098149" lon="9.8778375"><ele>282.79999999999995</ele><time>2026-03-22T09:59:55.029Z</time></trkpt><trkpt lat="45.7098949" lon="9.8779621"><ele>282.4</ele><time>2026-03-22T09:59:56.968Z</time></trkpt><trkpt lat="45.7099785" lon="9.8780886"><ele>282.0</ele><time>2026-03-22T09:59:59.001Z</time></trkpt><trkpt lat="45.7100548" lon="9.8781959"><ele>282.0</ele><time>2026-03-22T10:00:01.03Z</time></trkpt><trkpt lat="45.7101438" lon="9.8782813"><ele>282.0</ele><time>2026-03-22T10:00:02.963Z</time></trkpt><trkpt lat="45.710228" lon="9.8783668"><ele>282.0</ele><time>2026-03-22T10:00:05.046Z</time></trkpt><trkpt lat="45.7103315" lon="9.8784372"><ele>282.0</ele><time>2026-03-22T10:00:06.957Z</time></trkpt><trkpt lat="45.7104342" lon="9.8785082"><ele>282.0</ele><time>2026-03-22T10:00:09.075Z</time></trkpt><trkpt lat="45.7105152" lon="9.8786009"><ele>281.6</ele><time>2026-03-22T10:00:11.029Z</time></trkpt><trkpt lat="45.7105864" lon="9.8787196"><ele>281.2</ele><time>2026-03-22T10:00:12.951Z</time></trkpt><trkpt lat="45.7106511" lon="9.8788371"><ele>280.8</ele><time>2026-03-22T10:00:15.034Z</time></trkpt><trkpt lat="45.7107231" lon="9.8789517"><ele>280.4</ele><time>2026-03-22T10:00:16.954Z</time></trkpt><trkpt lat="45.7107948" lon="9.879063"><ele>280.0</ele><time>2026-03-22T10:00:18.979Z</time></trkpt><trkpt lat="45.7108572" lon="9.8791756"><ele>280.0</ele><time>2026-03-22T10:00:20.955Z</time></trkpt><trkpt lat="45.7109268" lon="9.8792832"><ele>280.0</ele><time>2026-03-22T10:00:22.958Z</time></trkpt><trkpt lat="45.711004" lon="9.8793621"><ele>280.0</ele><time>2026-03-22T10:00:24.968Z</time></trkpt><trkpt lat="45.7110871" lon="9.8794139"><ele>280.0</ele><time>2026-03-22T10:00:26.962Z</time></trkpt><trkpt lat="45.7111678" lon="9.8794053"><ele>280.0</ele><time>2026-03-22T10:00:29.029Z</time></trkpt><trkpt lat="45.7112297" lon="9.8794904"><ele>280.0</ele><time>2026-03-22T10:00:31.969Z</time></trkpt><trkpt lat="45.7112615" lon="9.8795974"><ele>280.0</ele><time>2026-03-22T10:00:33.971Z</time></trkpt><trkpt lat="45.7113245" lon="9.8797137"><ele>280.0</ele><time>2026-03-22T10:00:36.074Z</time></trkpt><trkpt lat="45.7113784" lon="9.879838"><ele>280.0</ele><time>2026-03-22T10:00:37.963Z</time></trkpt><trkpt lat="45.7114356" lon="9.8799758"><ele>280.0</ele><time>2026-03-22T10:00:39.989Z</time></trkpt><trkpt lat="45.7114827" lon="9.8801166"><ele>281.0</ele><time>2026-03-22T10:00:41.969Z</time></trkpt><trkpt lat="45.7115158" lon="9.8802631"><ele>282.0</ele><time>2026-03-22T10:00:43.987Z</time></trkpt><trkpt lat="45.7115548" lon="9.8804026"><ele>283.0</ele><time>2026-03-22T10:00:46.033Z</time></trkpt><trkpt lat="45.7115823" lon="9.8805339"><ele>284.0</ele><time>2026-03-22T10:00:47.966Z</time></trkpt><trkpt lat="45.7116217" lon="9.8806473"><ele>285.0</ele><time>2026-03-22T10:00:50.042Z</time></trkpt><trkpt lat="45.71169" lon="9.8807556"><ele>285.0</ele><time>2026-03-22T10:00:51.96Z</time></trkpt><trkpt lat="45.7117764" lon="9.880845"><ele>285.0</ele><time>2026-03-22T10:00:53.954Z</time></trkpt><trkpt lat="45.7118732" lon="9.880886"><ele>285.0</ele><time>2026-03-22T10:00:55.971Z</time></trkpt><trkpt lat="45.7119667" lon="9.8809244"><ele>285.0</ele><time>2026-03-22T10:00:57.965Z</time></trkpt><trkpt lat="45.7120645" lon="9.880947"><ele>285.0</ele><time>2026-03-22T10:00:59.96Z</time></trkpt><trkpt lat="45.7121571" lon="9.8809714"><ele>284.0</ele><time>2026-03-22T10:01:01.958Z</time></trkpt><trkpt lat="45.712261" lon="9.8809728"><ele>283.0</ele><time>2026-03-22T10:01:03.965Z</time></trkpt><trkpt lat="45.7123613" lon="9.8809692"><ele>282.0</ele><time>2026-03-22T10:01:05.961Z</time></trkpt><trkpt lat="45.7124691" lon="9.8809846"><ele>281.0</ele><time>2026-03-22T10:01:07.961Z</time></trkpt><trkpt lat="45.712569" lon="9.8809962"><ele>280.0</ele><time>2026-03-22T10:01:09.971Z</time></trkpt><trkpt lat="45.7126691" lon="9.8810027"><ele>280.4</ele><time>2026-03-22T10:01:11.966Z</time></trkpt><trkpt lat="45.7127775" lon="9.8810287"><ele>280.8</ele><time>2026-03-22T10:01:13.97Z</time></trkpt><trkpt lat="45.7128779" lon="9.8810923"><ele>281.2</ele><time>2026-03-22T10:01:15.963Z</time></trkpt><trkpt lat="45.7129661" lon="9.8811835"><ele>281.6</ele><time>2026-03-22T10:01:17.964Z</time></trkpt><trkpt lat="45.7130271" lon="9.881309"><ele>282.0</ele><time>2026-03-22T10:01:20.03Z</time></trkpt><trkpt lat="45.7130738" lon="9.8814547"><ele>282.0</ele><time>2026-03-22T10:01:21.963Z</time></trkpt><trkpt lat="45.7130918" lon="9.8816018"><ele>282.0</ele><time>2026-03-22T10:01:23.971Z</time></trkpt><trkpt lat="45.7130823" lon="9.881737"><ele>282.0</ele><time>2026-03-22T10:01:25.97Z</time></trkpt><trkpt lat="45.713071" lon="9.8818726"><ele>282.0</ele><time>2026-03-22T10:01:28.03Z</time></trkpt><trkpt lat="45.713063" lon="9.8820063"><ele>282.0</ele><time>2026-03-22T10:01:30.029Z</time></trkpt><trkpt lat="45.7130686" lon="9.8821571"><ele>282.2</ele><time>2026-03-22T10:01:31.946Z</time></trkpt><trkpt lat="45.7130609" lon="9.8823228"><ele>282.4</ele><time>2026-03-22T10:01:34.014Z</time></trkpt><trkpt lat="45.7130542" lon="9.8824833"><ele>282.6</ele><time>2026-03-22T10:01:36.029Z</time></trkpt><trkpt lat="45.7130477" lon="9.8826343"><ele>282.8</ele><time>2026-03-22T10:01:37.954Z</time></trkpt><trkpt lat="45.7130545" lon="9.8827898"><ele>283.0</ele><time>2026-03-22T10:01:40.04Z</time></trkpt><trkpt lat="45.713058" lon="9.8829388"><ele>283.0</ele><time>2026-03-22T10:01:41.95Z</time></trkpt><trkpt lat="45.7130679" lon="9.8830803"><ele>283.0</ele><time>2026-03-22T10:01:44.031Z</time></trkpt><trkpt lat="45.713092" lon="9.8832288"><ele>283.0</ele><time>2026-03-22T10:01:45.966Z</time></trkpt><trkpt lat="45.7131183" lon="9.8833685"><ele>283.0</ele><time>2026-03-22T10:01:47.991Z</time></trkpt><trkpt lat="45.7131622" lon="9.8834936"><ele>283.0</ele><time>2026-03-22T10:01:49.968Z</time></trkpt><trkpt lat="45.7132274" lon="9.8836018"><ele>284.0</ele><time>2026-03-22T10:01:51.968Z</time></trkpt><trkpt lat="45.7133109" lon="9.8836902"><ele>285.0</ele><time>2026-03-22T10:01:54.012Z</time></trkpt><trkpt lat="45.7134008" lon="9.8837935"><ele>286.0</ele><time>2026-03-22T10:01:55.962Z</time></trkpt><trkpt lat="45.7134667" lon="9.8839029"><ele>287.0</ele><time>2026-03-22T10:01:57.967Z</time></trkpt><trkpt lat="45.7135209" lon="9.8840498"><ele>288.0</ele><time>2026-03-22T10:01:59.97Z</time></trkpt><trkpt lat="45.7135591" lon="9.8842117"><ele>287.4</ele><time>2026-03-22T10:02:01.966Z</time></trkpt><trkpt lat="45.7135956" lon="9.8843726"><ele>286.8</ele><time>2026-03-22T10:02:03.957Z</time></trkpt><trkpt lat="45.7136273" lon="9.8845243"><ele>286.2</ele><time>2026-03-22T10:02:05.982Z</time></trkpt><trkpt lat="45.71367" lon="9.8846672"><ele>285.6</ele><time>2026-03-22T10:02:07.954Z</time></trkpt><trkpt lat="45.7137103" lon="9.8848017"><ele>285.0</ele><time>2026-03-22T10:02:09.956Z</time></trkpt><trkpt lat="45.7137478" lon="9.8849238"><ele>285.0</ele><time>2026-03-22T10:02:11.949Z</time></trkpt><trkpt lat="45.7137929" lon="9.8850432"><ele>285.0</ele><time>2026-03-22T10:02:13.956Z</time></trkpt><trkpt lat="45.7138413" lon="9.8851607"><ele>285.0</ele><time>2026-03-22T10:02:16.038Z</time></trkpt><trkpt lat="45.7138897" lon="9.8852755"><ele>285.0</ele><time>2026-03-22T10:02:17.962Z</time></trkpt><trkpt lat="45.7139287" lon="9.8853976"><ele>285.0</ele><time>2026-03-22T10:02:19.958Z</time></trkpt><trkpt lat="45.713957" lon="9.8855344"><ele>285.4</ele><time>2026-03-22T10:02:21.959Z</time></trkpt><trkpt lat="45.7139947" lon="9.8856521"><ele>285.8</ele><time>2026-03-22T10:02:24.046Z</time></trkpt><trkpt lat="45.7140349" lon="9.8857562"><ele>286.2</ele><time>2026-03-22T10:02:26.033Z</time></trkpt><trkpt lat="45.7140939" lon="9.8858577"><ele>286.6</ele><time>2026-03-22T10:02:27.936Z</time></trkpt><trkpt lat="45.7141545" lon="9.8859686"><ele>287.0</ele><time>2026-03-22T10:02:29.952Z</time></trkpt><trkpt lat="45.7142172" lon="9.8860913"><ele>286.5</ele><time>2026-03-22T10:02:31.953Z</time></trkpt><trkpt lat="45.714281" lon="9.8862219"><ele>286.0</ele><time>2026-03-22T10:02:34.052Z</time></trkpt><trkpt lat="45.7143239" lon="9.8862883"><ele>285.5</ele><time>2026-03-22T10:02:35.029Z</time></trkpt><trkpt lat="45.7144" lon="9.8864303"><ele>285.0</ele><time>2026-03-22T10:02:36.967Z</time></trkpt><trkpt lat="45.7144468" lon="9.8864976"><ele>284.5</ele><time>2026-03-22T10:02:37.964Z</time></trkpt><trkpt lat="45.7144966" lon="9.8865601"><ele>284.0</ele><time>2026-03-22T10:02:38.967Z</time></trkpt><trkpt lat="45.7145525" lon="9.8866196"><ele>284.0</ele><time>2026-03-22T10:02:40.028Z</time></trkpt><trkpt lat="45.7146534" lon="9.8867137"><ele>284.0</ele><time>2026-03-22T10:02:41.957Z</time></trkpt><trkpt lat="45.7147502" lon="9.8867701"><ele>284.0</ele><time>2026-03-22T10:02:43.992Z</time></trkpt><trkpt lat="45.7148413" lon="9.886799"><ele>284.0</ele><time>2026-03-22T10:02:45.966Z</time></trkpt><trkpt lat="45.7149298" lon="9.8868536"><ele>284.0</ele><time>2026-03-22T10:02:47.95Z</time></trkpt><trkpt lat="45.715013" lon="9.886928"><ele>284.2</ele><time>2026-03-22T10:02:50.034Z</time></trkpt><trkpt lat="45.7150801" lon="9.8870232"><ele>284.4</ele><time>2026-03-22T10:02:51.958Z</time></trkpt><trkpt lat="45.7151605" lon="9.8871231"><ele>284.6</ele><time>2026-03-22T10:02:53.955Z</time></trkpt><trkpt lat="45.7152509" lon="9.8872216"><ele>284.8</ele><time>2026-03-22T10:02:55.955Z</time></trkpt><trkpt lat="45.715334" lon="9.8873254"><ele>285.0</ele><time>2026-03-22T10:02:58.035Z</time></trkpt><trkpt lat="45.7154081" lon="9.8874396"><ele>285.0</ele><time>2026-03-22T10:03:00.043Z</time></trkpt><trkpt lat="45.7154777" lon="9.88755"><ele>285.0</ele><time>2026-03-22T10:03:01.957Z</time></trkpt><trkpt lat="45.7155461" lon="9.8876722"><ele>285.0</ele><time>2026-03-22T10:03:03.96Z</time></trkpt><trkpt lat="45.7156208" lon="9.8878025"><ele>285.0</ele><time>2026-03-22T10:03:06.037Z</time></trkpt><trkpt lat="45.715695" lon="9.8879125"><ele>285.0</ele><time>2026-03-22T10:03:07.957Z</time></trkpt><trkpt lat="45.7157818" lon="9.8880079"><ele>285.2</ele><time>2026-03-22T10:03:10.05Z</time></trkpt><trkpt lat="45.7158625" lon="9.8881002"><ele>285.4</ele><time>2026-03-22T10:03:11.958Z</time></trkpt><trkpt lat="45.7159424" lon="9.8881966"><ele>285.6</ele><time>2026-03-22T10:03:14.06Z</time></trkpt><trkpt lat="45.7160158" lon="9.8882787"><ele>285.8</ele><time>2026-03-22T10:03:16.033Z</time></trkpt><trkpt lat="45.7160956" lon="9.8883602"><ele>286.0</ele><time>2026-03-22T10:03:17.952Z</time></trkpt><trkpt lat="45.7161797" lon="9.8884328"><ele>286.40000000000003</ele><time>2026-03-22T10:03:20.042Z</time></trkpt><trkpt lat="45.7162786" lon="9.8884986"><ele>286.8</ele><time>2026-03-22T10:03:21.961Z</time></trkpt><trkpt lat="45.7163762" lon="9.8885517"><ele>287.20000000000005</ele><time>2026-03-22T10:03:24.072Z</time></trkpt><trkpt lat="45.7164654" lon="9.8885934"><ele>287.6</ele><time>2026-03-22T10:03:25.969Z</time></trkpt><trkpt lat="45.7165583" lon="9.8886471"><ele>288.0</ele><time>2026-03-22T10:03:27.956Z</time></trkpt><trkpt lat="45.7166524" lon="9.8886938"><ele>288.0</ele><time>2026-03-22T10:03:30.029Z</time></trkpt><trkpt lat="45.7167456" lon="9.8887666"><ele>288.0</ele><time>2026-03-22T10:03:31.957Z</time></trkpt><trkpt lat="45.7168199" lon="9.8888514"><ele>288.0</ele><time>2026-03-22T10:03:33.955Z</time></trkpt><trkpt lat="45.7168944" lon="9.888929"><ele>288.0</ele><time>2026-03-22T10:03:35.963Z</time></trkpt><trkpt lat="45.7169674" lon="9.8890223"><ele>288.0</ele><time>2026-03-22T10:03:38.028Z</time></trkpt><trkpt lat="45.7170393" lon="9.8891104"><ele>287.8</ele><time>2026-03-22T10:03:40.033Z</time></trkpt><trkpt lat="45.7171098" lon="9.8892052"><ele>287.6</ele><time>2026-03-22T10:03:41.964Z</time></trkpt><trkpt lat="45.7171827" lon="9.8892906"><ele>287.4</ele><time>2026-03-22T10:03:43.956Z</time></trkpt><trkpt lat="45.7172572" lon="9.8893671"><ele>287.2</ele><time>2026-03-22T10:03:45.982Z</time></trkpt><trkpt lat="45.7173443" lon="9.8894423"><ele>287.0</ele><time>2026-03-22T10:03:47.947Z</time></trkpt><trkpt lat="45.7174306" lon="9.8895019"><ele>287.0</ele><time>2026-03-22T10:03:50.026Z</time></trkpt><trkpt lat="45.7175189" lon="9.8895548"><ele>287.0</ele><time>2026-03-22T10:03:51.959Z</time></trkpt><trkpt lat="45.7176102" lon="9.8895911"><ele>287.0</ele><time>2026-03-22T10:03:53.952Z</time></trkpt><trkpt lat="45.7176931" lon="9.8896365"><ele>287.0</ele><time>2026-03-22T10:03:56.028Z</time></trkpt><trkpt lat="45.7177682" lon="9.8896579"><ele>287.0</ele><time>2026-03-22T10:03:57.953Z</time></trkpt><trkpt lat="45.717847" lon="9.8897041"><ele>287.0</ele><time>2026-03-22T10:03:59.957Z</time></trkpt><trkpt lat="45.7179095" lon="9.8897506"><ele>286.83333333333337</ele><time>2026-03-22T10:04:01.954Z</time></trkpt><trkpt lat="45.7179784" lon="9.8897871"><ele>286.6666666666667</ele><time>2026-03-22T10:04:03.954Z</time></trkpt><trkpt lat="45.7180538" lon="9.8898462"><ele>286.5</ele><time>2026-03-22T10:04:05.983Z</time></trkpt><trkpt lat="45.7181306" lon="9.8899138"><ele>286.3333333333333</ele><time>2026-03-22T10:04:07.952Z</time></trkpt><trkpt lat="45.7182106" lon="9.8899877"><ele>286.16666666666663</ele><time>2026-03-22T10:04:09.964Z</time></trkpt><trkpt lat="45.7182727" lon="9.8900688"><ele>286.0</ele><time>2026-03-22T10:04:11.964Z</time></trkpt><trkpt lat="45.7183317" lon="9.8901382"><ele>286.0</ele><time>2026-03-22T10:04:13.961Z</time></trkpt><trkpt lat="45.7184036" lon="9.8901676"><ele>286.0</ele><time>2026-03-22T10:04:16.956Z</time></trkpt><trkpt lat="45.7184646" lon="9.8901075"><ele>286.0</ele><time>2026-03-22T10:04:18.959Z</time></trkpt><trkpt lat="45.7185202" lon="9.8900341"><ele>286.0</ele><time>2026-03-22T10:04:20.961Z</time></trkpt><trkpt lat="45.7185847" lon="9.8899475"><ele>286.0</ele><time>2026-03-22T10:04:22.956Z</time></trkpt><trkpt lat="45.7186437" lon="9.8898583"><ele>286.0</ele><time>2026-03-22T10:04:24.961Z</time></trkpt><trkpt lat="45.7187012" lon="9.8897792"><ele>287.0</ele><time>2026-03-22T10:04:26.955Z</time></trkpt><trkpt lat="45.7187541" lon="9.8897195"><ele>288.0</ele><time>2026-03-22T10:04:29.037Z</time></trkpt><trkpt lat="45.7188489" lon="9.8897054"><ele>289.0</ele><time>2026-03-22T10:04:31.949Z</time></trkpt><trkpt lat="45.7189219" lon="9.8896895"><ele>290.0</ele><time>2026-03-22T10:04:33.951Z</time></trkpt><trkpt lat="45.7190054" lon="9.8896067"><ele>291.0</ele><time>2026-03-22T10:04:36.027Z</time></trkpt><trkpt lat="45.7190784" lon="9.8895111"><ele>292.0</ele><time>2026-03-22T10:04:37.954Z</time></trkpt><trkpt lat="45.7191498" lon="9.8893911"><ele>292.0</ele><time>2026-03-22T10:04:39.975Z</time></trkpt><trkpt lat="45.7191976" lon="9.8892686"><ele>292.0</ele><time>2026-03-22T10:04:41.958Z</time></trkpt><trkpt lat="45.7192121" lon="9.889154"><ele>292.0</ele><time>2026-03-22T10:04:43.964Z</time></trkpt><trkpt lat="45.7191903" lon="9.8890302"><ele>292.0</ele><time>2026-03-22T10:04:45.955Z</time></trkpt><trkpt lat="45.7191171" lon="9.8889352"><ele>292.0</ele><time>2026-03-22T10:04:47.941Z</time></trkpt><trkpt lat="45.7190214" lon="9.8888871"><ele>292.6</ele><time>2026-03-22T10:04:50.032Z</time></trkpt><trkpt lat="45.7189257" lon="9.8888368"><ele>293.2</ele><time>2026-03-22T10:04:51.966Z</time></trkpt><trkpt lat="45.7188323" lon="9.8887687"><ele>293.8</ele><time>2026-03-22T10:04:53.971Z</time></trkpt><trkpt lat="45.7187574" lon="9.8886843"><ele>294.4</ele><time>2026-03-22T10:04:56.028Z</time></trkpt><trkpt lat="45.7186856" lon="9.888578"><ele>295.0</ele><time>2026-03-22T10:04:57.966Z</time></trkpt><trkpt lat="45.7186338" lon="9.888461"><ele>294.4</ele><time>2026-03-22T10:05:00.043Z</time></trkpt><trkpt lat="45.7185824" lon="9.8883348"><ele>293.8</ele><time>2026-03-22T10:05:01.958Z</time></trkpt><trkpt lat="45.7185406" lon="9.8882134"><ele>293.2</ele><time>2026-03-22T10:05:04.054Z</time></trkpt><trkpt lat="45.7184969" lon="9.8880806"><ele>292.6</ele><time>2026-03-22T10:05:06.035Z</time></trkpt><trkpt lat="45.7184586" lon="9.8879595"><ele>292.0</ele><time>2026-03-22T10:05:07.953Z</time></trkpt><trkpt lat="45.7184286" lon="9.8878243"><ele>292.0</ele><time>2026-03-22T10:05:10.04Z</time></trkpt><trkpt lat="45.7184295" lon="9.8876868"><ele>292.0</ele><time>2026-03-22T10:05:11.961Z</time></trkpt><trkpt lat="45.7184563" lon="9.8875498"><ele>292.0</ele><time>2026-03-22T10:05:14.058Z</time></trkpt><trkpt lat="45.7184965" lon="9.8874294"><ele>292.0</ele><time>2026-03-22T10:05:15.96Z</time></trkpt><trkpt lat="45.7185393" lon="9.8873089"><ele>292.0</ele><time>2026-03-22T10:05:17.958Z</time></trkpt><trkpt lat="45.7185767" lon="9.8871875"><ele>292.6</ele><time>2026-03-22T10:05:19.963Z</time></trkpt><trkpt lat="45.7186065" lon="9.8870495"><ele>293.2</ele><time>2026-03-22T10:05:21.954Z</time></trkpt><trkpt lat="45.7185875" lon="9.8869098"><ele>293.8</ele><time>2026-03-22T10:05:24.003Z</time></trkpt><trkpt lat="45.7185667" lon="9.8867769"><ele>294.4</ele><time>2026-03-22T10:05:25.951Z</time></trkpt><trkpt lat="45.7185472" lon="9.88663"><ele>295.0</ele><time>2026-03-22T10:05:27.942Z</time></trkpt><trkpt lat="45.7185371" lon="9.8864833"><ele>297.0</ele><time>2026-03-22T10:05:30.029Z</time></trkpt><trkpt lat="45.718515" lon="9.8863458"><ele>299.0</ele><time>2026-03-22T10:05:31.955Z</time></trkpt><trkpt lat="45.71849" lon="9.886219"><ele>301.0</ele><time>2026-03-22T10:05:33.967Z</time></trkpt><trkpt lat="45.7184477" lon="9.8860867"><ele>303.0</ele><time>2026-03-22T10:05:36.031Z</time></trkpt><trkpt lat="45.718411" lon="9.8859542"><ele>305.0</ele><time>2026-03-22T10:05:37.948Z</time></trkpt><trkpt lat="45.7183644" lon="9.8858301"><ele>305.6</ele><time>2026-03-22T10:05:40.035Z</time></trkpt><trkpt lat="45.7183162" lon="9.8857091"><ele>306.2</ele><time>2026-03-22T10:05:41.948Z</time></trkpt><trkpt lat="45.7182561" lon="9.8855957"><ele>306.8</ele><time>2026-03-22T10:05:44.03Z</time></trkpt><trkpt lat="45.7182022" lon="9.8854924"><ele>307.4</ele><time>2026-03-22T10:05:46.04Z</time></trkpt><trkpt lat="45.7181449" lon="9.8853962"><ele>308.0</ele><time>2026-03-22T10:05:47.956Z</time></trkpt><trkpt lat="45.7180947" lon="9.8852989"><ele>308.0</ele><time>2026-03-22T10:05:50.032Z</time></trkpt><trkpt lat="45.7180408" lon="9.8851893"><ele>308.0</ele><time>2026-03-22T10:05:51.965Z</time></trkpt><trkpt lat="45.7179732" lon="9.8850888"><ele>308.0</ele><time>2026-03-22T10:05:53.967Z</time></trkpt><trkpt lat="45.7179051" lon="9.8849991"><ele>308.0</ele><time>2026-03-22T10:05:55.966Z</time></trkpt><trkpt lat="45.7178331" lon="9.8849144"><ele>308.0</ele><time>2026-03-22T10:05:57.961Z</time></trkpt><trkpt lat="45.7177547" lon="9.8848432"><ele>307.4</ele><time>2026-03-22T10:06:00.044Z</time></trkpt><trkpt lat="45.7176837" lon="9.8847678"><ele>306.8</ele><time>2026-03-22T10:06:01.968Z</time></trkpt><trkpt lat="45.71761" lon="9.8846884"><ele>306.2</ele><time>2026-03-22T10:06:03.974Z</time></trkpt><trkpt lat="45.7175507" lon="9.8845888"><ele>305.6</ele><time>2026-03-22T10:06:05.952Z</time></trkpt><trkpt lat="45.7174886" lon="9.8844753"><ele>305.0</ele><time>2026-03-22T10:06:07.951Z</time></trkpt><trkpt lat="45.7174474" lon="9.8843475"><ele>306.8</ele><time>2026-03-22T10:06:09.96Z</time></trkpt><trkpt lat="45.7174307" lon="9.884202"><ele>308.6</ele><time>2026-03-22T10:06:11.962Z</time></trkpt><trkpt lat="45.7174257" lon="9.8840742"><ele>310.4</ele><time>2026-03-22T10:06:14.064Z</time></trkpt><trkpt lat="45.7174133" lon="9.8839457"><ele>312.2</ele><time>2026-03-22T10:06:16.03Z</time></trkpt><trkpt lat="45.7174002" lon="9.8838201"><ele>314.0</ele><time>2026-03-22T10:06:17.966Z</time></trkpt><trkpt lat="45.7173925" lon="9.8836954"><ele>314.0</ele><time>2026-03-22T10:06:19.962Z</time></trkpt><trkpt lat="45.7173795" lon="9.8835689"><ele>314.0</ele><time>2026-03-22T10:06:21.968Z</time></trkpt><trkpt lat="45.7173569" lon="9.8834456"><ele>314.0</ele><time>2026-03-22T10:06:24.03Z</time></trkpt><trkpt lat="45.7173103" lon="9.8833152"><ele>314.0</ele><time>2026-03-22T10:06:25.947Z</time></trkpt><trkpt lat="45.717248" lon="9.8832066"><ele>314.0</ele><time>2026-03-22T10:06:27.936Z</time></trkpt><trkpt lat="45.7171844" lon="9.883091"><ele>316.0</ele><time>2026-03-22T10:06:29.974Z</time></trkpt><trkpt lat="45.7171276" lon="9.8829719"><ele>318.0</ele><time>2026-03-22T10:06:31.961Z</time></trkpt><trkpt lat="45.7170732" lon="9.8828395"><ele>320.0</ele><time>2026-03-22T10:06:34.057Z</time></trkpt><trkpt lat="45.7170204" lon="9.8827044"><ele>322.0</ele><time>2026-03-22T10:06:36.035Z</time></trkpt><trkpt lat="45.7169779" lon="9.882559"><ele>324.0</ele><time>2026-03-22T10:06:37.959Z</time></trkpt><trkpt lat="45.7169468" lon="9.882408"><ele>325.0</ele><time>2026-03-22T10:06:40.034Z</time></trkpt><trkpt lat="45.7169256" lon="9.8822653"><ele>326.0</ele><time>2026-03-22T10:06:41.959Z</time></trkpt><trkpt lat="45.716913" lon="9.8821099"><ele>327.0</ele><time>2026-03-22T10:06:44.034Z</time></trkpt><trkpt lat="45.716892" lon="9.8819581"><ele>328.0</ele><time>2026-03-22T10:06:45.961Z</time></trkpt><trkpt lat="45.7168752" lon="9.8818148"><ele>329.0</ele><time>2026-03-22T10:06:47.953Z</time></trkpt><trkpt lat="45.7168577" lon="9.8816894"><ele>326.6666666666667</ele><time>2026-03-22T10:06:50.028Z</time></trkpt><trkpt lat="45.7168433" lon="9.8815571"><ele>324.33333333333337</ele><time>2026-03-22T10:06:51.952Z</time></trkpt><trkpt lat="45.7168362" lon="9.8814381"><ele>322.0</ele><time>2026-03-22T10:06:53.953Z</time></trkpt><trkpt lat="45.7168262" lon="9.8813179"><ele>319.6666666666667</ele><time>2026-03-22T10:06:56.054Z</time></trkpt><trkpt lat="45.7168165" lon="9.8811967"><ele>317.3333333333333</ele><time>2026-03-22T10:06:57.964Z</time></trkpt><trkpt lat="45.7167908" lon="9.8810672"><ele>315.0</ele><time>2026-03-22T10:06:59.961Z</time></trkpt><trkpt lat="45.7167779" lon="9.8809465"><ele>315.5</ele><time>2026-03-22T10:07:01.963Z</time></trkpt><trkpt lat="45.7167726" lon="9.8808249"><ele>316.0</ele><time>2026-03-22T10:07:03.958Z</time></trkpt><trkpt lat="45.7167634" lon="9.8807123"><ele>316.5</ele><time>2026-03-22T10:07:05.958Z</time></trkpt><trkpt lat="45.7167337" lon="9.8805912"><ele>317.0</ele><time>2026-03-22T10:07:07.951Z</time></trkpt><trkpt lat="45.7167095" lon="9.8804663"><ele>317.5</ele><time>2026-03-22T10:07:10.035Z</time></trkpt><trkpt lat="45.7166828" lon="9.8803404"><ele>318.0</ele><time>2026-03-22T10:07:11.961Z</time></trkpt><trkpt lat="45.7166743" lon="9.8802002"><ele>318.0</ele><time>2026-03-22T10:07:13.965Z</time></trkpt><trkpt lat="45.7167208" lon="9.8800825"><ele>318.0</ele><time>2026-03-22T10:07:16.013Z</time></trkpt><trkpt lat="45.7167498" lon="9.8799812"><ele>318.0</ele><time>2026-03-22T10:07:17.961Z</time></trkpt><trkpt lat="45.7167844" lon="9.879888"><ele>318.0</ele><time>2026-03-22T10:07:19.948Z</time></trkpt><trkpt lat="45.7168135" lon="9.879783"><ele>318.0</ele><time>2026-03-22T10:07:21.963Z</time></trkpt><trkpt lat="45.7168445" lon="9.8796784"><ele>318.0</ele><time>2026-03-22T10:07:23.961Z</time></trkpt><trkpt lat="45.7168922" lon="9.8796047"><ele>320.6666666666667</ele><time>2026-03-22T10:07:25.96Z</time></trkpt><trkpt lat="45.7169357" lon="9.8795294"><ele>323.3333333333333</ele><time>2026-03-22T10:07:27.954Z</time></trkpt><trkpt lat="45.7169849" lon="9.8794166"><ele>326.0</ele><time>2026-03-22T10:07:30.963Z</time></trkpt><trkpt lat="45.7170229" lon="9.879338"><ele>328.66666666666663</ele><time>2026-03-22T10:07:32.958Z</time></trkpt><trkpt lat="45.7170547" lon="9.8792491"><ele>331.3333333333333</ele><time>2026-03-22T10:07:34.963Z</time></trkpt><trkpt lat="45.7170952" lon="9.8791367"><ele>334.0</ele><time>2026-03-22T10:07:37.962Z</time></trkpt><trkpt lat="45.7171359" lon="9.8790226"><ele>334.4</ele><time>2026-03-22T10:07:40.961Z</time></trkpt><trkpt lat="45.717171" lon="9.8789041"><ele>334.79999999999995</ele><time>2026-03-22T10:07:43.961Z</time></trkpt><trkpt lat="45.7172108" lon="9.8787918"><ele>335.20000000000005</ele><time>2026-03-22T10:07:46.97Z</time></trkpt><trkpt lat="45.7172568" lon="9.8786765"><ele>335.6</ele><time>2026-03-22T10:07:49.963Z</time></trkpt><trkpt lat="45.7172979" lon="9.8785649"><ele>336.0</ele><time>2026-03-22T10:07:52.964Z</time></trkpt><trkpt lat="45.7173565" lon="9.8784604"><ele>335.1666666666667</ele><time>2026-03-22T10:07:56.031Z</time></trkpt><trkpt lat="45.7173875" lon="9.8783772"><ele>334.3333333333333</ele><time>2026-03-22T10:07:57.957Z</time></trkpt><trkpt lat="45.7174497" lon="9.8782906"><ele>333.5</ele><time>2026-03-22T10:08:00.96Z</time></trkpt><trkpt lat="45.7174975" lon="9.8781829"><ele>332.66666666666663</ele><time>2026-03-22T10:08:04.032Z</time></trkpt><trkpt lat="45.7175539" lon="9.8780783"><ele>331.8333333333333</ele><time>2026-03-22T10:08:06.956Z</time></trkpt><trkpt lat="45.7176127" lon="9.877973"><ele>331.0</ele><time>2026-03-22T10:08:09.959Z</time></trkpt><trkpt lat="45.7176573" lon="9.8778474"><ele>331.0</ele><time>2026-03-22T10:08:12.962Z</time></trkpt><trkpt lat="45.7177117" lon="9.8777613"><ele>331.0</ele><time>2026-03-22T10:08:16.029Z</time></trkpt><trkpt lat="45.7177686" lon="9.877704"><ele>331.0</ele><time>2026-03-22T10:08:18.965Z</time></trkpt><trkpt lat="45.7178353" lon="9.877668"><ele>331.0</ele><time>2026-03-22T10:08:21.974Z</time></trkpt><trkpt lat="45.7179162" lon="9.8776458"><ele>331.0</ele><time>2026-03-22T10:08:24.963Z</time></trkpt><trkpt lat="45.7179937" lon="9.8776446"><ele>331.0</ele><time>2026-03-22T10:08:27.958Z</time></trkpt><trkpt lat="45.7180641" lon="9.877645"><ele>334.2857142857143</ele><time>2026-03-22T10:08:30.949Z</time></trkpt><trkpt lat="45.7181368" lon="9.8776712"><ele>337.57142857142856</ele><time>2026-03-22T10:08:33.956Z</time></trkpt><trkpt lat="45.7182047" lon="9.8776851"><ele>340.8571428571429</ele><time>2026-03-22T10:08:36.946Z</time></trkpt><trkpt lat="45.7182712" lon="9.8776933"><ele>344.1428571428571</ele><time>2026-03-22T10:08:39.95Z</time></trkpt><trkpt lat="45.7183391" lon="9.8777064"><ele>347.4285714285714</ele><time>2026-03-22T10:08:42.954Z</time></trkpt><trkpt lat="45.7184069" lon="9.8777055"><ele>350.7142857142857</ele><time>2026-03-22T10:08:45.955Z</time></trkpt><trkpt lat="45.7184796" lon="9.8776947"><ele>354.0</ele><time>2026-03-22T10:08:49.03Z</time></trkpt><trkpt lat="45.7185464" lon="9.8776663"><ele>354.0</ele><time>2026-03-22T10:08:51.955Z</time></trkpt><trkpt lat="45.7186102" lon="9.8776663"><ele>354.0</ele><time>2026-03-22T10:08:55.962Z</time></trkpt><trkpt lat="45.7186043" lon="9.8777667"><ele>354.0</ele><time>2026-03-22T10:08:58.955Z</time></trkpt><trkpt lat="45.7186005" lon="9.8778587"><ele>354.0</ele><time>2026-03-22T10:09:01.949Z</time></trkpt><trkpt lat="45.7185744" lon="9.8779481"><ele>354.0</ele><time>2026-03-22T10:09:04.948Z</time></trkpt><trkpt lat="45.7185557" lon="9.8780635"><ele>354.0</ele><time>2026-03-22T10:09:08.952Z</time></trkpt><trkpt lat="45.718533" lon="9.8781589"><ele>354.0</ele><time>2026-03-22T10:09:11.955Z</time></trkpt><trkpt lat="45.7185059" lon="9.8782529"><ele>354.0</ele><time>2026-03-22T10:09:14.95Z</time></trkpt><trkpt lat="45.7184838" lon="9.8783518"><ele>354.0</ele><time>2026-03-22T10:09:17.95Z</time></trkpt><trkpt lat="45.7184768" lon="9.8784573"><ele>354.0</ele><time>2026-03-22T10:09:21.03Z</time></trkpt><trkpt lat="45.7184669" lon="9.8785644"><ele>354.0</ele><time>2026-03-22T10:09:23.967Z</time></trkpt><trkpt lat="45.7184387" lon="9.878654"><ele>354.0</ele><time>2026-03-22T10:09:27.97Z</time></trkpt><trkpt lat="45.7183538" lon="9.8786862"><ele>354.0</ele><time>2026-03-22T10:09:59.96Z</time></trkpt><trkpt lat="45.7183553" lon="9.8787922"><ele>354.0</ele><time>2026-03-22T10:10:04.034Z</time></trkpt><trkpt lat="45.7183278" lon="9.878874"><ele>354.0</ele><time>2026-03-22T10:10:06.96Z</time></trkpt><trkpt lat="45.7183913" lon="9.8788012"><ele>354.0</ele><time>2026-03-22T10:10:25.949Z</time></trkpt><trkpt lat="45.7183903" lon="9.8786794"><ele>354.0</ele><time>2026-03-22T10:10:26.96Z</time></trkpt><trkpt lat="45.7183422" lon="9.8785978"><ele>354.0</ele><time>2026-03-22T10:10:27.963Z</time></trkpt><trkpt lat="45.718326" lon="9.8784957"><ele>354.0</ele><time>2026-03-22T10:10:30.94Z</time></trkpt><trkpt lat="45.7182891" lon="9.8784099"><ele>354.0</ele><time>2026-03-22T10:10:32.945Z</time></trkpt><trkpt lat="45.7182566" lon="9.878327"><ele>354.0</ele><time>2026-03-22T10:10:33.954Z</time></trkpt><trkpt lat="45.7182665" lon="9.8781998"><ele>354.0</ele><time>2026-03-22T10:10:34.953Z</time></trkpt><trkpt lat="45.7182742" lon="9.8780491"><ele>354.0</ele><time>2026-03-22T10:10:35.948Z</time></trkpt><trkpt lat="45.7182747" lon="9.8779291"><ele>354.0</ele><time>2026-03-22T10:10:36.949Z</time></trkpt><trkpt lat="45.7183324" lon="9.878038"><ele>354.0</ele><time>2026-03-22T10:10:39.95Z</time></trkpt><trkpt lat="45.7183316" lon="9.8782025"><ele>354.0</ele><time>2026-03-22T10:10:42.953Z</time></trkpt><trkpt lat="45.7183326" lon="9.8783217"><ele>354.0</ele><time>2026-03-22T10:10:48.961Z</time></trkpt><trkpt lat="45.7183335" lon="9.878435"><ele>354.0</ele><time>2026-03-22T10:10:54.961Z</time></trkpt><trkpt lat="45.7183406" lon="9.878526"><ele>354.0</ele><time>2026-03-22T10:10:59.957Z</time></trkpt><trkpt lat="45.7184055" lon="9.8785599"><ele>354.0</ele><time>2026-03-22T10:11:15.95Z</time></trkpt><trkpt lat="45.7184811" lon="9.8786118"><ele>354.0</ele><time>2026-03-22T10:11:20.015Z</time></trkpt><trkpt lat="45.7184148" lon="9.8786629"><ele>354.0</ele><time>2026-03-22T10:11:29.007Z</time></trkpt><trkpt lat="45.7183516" lon="9.8786182"><ele>354.0</ele><time>2026-03-22T10:11:50.958Z</time></trkpt><trkpt lat="45.7182693" lon="9.878549"><ele>354.0</ele><time>2026-03-22T10:11:54.949Z</time></trkpt><trkpt lat="45.7182071" lon="9.8784894"><ele>354.0</ele><time>2026-03-22T10:11:57.02Z</time></trkpt><trkpt lat="45.7181068" lon="9.8784425"><ele>354.0</ele><time>2026-03-22T10:11:58.943Z</time></trkpt><trkpt lat="45.7180151" lon="9.8783703"><ele>354.0</ele><time>2026-03-22T10:12:00.944Z</time></trkpt><trkpt lat="45.7179538" lon="9.8783326"><ele>354.0</ele><time>2026-03-22T10:12:01.943Z</time></trkpt><trkpt lat="45.7178871" lon="9.8782969"><ele>354.0</ele><time>2026-03-22T10:12:02.936Z</time></trkpt><trkpt lat="45.7178318" lon="9.8782477"><ele>354.0</ele><time>2026-03-22T10:12:03.935Z</time></trkpt><trkpt lat="45.7177447" lon="9.8781427"><ele>354.0</ele><time>2026-03-22T10:12:05.945Z</time></trkpt><trkpt lat="45.7176769" lon="9.878127"><ele>354.0</ele><time>2026-03-22T10:12:07.938Z</time></trkpt><trkpt lat="45.717592" lon="9.8781489"><ele>358.0</ele><time>2026-03-22T10:12:09.94Z</time></trkpt><trkpt lat="45.7183539" lon="9.8789316"><ele>358.0</ele><time>2026-03-22T10:12:42.53Z</time></trkpt></trkseg></trk></gpx>